<?xml version="1.0" encoding="UTF-8" standalone="no" ?>
<gpx xmlns="http://www.topografix.com/GPX/1/1" xmlns:xsi="http://www.w3.org/2001/XMLSchema-instance" xsi:schemaLocation="http://www.topografix.com/GPX/1/1 http://www.topografix.com/GPX/1/1/gpx.xsd" version="1.1" creator="VisuGPX - https://www.visugpx.com">
  <metadata>
    <name>Crestes et ses 13 virages</name>
    <desc><![CDATA[trace roulée en aout 2024, pas mal de route malheureusement mais vu la région il n'y a pas beaucoup de singles vtt dans les coins.
traversée du superbe village du Fel, tres belle vue sur les gorges tout le long du parcours
derniere descente peu entretenue, attention arbres et ronces en travers le jour du roulage, sinon elle n'est pas tres technique et plutot roulante]]></desc>
  </metadata>
  <trk>
    <name><![CDATA[Crestes et ses 13 virages_1]]></name>
    <trkseg>
      <trkpt lat="44.64988" lon="2.56632">
        <ele>239.4</ele>
        <time>2024-08-13T07:28:58Z</time>
      </trkpt>
      <trkpt lat="44.64988" lon="2.56632">
        <ele>239.4</ele>
        <time>2024-08-13T07:28:59Z</time>
      </trkpt>
      <trkpt lat="44.64985" lon="2.56623">
        <ele>239.4</ele>
        <time>2024-08-13T07:30:05Z</time>
      </trkpt>
      <trkpt lat="44.64983" lon="2.56621">
        <ele>239.4</ele>
        <time>2024-08-13T07:30:06Z</time>
      </trkpt>
      <trkpt lat="44.64981" lon="2.56617">
        <ele>239.3</ele>
        <time>2024-08-13T07:30:08Z</time>
      </trkpt>
      <trkpt lat="44.64968" lon="2.56604">
        <ele>238.9</ele>
        <time>2024-08-13T07:30:15Z</time>
      </trkpt>
      <trkpt lat="44.64965" lon="2.56599">
        <ele>238.8</ele>
        <time>2024-08-13T07:30:17Z</time>
      </trkpt>
      <trkpt lat="44.64962" lon="2.56597">
        <ele>238.7</ele>
        <time>2024-08-13T07:30:18Z</time>
      </trkpt>
      <trkpt lat="44.6496" lon="2.56595">
        <ele>238.7</ele>
        <time>2024-08-13T07:30:19Z</time>
      </trkpt>
      <trkpt lat="44.64958" lon="2.56592">
        <ele>238.7</ele>
        <time>2024-08-13T07:30:20Z</time>
      </trkpt>
      <trkpt lat="44.64955" lon="2.5659">
        <ele>238.6</ele>
        <time>2024-08-13T07:30:21Z</time>
      </trkpt>
      <trkpt lat="44.64948" lon="2.56582">
        <ele>238.5</ele>
        <time>2024-08-13T07:30:25Z</time>
      </trkpt>
      <trkpt lat="44.64932" lon="2.56568">
        <ele>238.3</ele>
        <time>2024-08-13T07:30:30Z</time>
      </trkpt>
      <trkpt lat="44.64918" lon="2.56554">
        <ele>238.1</ele>
        <time>2024-08-13T07:30:35Z</time>
      </trkpt>
      <trkpt lat="44.64907" lon="2.56543">
        <ele>238</ele>
        <time>2024-08-13T07:30:39Z</time>
      </trkpt>
      <trkpt lat="44.6489" lon="2.56528">
        <ele>237.9</ele>
        <time>2024-08-13T07:30:45Z</time>
      </trkpt>
      <trkpt lat="44.64875" lon="2.56514">
        <ele>237.8</ele>
        <time>2024-08-13T07:30:51Z</time>
      </trkpt>
      <trkpt lat="44.64859" lon="2.56501">
        <ele>237.7</ele>
        <time>2024-08-13T07:30:56Z</time>
      </trkpt>
      <trkpt lat="44.64843" lon="2.56487">
        <ele>237.5</ele>
        <time>2024-08-13T07:31:00Z</time>
      </trkpt>
      <trkpt lat="44.64838" lon="2.56483">
        <ele>237.5</ele>
        <time>2024-08-13T07:31:01Z</time>
      </trkpt>
      <trkpt lat="44.64816" lon="2.5645">
        <ele>237.4</ele>
        <time>2024-08-13T07:31:08Z</time>
      </trkpt>
      <trkpt lat="44.64807" lon="2.56438">
        <ele>237.3</ele>
        <time>2024-08-13T07:31:11Z</time>
      </trkpt>
      <trkpt lat="44.64804" lon="2.56433">
        <ele>237.3</ele>
        <time>2024-08-13T07:31:12Z</time>
      </trkpt>
      <trkpt lat="44.64791" lon="2.56421">
        <ele>237.2</ele>
        <time>2024-08-13T07:31:15Z</time>
      </trkpt>
      <trkpt lat="44.64779" lon="2.56411">
        <ele>237.1</ele>
        <time>2024-08-13T07:31:18Z</time>
      </trkpt>
      <trkpt lat="44.64769" lon="2.56403">
        <ele>237.1</ele>
        <time>2024-08-13T07:31:20Z</time>
      </trkpt>
      <trkpt lat="44.64765" lon="2.564">
        <ele>237.1</ele>
        <time>2024-08-13T07:31:21Z</time>
      </trkpt>
      <trkpt lat="44.64755" lon="2.56392">
        <ele>237.1</ele>
        <time>2024-08-13T07:31:23Z</time>
      </trkpt>
      <trkpt lat="44.64746" lon="2.56385">
        <ele>237.1</ele>
        <time>2024-08-13T07:31:25Z</time>
      </trkpt>
      <trkpt lat="44.64729" lon="2.56369">
        <ele>237.1</ele>
        <time>2024-08-13T07:31:29Z</time>
      </trkpt>
      <trkpt lat="44.64713" lon="2.56354">
        <ele>237.1</ele>
        <time>2024-08-13T07:31:33Z</time>
      </trkpt>
      <trkpt lat="44.64695" lon="2.56335">
        <ele>237.1</ele>
        <time>2024-08-13T07:31:37Z</time>
      </trkpt>
      <trkpt lat="44.64686" lon="2.56326">
        <ele>237.1</ele>
        <time>2024-08-13T07:31:39Z</time>
      </trkpt>
      <trkpt lat="44.64681" lon="2.5632">
        <ele>237.1</ele>
        <time>2024-08-13T07:31:40Z</time>
      </trkpt>
      <trkpt lat="44.64666" lon="2.56303">
        <ele>237</ele>
        <time>2024-08-13T07:31:44Z</time>
      </trkpt>
      <trkpt lat="44.64649" lon="2.56286">
        <ele>237</ele>
        <time>2024-08-13T07:31:48Z</time>
      </trkpt>
      <trkpt lat="44.64639" lon="2.56276">
        <ele>237</ele>
        <time>2024-08-13T07:31:50Z</time>
      </trkpt>
      <trkpt lat="44.64624" lon="2.56264">
        <ele>236.9</ele>
        <time>2024-08-13T07:31:53Z</time>
      </trkpt>
      <trkpt lat="44.64619" lon="2.5626">
        <ele>236.9</ele>
        <time>2024-08-13T07:31:54Z</time>
      </trkpt>
      <trkpt lat="44.64596" lon="2.56242">
        <ele>236.8</ele>
        <time>2024-08-13T07:31:59Z</time>
      </trkpt>
      <trkpt lat="44.64577" lon="2.5623">
        <ele>236.7</ele>
        <time>2024-08-13T07:32:03Z</time>
      </trkpt>
      <trkpt lat="44.64559" lon="2.56221">
        <ele>236.5</ele>
        <time>2024-08-13T07:32:07Z</time>
      </trkpt>
      <trkpt lat="44.64554" lon="2.56219">
        <ele>236.5</ele>
        <time>2024-08-13T07:32:08Z</time>
      </trkpt>
      <trkpt lat="44.64543" lon="2.56214">
        <ele>236.4</ele>
        <time>2024-08-13T07:32:10Z</time>
      </trkpt>
      <trkpt lat="44.64532" lon="2.5621">
        <ele>236.2</ele>
        <time>2024-08-13T07:32:12Z</time>
      </trkpt>
      <trkpt lat="44.64526" lon="2.56209">
        <ele>236.2</ele>
        <time>2024-08-13T07:32:13Z</time>
      </trkpt>
      <trkpt lat="44.64498" lon="2.562">
        <ele>236</ele>
        <time>2024-08-13T07:32:18Z</time>
      </trkpt>
      <trkpt lat="44.64475" lon="2.56193">
        <ele>235.8</ele>
        <time>2024-08-13T07:32:23Z</time>
      </trkpt>
      <trkpt lat="44.64464" lon="2.56191">
        <ele>235.7</ele>
        <time>2024-08-13T07:32:25Z</time>
      </trkpt>
      <trkpt lat="44.64449" lon="2.56191">
        <ele>235.5</ele>
        <time>2024-08-13T07:32:28Z</time>
      </trkpt>
      <trkpt lat="44.64429" lon="2.56189">
        <ele>235.5</ele>
        <time>2024-08-13T07:32:32Z</time>
      </trkpt>
      <trkpt lat="44.64415" lon="2.56186">
        <ele>235.5</ele>
        <time>2024-08-13T07:32:35Z</time>
      </trkpt>
      <trkpt lat="44.6441" lon="2.56185">
        <ele>235.5</ele>
        <time>2024-08-13T07:32:36Z</time>
      </trkpt>
      <trkpt lat="44.6438" lon="2.56185">
        <ele>235.7</ele>
        <time>2024-08-13T07:32:43Z</time>
      </trkpt>
      <trkpt lat="44.64344" lon="2.56191">
        <ele>235.8</ele>
        <time>2024-08-13T07:32:51Z</time>
      </trkpt>
      <trkpt lat="44.64313" lon="2.56198">
        <ele>235.7</ele>
        <time>2024-08-13T07:32:58Z</time>
      </trkpt>
      <trkpt lat="44.64301" lon="2.56198">
        <ele>235.7</ele>
        <time>2024-08-13T07:33:01Z</time>
      </trkpt>
      <trkpt lat="44.64294" lon="2.56198">
        <ele>235.7</ele>
        <time>2024-08-13T07:33:03Z</time>
      </trkpt>
      <trkpt lat="44.64271" lon="2.562">
        <ele>235.7</ele>
        <time>2024-08-13T07:33:09Z</time>
      </trkpt>
      <trkpt lat="44.64245" lon="2.56199">
        <ele>235.6</ele>
        <time>2024-08-13T07:33:15Z</time>
      </trkpt>
      <trkpt lat="44.64236" lon="2.56197">
        <ele>235.5</ele>
        <time>2024-08-13T07:33:17Z</time>
      </trkpt>
      <trkpt lat="44.64206" lon="2.56186">
        <ele>235.6</ele>
        <time>2024-08-13T07:33:24Z</time>
      </trkpt>
      <trkpt lat="44.64178" lon="2.56172">
        <ele>235.7</ele>
        <time>2024-08-13T07:33:31Z</time>
      </trkpt>
      <trkpt lat="44.64173" lon="2.56171">
        <ele>235.7</ele>
        <time>2024-08-13T07:33:32Z</time>
      </trkpt>
      <trkpt lat="44.64152" lon="2.56166">
        <ele>235.6</ele>
        <time>2024-08-13T07:33:37Z</time>
      </trkpt>
      <trkpt lat="44.64144" lon="2.56162">
        <ele>235.6</ele>
        <time>2024-08-13T07:33:39Z</time>
      </trkpt>
      <trkpt lat="44.64127" lon="2.56155">
        <ele>235.6</ele>
        <time>2024-08-13T07:33:43Z</time>
      </trkpt>
      <trkpt lat="44.64123" lon="2.56153">
        <ele>235.6</ele>
        <time>2024-08-13T07:33:44Z</time>
      </trkpt>
      <trkpt lat="44.64107" lon="2.56144">
        <ele>235.5</ele>
        <time>2024-08-13T07:33:48Z</time>
      </trkpt>
      <trkpt lat="44.64081" lon="2.56132">
        <ele>235.6</ele>
        <time>2024-08-13T07:33:54Z</time>
      </trkpt>
      <trkpt lat="44.64059" lon="2.56121">
        <ele>235.5</ele>
        <time>2024-08-13T07:33:59Z</time>
      </trkpt>
      <trkpt lat="44.64028" lon="2.56103">
        <ele>235.1</ele>
        <time>2024-08-13T07:34:06Z</time>
      </trkpt>
      <trkpt lat="44.64018" lon="2.56101">
        <ele>235.1</ele>
        <time>2024-08-13T07:34:08Z</time>
      </trkpt>
      <trkpt lat="44.64009" lon="2.56101">
        <ele>235.1</ele>
        <time>2024-08-13T07:34:10Z</time>
      </trkpt>
      <trkpt lat="44.64004" lon="2.56102">
        <ele>235.1</ele>
        <time>2024-08-13T07:34:11Z</time>
      </trkpt>
      <trkpt lat="44.63982" lon="2.56102">
        <ele>235.1</ele>
        <time>2024-08-13T07:34:16Z</time>
      </trkpt>
      <trkpt lat="44.63977" lon="2.561">
        <ele>235.1</ele>
        <time>2024-08-13T07:34:17Z</time>
      </trkpt>
      <trkpt lat="44.63973" lon="2.56096">
        <ele>235</ele>
        <time>2024-08-13T07:34:18Z</time>
      </trkpt>
      <trkpt lat="44.63967" lon="2.56085">
        <ele>234.9</ele>
        <time>2024-08-13T07:34:20Z</time>
      </trkpt>
      <trkpt lat="44.63964" lon="2.56055">
        <ele>234.7</ele>
        <time>2024-08-13T07:34:24Z</time>
      </trkpt>
      <trkpt lat="44.63962" lon="2.55997">
        <ele>234.6</ele>
        <time>2024-08-13T07:34:32Z</time>
      </trkpt>
      <trkpt lat="44.63963" lon="2.55984">
        <ele>234.5</ele>
        <time>2024-08-13T07:34:34Z</time>
      </trkpt>
      <trkpt lat="44.63966" lon="2.5597">
        <ele>234.5</ele>
        <time>2024-08-13T07:34:36Z</time>
      </trkpt>
      <trkpt lat="44.63971" lon="2.55956">
        <ele>234.5</ele>
        <time>2024-08-13T07:34:38Z</time>
      </trkpt>
      <trkpt lat="44.6398" lon="2.55938">
        <ele>234.5</ele>
        <time>2024-08-13T07:34:41Z</time>
      </trkpt>
      <trkpt lat="44.63988" lon="2.55928">
        <ele>234.5</ele>
        <time>2024-08-13T07:34:43Z</time>
      </trkpt>
      <trkpt lat="44.64" lon="2.55913">
        <ele>234.4</ele>
        <time>2024-08-13T07:34:46Z</time>
      </trkpt>
      <trkpt lat="44.64017" lon="2.55885">
        <ele>234.3</ele>
        <time>2024-08-13T07:34:51Z</time>
      </trkpt>
      <trkpt lat="44.6402" lon="2.55879">
        <ele>234.3</ele>
        <time>2024-08-13T07:34:52Z</time>
      </trkpt>
      <trkpt lat="44.64024" lon="2.55874">
        <ele>234.3</ele>
        <time>2024-08-13T07:34:53Z</time>
      </trkpt>
      <trkpt lat="44.64049" lon="2.55836">
        <ele>234.2</ele>
        <time>2024-08-13T07:35:00Z</time>
      </trkpt>
      <trkpt lat="44.64055" lon="2.55825">
        <ele>234.2</ele>
        <time>2024-08-13T07:35:02Z</time>
      </trkpt>
      <trkpt lat="44.64063" lon="2.55815">
        <ele>234.3</ele>
        <time>2024-08-13T07:35:04Z</time>
      </trkpt>
      <trkpt lat="44.64071" lon="2.55805">
        <ele>234.3</ele>
        <time>2024-08-13T07:35:06Z</time>
      </trkpt>
      <trkpt lat="44.64076" lon="2.55792">
        <ele>234.3</ele>
        <time>2024-08-13T07:35:08Z</time>
      </trkpt>
      <trkpt lat="44.64089" lon="2.5576">
        <ele>234.2</ele>
        <time>2024-08-13T07:35:13Z</time>
      </trkpt>
      <trkpt lat="44.64092" lon="2.55754">
        <ele>234.2</ele>
        <time>2024-08-13T07:35:14Z</time>
      </trkpt>
      <trkpt lat="44.64104" lon="2.55729">
        <ele>234.1</ele>
        <time>2024-08-13T07:35:18Z</time>
      </trkpt>
      <trkpt lat="44.64113" lon="2.55712">
        <ele>234.2</ele>
        <time>2024-08-13T07:35:21Z</time>
      </trkpt>
      <trkpt lat="44.64124" lon="2.55688">
        <ele>234.2</ele>
        <time>2024-08-13T07:35:25Z</time>
      </trkpt>
      <trkpt lat="44.64129" lon="2.55675">
        <ele>234.2</ele>
        <time>2024-08-13T07:35:27Z</time>
      </trkpt>
      <trkpt lat="44.64148" lon="2.55625">
        <ele>234.3</ele>
        <time>2024-08-13T07:35:35Z</time>
      </trkpt>
      <trkpt lat="44.64151" lon="2.55619">
        <ele>234.3</ele>
        <time>2024-08-13T07:35:36Z</time>
      </trkpt>
      <trkpt lat="44.64159" lon="2.55601">
        <ele>234.3</ele>
        <time>2024-08-13T07:35:39Z</time>
      </trkpt>
      <trkpt lat="44.64165" lon="2.55589">
        <ele>234.3</ele>
        <time>2024-08-13T07:35:41Z</time>
      </trkpt>
      <trkpt lat="44.64171" lon="2.55569">
        <ele>234.3</ele>
        <time>2024-08-13T07:35:44Z</time>
      </trkpt>
      <trkpt lat="44.64179" lon="2.55549">
        <ele>234.2</ele>
        <time>2024-08-13T07:35:47Z</time>
      </trkpt>
      <trkpt lat="44.64192" lon="2.55516">
        <ele>234.1</ele>
        <time>2024-08-13T07:35:52Z</time>
      </trkpt>
      <trkpt lat="44.64199" lon="2.55496">
        <ele>234.1</ele>
        <time>2024-08-13T07:35:55Z</time>
      </trkpt>
      <trkpt lat="44.64207" lon="2.55478">
        <ele>234</ele>
        <time>2024-08-13T07:35:58Z</time>
      </trkpt>
      <trkpt lat="44.64215" lon="2.5546">
        <ele>233.9</ele>
        <time>2024-08-13T07:36:01Z</time>
      </trkpt>
      <trkpt lat="44.64218" lon="2.55447">
        <ele>233.9</ele>
        <time>2024-08-13T07:36:03Z</time>
      </trkpt>
      <trkpt lat="44.64234" lon="2.55402">
        <ele>233.6</ele>
        <time>2024-08-13T07:36:10Z</time>
      </trkpt>
      <trkpt lat="44.64249" lon="2.55369">
        <ele>233.5</ele>
        <time>2024-08-13T07:36:16Z</time>
      </trkpt>
      <trkpt lat="44.64251" lon="2.55363">
        <ele>233.5</ele>
        <time>2024-08-13T07:36:17Z</time>
      </trkpt>
      <trkpt lat="44.64253" lon="2.55357">
        <ele>233.5</ele>
        <time>2024-08-13T07:36:18Z</time>
      </trkpt>
      <trkpt lat="44.64259" lon="2.55346">
        <ele>233.4</ele>
        <time>2024-08-13T07:36:20Z</time>
      </trkpt>
      <trkpt lat="44.64263" lon="2.55341">
        <ele>233.4</ele>
        <time>2024-08-13T07:36:21Z</time>
      </trkpt>
      <trkpt lat="44.64267" lon="2.55337">
        <ele>233.5</ele>
        <time>2024-08-13T07:36:22Z</time>
      </trkpt>
      <trkpt lat="44.64283" lon="2.55322">
        <ele>234.7</ele>
        <time>2024-08-13T07:36:26Z</time>
      </trkpt>
      <trkpt lat="44.64285" lon="2.55319">
        <ele>235</ele>
        <time>2024-08-13T07:36:27Z</time>
      </trkpt>
      <trkpt lat="44.64286" lon="2.55308">
        <ele>235.8</ele>
        <time>2024-08-13T07:36:30Z</time>
      </trkpt>
      <trkpt lat="44.64291" lon="2.553">
        <ele>236.7</ele>
        <time>2024-08-13T07:36:35Z</time>
      </trkpt>
      <trkpt lat="44.64292" lon="2.55298">
        <ele>236.9</ele>
        <time>2024-08-13T07:36:36Z</time>
      </trkpt>
      <trkpt lat="44.64294" lon="2.55297">
        <ele>237.1</ele>
        <time>2024-08-13T07:36:37Z</time>
      </trkpt>
      <trkpt lat="44.643" lon="2.55296">
        <ele>237.9</ele>
        <time>2024-08-13T07:36:41Z</time>
      </trkpt>
      <trkpt lat="44.64303" lon="2.55296">
        <ele>238.2</ele>
        <time>2024-08-13T07:36:43Z</time>
      </trkpt>
      <trkpt lat="44.64304" lon="2.55296">
        <ele>238.4</ele>
        <time>2024-08-13T07:36:44Z</time>
      </trkpt>
      <trkpt lat="44.64306" lon="2.55297">
        <ele>238.6</ele>
        <time>2024-08-13T07:36:46Z</time>
      </trkpt>
      <trkpt lat="44.6431" lon="2.553">
        <ele>239.2</ele>
        <time>2024-08-13T07:36:49Z</time>
      </trkpt>
      <trkpt lat="44.64311" lon="2.55301">
        <ele>239.4</ele>
        <time>2024-08-13T07:36:50Z</time>
      </trkpt>
      <trkpt lat="44.64317" lon="2.55306">
        <ele>240.2</ele>
        <time>2024-08-13T07:36:55Z</time>
      </trkpt>
      <trkpt lat="44.64318" lon="2.55307">
        <ele>240.4</ele>
        <time>2024-08-13T07:36:56Z</time>
      </trkpt>
      <trkpt lat="44.6432" lon="2.5531">
        <ele>240.7</ele>
        <time>2024-08-13T07:36:58Z</time>
      </trkpt>
      <trkpt lat="44.64326" lon="2.55313">
        <ele>241.7</ele>
        <time>2024-08-13T07:37:03Z</time>
      </trkpt>
      <trkpt lat="44.6433" lon="2.55316">
        <ele>242.4</ele>
        <time>2024-08-13T07:37:07Z</time>
      </trkpt>
      <trkpt lat="44.64333" lon="2.55317">
        <ele>242.9</ele>
        <time>2024-08-13T07:37:10Z</time>
      </trkpt>
      <trkpt lat="44.64335" lon="2.55316">
        <ele>243.3</ele>
        <time>2024-08-13T07:37:12Z</time>
      </trkpt>
      <trkpt lat="44.64339" lon="2.55316">
        <ele>243.9</ele>
        <time>2024-08-13T07:37:16Z</time>
      </trkpt>
      <trkpt lat="44.64348" lon="2.55316">
        <ele>245.3</ele>
        <time>2024-08-13T07:37:24Z</time>
      </trkpt>
      <trkpt lat="44.64355" lon="2.55317">
        <ele>246.5</ele>
        <time>2024-08-13T07:37:29Z</time>
      </trkpt>
      <trkpt lat="44.64364" lon="2.55319">
        <ele>247.9</ele>
        <time>2024-08-13T07:37:37Z</time>
      </trkpt>
      <trkpt lat="44.64366" lon="2.5532">
        <ele>248</ele>
        <time>2024-08-13T07:37:38Z</time>
      </trkpt>
      <trkpt lat="44.6437" lon="2.55319">
        <ele>248.6</ele>
        <time>2024-08-13T07:37:43Z</time>
      </trkpt>
      <trkpt lat="44.64378" lon="2.55323">
        <ele>249.8</ele>
        <time>2024-08-13T07:37:50Z</time>
      </trkpt>
      <trkpt lat="44.64387" lon="2.55331">
        <ele>251.2</ele>
        <time>2024-08-13T07:37:59Z</time>
      </trkpt>
      <trkpt lat="44.64396" lon="2.55337">
        <ele>252.6</ele>
        <time>2024-08-13T07:38:07Z</time>
      </trkpt>
      <trkpt lat="44.64403" lon="2.55344">
        <ele>253.7</ele>
        <time>2024-08-13T07:38:14Z</time>
      </trkpt>
      <trkpt lat="44.64408" lon="2.55357">
        <ele>255.1</ele>
        <time>2024-08-13T07:38:24Z</time>
      </trkpt>
      <trkpt lat="44.6441" lon="2.5537">
        <ele>256.3</ele>
        <time>2024-08-13T07:38:32Z</time>
      </trkpt>
      <trkpt lat="44.6441" lon="2.55384">
        <ele>257.4</ele>
        <time>2024-08-13T07:38:40Z</time>
      </trkpt>
      <trkpt lat="44.6441" lon="2.55394">
        <ele>258.2</ele>
        <time>2024-08-13T07:38:45Z</time>
      </trkpt>
      <trkpt lat="44.64409" lon="2.55398">
        <ele>258.6</ele>
        <time>2024-08-13T07:38:48Z</time>
      </trkpt>
      <trkpt lat="44.64402" lon="2.55409">
        <ele>259.7</ele>
        <time>2024-08-13T07:38:57Z</time>
      </trkpt>
      <trkpt lat="44.64392" lon="2.55419">
        <ele>261</ele>
        <time>2024-08-13T07:39:06Z</time>
      </trkpt>
      <trkpt lat="44.6439" lon="2.55424">
        <ele>261.4</ele>
        <time>2024-08-13T07:39:10Z</time>
      </trkpt>
      <trkpt lat="44.64388" lon="2.55427">
        <ele>261.7</ele>
        <time>2024-08-13T07:39:12Z</time>
      </trkpt>
      <trkpt lat="44.64385" lon="2.55437">
        <ele>262.5</ele>
        <time>2024-08-13T07:39:19Z</time>
      </trkpt>
      <trkpt lat="44.64379" lon="2.55454">
        <ele>263.5</ele>
        <time>2024-08-13T07:39:29Z</time>
      </trkpt>
      <trkpt lat="44.64376" lon="2.5547">
        <ele>264.3</ele>
        <time>2024-08-13T07:39:37Z</time>
      </trkpt>
      <trkpt lat="44.64376" lon="2.55486">
        <ele>265.2</ele>
        <time>2024-08-13T07:39:46Z</time>
      </trkpt>
      <trkpt lat="44.64381" lon="2.55499">
        <ele>266.1</ele>
        <time>2024-08-13T07:39:54Z</time>
      </trkpt>
      <trkpt lat="44.64393" lon="2.55513">
        <ele>266.7</ele>
        <time>2024-08-13T07:40:01Z</time>
      </trkpt>
      <trkpt lat="44.64405" lon="2.5553">
        <ele>267.4</ele>
        <time>2024-08-13T07:40:08Z</time>
      </trkpt>
      <trkpt lat="44.64418" lon="2.55546">
        <ele>268</ele>
        <time>2024-08-13T07:40:15Z</time>
      </trkpt>
      <trkpt lat="44.64433" lon="2.55569">
        <ele>269.1</ele>
        <time>2024-08-13T07:40:24Z</time>
      </trkpt>
      <trkpt lat="44.64442" lon="2.55581">
        <ele>269.8</ele>
        <time>2024-08-13T07:40:30Z</time>
      </trkpt>
      <trkpt lat="44.64457" lon="2.55602">
        <ele>270.7</ele>
        <time>2024-08-13T07:40:38Z</time>
      </trkpt>
      <trkpt lat="44.64468" lon="2.55619">
        <ele>271.5</ele>
        <time>2024-08-13T07:40:44Z</time>
      </trkpt>
      <trkpt lat="44.64481" lon="2.55643">
        <ele>272.9</ele>
        <time>2024-08-13T07:40:52Z</time>
      </trkpt>
      <trkpt lat="44.64489" lon="2.55657">
        <ele>274.4</ele>
        <time>2024-08-13T07:40:58Z</time>
      </trkpt>
      <trkpt lat="44.64496" lon="2.55669">
        <ele>275.9</ele>
        <time>2024-08-13T07:41:04Z</time>
      </trkpt>
      <trkpt lat="44.64498" lon="2.55674">
        <ele>276.5</ele>
        <time>2024-08-13T07:41:07Z</time>
      </trkpt>
      <trkpt lat="44.64501" lon="2.55678">
        <ele>277</ele>
        <time>2024-08-13T07:41:09Z</time>
      </trkpt>
      <trkpt lat="44.64505" lon="2.55689">
        <ele>278.1</ele>
        <time>2024-08-13T07:41:14Z</time>
      </trkpt>
      <trkpt lat="44.64512" lon="2.55699">
        <ele>279.3</ele>
        <time>2024-08-13T07:41:19Z</time>
      </trkpt>
      <trkpt lat="44.64514" lon="2.55701">
        <ele>279.5</ele>
        <time>2024-08-13T07:41:20Z</time>
      </trkpt>
      <trkpt lat="44.64526" lon="2.55719">
        <ele>280.9</ele>
        <time>2024-08-13T07:41:28Z</time>
      </trkpt>
      <trkpt lat="44.64533" lon="2.5573">
        <ele>281.8</ele>
        <time>2024-08-13T07:41:33Z</time>
      </trkpt>
      <trkpt lat="44.64537" lon="2.55736">
        <ele>282.4</ele>
        <time>2024-08-13T07:41:36Z</time>
      </trkpt>
      <trkpt lat="44.6454" lon="2.55753">
        <ele>283.4</ele>
        <time>2024-08-13T07:41:43Z</time>
      </trkpt>
      <trkpt lat="44.64544" lon="2.55768">
        <ele>284.4</ele>
        <time>2024-08-13T07:41:49Z</time>
      </trkpt>
      <trkpt lat="44.6455" lon="2.55792">
        <ele>285.8</ele>
        <time>2024-08-13T07:41:58Z</time>
      </trkpt>
      <trkpt lat="44.64557" lon="2.55807">
        <ele>287</ele>
        <time>2024-08-13T07:42:05Z</time>
      </trkpt>
      <trkpt lat="44.64558" lon="2.55809">
        <ele>287.1</ele>
        <time>2024-08-13T07:42:06Z</time>
      </trkpt>
      <trkpt lat="44.64568" lon="2.55819">
        <ele>288.1</ele>
        <time>2024-08-13T07:42:13Z</time>
      </trkpt>
      <trkpt lat="44.64581" lon="2.5583">
        <ele>289.3</ele>
        <time>2024-08-13T07:42:20Z</time>
      </trkpt>
      <trkpt lat="44.64596" lon="2.55841">
        <ele>290.7</ele>
        <time>2024-08-13T07:42:28Z</time>
      </trkpt>
      <trkpt lat="44.64607" lon="2.5585">
        <ele>292</ele>
        <time>2024-08-13T07:42:35Z</time>
      </trkpt>
      <trkpt lat="44.64621" lon="2.5586">
        <ele>293.8</ele>
        <time>2024-08-13T07:42:43Z</time>
      </trkpt>
      <trkpt lat="44.64637" lon="2.5587">
        <ele>295.8</ele>
        <time>2024-08-13T07:42:52Z</time>
      </trkpt>
      <trkpt lat="44.64649" lon="2.5588">
        <ele>297.3</ele>
        <time>2024-08-13T07:43:00Z</time>
      </trkpt>
      <trkpt lat="44.64653" lon="2.55883">
        <ele>297.9</ele>
        <time>2024-08-13T07:43:03Z</time>
      </trkpt>
      <trkpt lat="44.64664" lon="2.55891">
        <ele>299.3</ele>
        <time>2024-08-13T07:43:09Z</time>
      </trkpt>
      <trkpt lat="44.64677" lon="2.55906">
        <ele>301.1</ele>
        <time>2024-08-13T07:43:18Z</time>
      </trkpt>
      <trkpt lat="44.64687" lon="2.55917">
        <ele>302.5</ele>
        <time>2024-08-13T07:43:25Z</time>
      </trkpt>
      <trkpt lat="44.64699" lon="2.55931">
        <ele>304.2</ele>
        <time>2024-08-13T07:43:33Z</time>
      </trkpt>
      <trkpt lat="44.64712" lon="2.55938">
        <ele>305.7</ele>
        <time>2024-08-13T07:43:40Z</time>
      </trkpt>
      <trkpt lat="44.64724" lon="2.55942">
        <ele>307.1</ele>
        <time>2024-08-13T07:43:46Z</time>
      </trkpt>
      <trkpt lat="44.64739" lon="2.55945">
        <ele>308.4</ele>
        <time>2024-08-13T07:43:53Z</time>
      </trkpt>
      <trkpt lat="44.64753" lon="2.55948">
        <ele>308.6</ele>
        <time>2024-08-13T07:44:00Z</time>
      </trkpt>
      <trkpt lat="44.64763" lon="2.55934">
        <ele>308</ele>
        <time>2024-08-13T07:44:06Z</time>
      </trkpt>
      <trkpt lat="44.64767" lon="2.55914">
        <ele>307.7</ele>
        <time>2024-08-13T07:44:12Z</time>
      </trkpt>
      <trkpt lat="44.64768" lon="2.55905">
        <ele>307.6</ele>
        <time>2024-08-13T07:44:15Z</time>
      </trkpt>
      <trkpt lat="44.64769" lon="2.55887">
        <ele>307.2</ele>
        <time>2024-08-13T07:44:21Z</time>
      </trkpt>
      <trkpt lat="44.64771" lon="2.55859">
        <ele>306.2</ele>
        <time>2024-08-13T07:44:29Z</time>
      </trkpt>
      <trkpt lat="44.64778" lon="2.5584">
        <ele>305.3</ele>
        <time>2024-08-13T07:44:35Z</time>
      </trkpt>
      <trkpt lat="44.64789" lon="2.55826">
        <ele>304.8</ele>
        <time>2024-08-13T07:44:41Z</time>
      </trkpt>
      <trkpt lat="44.64807" lon="2.55822">
        <ele>304.5</ele>
        <time>2024-08-13T07:44:48Z</time>
      </trkpt>
      <trkpt lat="44.64825" lon="2.55822">
        <ele>307.3</ele>
        <time>2024-08-13T07:44:55Z</time>
      </trkpt>
      <trkpt lat="44.64837" lon="2.55836">
        <ele>309.5</ele>
        <time>2024-08-13T07:45:02Z</time>
      </trkpt>
      <trkpt lat="44.64848" lon="2.55848">
        <ele>311.5</ele>
        <time>2024-08-13T07:45:09Z</time>
      </trkpt>
      <trkpt lat="44.6486" lon="2.55864">
        <ele>313.6</ele>
        <time>2024-08-13T07:45:17Z</time>
      </trkpt>
      <trkpt lat="44.64871" lon="2.55881">
        <ele>315.3</ele>
        <time>2024-08-13T07:45:24Z</time>
      </trkpt>
      <trkpt lat="44.64877" lon="2.55893">
        <ele>316.4</ele>
        <time>2024-08-13T07:45:29Z</time>
      </trkpt>
      <trkpt lat="44.64881" lon="2.55904">
        <ele>317.4</ele>
        <time>2024-08-13T07:45:34Z</time>
      </trkpt>
      <trkpt lat="44.64887" lon="2.55913">
        <ele>318.6</ele>
        <time>2024-08-13T07:45:39Z</time>
      </trkpt>
      <trkpt lat="44.64895" lon="2.55922">
        <ele>320.1</ele>
        <time>2024-08-13T07:45:45Z</time>
      </trkpt>
      <trkpt lat="44.64905" lon="2.55932">
        <ele>321.9</ele>
        <time>2024-08-13T07:45:51Z</time>
      </trkpt>
      <trkpt lat="44.64913" lon="2.55945">
        <ele>323.9</ele>
        <time>2024-08-13T07:45:57Z</time>
      </trkpt>
      <trkpt lat="44.64922" lon="2.5596">
        <ele>325.9</ele>
        <time>2024-08-13T07:46:03Z</time>
      </trkpt>
      <trkpt lat="44.64925" lon="2.55963">
        <ele>326.5</ele>
        <time>2024-08-13T07:46:05Z</time>
      </trkpt>
      <trkpt lat="44.64931" lon="2.5596">
        <ele>327.2</ele>
        <time>2024-08-13T07:46:08Z</time>
      </trkpt>
      <trkpt lat="44.64936" lon="2.55956">
        <ele>327.2</ele>
        <time>2024-08-13T07:46:11Z</time>
      </trkpt>
      <trkpt lat="44.64941" lon="2.55954">
        <ele>327.1</ele>
        <time>2024-08-13T07:46:14Z</time>
      </trkpt>
      <trkpt lat="44.64951" lon="2.55951">
        <ele>326.9</ele>
        <time>2024-08-13T07:46:20Z</time>
      </trkpt>
      <trkpt lat="44.64956" lon="2.55943">
        <ele>326.7</ele>
        <time>2024-08-13T07:46:23Z</time>
      </trkpt>
      <trkpt lat="44.64957" lon="2.55941">
        <ele>326.7</ele>
        <time>2024-08-13T07:46:24Z</time>
      </trkpt>
      <trkpt lat="44.64955" lon="2.55928">
        <ele>326.4</ele>
        <time>2024-08-13T07:46:29Z</time>
      </trkpt>
      <trkpt lat="44.64953" lon="2.55924">
        <ele>326.3</ele>
        <time>2024-08-13T07:46:31Z</time>
      </trkpt>
      <trkpt lat="44.64952" lon="2.55912">
        <ele>326</ele>
        <time>2024-08-13T07:46:35Z</time>
      </trkpt>
      <trkpt lat="44.64957" lon="2.5589">
        <ele>325.5</ele>
        <time>2024-08-13T07:46:42Z</time>
      </trkpt>
      <trkpt lat="44.64961" lon="2.55879">
        <ele>325.2</ele>
        <time>2024-08-13T07:46:45Z</time>
      </trkpt>
      <trkpt lat="44.64964" lon="2.55873">
        <ele>325.1</ele>
        <time>2024-08-13T07:46:47Z</time>
      </trkpt>
      <trkpt lat="44.64979" lon="2.55848">
        <ele>324.7</ele>
        <time>2024-08-13T07:46:55Z</time>
      </trkpt>
      <trkpt lat="44.64982" lon="2.5583">
        <ele>324.8</ele>
        <time>2024-08-13T07:47:00Z</time>
      </trkpt>
      <trkpt lat="44.64978" lon="2.55797">
        <ele>325.6</ele>
        <time>2024-08-13T07:47:08Z</time>
      </trkpt>
      <trkpt lat="44.64974" lon="2.55772">
        <ele>326.3</ele>
        <time>2024-08-13T07:47:15Z</time>
      </trkpt>
      <trkpt lat="44.64972" lon="2.55751">
        <ele>326.7</ele>
        <time>2024-08-13T07:47:21Z</time>
      </trkpt>
      <trkpt lat="44.64972" lon="2.5573">
        <ele>327.6</ele>
        <time>2024-08-13T07:47:27Z</time>
      </trkpt>
      <trkpt lat="44.64973" lon="2.55727">
        <ele>327.7</ele>
        <time>2024-08-13T07:47:28Z</time>
      </trkpt>
      <trkpt lat="44.6498" lon="2.55707">
        <ele>328.1</ele>
        <time>2024-08-13T07:47:34Z</time>
      </trkpt>
      <trkpt lat="44.64984" lon="2.55686">
        <ele>328.4</ele>
        <time>2024-08-13T07:47:39Z</time>
      </trkpt>
      <trkpt lat="44.64985" lon="2.55683">
        <ele>328.5</ele>
        <time>2024-08-13T07:47:40Z</time>
      </trkpt>
      <trkpt lat="44.64996" lon="2.55657">
        <ele>329.1</ele>
        <time>2024-08-13T07:47:47Z</time>
      </trkpt>
      <trkpt lat="44.65011" lon="2.55636">
        <ele>329.7</ele>
        <time>2024-08-13T07:47:54Z</time>
      </trkpt>
      <trkpt lat="44.6502" lon="2.55622">
        <ele>330.3</ele>
        <time>2024-08-13T07:47:59Z</time>
      </trkpt>
      <trkpt lat="44.6502" lon="2.55618">
        <ele>330.4</ele>
        <time>2024-08-13T07:48:00Z</time>
      </trkpt>
      <trkpt lat="44.65015" lon="2.55587">
        <ele>331</ele>
        <time>2024-08-13T07:48:07Z</time>
      </trkpt>
      <trkpt lat="44.65011" lon="2.5556">
        <ele>331.9</ele>
        <time>2024-08-13T07:48:14Z</time>
      </trkpt>
      <trkpt lat="44.65009" lon="2.55528">
        <ele>332.9</ele>
        <time>2024-08-13T07:48:22Z</time>
      </trkpt>
      <trkpt lat="44.65009" lon="2.55504">
        <ele>333.6</ele>
        <time>2024-08-13T07:48:28Z</time>
      </trkpt>
      <trkpt lat="44.65018" lon="2.55479">
        <ele>334.1</ele>
        <time>2024-08-13T07:48:35Z</time>
      </trkpt>
      <trkpt lat="44.65024" lon="2.55463">
        <ele>334.2</ele>
        <time>2024-08-13T07:48:40Z</time>
      </trkpt>
      <trkpt lat="44.65033" lon="2.55449">
        <ele>334</ele>
        <time>2024-08-13T07:48:45Z</time>
      </trkpt>
      <trkpt lat="44.65046" lon="2.55436">
        <ele>333.3</ele>
        <time>2024-08-13T07:48:49Z</time>
      </trkpt>
      <trkpt lat="44.65056" lon="2.55432">
        <ele>332.6</ele>
        <time>2024-08-13T07:48:51Z</time>
      </trkpt>
      <trkpt lat="44.65061" lon="2.55429">
        <ele>332.3</ele>
        <time>2024-08-13T07:48:52Z</time>
      </trkpt>
      <trkpt lat="44.65066" lon="2.55426">
        <ele>332.2</ele>
        <time>2024-08-13T07:48:53Z</time>
      </trkpt>
      <trkpt lat="44.6507" lon="2.5542">
        <ele>332</ele>
        <time>2024-08-13T07:48:55Z</time>
      </trkpt>
      <trkpt lat="44.65071" lon="2.55411">
        <ele>331.9</ele>
        <time>2024-08-13T07:48:57Z</time>
      </trkpt>
      <trkpt lat="44.65073" lon="2.55405">
        <ele>331.8</ele>
        <time>2024-08-13T07:48:58Z</time>
      </trkpt>
      <trkpt lat="44.65075" lon="2.55399">
        <ele>331.7</ele>
        <time>2024-08-13T07:48:59Z</time>
      </trkpt>
      <trkpt lat="44.65084" lon="2.55387">
        <ele>331</ele>
        <time>2024-08-13T07:49:01Z</time>
      </trkpt>
      <trkpt lat="44.65095" lon="2.55381">
        <ele>330.1</ele>
        <time>2024-08-13T07:49:03Z</time>
      </trkpt>
      <trkpt lat="44.65101" lon="2.5538">
        <ele>329.5</ele>
        <time>2024-08-13T07:49:04Z</time>
      </trkpt>
      <trkpt lat="44.65113" lon="2.55378">
        <ele>328.5</ele>
        <time>2024-08-13T07:49:06Z</time>
      </trkpt>
      <trkpt lat="44.65118" lon="2.55375">
        <ele>328.1</ele>
        <time>2024-08-13T07:49:07Z</time>
      </trkpt>
      <trkpt lat="44.65123" lon="2.55369">
        <ele>327.9</ele>
        <time>2024-08-13T07:49:08Z</time>
      </trkpt>
      <trkpt lat="44.65131" lon="2.55354">
        <ele>327.5</ele>
        <time>2024-08-13T07:49:10Z</time>
      </trkpt>
      <trkpt lat="44.65142" lon="2.55344">
        <ele>326.5</ele>
        <time>2024-08-13T07:49:13Z</time>
      </trkpt>
      <trkpt lat="44.65142" lon="2.55339">
        <ele>326</ele>
        <time>2024-08-13T07:49:15Z</time>
      </trkpt>
      <trkpt lat="44.6514" lon="2.55336">
        <ele>325.6</ele>
        <time>2024-08-13T07:49:16Z</time>
      </trkpt>
      <trkpt lat="44.65133" lon="2.55333">
        <ele>324.1</ele>
        <time>2024-08-13T07:49:18Z</time>
      </trkpt>
      <trkpt lat="44.65129" lon="2.55334">
        <ele>323.2</ele>
        <time>2024-08-13T07:49:19Z</time>
      </trkpt>
      <trkpt lat="44.65123" lon="2.55336">
        <ele>322.2</ele>
        <time>2024-08-13T07:49:20Z</time>
      </trkpt>
      <trkpt lat="44.6511" lon="2.55339">
        <ele>320.3</ele>
        <time>2024-08-13T07:49:22Z</time>
      </trkpt>
      <trkpt lat="44.65093" lon="2.55332">
        <ele>319</ele>
        <time>2024-08-13T07:49:24Z</time>
      </trkpt>
      <trkpt lat="44.65078" lon="2.55329">
        <ele>318.1</ele>
        <time>2024-08-13T07:49:26Z</time>
      </trkpt>
      <trkpt lat="44.65064" lon="2.55328">
        <ele>317</ele>
        <time>2024-08-13T07:49:28Z</time>
      </trkpt>
      <trkpt lat="44.65044" lon="2.55327">
        <ele>314.5</ele>
        <time>2024-08-13T07:49:31Z</time>
      </trkpt>
      <trkpt lat="44.65038" lon="2.55327">
        <ele>314</ele>
        <time>2024-08-13T07:49:32Z</time>
      </trkpt>
      <trkpt lat="44.65026" lon="2.55327">
        <ele>313.4</ele>
        <time>2024-08-13T07:49:35Z</time>
      </trkpt>
      <trkpt lat="44.65023" lon="2.55323">
        <ele>313.3</ele>
        <time>2024-08-13T07:49:38Z</time>
      </trkpt>
      <trkpt lat="44.6502" lon="2.55315">
        <ele>313</ele>
        <time>2024-08-13T07:49:42Z</time>
      </trkpt>
      <trkpt lat="44.65007" lon="2.55309">
        <ele>312.6</ele>
        <time>2024-08-13T07:49:47Z</time>
      </trkpt>
      <trkpt lat="44.64994" lon="2.55305">
        <ele>312.4</ele>
        <time>2024-08-13T07:49:52Z</time>
      </trkpt>
      <trkpt lat="44.64983" lon="2.55301">
        <ele>312.2</ele>
        <time>2024-08-13T07:49:56Z</time>
      </trkpt>
      <trkpt lat="44.64975" lon="2.55296">
        <ele>312.2</ele>
        <time>2024-08-13T07:49:59Z</time>
      </trkpt>
      <trkpt lat="44.64964" lon="2.55289">
        <ele>312.3</ele>
        <time>2024-08-13T07:50:03Z</time>
      </trkpt>
      <trkpt lat="44.64951" lon="2.55275">
        <ele>312.7</ele>
        <time>2024-08-13T07:50:09Z</time>
      </trkpt>
      <trkpt lat="44.64949" lon="2.55273">
        <ele>312.8</ele>
        <time>2024-08-13T07:50:10Z</time>
      </trkpt>
      <trkpt lat="44.64933" lon="2.55256">
        <ele>313.6</ele>
        <time>2024-08-13T07:50:17Z</time>
      </trkpt>
      <trkpt lat="44.64919" lon="2.55245">
        <ele>314.4</ele>
        <time>2024-08-13T07:50:23Z</time>
      </trkpt>
      <trkpt lat="44.64905" lon="2.55234">
        <ele>315.4</ele>
        <time>2024-08-13T07:50:30Z</time>
      </trkpt>
      <trkpt lat="44.64894" lon="2.55226">
        <ele>316.2</ele>
        <time>2024-08-13T07:50:36Z</time>
      </trkpt>
      <trkpt lat="44.64892" lon="2.55225">
        <ele>316.4</ele>
        <time>2024-08-13T07:50:37Z</time>
      </trkpt>
      <trkpt lat="44.64881" lon="2.55216">
        <ele>317.4</ele>
        <time>2024-08-13T07:50:43Z</time>
      </trkpt>
      <trkpt lat="44.64872" lon="2.55209">
        <ele>318.3</ele>
        <time>2024-08-13T07:50:49Z</time>
      </trkpt>
      <trkpt lat="44.64868" lon="2.55207">
        <ele>318.8</ele>
        <time>2024-08-13T07:50:52Z</time>
      </trkpt>
      <trkpt lat="44.64858" lon="2.55199">
        <ele>319.9</ele>
        <time>2024-08-13T07:50:59Z</time>
      </trkpt>
      <trkpt lat="44.64851" lon="2.55193">
        <ele>320.7</ele>
        <time>2024-08-13T07:51:04Z</time>
      </trkpt>
      <trkpt lat="44.64841" lon="2.55182">
        <ele>321.6</ele>
        <time>2024-08-13T07:51:11Z</time>
      </trkpt>
      <trkpt lat="44.64836" lon="2.55173">
        <ele>322.1</ele>
        <time>2024-08-13T07:51:16Z</time>
      </trkpt>
      <trkpt lat="44.64835" lon="2.55168">
        <ele>322.2</ele>
        <time>2024-08-13T07:51:18Z</time>
      </trkpt>
      <trkpt lat="44.6483" lon="2.55155">
        <ele>322.5</ele>
        <time>2024-08-13T07:51:24Z</time>
      </trkpt>
      <trkpt lat="44.64826" lon="2.55142">
        <ele>322.5</ele>
        <time>2024-08-13T07:51:31Z</time>
      </trkpt>
      <trkpt lat="44.64822" lon="2.55124">
        <ele>322.1</ele>
        <time>2024-08-13T07:51:38Z</time>
      </trkpt>
      <trkpt lat="44.64817" lon="2.55099">
        <ele>320.9</ele>
        <time>2024-08-13T07:51:45Z</time>
      </trkpt>
      <trkpt lat="44.64808" lon="2.55069">
        <ele>319.5</ele>
        <time>2024-08-13T07:51:51Z</time>
      </trkpt>
      <trkpt lat="44.64792" lon="2.55052">
        <ele>318.4</ele>
        <time>2024-08-13T07:51:56Z</time>
      </trkpt>
      <trkpt lat="44.64783" lon="2.55042">
        <ele>317.8</ele>
        <time>2024-08-13T07:51:59Z</time>
      </trkpt>
      <trkpt lat="44.64779" lon="2.55036">
        <ele>317.6</ele>
        <time>2024-08-13T07:52:01Z</time>
      </trkpt>
      <trkpt lat="44.64778" lon="2.55026">
        <ele>317.5</ele>
        <time>2024-08-13T07:52:03Z</time>
      </trkpt>
      <trkpt lat="44.64779" lon="2.55017">
        <ele>317.5</ele>
        <time>2024-08-13T07:52:05Z</time>
      </trkpt>
      <trkpt lat="44.64779" lon="2.55006">
        <ele>317.7</ele>
        <time>2024-08-13T07:52:07Z</time>
      </trkpt>
      <trkpt lat="44.6478" lon="2.54998">
        <ele>317.8</ele>
        <time>2024-08-13T07:52:09Z</time>
      </trkpt>
      <trkpt lat="44.64781" lon="2.54986">
        <ele>317.9</ele>
        <time>2024-08-13T07:52:12Z</time>
      </trkpt>
      <trkpt lat="44.64782" lon="2.54962">
        <ele>317.8</ele>
        <time>2024-08-13T07:52:18Z</time>
      </trkpt>
      <trkpt lat="44.64781" lon="2.54947">
        <ele>317.3</ele>
        <time>2024-08-13T07:52:22Z</time>
      </trkpt>
      <trkpt lat="44.64776" lon="2.54927">
        <ele>316.7</ele>
        <time>2024-08-13T07:52:27Z</time>
      </trkpt>
      <trkpt lat="44.64771" lon="2.54909">
        <ele>316.5</ele>
        <time>2024-08-13T07:52:32Z</time>
      </trkpt>
      <trkpt lat="44.64763" lon="2.54892">
        <ele>316.6</ele>
        <time>2024-08-13T07:52:38Z</time>
      </trkpt>
      <trkpt lat="44.6476" lon="2.54886">
        <ele>316.7</ele>
        <time>2024-08-13T07:52:41Z</time>
      </trkpt>
      <trkpt lat="44.64759" lon="2.54881">
        <ele>316.7</ele>
        <time>2024-08-13T07:52:43Z</time>
      </trkpt>
      <trkpt lat="44.64758" lon="2.54879">
        <ele>316.8</ele>
        <time>2024-08-13T07:52:44Z</time>
      </trkpt>
      <trkpt lat="44.64755" lon="2.54868">
        <ele>316.8</ele>
        <time>2024-08-13T07:52:48Z</time>
      </trkpt>
      <trkpt lat="44.64753" lon="2.54858">
        <ele>316.9</ele>
        <time>2024-08-13T07:52:51Z</time>
      </trkpt>
      <trkpt lat="44.64753" lon="2.54854">
        <ele>316.9</ele>
        <time>2024-08-13T07:52:52Z</time>
      </trkpt>
      <trkpt lat="44.64752" lon="2.54844">
        <ele>316.8</ele>
        <time>2024-08-13T07:52:55Z</time>
      </trkpt>
      <trkpt lat="44.64752" lon="2.54833">
        <ele>316.7</ele>
        <time>2024-08-13T07:52:58Z</time>
      </trkpt>
      <trkpt lat="44.64752" lon="2.54817">
        <ele>316.4</ele>
        <time>2024-08-13T07:53:03Z</time>
      </trkpt>
      <trkpt lat="44.64752" lon="2.54814">
        <ele>316.3</ele>
        <time>2024-08-13T07:53:04Z</time>
      </trkpt>
      <trkpt lat="44.64753" lon="2.54792">
        <ele>315.5</ele>
        <time>2024-08-13T07:53:11Z</time>
      </trkpt>
      <trkpt lat="44.64753" lon="2.54785">
        <ele>315.1</ele>
        <time>2024-08-13T07:53:13Z</time>
      </trkpt>
      <trkpt lat="44.64756" lon="2.54759">
        <ele>313.5</ele>
        <time>2024-08-13T07:53:20Z</time>
      </trkpt>
      <trkpt lat="44.6476" lon="2.54739">
        <ele>312</ele>
        <time>2024-08-13T07:53:25Z</time>
      </trkpt>
      <trkpt lat="44.64766" lon="2.54713">
        <ele>309.9</ele>
        <time>2024-08-13T07:53:31Z</time>
      </trkpt>
      <trkpt lat="44.64777" lon="2.54674">
        <ele>306</ele>
        <time>2024-08-13T07:53:38Z</time>
      </trkpt>
      <trkpt lat="44.64781" lon="2.54663">
        <ele>304.8</ele>
        <time>2024-08-13T07:53:40Z</time>
      </trkpt>
      <trkpt lat="44.64786" lon="2.54652">
        <ele>303.7</ele>
        <time>2024-08-13T07:53:42Z</time>
      </trkpt>
      <trkpt lat="44.6479" lon="2.54648">
        <ele>303.1</ele>
        <time>2024-08-13T07:53:43Z</time>
      </trkpt>
      <trkpt lat="44.64799" lon="2.54646">
        <ele>302.2</ele>
        <time>2024-08-13T07:53:45Z</time>
      </trkpt>
      <trkpt lat="44.6481" lon="2.54649">
        <ele>301.1</ele>
        <time>2024-08-13T07:53:47Z</time>
      </trkpt>
      <trkpt lat="44.64822" lon="2.54655">
        <ele>299.8</ele>
        <time>2024-08-13T07:53:49Z</time>
      </trkpt>
      <trkpt lat="44.64829" lon="2.54659">
        <ele>299</ele>
        <time>2024-08-13T07:53:50Z</time>
      </trkpt>
      <trkpt lat="44.64836" lon="2.54662">
        <ele>298.2</ele>
        <time>2024-08-13T07:53:51Z</time>
      </trkpt>
      <trkpt lat="44.64864" lon="2.54675">
        <ele>295.6</ele>
        <time>2024-08-13T07:53:55Z</time>
      </trkpt>
      <trkpt lat="44.64873" lon="2.54683">
        <ele>294.8</ele>
        <time>2024-08-13T07:53:57Z</time>
      </trkpt>
      <trkpt lat="44.64878" lon="2.54683">
        <ele>294.4</ele>
        <time>2024-08-13T07:53:58Z</time>
      </trkpt>
      <trkpt lat="44.64881" lon="2.5468">
        <ele>294.2</ele>
        <time>2024-08-13T07:53:59Z</time>
      </trkpt>
      <trkpt lat="44.64884" lon="2.54675">
        <ele>293.9</ele>
        <time>2024-08-13T07:54:00Z</time>
      </trkpt>
      <trkpt lat="44.64886" lon="2.54668">
        <ele>293.5</ele>
        <time>2024-08-13T07:54:01Z</time>
      </trkpt>
      <trkpt lat="44.64891" lon="2.54646">
        <ele>292.5</ele>
        <time>2024-08-13T07:54:04Z</time>
      </trkpt>
      <trkpt lat="44.64894" lon="2.5464">
        <ele>292.1</ele>
        <time>2024-08-13T07:54:05Z</time>
      </trkpt>
      <trkpt lat="44.64899" lon="2.54634">
        <ele>291.8</ele>
        <time>2024-08-13T07:54:06Z</time>
      </trkpt>
      <trkpt lat="44.64909" lon="2.54625">
        <ele>291.2</ele>
        <time>2024-08-13T07:54:08Z</time>
      </trkpt>
      <trkpt lat="44.64914" lon="2.5461">
        <ele>291</ele>
        <time>2024-08-13T07:54:10Z</time>
      </trkpt>
      <trkpt lat="44.6491" lon="2.54597">
        <ele>291.2</ele>
        <time>2024-08-13T07:54:12Z</time>
      </trkpt>
      <trkpt lat="44.64906" lon="2.54592">
        <ele>291.3</ele>
        <time>2024-08-13T07:54:13Z</time>
      </trkpt>
      <trkpt lat="44.64904" lon="2.54587">
        <ele>291.5</ele>
        <time>2024-08-13T07:54:14Z</time>
      </trkpt>
      <trkpt lat="44.64901" lon="2.54581">
        <ele>291.8</ele>
        <time>2024-08-13T07:54:15Z</time>
      </trkpt>
      <trkpt lat="44.64899" lon="2.54575">
        <ele>292.1</ele>
        <time>2024-08-13T07:54:16Z</time>
      </trkpt>
      <trkpt lat="44.64897" lon="2.54569">
        <ele>292.4</ele>
        <time>2024-08-13T07:54:17Z</time>
      </trkpt>
      <trkpt lat="44.64893" lon="2.54545">
        <ele>294.4</ele>
        <time>2024-08-13T07:54:22Z</time>
      </trkpt>
      <trkpt lat="44.64892" lon="2.54523">
        <ele>296.3</ele>
        <time>2024-08-13T07:54:28Z</time>
      </trkpt>
      <trkpt lat="44.64892" lon="2.54521">
        <ele>296.5</ele>
        <time>2024-08-13T07:54:29Z</time>
      </trkpt>
      <trkpt lat="44.64892" lon="2.54516">
        <ele>296.9</ele>
        <time>2024-08-13T07:54:31Z</time>
      </trkpt>
      <trkpt lat="44.64891" lon="2.54513">
        <ele>297.1</ele>
        <time>2024-08-13T07:54:32Z</time>
      </trkpt>
      <trkpt lat="44.64888" lon="2.54504">
        <ele>297.7</ele>
        <time>2024-08-13T07:54:35Z</time>
      </trkpt>
      <trkpt lat="44.64885" lon="2.54498">
        <ele>298.1</ele>
        <time>2024-08-13T07:54:37Z</time>
      </trkpt>
      <trkpt lat="44.64875" lon="2.54488">
        <ele>298.7</ele>
        <time>2024-08-13T07:54:42Z</time>
      </trkpt>
      <trkpt lat="44.64873" lon="2.54485">
        <ele>298.8</ele>
        <time>2024-08-13T07:54:43Z</time>
      </trkpt>
      <trkpt lat="44.64867" lon="2.54474">
        <ele>299.2</ele>
        <time>2024-08-13T07:54:47Z</time>
      </trkpt>
      <trkpt lat="44.64865" lon="2.54471">
        <ele>299.3</ele>
        <time>2024-08-13T07:54:48Z</time>
      </trkpt>
      <trkpt lat="44.64862" lon="2.54461">
        <ele>299.6</ele>
        <time>2024-08-13T07:54:51Z</time>
      </trkpt>
      <trkpt lat="44.64861" lon="2.54454">
        <ele>299.8</ele>
        <time>2024-08-13T07:54:53Z</time>
      </trkpt>
      <trkpt lat="44.64861" lon="2.54427">
        <ele>300.6</ele>
        <time>2024-08-13T07:55:00Z</time>
      </trkpt>
      <trkpt lat="44.64864" lon="2.54408">
        <ele>301.1</ele>
        <time>2024-08-13T07:55:05Z</time>
      </trkpt>
      <trkpt lat="44.64862" lon="2.54388">
        <ele>301.8</ele>
        <time>2024-08-13T07:55:10Z</time>
      </trkpt>
      <trkpt lat="44.64849" lon="2.54363">
        <ele>302.5</ele>
        <time>2024-08-13T07:55:17Z</time>
      </trkpt>
      <trkpt lat="44.64837" lon="2.54344">
        <ele>302.4</ele>
        <time>2024-08-13T07:55:23Z</time>
      </trkpt>
      <trkpt lat="44.64832" lon="2.54336">
        <ele>302.1</ele>
        <time>2024-08-13T07:55:25Z</time>
      </trkpt>
      <trkpt lat="44.64826" lon="2.54319">
        <ele>301.6</ele>
        <time>2024-08-13T07:55:28Z</time>
      </trkpt>
      <trkpt lat="44.64821" lon="2.54305">
        <ele>301.1</ele>
        <time>2024-08-13T07:55:31Z</time>
      </trkpt>
      <trkpt lat="44.6482" lon="2.54295">
        <ele>300.9</ele>
        <time>2024-08-13T07:55:33Z</time>
      </trkpt>
      <trkpt lat="44.6482" lon="2.54275">
        <ele>299.3</ele>
        <time>2024-08-13T07:55:38Z</time>
      </trkpt>
      <trkpt lat="44.64828" lon="2.54269">
        <ele>298.3</ele>
        <time>2024-08-13T07:55:40Z</time>
      </trkpt>
      <trkpt lat="44.64833" lon="2.54267">
        <ele>297.8</ele>
        <time>2024-08-13T07:55:41Z</time>
      </trkpt>
      <trkpt lat="44.64843" lon="2.54263">
        <ele>296.7</ele>
        <time>2024-08-13T07:55:43Z</time>
      </trkpt>
      <trkpt lat="44.64852" lon="2.54259">
        <ele>295.7</ele>
        <time>2024-08-13T07:55:45Z</time>
      </trkpt>
      <trkpt lat="44.64869" lon="2.54255">
        <ele>293.8</ele>
        <time>2024-08-13T07:55:49Z</time>
      </trkpt>
      <trkpt lat="44.64878" lon="2.54251">
        <ele>293</ele>
        <time>2024-08-13T07:55:51Z</time>
      </trkpt>
      <trkpt lat="44.64883" lon="2.54237">
        <ele>292.3</ele>
        <time>2024-08-13T07:55:53Z</time>
      </trkpt>
      <trkpt lat="44.64878" lon="2.54223">
        <ele>291.8</ele>
        <time>2024-08-13T07:55:55Z</time>
      </trkpt>
      <trkpt lat="44.64874" lon="2.54216">
        <ele>291.6</ele>
        <time>2024-08-13T07:55:56Z</time>
      </trkpt>
      <trkpt lat="44.64867" lon="2.54201">
        <ele>291</ele>
        <time>2024-08-13T07:55:58Z</time>
      </trkpt>
      <trkpt lat="44.64862" lon="2.54184">
        <ele>290.4</ele>
        <time>2024-08-13T07:56:00Z</time>
      </trkpt>
      <trkpt lat="44.6486" lon="2.54169">
        <ele>289.8</ele>
        <time>2024-08-13T07:56:02Z</time>
      </trkpt>
      <trkpt lat="44.64855" lon="2.54155">
        <ele>289.4</ele>
        <time>2024-08-13T07:56:04Z</time>
      </trkpt>
      <trkpt lat="44.64837" lon="2.54134">
        <ele>288.2</ele>
        <time>2024-08-13T07:56:08Z</time>
      </trkpt>
      <trkpt lat="44.64833" lon="2.54129">
        <ele>287.7</ele>
        <time>2024-08-13T07:56:09Z</time>
      </trkpt>
      <trkpt lat="44.64826" lon="2.54116">
        <ele>286.7</ele>
        <time>2024-08-13T07:56:11Z</time>
      </trkpt>
      <trkpt lat="44.64824" lon="2.54109">
        <ele>286.2</ele>
        <time>2024-08-13T07:56:12Z</time>
      </trkpt>
      <trkpt lat="44.64822" lon="2.54102">
        <ele>285.7</ele>
        <time>2024-08-13T07:56:13Z</time>
      </trkpt>
      <trkpt lat="44.64817" lon="2.54077">
        <ele>283.8</ele>
        <time>2024-08-13T07:56:16Z</time>
      </trkpt>
      <trkpt lat="44.64816" lon="2.54061">
        <ele>282.6</ele>
        <time>2024-08-13T07:56:18Z</time>
      </trkpt>
      <trkpt lat="44.64816" lon="2.54052">
        <ele>281.9</ele>
        <time>2024-08-13T07:56:19Z</time>
      </trkpt>
      <trkpt lat="44.64817" lon="2.54043">
        <ele>281.2</ele>
        <time>2024-08-13T07:56:20Z</time>
      </trkpt>
      <trkpt lat="44.64821" lon="2.54016">
        <ele>279.7</ele>
        <time>2024-08-13T07:56:23Z</time>
      </trkpt>
      <trkpt lat="44.64823" lon="2.54008">
        <ele>279.3</ele>
        <time>2024-08-13T07:56:24Z</time>
      </trkpt>
      <trkpt lat="44.64844" lon="2.53957">
        <ele>276.5</ele>
        <time>2024-08-13T07:56:30Z</time>
      </trkpt>
      <trkpt lat="44.64844" lon="2.53938">
        <ele>275.9</ele>
        <time>2024-08-13T07:56:32Z</time>
      </trkpt>
      <trkpt lat="44.64842" lon="2.53929">
        <ele>275.7</ele>
        <time>2024-08-13T07:56:33Z</time>
      </trkpt>
      <trkpt lat="44.64835" lon="2.53913">
        <ele>275.5</ele>
        <time>2024-08-13T07:56:35Z</time>
      </trkpt>
      <trkpt lat="44.6483" lon="2.53906">
        <ele>275.4</ele>
        <time>2024-08-13T07:56:36Z</time>
      </trkpt>
      <trkpt lat="44.64826" lon="2.53901">
        <ele>275.4</ele>
        <time>2024-08-13T07:56:37Z</time>
      </trkpt>
      <trkpt lat="44.64817" lon="2.5389">
        <ele>275.4</ele>
        <time>2024-08-13T07:56:39Z</time>
      </trkpt>
      <trkpt lat="44.64814" lon="2.53885">
        <ele>275.4</ele>
        <time>2024-08-13T07:56:40Z</time>
      </trkpt>
      <trkpt lat="44.64812" lon="2.5388">
        <ele>275.3</ele>
        <time>2024-08-13T07:56:41Z</time>
      </trkpt>
      <trkpt lat="44.64807" lon="2.53861">
        <ele>275.1</ele>
        <time>2024-08-13T07:56:44Z</time>
      </trkpt>
      <trkpt lat="44.64802" lon="2.53821">
        <ele>273.9</ele>
        <time>2024-08-13T07:56:50Z</time>
      </trkpt>
      <trkpt lat="44.64801" lon="2.53814">
        <ele>273.6</ele>
        <time>2024-08-13T07:56:51Z</time>
      </trkpt>
      <trkpt lat="44.64794" lon="2.53792">
        <ele>272.1</ele>
        <time>2024-08-13T07:56:54Z</time>
      </trkpt>
      <trkpt lat="44.64789" lon="2.53776">
        <ele>270.8</ele>
        <time>2024-08-13T07:56:56Z</time>
      </trkpt>
      <trkpt lat="44.64785" lon="2.53762">
        <ele>269.5</ele>
        <time>2024-08-13T07:56:58Z</time>
      </trkpt>
      <trkpt lat="44.64783" lon="2.53755">
        <ele>268.7</ele>
        <time>2024-08-13T07:56:59Z</time>
      </trkpt>
      <trkpt lat="44.64778" lon="2.53739">
        <ele>267</ele>
        <time>2024-08-13T07:57:01Z</time>
      </trkpt>
      <trkpt lat="44.64776" lon="2.53731">
        <ele>266.1</ele>
        <time>2024-08-13T07:57:02Z</time>
      </trkpt>
      <trkpt lat="44.64775" lon="2.53723">
        <ele>265.3</ele>
        <time>2024-08-13T07:57:03Z</time>
      </trkpt>
      <trkpt lat="44.64773" lon="2.53698">
        <ele>262.8</ele>
        <time>2024-08-13T07:57:06Z</time>
      </trkpt>
      <trkpt lat="44.64771" lon="2.5367">
        <ele>260.4</ele>
        <time>2024-08-13T07:57:09Z</time>
      </trkpt>
      <trkpt lat="44.64769" lon="2.53651">
        <ele>259</ele>
        <time>2024-08-13T07:57:11Z</time>
      </trkpt>
      <trkpt lat="44.64768" lon="2.53642">
        <ele>258.4</ele>
        <time>2024-08-13T07:57:12Z</time>
      </trkpt>
      <trkpt lat="44.64768" lon="2.53633">
        <ele>258</ele>
        <time>2024-08-13T07:57:13Z</time>
      </trkpt>
      <trkpt lat="44.6477" lon="2.53606">
        <ele>256.4</ele>
        <time>2024-08-13T07:57:17Z</time>
      </trkpt>
      <trkpt lat="44.64768" lon="2.53588">
        <ele>255.1</ele>
        <time>2024-08-13T07:57:21Z</time>
      </trkpt>
      <trkpt lat="44.64772" lon="2.53567">
        <ele>257</ele>
        <time>2024-08-13T07:57:27Z</time>
      </trkpt>
      <trkpt lat="44.64777" lon="2.53547">
        <ele>258.8</ele>
        <time>2024-08-13T07:57:33Z</time>
      </trkpt>
      <trkpt lat="44.64779" lon="2.53541">
        <ele>259.3</ele>
        <time>2024-08-13T07:57:35Z</time>
      </trkpt>
      <trkpt lat="44.64784" lon="2.53531">
        <ele>260.3</ele>
        <time>2024-08-13T07:57:39Z</time>
      </trkpt>
      <trkpt lat="44.64785" lon="2.53525">
        <ele>260.8</ele>
        <time>2024-08-13T07:57:41Z</time>
      </trkpt>
      <trkpt lat="44.64788" lon="2.53517">
        <ele>261.7</ele>
        <time>2024-08-13T07:57:45Z</time>
      </trkpt>
      <trkpt lat="44.64792" lon="2.53504">
        <ele>263.1</ele>
        <time>2024-08-13T07:57:50Z</time>
      </trkpt>
      <trkpt lat="44.64802" lon="2.53489">
        <ele>264.9</ele>
        <time>2024-08-13T07:57:58Z</time>
      </trkpt>
      <trkpt lat="44.64811" lon="2.53481">
        <ele>266.2</ele>
        <time>2024-08-13T07:58:04Z</time>
      </trkpt>
      <trkpt lat="44.64819" lon="2.53477">
        <ele>267.2</ele>
        <time>2024-08-13T07:58:09Z</time>
      </trkpt>
      <trkpt lat="44.64823" lon="2.53476">
        <ele>267.7</ele>
        <time>2024-08-13T07:58:12Z</time>
      </trkpt>
      <trkpt lat="44.64825" lon="2.53476">
        <ele>267.9</ele>
        <time>2024-08-13T07:58:13Z</time>
      </trkpt>
      <trkpt lat="44.64826" lon="2.53476">
        <ele>268</ele>
        <time>2024-08-13T07:58:14Z</time>
      </trkpt>
      <trkpt lat="44.64831" lon="2.53478">
        <ele>268.8</ele>
        <time>2024-08-13T07:58:17Z</time>
      </trkpt>
      <trkpt lat="44.6484" lon="2.53484">
        <ele>270.1</ele>
        <time>2024-08-13T07:58:21Z</time>
      </trkpt>
      <trkpt lat="44.64841" lon="2.53484">
        <ele>270.2</ele>
        <time>2024-08-13T07:58:23Z</time>
      </trkpt>
      <trkpt lat="44.64842" lon="2.53481">
        <ele>270.5</ele>
        <time>2024-08-13T07:58:25Z</time>
      </trkpt>
      <trkpt lat="44.64843" lon="2.53481">
        <ele>270.6</ele>
        <time>2024-08-13T07:58:26Z</time>
      </trkpt>
      <trkpt lat="44.64847" lon="2.53479">
        <ele>271.1</ele>
        <time>2024-08-13T07:58:29Z</time>
      </trkpt>
      <trkpt lat="44.64856" lon="2.53475">
        <ele>272.2</ele>
        <time>2024-08-13T07:58:35Z</time>
      </trkpt>
      <trkpt lat="44.64864" lon="2.53472">
        <ele>273</ele>
        <time>2024-08-13T07:58:40Z</time>
      </trkpt>
      <trkpt lat="44.64865" lon="2.53471">
        <ele>273.1</ele>
        <time>2024-08-13T07:58:41Z</time>
      </trkpt>
      <trkpt lat="44.64873" lon="2.53469">
        <ele>273.7</ele>
        <time>2024-08-13T07:58:45Z</time>
      </trkpt>
      <trkpt lat="44.64883" lon="2.53468">
        <ele>274.5</ele>
        <time>2024-08-13T07:58:50Z</time>
      </trkpt>
      <trkpt lat="44.64885" lon="2.53468">
        <ele>274.6</ele>
        <time>2024-08-13T07:58:51Z</time>
      </trkpt>
      <trkpt lat="44.64891" lon="2.53468">
        <ele>275</ele>
        <time>2024-08-13T07:58:54Z</time>
      </trkpt>
      <trkpt lat="44.64904" lon="2.5347">
        <ele>275.9</ele>
        <time>2024-08-13T07:59:00Z</time>
      </trkpt>
      <trkpt lat="44.64911" lon="2.5347">
        <ele>276.2</ele>
        <time>2024-08-13T07:59:03Z</time>
      </trkpt>
      <trkpt lat="44.64913" lon="2.53471">
        <ele>276.4</ele>
        <time>2024-08-13T07:59:04Z</time>
      </trkpt>
      <trkpt lat="44.64925" lon="2.53475">
        <ele>277</ele>
        <time>2024-08-13T07:59:09Z</time>
      </trkpt>
      <trkpt lat="44.64934" lon="2.53481">
        <ele>277.3</ele>
        <time>2024-08-13T07:59:13Z</time>
      </trkpt>
      <trkpt lat="44.64938" lon="2.53485">
        <ele>277.5</ele>
        <time>2024-08-13T07:59:15Z</time>
      </trkpt>
      <trkpt lat="44.64948" lon="2.53493">
        <ele>278</ele>
        <time>2024-08-13T07:59:19Z</time>
      </trkpt>
      <trkpt lat="44.64953" lon="2.53498">
        <ele>278.3</ele>
        <time>2024-08-13T07:59:21Z</time>
      </trkpt>
      <trkpt lat="44.64962" lon="2.53507">
        <ele>278.8</ele>
        <time>2024-08-13T07:59:25Z</time>
      </trkpt>
      <trkpt lat="44.64971" lon="2.53516">
        <ele>279.3</ele>
        <time>2024-08-13T07:59:29Z</time>
      </trkpt>
      <trkpt lat="44.64979" lon="2.53525">
        <ele>279.8</ele>
        <time>2024-08-13T07:59:32Z</time>
      </trkpt>
      <trkpt lat="44.64987" lon="2.5354">
        <ele>280.4</ele>
        <time>2024-08-13T07:59:36Z</time>
      </trkpt>
      <trkpt lat="44.64994" lon="2.53551">
        <ele>280.9</ele>
        <time>2024-08-13T07:59:40Z</time>
      </trkpt>
      <trkpt lat="44.65004" lon="2.53559">
        <ele>281.5</ele>
        <time>2024-08-13T07:59:45Z</time>
      </trkpt>
      <trkpt lat="44.65021" lon="2.53563">
        <ele>282.3</ele>
        <time>2024-08-13T07:59:51Z</time>
      </trkpt>
      <trkpt lat="44.65029" lon="2.53561">
        <ele>282.7</ele>
        <time>2024-08-13T07:59:54Z</time>
      </trkpt>
      <trkpt lat="44.65032" lon="2.5356">
        <ele>282.9</ele>
        <time>2024-08-13T07:59:55Z</time>
      </trkpt>
      <trkpt lat="44.65043" lon="2.53556">
        <ele>283.5</ele>
        <time>2024-08-13T07:59:59Z</time>
      </trkpt>
      <trkpt lat="44.65051" lon="2.53552">
        <ele>284</ele>
        <time>2024-08-13T08:00:02Z</time>
      </trkpt>
      <trkpt lat="44.65066" lon="2.53546">
        <ele>284.8</ele>
        <time>2024-08-13T08:00:07Z</time>
      </trkpt>
      <trkpt lat="44.65079" lon="2.53542">
        <ele>285.5</ele>
        <time>2024-08-13T08:00:12Z</time>
      </trkpt>
      <trkpt lat="44.65085" lon="2.5354">
        <ele>285.8</ele>
        <time>2024-08-13T08:00:14Z</time>
      </trkpt>
      <trkpt lat="44.65091" lon="2.5354">
        <ele>286.2</ele>
        <time>2024-08-13T08:00:16Z</time>
      </trkpt>
      <trkpt lat="44.6511" lon="2.53539">
        <ele>287.3</ele>
        <time>2024-08-13T08:00:22Z</time>
      </trkpt>
      <trkpt lat="44.65129" lon="2.5354">
        <ele>288.3</ele>
        <time>2024-08-13T08:00:28Z</time>
      </trkpt>
      <trkpt lat="44.65143" lon="2.53539">
        <ele>288.6</ele>
        <time>2024-08-13T08:00:33Z</time>
      </trkpt>
      <trkpt lat="44.65158" lon="2.53543">
        <ele>288.7</ele>
        <time>2024-08-13T08:00:37Z</time>
      </trkpt>
      <trkpt lat="44.65162" lon="2.53544">
        <ele>288.7</ele>
        <time>2024-08-13T08:00:38Z</time>
      </trkpt>
      <trkpt lat="44.65171" lon="2.53548">
        <ele>288.7</ele>
        <time>2024-08-13T08:00:40Z</time>
      </trkpt>
      <trkpt lat="44.65183" lon="2.53553">
        <ele>288.8</ele>
        <time>2024-08-13T08:00:43Z</time>
      </trkpt>
      <trkpt lat="44.65187" lon="2.53555">
        <ele>288.9</ele>
        <time>2024-08-13T08:00:44Z</time>
      </trkpt>
      <trkpt lat="44.65204" lon="2.53561">
        <ele>289.3</ele>
        <time>2024-08-13T08:00:48Z</time>
      </trkpt>
      <trkpt lat="44.65224" lon="2.53566">
        <ele>289.9</ele>
        <time>2024-08-13T08:00:53Z</time>
      </trkpt>
      <trkpt lat="44.65228" lon="2.53566">
        <ele>290</ele>
        <time>2024-08-13T08:00:54Z</time>
      </trkpt>
      <trkpt lat="44.65238" lon="2.53568">
        <ele>290.3</ele>
        <time>2024-08-13T08:00:56Z</time>
      </trkpt>
      <trkpt lat="44.65248" lon="2.53569">
        <ele>290.5</ele>
        <time>2024-08-13T08:00:58Z</time>
      </trkpt>
      <trkpt lat="44.6526" lon="2.53564">
        <ele>290.6</ele>
        <time>2024-08-13T08:01:01Z</time>
      </trkpt>
      <trkpt lat="44.65264" lon="2.53561">
        <ele>290.5</ele>
        <time>2024-08-13T08:01:02Z</time>
      </trkpt>
      <trkpt lat="44.65268" lon="2.53559">
        <ele>290.5</ele>
        <time>2024-08-13T08:01:03Z</time>
      </trkpt>
      <trkpt lat="44.65276" lon="2.53553">
        <ele>290.3</ele>
        <time>2024-08-13T08:01:05Z</time>
      </trkpt>
      <trkpt lat="44.6528" lon="2.5355">
        <ele>290.3</ele>
        <time>2024-08-13T08:01:06Z</time>
      </trkpt>
      <trkpt lat="44.65284" lon="2.53547">
        <ele>290.2</ele>
        <time>2024-08-13T08:01:07Z</time>
      </trkpt>
      <trkpt lat="44.65291" lon="2.5354">
        <ele>290.1</ele>
        <time>2024-08-13T08:01:09Z</time>
      </trkpt>
      <trkpt lat="44.65295" lon="2.53538">
        <ele>290</ele>
        <time>2024-08-13T08:01:10Z</time>
      </trkpt>
      <trkpt lat="44.65299" lon="2.53535">
        <ele>289.9</ele>
        <time>2024-08-13T08:01:11Z</time>
      </trkpt>
      <trkpt lat="44.65312" lon="2.53528">
        <ele>289.6</ele>
        <time>2024-08-13T08:01:14Z</time>
      </trkpt>
      <trkpt lat="44.65317" lon="2.53527">
        <ele>289.5</ele>
        <time>2024-08-13T08:01:15Z</time>
      </trkpt>
      <trkpt lat="44.65322" lon="2.53527">
        <ele>289.4</ele>
        <time>2024-08-13T08:01:16Z</time>
      </trkpt>
      <trkpt lat="44.65334" lon="2.53526">
        <ele>289.1</ele>
        <time>2024-08-13T08:01:18Z</time>
      </trkpt>
      <trkpt lat="44.6534" lon="2.53525">
        <ele>289</ele>
        <time>2024-08-13T08:01:19Z</time>
      </trkpt>
      <trkpt lat="44.65353" lon="2.53524">
        <ele>289.2</ele>
        <time>2024-08-13T08:01:21Z</time>
      </trkpt>
      <trkpt lat="44.65359" lon="2.53523">
        <ele>289.4</ele>
        <time>2024-08-13T08:01:22Z</time>
      </trkpt>
      <trkpt lat="44.65382" lon="2.53523">
        <ele>290.5</ele>
        <time>2024-08-13T08:01:27Z</time>
      </trkpt>
      <trkpt lat="44.65396" lon="2.53524">
        <ele>291.4</ele>
        <time>2024-08-13T08:01:31Z</time>
      </trkpt>
      <trkpt lat="44.65411" lon="2.53524">
        <ele>292.3</ele>
        <time>2024-08-13T08:01:37Z</time>
      </trkpt>
      <trkpt lat="44.65423" lon="2.53527">
        <ele>293</ele>
        <time>2024-08-13T08:01:42Z</time>
      </trkpt>
      <trkpt lat="44.65431" lon="2.5353">
        <ele>293.5</ele>
        <time>2024-08-13T08:01:45Z</time>
      </trkpt>
      <trkpt lat="44.65437" lon="2.53531">
        <ele>293.9</ele>
        <time>2024-08-13T08:01:47Z</time>
      </trkpt>
      <trkpt lat="44.65446" lon="2.53533">
        <ele>294.4</ele>
        <time>2024-08-13T08:01:50Z</time>
      </trkpt>
      <trkpt lat="44.65448" lon="2.53534">
        <ele>294.5</ele>
        <time>2024-08-13T08:01:51Z</time>
      </trkpt>
      <trkpt lat="44.65461" lon="2.53538">
        <ele>295.4</ele>
        <time>2024-08-13T08:01:56Z</time>
      </trkpt>
      <trkpt lat="44.65475" lon="2.53547">
        <ele>296.6</ele>
        <time>2024-08-13T08:02:01Z</time>
      </trkpt>
      <trkpt lat="44.65483" lon="2.53556">
        <ele>297.3</ele>
        <time>2024-08-13T08:02:05Z</time>
      </trkpt>
      <trkpt lat="44.65485" lon="2.53556">
        <ele>297.5</ele>
        <time>2024-08-13T08:02:08Z</time>
      </trkpt>
      <trkpt lat="44.65491" lon="2.53568">
        <ele>298.3</ele>
        <time>2024-08-13T08:02:13Z</time>
      </trkpt>
      <trkpt lat="44.65497" lon="2.5358">
        <ele>299.3</ele>
        <time>2024-08-13T08:02:18Z</time>
      </trkpt>
      <trkpt lat="44.65502" lon="2.53588">
        <ele>300.2</ele>
        <time>2024-08-13T08:02:21Z</time>
      </trkpt>
      <trkpt lat="44.65503" lon="2.53589">
        <ele>300.3</ele>
        <time>2024-08-13T08:02:23Z</time>
      </trkpt>
      <trkpt lat="44.65506" lon="2.53594">
        <ele>300.9</ele>
        <time>2024-08-13T08:02:26Z</time>
      </trkpt>
      <trkpt lat="44.65507" lon="2.53597">
        <ele>301.2</ele>
        <time>2024-08-13T08:02:28Z</time>
      </trkpt>
      <trkpt lat="44.65509" lon="2.53601">
        <ele>301.5</ele>
        <time>2024-08-13T08:02:30Z</time>
      </trkpt>
      <trkpt lat="44.65513" lon="2.53611">
        <ele>302.5</ele>
        <time>2024-08-13T08:02:36Z</time>
      </trkpt>
      <trkpt lat="44.65519" lon="2.53621">
        <ele>303.6</ele>
        <time>2024-08-13T08:02:43Z</time>
      </trkpt>
      <trkpt lat="44.65524" lon="2.53627">
        <ele>304.3</ele>
        <time>2024-08-13T08:02:48Z</time>
      </trkpt>
      <trkpt lat="44.65529" lon="2.53628">
        <ele>304.7</ele>
        <time>2024-08-13T08:02:52Z</time>
      </trkpt>
      <trkpt lat="44.6553" lon="2.53629">
        <ele>304.9</ele>
        <time>2024-08-13T08:02:53Z</time>
      </trkpt>
      <trkpt lat="44.65533" lon="2.53629">
        <ele>305.1</ele>
        <time>2024-08-13T08:02:55Z</time>
      </trkpt>
      <trkpt lat="44.65534" lon="2.53629">
        <ele>305.2</ele>
        <time>2024-08-13T08:02:56Z</time>
      </trkpt>
      <trkpt lat="44.65541" lon="2.53632">
        <ele>305.9</ele>
        <time>2024-08-13T08:03:01Z</time>
      </trkpt>
      <trkpt lat="44.65552" lon="2.53636">
        <ele>306.7</ele>
        <time>2024-08-13T08:03:07Z</time>
      </trkpt>
      <trkpt lat="44.65563" lon="2.53639">
        <ele>307.6</ele>
        <time>2024-08-13T08:03:13Z</time>
      </trkpt>
      <trkpt lat="44.65573" lon="2.53643">
        <ele>308.4</ele>
        <time>2024-08-13T08:03:19Z</time>
      </trkpt>
      <trkpt lat="44.6558" lon="2.53645">
        <ele>309</ele>
        <time>2024-08-13T08:03:23Z</time>
      </trkpt>
      <trkpt lat="44.65583" lon="2.53647">
        <ele>309.3</ele>
        <time>2024-08-13T08:03:25Z</time>
      </trkpt>
      <trkpt lat="44.6559" lon="2.53649">
        <ele>309.9</ele>
        <time>2024-08-13T08:03:29Z</time>
      </trkpt>
      <trkpt lat="44.65598" lon="2.53653">
        <ele>310.6</ele>
        <time>2024-08-13T08:03:34Z</time>
      </trkpt>
      <trkpt lat="44.65603" lon="2.53655">
        <ele>311</ele>
        <time>2024-08-13T08:03:37Z</time>
      </trkpt>
      <trkpt lat="44.65609" lon="2.53656">
        <ele>311.5</ele>
        <time>2024-08-13T08:03:41Z</time>
      </trkpt>
      <trkpt lat="44.65621" lon="2.53657">
        <ele>312.6</ele>
        <time>2024-08-13T08:03:47Z</time>
      </trkpt>
      <trkpt lat="44.6563" lon="2.53656">
        <ele>313.4</ele>
        <time>2024-08-13T08:03:51Z</time>
      </trkpt>
      <trkpt lat="44.65634" lon="2.53656">
        <ele>313.7</ele>
        <time>2024-08-13T08:03:53Z</time>
      </trkpt>
      <trkpt lat="44.65642" lon="2.53657">
        <ele>314.3</ele>
        <time>2024-08-13T08:03:57Z</time>
      </trkpt>
      <trkpt lat="44.65643" lon="2.53657">
        <ele>314.4</ele>
        <time>2024-08-13T08:03:58Z</time>
      </trkpt>
      <trkpt lat="44.65645" lon="2.53656">
        <ele>314.6</ele>
        <time>2024-08-13T08:03:59Z</time>
      </trkpt>
      <trkpt lat="44.65651" lon="2.53654">
        <ele>315.1</ele>
        <time>2024-08-13T08:04:02Z</time>
      </trkpt>
      <trkpt lat="44.65653" lon="2.53654">
        <ele>315.2</ele>
        <time>2024-08-13T08:04:03Z</time>
      </trkpt>
      <trkpt lat="44.65658" lon="2.53652">
        <ele>315.6</ele>
        <time>2024-08-13T08:04:06Z</time>
      </trkpt>
      <trkpt lat="44.65663" lon="2.53649">
        <ele>316</ele>
        <time>2024-08-13T08:04:09Z</time>
      </trkpt>
      <trkpt lat="44.65665" lon="2.53648">
        <ele>316.2</ele>
        <time>2024-08-13T08:04:11Z</time>
      </trkpt>
      <trkpt lat="44.65672" lon="2.53645">
        <ele>316.7</ele>
        <time>2024-08-13T08:04:16Z</time>
      </trkpt>
      <trkpt lat="44.65683" lon="2.53638">
        <ele>317.6</ele>
        <time>2024-08-13T08:04:23Z</time>
      </trkpt>
      <trkpt lat="44.65693" lon="2.53635">
        <ele>318.3</ele>
        <time>2024-08-13T08:04:28Z</time>
      </trkpt>
      <trkpt lat="44.65694" lon="2.53634">
        <ele>318.5</ele>
        <time>2024-08-13T08:04:29Z</time>
      </trkpt>
      <trkpt lat="44.65698" lon="2.53634">
        <ele>318.7</ele>
        <time>2024-08-13T08:04:31Z</time>
      </trkpt>
      <trkpt lat="44.65702" lon="2.53634">
        <ele>319.1</ele>
        <time>2024-08-13T08:04:33Z</time>
      </trkpt>
      <trkpt lat="44.65709" lon="2.53632">
        <ele>319.6</ele>
        <time>2024-08-13T08:04:36Z</time>
      </trkpt>
      <trkpt lat="44.65713" lon="2.53631">
        <ele>319.9</ele>
        <time>2024-08-13T08:04:38Z</time>
      </trkpt>
      <trkpt lat="44.65727" lon="2.53627">
        <ele>320.9</ele>
        <time>2024-08-13T08:04:44Z</time>
      </trkpt>
      <trkpt lat="44.65734" lon="2.53624">
        <ele>321.4</ele>
        <time>2024-08-13T08:04:47Z</time>
      </trkpt>
      <trkpt lat="44.65738" lon="2.53622">
        <ele>321.7</ele>
        <time>2024-08-13T08:04:49Z</time>
      </trkpt>
      <trkpt lat="44.6575" lon="2.53615">
        <ele>322.5</ele>
        <time>2024-08-13T08:04:55Z</time>
      </trkpt>
      <trkpt lat="44.65761" lon="2.53606">
        <ele>323.3</ele>
        <time>2024-08-13T08:05:01Z</time>
      </trkpt>
      <trkpt lat="44.65773" lon="2.53597">
        <ele>324.3</ele>
        <time>2024-08-13T08:05:08Z</time>
      </trkpt>
      <trkpt lat="44.65788" lon="2.53597">
        <ele>325.5</ele>
        <time>2024-08-13T08:05:15Z</time>
      </trkpt>
      <trkpt lat="44.65798" lon="2.536">
        <ele>326.4</ele>
        <time>2024-08-13T08:05:20Z</time>
      </trkpt>
      <trkpt lat="44.65804" lon="2.53599">
        <ele>326.8</ele>
        <time>2024-08-13T08:05:24Z</time>
      </trkpt>
      <trkpt lat="44.65805" lon="2.53599">
        <ele>327</ele>
        <time>2024-08-13T08:05:25Z</time>
      </trkpt>
      <trkpt lat="44.65811" lon="2.536">
        <ele>327.4</ele>
        <time>2024-08-13T08:05:28Z</time>
      </trkpt>
      <trkpt lat="44.65821" lon="2.53604">
        <ele>328.2</ele>
        <time>2024-08-13T08:05:34Z</time>
      </trkpt>
      <trkpt lat="44.65833" lon="2.53609">
        <ele>329.1</ele>
        <time>2024-08-13T08:05:40Z</time>
      </trkpt>
      <trkpt lat="44.65834" lon="2.53609">
        <ele>329.2</ele>
        <time>2024-08-13T08:05:41Z</time>
      </trkpt>
      <trkpt lat="44.65837" lon="2.53609">
        <ele>329.4</ele>
        <time>2024-08-13T08:05:43Z</time>
      </trkpt>
      <trkpt lat="44.65839" lon="2.53609">
        <ele>329.5</ele>
        <time>2024-08-13T08:05:44Z</time>
      </trkpt>
      <trkpt lat="44.6585" lon="2.53613">
        <ele>330.4</ele>
        <time>2024-08-13T08:05:50Z</time>
      </trkpt>
      <trkpt lat="44.65859" lon="2.53615">
        <ele>331.1</ele>
        <time>2024-08-13T08:05:55Z</time>
      </trkpt>
      <trkpt lat="44.65862" lon="2.53615">
        <ele>331.3</ele>
        <time>2024-08-13T08:05:57Z</time>
      </trkpt>
      <trkpt lat="44.65869" lon="2.53616">
        <ele>331.9</ele>
        <time>2024-08-13T08:06:00Z</time>
      </trkpt>
      <trkpt lat="44.65881" lon="2.53616">
        <ele>332.8</ele>
        <time>2024-08-13T08:06:05Z</time>
      </trkpt>
      <trkpt lat="44.65888" lon="2.53615">
        <ele>333.3</ele>
        <time>2024-08-13T08:06:08Z</time>
      </trkpt>
      <trkpt lat="44.65895" lon="2.53616">
        <ele>333.9</ele>
        <time>2024-08-13T08:06:11Z</time>
      </trkpt>
      <trkpt lat="44.65902" lon="2.53615">
        <ele>334.3</ele>
        <time>2024-08-13T08:06:14Z</time>
      </trkpt>
      <trkpt lat="44.65905" lon="2.53616">
        <ele>334.5</ele>
        <time>2024-08-13T08:06:15Z</time>
      </trkpt>
      <trkpt lat="44.6591" lon="2.53617">
        <ele>334.8</ele>
        <time>2024-08-13T08:06:17Z</time>
      </trkpt>
      <trkpt lat="44.6592" lon="2.53616">
        <ele>335.4</ele>
        <time>2024-08-13T08:06:22Z</time>
      </trkpt>
      <trkpt lat="44.65922" lon="2.53616">
        <ele>335.6</ele>
        <time>2024-08-13T08:06:23Z</time>
      </trkpt>
      <trkpt lat="44.65929" lon="2.53615">
        <ele>335.9</ele>
        <time>2024-08-13T08:06:26Z</time>
      </trkpt>
      <trkpt lat="44.65942" lon="2.53614">
        <ele>336.7</ele>
        <time>2024-08-13T08:06:32Z</time>
      </trkpt>
      <trkpt lat="44.65944" lon="2.53613">
        <ele>336.8</ele>
        <time>2024-08-13T08:06:33Z</time>
      </trkpt>
      <trkpt lat="44.6595" lon="2.53612">
        <ele>337.2</ele>
        <time>2024-08-13T08:06:36Z</time>
      </trkpt>
      <trkpt lat="44.65957" lon="2.53611">
        <ele>337.6</ele>
        <time>2024-08-13T08:06:39Z</time>
      </trkpt>
      <trkpt lat="44.65962" lon="2.53611">
        <ele>338</ele>
        <time>2024-08-13T08:06:41Z</time>
      </trkpt>
      <trkpt lat="44.65971" lon="2.53612">
        <ele>338.6</ele>
        <time>2024-08-13T08:06:45Z</time>
      </trkpt>
      <trkpt lat="44.65979" lon="2.5361">
        <ele>339.1</ele>
        <time>2024-08-13T08:06:49Z</time>
      </trkpt>
      <trkpt lat="44.65987" lon="2.53609">
        <ele>339.7</ele>
        <time>2024-08-13T08:06:53Z</time>
      </trkpt>
      <trkpt lat="44.65997" lon="2.53609">
        <ele>340.4</ele>
        <time>2024-08-13T08:06:58Z</time>
      </trkpt>
      <trkpt lat="44.66001" lon="2.53609">
        <ele>340.6</ele>
        <time>2024-08-13T08:07:00Z</time>
      </trkpt>
      <trkpt lat="44.66005" lon="2.5361">
        <ele>340.9</ele>
        <time>2024-08-13T08:07:02Z</time>
      </trkpt>
      <trkpt lat="44.66014" lon="2.53612">
        <ele>341.5</ele>
        <time>2024-08-13T08:07:06Z</time>
      </trkpt>
      <trkpt lat="44.66029" lon="2.53614">
        <ele>342.5</ele>
        <time>2024-08-13T08:07:12Z</time>
      </trkpt>
      <trkpt lat="44.6603" lon="2.53614">
        <ele>342.6</ele>
        <time>2024-08-13T08:07:13Z</time>
      </trkpt>
      <trkpt lat="44.66038" lon="2.53612">
        <ele>343.2</ele>
        <time>2024-08-13T08:07:17Z</time>
      </trkpt>
      <trkpt lat="44.66043" lon="2.53612">
        <ele>343.6</ele>
        <time>2024-08-13T08:07:19Z</time>
      </trkpt>
      <trkpt lat="44.66047" lon="2.53612">
        <ele>343.9</ele>
        <time>2024-08-13T08:07:21Z</time>
      </trkpt>
      <trkpt lat="44.66059" lon="2.53613">
        <ele>344.9</ele>
        <time>2024-08-13T08:07:26Z</time>
      </trkpt>
      <trkpt lat="44.66066" lon="2.53614">
        <ele>345.5</ele>
        <time>2024-08-13T08:07:29Z</time>
      </trkpt>
      <trkpt lat="44.66075" lon="2.5362">
        <ele>346.6</ele>
        <time>2024-08-13T08:07:33Z</time>
      </trkpt>
      <trkpt lat="44.66086" lon="2.53626">
        <ele>347.8</ele>
        <time>2024-08-13T08:07:38Z</time>
      </trkpt>
      <trkpt lat="44.66097" lon="2.53629">
        <ele>348.8</ele>
        <time>2024-08-13T08:07:43Z</time>
      </trkpt>
      <trkpt lat="44.66104" lon="2.53623">
        <ele>349.7</ele>
        <time>2024-08-13T08:07:48Z</time>
      </trkpt>
      <trkpt lat="44.6611" lon="2.53615">
        <ele>350.6</ele>
        <time>2024-08-13T08:07:52Z</time>
      </trkpt>
      <trkpt lat="44.66112" lon="2.5361">
        <ele>351.1</ele>
        <time>2024-08-13T08:07:54Z</time>
      </trkpt>
      <trkpt lat="44.6612" lon="2.53599">
        <ele>352.2</ele>
        <time>2024-08-13T08:08:00Z</time>
      </trkpt>
      <trkpt lat="44.66125" lon="2.53596">
        <ele>352.7</ele>
        <time>2024-08-13T08:08:03Z</time>
      </trkpt>
      <trkpt lat="44.6613" lon="2.53593">
        <ele>353.2</ele>
        <time>2024-08-13T08:08:06Z</time>
      </trkpt>
      <trkpt lat="44.66135" lon="2.53592">
        <ele>353.6</ele>
        <time>2024-08-13T08:08:09Z</time>
      </trkpt>
      <trkpt lat="44.66138" lon="2.53593">
        <ele>353.8</ele>
        <time>2024-08-13T08:08:10Z</time>
      </trkpt>
      <trkpt lat="44.66146" lon="2.53592">
        <ele>354.4</ele>
        <time>2024-08-13T08:08:14Z</time>
      </trkpt>
      <trkpt lat="44.66147" lon="2.53591">
        <ele>354.5</ele>
        <time>2024-08-13T08:08:15Z</time>
      </trkpt>
      <trkpt lat="44.66153" lon="2.53588">
        <ele>355</ele>
        <time>2024-08-13T08:08:18Z</time>
      </trkpt>
      <trkpt lat="44.66157" lon="2.53586">
        <ele>355.2</ele>
        <time>2024-08-13T08:08:20Z</time>
      </trkpt>
      <trkpt lat="44.66159" lon="2.53585">
        <ele>355.3</ele>
        <time>2024-08-13T08:08:21Z</time>
      </trkpt>
      <trkpt lat="44.66166" lon="2.53584">
        <ele>355.8</ele>
        <time>2024-08-13T08:08:25Z</time>
      </trkpt>
      <trkpt lat="44.66168" lon="2.53583">
        <ele>355.9</ele>
        <time>2024-08-13T08:08:26Z</time>
      </trkpt>
      <trkpt lat="44.66178" lon="2.53583">
        <ele>356.4</ele>
        <time>2024-08-13T08:08:31Z</time>
      </trkpt>
      <trkpt lat="44.66185" lon="2.5358">
        <ele>356.9</ele>
        <time>2024-08-13T08:08:35Z</time>
      </trkpt>
      <trkpt lat="44.66187" lon="2.5358">
        <ele>357</ele>
        <time>2024-08-13T08:08:36Z</time>
      </trkpt>
      <trkpt lat="44.66196" lon="2.53577">
        <ele>357.6</ele>
        <time>2024-08-13T08:08:41Z</time>
      </trkpt>
      <trkpt lat="44.66199" lon="2.53574">
        <ele>357.9</ele>
        <time>2024-08-13T08:08:43Z</time>
      </trkpt>
      <trkpt lat="44.66203" lon="2.53569">
        <ele>358.2</ele>
        <time>2024-08-13T08:08:46Z</time>
      </trkpt>
      <trkpt lat="44.66205" lon="2.53568">
        <ele>358.3</ele>
        <time>2024-08-13T08:08:47Z</time>
      </trkpt>
      <trkpt lat="44.66212" lon="2.53558">
        <ele>358.9</ele>
        <time>2024-08-13T08:08:52Z</time>
      </trkpt>
      <trkpt lat="44.66216" lon="2.53543">
        <ele>359.5</ele>
        <time>2024-08-13T08:08:57Z</time>
      </trkpt>
      <trkpt lat="44.66215" lon="2.53541">
        <ele>359.6</ele>
        <time>2024-08-13T08:08:58Z</time>
      </trkpt>
      <trkpt lat="44.66204" lon="2.53525">
        <ele>360.3</ele>
        <time>2024-08-13T08:09:03Z</time>
      </trkpt>
      <trkpt lat="44.6619" lon="2.53516">
        <ele>361</ele>
        <time>2024-08-13T08:09:08Z</time>
      </trkpt>
      <trkpt lat="44.66181" lon="2.53512">
        <ele>361.4</ele>
        <time>2024-08-13T08:09:11Z</time>
      </trkpt>
      <trkpt lat="44.66172" lon="2.53516">
        <ele>362</ele>
        <time>2024-08-13T08:09:15Z</time>
      </trkpt>
      <trkpt lat="44.6617" lon="2.53516">
        <ele>362.1</ele>
        <time>2024-08-13T08:09:16Z</time>
      </trkpt>
      <trkpt lat="44.66163" lon="2.53517">
        <ele>362.6</ele>
        <time>2024-08-13T08:09:19Z</time>
      </trkpt>
      <trkpt lat="44.6616" lon="2.53516">
        <ele>362.8</ele>
        <time>2024-08-13T08:09:20Z</time>
      </trkpt>
      <trkpt lat="44.66146" lon="2.53519">
        <ele>363.9</ele>
        <time>2024-08-13T08:09:27Z</time>
      </trkpt>
      <trkpt lat="44.66134" lon="2.53519">
        <ele>364.8</ele>
        <time>2024-08-13T08:09:32Z</time>
      </trkpt>
      <trkpt lat="44.66123" lon="2.53521">
        <ele>365.7</ele>
        <time>2024-08-13T08:09:37Z</time>
      </trkpt>
      <trkpt lat="44.66121" lon="2.53521">
        <ele>365.9</ele>
        <time>2024-08-13T08:09:38Z</time>
      </trkpt>
      <trkpt lat="44.66113" lon="2.53525">
        <ele>366.6</ele>
        <time>2024-08-13T08:09:42Z</time>
      </trkpt>
      <trkpt lat="44.66101" lon="2.5353">
        <ele>367.7</ele>
        <time>2024-08-13T08:09:48Z</time>
      </trkpt>
      <trkpt lat="44.66088" lon="2.53533">
        <ele>368.9</ele>
        <time>2024-08-13T08:09:54Z</time>
      </trkpt>
      <trkpt lat="44.66079" lon="2.53535">
        <ele>369.7</ele>
        <time>2024-08-13T08:09:59Z</time>
      </trkpt>
      <trkpt lat="44.66071" lon="2.53535">
        <ele>370.4</ele>
        <time>2024-08-13T08:10:03Z</time>
      </trkpt>
      <trkpt lat="44.66069" lon="2.53534">
        <ele>370.6</ele>
        <time>2024-08-13T08:10:04Z</time>
      </trkpt>
      <trkpt lat="44.66056" lon="2.5353">
        <ele>371.9</ele>
        <time>2024-08-13T08:10:11Z</time>
      </trkpt>
      <trkpt lat="44.66049" lon="2.53527">
        <ele>372.7</ele>
        <time>2024-08-13T08:10:15Z</time>
      </trkpt>
      <trkpt lat="44.66041" lon="2.53521">
        <ele>373.7</ele>
        <time>2024-08-13T08:10:20Z</time>
      </trkpt>
      <trkpt lat="44.66036" lon="2.53514">
        <ele>374.4</ele>
        <time>2024-08-13T08:10:24Z</time>
      </trkpt>
      <trkpt lat="44.66033" lon="2.53511">
        <ele>374.8</ele>
        <time>2024-08-13T08:10:26Z</time>
      </trkpt>
      <trkpt lat="44.66031" lon="2.53508">
        <ele>375.1</ele>
        <time>2024-08-13T08:10:28Z</time>
      </trkpt>
      <trkpt lat="44.66026" lon="2.53504">
        <ele>375.6</ele>
        <time>2024-08-13T08:10:31Z</time>
      </trkpt>
      <trkpt lat="44.66019" lon="2.535">
        <ele>376.3</ele>
        <time>2024-08-13T08:10:35Z</time>
      </trkpt>
      <trkpt lat="44.66009" lon="2.53502">
        <ele>377.3</ele>
        <time>2024-08-13T08:10:41Z</time>
      </trkpt>
      <trkpt lat="44.65996" lon="2.53506">
        <ele>378.2</ele>
        <time>2024-08-13T08:10:48Z</time>
      </trkpt>
      <trkpt lat="44.65986" lon="2.53507">
        <ele>378.8</ele>
        <time>2024-08-13T08:10:53Z</time>
      </trkpt>
      <trkpt lat="44.6598" lon="2.53506">
        <ele>379.3</ele>
        <time>2024-08-13T08:10:57Z</time>
      </trkpt>
      <trkpt lat="44.65978" lon="2.53506">
        <ele>379.4</ele>
        <time>2024-08-13T08:10:58Z</time>
      </trkpt>
      <trkpt lat="44.65967" lon="2.53506">
        <ele>380.1</ele>
        <time>2024-08-13T08:11:04Z</time>
      </trkpt>
      <trkpt lat="44.65957" lon="2.53506">
        <ele>380.8</ele>
        <time>2024-08-13T08:11:10Z</time>
      </trkpt>
      <trkpt lat="44.65947" lon="2.53506">
        <ele>381.6</ele>
        <time>2024-08-13T08:11:16Z</time>
      </trkpt>
      <trkpt lat="44.65935" lon="2.53505">
        <ele>382.5</ele>
        <time>2024-08-13T08:11:22Z</time>
      </trkpt>
      <trkpt lat="44.65922" lon="2.53508">
        <ele>383.6</ele>
        <time>2024-08-13T08:11:30Z</time>
      </trkpt>
      <trkpt lat="44.65911" lon="2.53509">
        <ele>384.5</ele>
        <time>2024-08-13T08:11:36Z</time>
      </trkpt>
      <trkpt lat="44.65899" lon="2.5351">
        <ele>385.5</ele>
        <time>2024-08-13T08:11:43Z</time>
      </trkpt>
      <trkpt lat="44.65897" lon="2.53509">
        <ele>385.8</ele>
        <time>2024-08-13T08:11:44Z</time>
      </trkpt>
      <trkpt lat="44.6589" lon="2.53506">
        <ele>386.4</ele>
        <time>2024-08-13T08:11:48Z</time>
      </trkpt>
      <trkpt lat="44.65878" lon="2.53502">
        <ele>387.3</ele>
        <time>2024-08-13T08:11:55Z</time>
      </trkpt>
      <trkpt lat="44.65867" lon="2.53495">
        <ele>388.3</ele>
        <time>2024-08-13T08:12:02Z</time>
      </trkpt>
      <trkpt lat="44.65857" lon="2.53484">
        <ele>389.3</ele>
        <time>2024-08-13T08:12:09Z</time>
      </trkpt>
      <trkpt lat="44.65848" lon="2.53473">
        <ele>390.2</ele>
        <time>2024-08-13T08:12:15Z</time>
      </trkpt>
      <trkpt lat="44.65839" lon="2.53465">
        <ele>391.2</ele>
        <time>2024-08-13T08:12:21Z</time>
      </trkpt>
      <trkpt lat="44.6583" lon="2.53459">
        <ele>392</ele>
        <time>2024-08-13T08:12:26Z</time>
      </trkpt>
      <trkpt lat="44.6582" lon="2.53453">
        <ele>393.1</ele>
        <time>2024-08-13T08:12:32Z</time>
      </trkpt>
      <trkpt lat="44.6581" lon="2.53451">
        <ele>394</ele>
        <time>2024-08-13T08:12:38Z</time>
      </trkpt>
      <trkpt lat="44.65799" lon="2.53445">
        <ele>395.1</ele>
        <time>2024-08-13T08:12:45Z</time>
      </trkpt>
      <trkpt lat="44.65792" lon="2.53439">
        <ele>395.9</ele>
        <time>2024-08-13T08:12:50Z</time>
      </trkpt>
      <trkpt lat="44.65788" lon="2.53435">
        <ele>396.4</ele>
        <time>2024-08-13T08:12:53Z</time>
      </trkpt>
      <trkpt lat="44.65784" lon="2.53431">
        <ele>396.9</ele>
        <time>2024-08-13T08:12:56Z</time>
      </trkpt>
      <trkpt lat="44.65783" lon="2.53429">
        <ele>397.1</ele>
        <time>2024-08-13T08:12:57Z</time>
      </trkpt>
      <trkpt lat="44.6578" lon="2.53423">
        <ele>397.7</ele>
        <time>2024-08-13T08:13:00Z</time>
      </trkpt>
      <trkpt lat="44.65772" lon="2.53411">
        <ele>399</ele>
        <time>2024-08-13T08:13:07Z</time>
      </trkpt>
      <trkpt lat="44.65765" lon="2.53399">
        <ele>400.2</ele>
        <time>2024-08-13T08:13:13Z</time>
      </trkpt>
      <trkpt lat="44.65759" lon="2.5339">
        <ele>401.1</ele>
        <time>2024-08-13T08:13:18Z</time>
      </trkpt>
      <trkpt lat="44.65752" lon="2.53382">
        <ele>401.9</ele>
        <time>2024-08-13T08:13:23Z</time>
      </trkpt>
      <trkpt lat="44.65746" lon="2.53374">
        <ele>402.7</ele>
        <time>2024-08-13T08:13:28Z</time>
      </trkpt>
      <trkpt lat="44.65738" lon="2.53364">
        <ele>403.6</ele>
        <time>2024-08-13T08:13:34Z</time>
      </trkpt>
      <trkpt lat="44.65731" lon="2.53356">
        <ele>404.3</ele>
        <time>2024-08-13T08:13:39Z</time>
      </trkpt>
      <trkpt lat="44.65721" lon="2.53342">
        <ele>405.4</ele>
        <time>2024-08-13T08:13:47Z</time>
      </trkpt>
      <trkpt lat="44.65714" lon="2.5333">
        <ele>406.1</ele>
        <time>2024-08-13T08:13:53Z</time>
      </trkpt>
      <trkpt lat="44.65708" lon="2.53321">
        <ele>406.8</ele>
        <time>2024-08-13T08:13:58Z</time>
      </trkpt>
      <trkpt lat="44.65703" lon="2.53307">
        <ele>407.6</ele>
        <time>2024-08-13T08:14:05Z</time>
      </trkpt>
      <trkpt lat="44.657" lon="2.53298">
        <ele>408.2</ele>
        <time>2024-08-13T08:14:10Z</time>
      </trkpt>
      <trkpt lat="44.657" lon="2.53298">
        <ele>408.3</ele>
        <time>2024-08-13T08:14:11Z</time>
      </trkpt>
      <trkpt lat="44.65697" lon="2.5329">
        <ele>408.9</ele>
        <time>2024-08-13T08:14:14Z</time>
      </trkpt>
      <trkpt lat="44.65693" lon="2.53274">
        <ele>409.9</ele>
        <time>2024-08-13T08:14:19Z</time>
      </trkpt>
      <trkpt lat="44.6569" lon="2.53264">
        <ele>410.7</ele>
        <time>2024-08-13T08:14:24Z</time>
      </trkpt>
      <trkpt lat="44.65689" lon="2.53251">
        <ele>411.6</ele>
        <time>2024-08-13T08:14:31Z</time>
      </trkpt>
      <trkpt lat="44.65688" lon="2.53249">
        <ele>411.8</ele>
        <time>2024-08-13T08:14:32Z</time>
      </trkpt>
      <trkpt lat="44.65683" lon="2.5323">
        <ele>413.4</ele>
        <time>2024-08-13T08:14:39Z</time>
      </trkpt>
      <trkpt lat="44.6568" lon="2.53226">
        <ele>413.8</ele>
        <time>2024-08-13T08:14:41Z</time>
      </trkpt>
      <trkpt lat="44.65674" lon="2.53223">
        <ele>414.5</ele>
        <time>2024-08-13T08:14:44Z</time>
      </trkpt>
      <trkpt lat="44.65672" lon="2.53223">
        <ele>414.8</ele>
        <time>2024-08-13T08:14:45Z</time>
      </trkpt>
      <trkpt lat="44.65662" lon="2.53234">
        <ele>416.2</ele>
        <time>2024-08-13T08:14:52Z</time>
      </trkpt>
      <trkpt lat="44.65651" lon="2.53239">
        <ele>417.4</ele>
        <time>2024-08-13T08:14:59Z</time>
      </trkpt>
      <trkpt lat="44.65641" lon="2.53246">
        <ele>418.4</ele>
        <time>2024-08-13T08:15:05Z</time>
      </trkpt>
      <trkpt lat="44.65626" lon="2.53252">
        <ele>419.4</ele>
        <time>2024-08-13T08:15:14Z</time>
      </trkpt>
      <trkpt lat="44.65615" lon="2.53245">
        <ele>420.3</ele>
        <time>2024-08-13T08:15:21Z</time>
      </trkpt>
      <trkpt lat="44.65613" lon="2.53243">
        <ele>420.4</ele>
        <time>2024-08-13T08:15:22Z</time>
      </trkpt>
      <trkpt lat="44.65607" lon="2.53233">
        <ele>421.2</ele>
        <time>2024-08-13T08:15:27Z</time>
      </trkpt>
      <trkpt lat="44.65606" lon="2.53231">
        <ele>421.4</ele>
        <time>2024-08-13T08:15:28Z</time>
      </trkpt>
      <trkpt lat="44.65599" lon="2.53218">
        <ele>422.3</ele>
        <time>2024-08-13T08:15:35Z</time>
      </trkpt>
      <trkpt lat="44.65593" lon="2.53206">
        <ele>423.1</ele>
        <time>2024-08-13T08:15:41Z</time>
      </trkpt>
      <trkpt lat="44.65586" lon="2.5319">
        <ele>424</ele>
        <time>2024-08-13T08:15:48Z</time>
      </trkpt>
      <trkpt lat="44.65579" lon="2.53178">
        <ele>424.4</ele>
        <time>2024-08-13T08:15:54Z</time>
      </trkpt>
      <trkpt lat="44.6557" lon="2.53162">
        <ele>424.8</ele>
        <time>2024-08-13T08:16:02Z</time>
      </trkpt>
      <trkpt lat="44.65566" lon="2.53156">
        <ele>424.9</ele>
        <time>2024-08-13T08:16:05Z</time>
      </trkpt>
      <trkpt lat="44.65559" lon="2.53154">
        <ele>425</ele>
        <time>2024-08-13T08:16:08Z</time>
      </trkpt>
      <trkpt lat="44.65555" lon="2.53155">
        <ele>425.1</ele>
        <time>2024-08-13T08:16:10Z</time>
      </trkpt>
      <trkpt lat="44.65552" lon="2.53158">
        <ele>425.1</ele>
        <time>2024-08-13T08:16:12Z</time>
      </trkpt>
      <trkpt lat="44.65544" lon="2.53174">
        <ele>425.4</ele>
        <time>2024-08-13T08:16:18Z</time>
      </trkpt>
      <trkpt lat="44.65533" lon="2.53188">
        <ele>425.8</ele>
        <time>2024-08-13T08:16:25Z</time>
      </trkpt>
      <trkpt lat="44.65531" lon="2.5319">
        <ele>425.9</ele>
        <time>2024-08-13T08:16:26Z</time>
      </trkpt>
      <trkpt lat="44.65525" lon="2.53193">
        <ele>426.1</ele>
        <time>2024-08-13T08:16:29Z</time>
      </trkpt>
      <trkpt lat="44.65513" lon="2.53195">
        <ele>426.4</ele>
        <time>2024-08-13T08:16:35Z</time>
      </trkpt>
      <trkpt lat="44.65502" lon="2.53186">
        <ele>426.8</ele>
        <time>2024-08-13T08:16:41Z</time>
      </trkpt>
      <trkpt lat="44.65495" lon="2.53175">
        <ele>427.3</ele>
        <time>2024-08-13T08:16:46Z</time>
      </trkpt>
      <trkpt lat="44.65488" lon="2.5316">
        <ele>427.8</ele>
        <time>2024-08-13T08:16:52Z</time>
      </trkpt>
      <trkpt lat="44.65483" lon="2.53144">
        <ele>428.5</ele>
        <time>2024-08-13T08:16:58Z</time>
      </trkpt>
      <trkpt lat="44.6548" lon="2.5313">
        <ele>429.1</ele>
        <time>2024-08-13T08:17:03Z</time>
      </trkpt>
      <trkpt lat="44.6548" lon="2.53127">
        <ele>429.3</ele>
        <time>2024-08-13T08:17:04Z</time>
      </trkpt>
      <trkpt lat="44.6548" lon="2.53123">
        <ele>429.4</ele>
        <time>2024-08-13T08:17:07Z</time>
      </trkpt>
      <trkpt lat="44.65478" lon="2.53113">
        <ele>429.9</ele>
        <time>2024-08-13T08:17:11Z</time>
      </trkpt>
      <trkpt lat="44.6547" lon="2.531">
        <ele>430.5</ele>
        <time>2024-08-13T08:17:17Z</time>
      </trkpt>
      <trkpt lat="44.65459" lon="2.53091">
        <ele>431</ele>
        <time>2024-08-13T08:17:23Z</time>
      </trkpt>
      <trkpt lat="44.65457" lon="2.53091">
        <ele>431.1</ele>
        <time>2024-08-13T08:17:24Z</time>
      </trkpt>
      <trkpt lat="44.65451" lon="2.53088">
        <ele>431.4</ele>
        <time>2024-08-13T08:17:29Z</time>
      </trkpt>
      <trkpt lat="44.65447" lon="2.53085">
        <ele>431.5</ele>
        <time>2024-08-13T08:17:33Z</time>
      </trkpt>
      <trkpt lat="44.65439" lon="2.53077">
        <ele>432</ele>
        <time>2024-08-13T08:17:39Z</time>
      </trkpt>
      <trkpt lat="44.65433" lon="2.53072">
        <ele>432.4</ele>
        <time>2024-08-13T08:17:44Z</time>
      </trkpt>
      <trkpt lat="44.65432" lon="2.53071">
        <ele>432.4</ele>
        <time>2024-08-13T08:17:45Z</time>
      </trkpt>
      <trkpt lat="44.65417" lon="2.53052">
        <ele>433</ele>
        <time>2024-08-13T08:17:57Z</time>
      </trkpt>
      <trkpt lat="44.65411" lon="2.53051">
        <ele>433.2</ele>
        <time>2024-08-13T08:18:01Z</time>
      </trkpt>
      <trkpt lat="44.65401" lon="2.53047">
        <ele>433.5</ele>
        <time>2024-08-13T08:18:09Z</time>
      </trkpt>
      <trkpt lat="44.65392" lon="2.5304">
        <ele>433.9</ele>
        <time>2024-08-13T08:18:15Z</time>
      </trkpt>
      <trkpt lat="44.65386" lon="2.53036">
        <ele>434.1</ele>
        <time>2024-08-13T08:18:18Z</time>
      </trkpt>
      <trkpt lat="44.65384" lon="2.53036">
        <ele>434.2</ele>
        <time>2024-08-13T08:18:20Z</time>
      </trkpt>
      <trkpt lat="44.65382" lon="2.53035">
        <ele>434.3</ele>
        <time>2024-08-13T08:18:21Z</time>
      </trkpt>
      <trkpt lat="44.65377" lon="2.53034">
        <ele>434.5</ele>
        <time>2024-08-13T08:18:24Z</time>
      </trkpt>
      <trkpt lat="44.65372" lon="2.53036">
        <ele>434.6</ele>
        <time>2024-08-13T08:18:27Z</time>
      </trkpt>
      <trkpt lat="44.6537" lon="2.53039">
        <ele>434.7</ele>
        <time>2024-08-13T08:18:29Z</time>
      </trkpt>
      <trkpt lat="44.65367" lon="2.53043">
        <ele>434.8</ele>
        <time>2024-08-13T08:18:31Z</time>
      </trkpt>
      <trkpt lat="44.65361" lon="2.53046">
        <ele>434.8</ele>
        <time>2024-08-13T08:18:34Z</time>
      </trkpt>
      <trkpt lat="44.6536" lon="2.53047">
        <ele>434.9</ele>
        <time>2024-08-13T08:18:35Z</time>
      </trkpt>
      <trkpt lat="44.65357" lon="2.53048">
        <ele>434.9</ele>
        <time>2024-08-13T08:18:37Z</time>
      </trkpt>
      <trkpt lat="44.65355" lon="2.53049">
        <ele>434.9</ele>
        <time>2024-08-13T08:18:38Z</time>
      </trkpt>
      <trkpt lat="44.65344" lon="2.53054">
        <ele>435.1</ele>
        <time>2024-08-13T08:18:44Z</time>
      </trkpt>
      <trkpt lat="44.65334" lon="2.53057">
        <ele>435.3</ele>
        <time>2024-08-13T08:18:50Z</time>
      </trkpt>
      <trkpt lat="44.65324" lon="2.5306">
        <ele>435.6</ele>
        <time>2024-08-13T08:18:56Z</time>
      </trkpt>
      <trkpt lat="44.65315" lon="2.53059">
        <ele>435.9</ele>
        <time>2024-08-13T08:19:01Z</time>
      </trkpt>
      <trkpt lat="44.65313" lon="2.53058">
        <ele>436</ele>
        <time>2024-08-13T08:19:02Z</time>
      </trkpt>
      <trkpt lat="44.65308" lon="2.53057">
        <ele>436.2</ele>
        <time>2024-08-13T08:19:05Z</time>
      </trkpt>
      <trkpt lat="44.65299" lon="2.53056">
        <ele>436.5</ele>
        <time>2024-08-13T08:19:10Z</time>
      </trkpt>
      <trkpt lat="44.65298" lon="2.53056">
        <ele>436.5</ele>
        <time>2024-08-13T08:19:11Z</time>
      </trkpt>
      <trkpt lat="44.65292" lon="2.53054">
        <ele>436.7</ele>
        <time>2024-08-13T08:19:14Z</time>
      </trkpt>
      <trkpt lat="44.6529" lon="2.53054">
        <ele>436.7</ele>
        <time>2024-08-13T08:19:15Z</time>
      </trkpt>
      <trkpt lat="44.65286" lon="2.53054">
        <ele>436.9</ele>
        <time>2024-08-13T08:19:17Z</time>
      </trkpt>
      <trkpt lat="44.65281" lon="2.53052">
        <ele>437</ele>
        <time>2024-08-13T08:19:20Z</time>
      </trkpt>
      <trkpt lat="44.65271" lon="2.53052">
        <ele>437.3</ele>
        <time>2024-08-13T08:19:25Z</time>
      </trkpt>
      <trkpt lat="44.65264" lon="2.53053">
        <ele>437.5</ele>
        <time>2024-08-13T08:19:29Z</time>
      </trkpt>
      <trkpt lat="44.65262" lon="2.53053">
        <ele>437.6</ele>
        <time>2024-08-13T08:19:30Z</time>
      </trkpt>
      <trkpt lat="44.65257" lon="2.53053">
        <ele>437.8</ele>
        <time>2024-08-13T08:19:33Z</time>
      </trkpt>
      <trkpt lat="44.65254" lon="2.53054">
        <ele>437.9</ele>
        <time>2024-08-13T08:19:35Z</time>
      </trkpt>
      <trkpt lat="44.65241" lon="2.53056">
        <ele>438.5</ele>
        <time>2024-08-13T08:19:42Z</time>
      </trkpt>
      <trkpt lat="44.65226" lon="2.53062">
        <ele>438.3</ele>
        <time>2024-08-13T08:19:50Z</time>
      </trkpt>
      <trkpt lat="44.65215" lon="2.53071">
        <ele>437.7</ele>
        <time>2024-08-13T08:19:57Z</time>
      </trkpt>
      <trkpt lat="44.65214" lon="2.53071">
        <ele>437.6</ele>
        <time>2024-08-13T08:19:58Z</time>
      </trkpt>
      <trkpt lat="44.65212" lon="2.53072">
        <ele>437.5</ele>
        <time>2024-08-13T08:19:59Z</time>
      </trkpt>
      <trkpt lat="44.65202" lon="2.53074">
        <ele>437.1</ele>
        <time>2024-08-13T08:20:05Z</time>
      </trkpt>
      <trkpt lat="44.65189" lon="2.53078">
        <ele>436.4</ele>
        <time>2024-08-13T08:20:13Z</time>
      </trkpt>
      <trkpt lat="44.65171" lon="2.53082">
        <ele>435.6</ele>
        <time>2024-08-13T08:20:23Z</time>
      </trkpt>
      <trkpt lat="44.65159" lon="2.53079">
        <ele>435.2</ele>
        <time>2024-08-13T08:20:30Z</time>
      </trkpt>
      <trkpt lat="44.65158" lon="2.53077">
        <ele>435.1</ele>
        <time>2024-08-13T08:20:31Z</time>
      </trkpt>
      <trkpt lat="44.65159" lon="2.53073">
        <ele>435.7</ele>
        <time>2024-08-13T08:20:33Z</time>
      </trkpt>
      <trkpt lat="44.65163" lon="2.53069">
        <ele>436.6</ele>
        <time>2024-08-13T08:20:36Z</time>
      </trkpt>
      <trkpt lat="44.65175" lon="2.53071">
        <ele>439</ele>
        <time>2024-08-13T08:20:43Z</time>
      </trkpt>
      <trkpt lat="44.65188" lon="2.53064">
        <ele>441.4</ele>
        <time>2024-08-13T08:20:51Z</time>
      </trkpt>
      <trkpt lat="44.65197" lon="2.53058">
        <ele>443.3</ele>
        <time>2024-08-13T08:20:57Z</time>
      </trkpt>
      <trkpt lat="44.65206" lon="2.53052">
        <ele>445</ele>
        <time>2024-08-13T08:21:03Z</time>
      </trkpt>
      <trkpt lat="44.6522" lon="2.53042">
        <ele>447.8</ele>
        <time>2024-08-13T08:21:12Z</time>
      </trkpt>
      <trkpt lat="44.6523" lon="2.53032">
        <ele>450</ele>
        <time>2024-08-13T08:21:19Z</time>
      </trkpt>
      <trkpt lat="44.65239" lon="2.53024">
        <ele>451.9</ele>
        <time>2024-08-13T08:21:25Z</time>
      </trkpt>
      <trkpt lat="44.6525" lon="2.53014">
        <ele>454.2</ele>
        <time>2024-08-13T08:21:32Z</time>
      </trkpt>
      <trkpt lat="44.65258" lon="2.53009">
        <ele>456</ele>
        <time>2024-08-13T08:21:37Z</time>
      </trkpt>
      <trkpt lat="44.65269" lon="2.53003">
        <ele>458.2</ele>
        <time>2024-08-13T08:21:43Z</time>
      </trkpt>
      <trkpt lat="44.65278" lon="2.52998">
        <ele>460</ele>
        <time>2024-08-13T08:21:48Z</time>
      </trkpt>
      <trkpt lat="44.65288" lon="2.52993">
        <ele>462</ele>
        <time>2024-08-13T08:21:54Z</time>
      </trkpt>
      <trkpt lat="44.653" lon="2.52991">
        <ele>464</ele>
        <time>2024-08-13T08:22:00Z</time>
      </trkpt>
      <trkpt lat="44.65315" lon="2.52988">
        <ele>466.6</ele>
        <time>2024-08-13T08:22:07Z</time>
      </trkpt>
      <trkpt lat="44.65328" lon="2.52983">
        <ele>468.5</ele>
        <time>2024-08-13T08:22:13Z</time>
      </trkpt>
      <trkpt lat="44.65339" lon="2.52978">
        <ele>470.1</ele>
        <time>2024-08-13T08:22:18Z</time>
      </trkpt>
      <trkpt lat="44.65351" lon="2.52969">
        <ele>472</ele>
        <time>2024-08-13T08:22:24Z</time>
      </trkpt>
      <trkpt lat="44.65356" lon="2.52962">
        <ele>473.1</ele>
        <time>2024-08-13T08:22:27Z</time>
      </trkpt>
      <trkpt lat="44.65362" lon="2.52956">
        <ele>474.2</ele>
        <time>2024-08-13T08:22:30Z</time>
      </trkpt>
      <trkpt lat="44.65379" lon="2.52952">
        <ele>477.4</ele>
        <time>2024-08-13T08:22:37Z</time>
      </trkpt>
      <trkpt lat="44.65381" lon="2.5295">
        <ele>477.8</ele>
        <time>2024-08-13T08:22:38Z</time>
      </trkpt>
      <trkpt lat="44.65382" lon="2.52944">
        <ele>478.6</ele>
        <time>2024-08-13T08:22:40Z</time>
      </trkpt>
      <trkpt lat="44.65379" lon="2.52939">
        <ele>478.8</ele>
        <time>2024-08-13T08:22:42Z</time>
      </trkpt>
      <trkpt lat="44.65376" lon="2.52937">
        <ele>478.9</ele>
        <time>2024-08-13T08:22:43Z</time>
      </trkpt>
      <trkpt lat="44.65374" lon="2.52936">
        <ele>479</ele>
        <time>2024-08-13T08:22:44Z</time>
      </trkpt>
      <trkpt lat="44.65371" lon="2.52937">
        <ele>479.1</ele>
        <time>2024-08-13T08:22:46Z</time>
      </trkpt>
      <trkpt lat="44.65363" lon="2.52938">
        <ele>479.4</ele>
        <time>2024-08-13T08:22:52Z</time>
      </trkpt>
      <trkpt lat="44.65361" lon="2.5294">
        <ele>479.5</ele>
        <time>2024-08-13T08:22:54Z</time>
      </trkpt>
      <trkpt lat="44.65356" lon="2.5294">
        <ele>479.7</ele>
        <time>2024-08-13T08:22:57Z</time>
      </trkpt>
      <trkpt lat="44.65348" lon="2.52944">
        <ele>479.9</ele>
        <time>2024-08-13T08:23:03Z</time>
      </trkpt>
      <trkpt lat="44.65347" lon="2.52945">
        <ele>480</ele>
        <time>2024-08-13T08:23:04Z</time>
      </trkpt>
      <trkpt lat="44.65343" lon="2.52946">
        <ele>480.1</ele>
        <time>2024-08-13T08:23:06Z</time>
      </trkpt>
      <trkpt lat="44.65337" lon="2.5295">
        <ele>480.2</ele>
        <time>2024-08-13T08:23:10Z</time>
      </trkpt>
      <trkpt lat="44.6533" lon="2.52955">
        <ele>480.3</ele>
        <time>2024-08-13T08:23:16Z</time>
      </trkpt>
      <trkpt lat="44.65324" lon="2.52957">
        <ele>480.4</ele>
        <time>2024-08-13T08:23:21Z</time>
      </trkpt>
      <trkpt lat="44.65311" lon="2.52953">
        <ele>480.6</ele>
        <time>2024-08-13T08:23:29Z</time>
      </trkpt>
      <trkpt lat="44.65303" lon="2.52952">
        <ele>480.7</ele>
        <time>2024-08-13T08:23:34Z</time>
      </trkpt>
      <trkpt lat="44.65291" lon="2.5295">
        <ele>480.9</ele>
        <time>2024-08-13T08:23:41Z</time>
      </trkpt>
      <trkpt lat="44.65281" lon="2.52949">
        <ele>481.2</ele>
        <time>2024-08-13T08:23:47Z</time>
      </trkpt>
      <trkpt lat="44.65273" lon="2.52947">
        <ele>481.4</ele>
        <time>2024-08-13T08:23:52Z</time>
      </trkpt>
      <trkpt lat="44.6527" lon="2.52947">
        <ele>481.4</ele>
        <time>2024-08-13T08:23:54Z</time>
      </trkpt>
      <trkpt lat="44.65267" lon="2.52945">
        <ele>481.4</ele>
        <time>2024-08-13T08:23:56Z</time>
      </trkpt>
      <trkpt lat="44.65265" lon="2.52944">
        <ele>481.4</ele>
        <time>2024-08-13T08:23:57Z</time>
      </trkpt>
      <trkpt lat="44.65258" lon="2.52942">
        <ele>481.2</ele>
        <time>2024-08-13T08:24:01Z</time>
      </trkpt>
      <trkpt lat="44.65255" lon="2.5294">
        <ele>481</ele>
        <time>2024-08-13T08:24:03Z</time>
      </trkpt>
      <trkpt lat="44.65248" lon="2.52927">
        <ele>480.2</ele>
        <time>2024-08-13T08:24:10Z</time>
      </trkpt>
      <trkpt lat="44.65244" lon="2.52912">
        <ele>479.2</ele>
        <time>2024-08-13T08:24:15Z</time>
      </trkpt>
      <trkpt lat="44.65243" lon="2.52892">
        <ele>477.5</ele>
        <time>2024-08-13T08:24:21Z</time>
      </trkpt>
      <trkpt lat="44.65243" lon="2.52889">
        <ele>477.2</ele>
        <time>2024-08-13T08:24:22Z</time>
      </trkpt>
      <trkpt lat="44.65243" lon="2.52887">
        <ele>476.9</ele>
        <time>2024-08-13T08:24:23Z</time>
      </trkpt>
      <trkpt lat="44.65241" lon="2.52871">
        <ele>475.4</ele>
        <time>2024-08-13T08:24:27Z</time>
      </trkpt>
      <trkpt lat="44.65241" lon="2.52866">
        <ele>474.9</ele>
        <time>2024-08-13T08:24:29Z</time>
      </trkpt>
      <trkpt lat="44.65241" lon="2.52865">
        <ele>475</ele>
        <time>2024-08-13T08:24:31Z</time>
      </trkpt>
      <trkpt lat="44.65242" lon="2.52864">
        <ele>475.1</ele>
        <time>2024-08-13T08:25:31Z</time>
      </trkpt>
      <trkpt lat="44.65242" lon="2.5286">
        <ele>475.3</ele>
        <time>2024-08-13T08:25:32Z</time>
      </trkpt>
      <trkpt lat="44.65243" lon="2.52856">
        <ele>475.6</ele>
        <time>2024-08-13T08:25:33Z</time>
      </trkpt>
      <trkpt lat="44.65243" lon="2.52854">
        <ele>475.8</ele>
        <time>2024-08-13T08:25:34Z</time>
      </trkpt>
      <trkpt lat="44.65243" lon="2.52852">
        <ele>476</ele>
        <time>2024-08-13T08:25:35Z</time>
      </trkpt>
      <trkpt lat="44.65244" lon="2.52851">
        <ele>476.1</ele>
        <time>2024-08-13T08:25:36Z</time>
      </trkpt>
      <trkpt lat="44.65245" lon="2.52842">
        <ele>477</ele>
        <time>2024-08-13T08:25:41Z</time>
      </trkpt>
      <trkpt lat="44.65245" lon="2.5283">
        <ele>478.3</ele>
        <time>2024-08-13T08:25:47Z</time>
      </trkpt>
      <trkpt lat="44.65246" lon="2.52827">
        <ele>478.7</ele>
        <time>2024-08-13T08:25:49Z</time>
      </trkpt>
      <trkpt lat="44.65246" lon="2.52823">
        <ele>479</ele>
        <time>2024-08-13T08:25:51Z</time>
      </trkpt>
      <trkpt lat="44.65246" lon="2.52819">
        <ele>479.4</ele>
        <time>2024-08-13T08:25:53Z</time>
      </trkpt>
      <trkpt lat="44.65246" lon="2.52817">
        <ele>479.6</ele>
        <time>2024-08-13T08:25:54Z</time>
      </trkpt>
      <trkpt lat="44.65247" lon="2.52814">
        <ele>479.8</ele>
        <time>2024-08-13T08:25:55Z</time>
      </trkpt>
      <trkpt lat="44.65248" lon="2.52805">
        <ele>480.5</ele>
        <time>2024-08-13T08:25:59Z</time>
      </trkpt>
      <trkpt lat="44.65248" lon="2.52801">
        <ele>480.7</ele>
        <time>2024-08-13T08:26:01Z</time>
      </trkpt>
      <trkpt lat="44.65249" lon="2.52784">
        <ele>482.1</ele>
        <time>2024-08-13T08:26:09Z</time>
      </trkpt>
      <trkpt lat="44.65251" lon="2.52773">
        <ele>483.1</ele>
        <time>2024-08-13T08:26:15Z</time>
      </trkpt>
      <trkpt lat="44.65251" lon="2.52769">
        <ele>483.4</ele>
        <time>2024-08-13T08:26:17Z</time>
      </trkpt>
      <trkpt lat="44.65252" lon="2.52753">
        <ele>484.9</ele>
        <time>2024-08-13T08:26:26Z</time>
      </trkpt>
      <trkpt lat="44.65252" lon="2.52748">
        <ele>485.5</ele>
        <time>2024-08-13T08:26:29Z</time>
      </trkpt>
      <trkpt lat="44.65252" lon="2.52746">
        <ele>485.7</ele>
        <time>2024-08-13T08:26:30Z</time>
      </trkpt>
      <trkpt lat="44.65252" lon="2.52744">
        <ele>485.8</ele>
        <time>2024-08-13T08:26:31Z</time>
      </trkpt>
      <trkpt lat="44.65253" lon="2.52742">
        <ele>486</ele>
        <time>2024-08-13T08:26:32Z</time>
      </trkpt>
      <trkpt lat="44.65253" lon="2.52737">
        <ele>486.6</ele>
        <time>2024-08-13T08:26:35Z</time>
      </trkpt>
      <trkpt lat="44.65254" lon="2.52722">
        <ele>488</ele>
        <time>2024-08-13T08:26:43Z</time>
      </trkpt>
      <trkpt lat="44.65254" lon="2.52714">
        <ele>488.8</ele>
        <time>2024-08-13T08:26:47Z</time>
      </trkpt>
      <trkpt lat="44.65253" lon="2.52709">
        <ele>489.2</ele>
        <time>2024-08-13T08:26:50Z</time>
      </trkpt>
      <trkpt lat="44.6525" lon="2.52693">
        <ele>490.6</ele>
        <time>2024-08-13T08:26:58Z</time>
      </trkpt>
      <trkpt lat="44.65247" lon="2.52683">
        <ele>491.1</ele>
        <time>2024-08-13T08:27:04Z</time>
      </trkpt>
      <trkpt lat="44.65247" lon="2.52682">
        <ele>491.1</ele>
        <time>2024-08-13T08:27:05Z</time>
      </trkpt>
      <trkpt lat="44.65245" lon="2.5268">
        <ele>490.8</ele>
        <time>2024-08-13T08:27:41Z</time>
      </trkpt>
      <trkpt lat="44.65244" lon="2.52679">
        <ele>490.6</ele>
        <time>2024-08-13T08:27:42Z</time>
      </trkpt>
      <trkpt lat="44.65243" lon="2.52678">
        <ele>490.4</ele>
        <time>2024-08-13T08:27:43Z</time>
      </trkpt>
      <trkpt lat="44.65239" lon="2.52674">
        <ele>489.7</ele>
        <time>2024-08-13T08:27:45Z</time>
      </trkpt>
      <trkpt lat="44.65231" lon="2.52668">
        <ele>488.2</ele>
        <time>2024-08-13T08:27:47Z</time>
      </trkpt>
      <trkpt lat="44.65209" lon="2.5265">
        <ele>484.4</ele>
        <time>2024-08-13T08:27:52Z</time>
      </trkpt>
      <trkpt lat="44.65201" lon="2.52644">
        <ele>483.9</ele>
        <time>2024-08-13T08:27:56Z</time>
      </trkpt>
      <trkpt lat="44.652" lon="2.52644">
        <ele>483.9</ele>
        <time>2024-08-13T08:27:58Z</time>
      </trkpt>
      <trkpt lat="44.65199" lon="2.52641">
        <ele>483.9</ele>
        <time>2024-08-13T08:28:07Z</time>
      </trkpt>
      <trkpt lat="44.65199" lon="2.52638">
        <ele>483.9</ele>
        <time>2024-08-13T08:28:08Z</time>
      </trkpt>
      <trkpt lat="44.65197" lon="2.52632">
        <ele>484.1</ele>
        <time>2024-08-13T08:28:11Z</time>
      </trkpt>
      <trkpt lat="44.65197" lon="2.5263">
        <ele>484.1</ele>
        <time>2024-08-13T08:28:13Z</time>
      </trkpt>
      <trkpt lat="44.65198" lon="2.52625">
        <ele>484.3</ele>
        <time>2024-08-13T08:28:14Z</time>
      </trkpt>
      <trkpt lat="44.65198" lon="2.52623">
        <ele>484.5</ele>
        <time>2024-08-13T08:28:15Z</time>
      </trkpt>
      <trkpt lat="44.65199" lon="2.52608">
        <ele>485.2</ele>
        <time>2024-08-13T08:28:20Z</time>
      </trkpt>
      <trkpt lat="44.65204" lon="2.52593">
        <ele>485.8</ele>
        <time>2024-08-13T08:28:25Z</time>
      </trkpt>
      <trkpt lat="44.65205" lon="2.5259">
        <ele>485.9</ele>
        <time>2024-08-13T08:28:26Z</time>
      </trkpt>
      <trkpt lat="44.65206" lon="2.52587">
        <ele>485.9</ele>
        <time>2024-08-13T08:28:27Z</time>
      </trkpt>
      <trkpt lat="44.6521" lon="2.52579">
        <ele>486</ele>
        <time>2024-08-13T08:28:30Z</time>
      </trkpt>
      <trkpt lat="44.65215" lon="2.52569">
        <ele>485.9</ele>
        <time>2024-08-13T08:28:33Z</time>
      </trkpt>
      <trkpt lat="44.65224" lon="2.52554">
        <ele>485.2</ele>
        <time>2024-08-13T08:28:37Z</time>
      </trkpt>
      <trkpt lat="44.65238" lon="2.52531">
        <ele>482.9</ele>
        <time>2024-08-13T08:28:42Z</time>
      </trkpt>
      <trkpt lat="44.65265" lon="2.52503">
        <ele>479.8</ele>
        <time>2024-08-13T08:28:47Z</time>
      </trkpt>
      <trkpt lat="44.65271" lon="2.52496">
        <ele>479.2</ele>
        <time>2024-08-13T08:28:48Z</time>
      </trkpt>
      <trkpt lat="44.65283" lon="2.52473">
        <ele>477.1</ele>
        <time>2024-08-13T08:28:51Z</time>
      </trkpt>
      <trkpt lat="44.65289" lon="2.52462">
        <ele>475.7</ele>
        <time>2024-08-13T08:28:53Z</time>
      </trkpt>
      <trkpt lat="44.65293" lon="2.52458">
        <ele>475</ele>
        <time>2024-08-13T08:28:54Z</time>
      </trkpt>
      <trkpt lat="44.65299" lon="2.52457">
        <ele>474.3</ele>
        <time>2024-08-13T08:28:55Z</time>
      </trkpt>
      <trkpt lat="44.65311" lon="2.52456">
        <ele>472.8</ele>
        <time>2024-08-13T08:28:57Z</time>
      </trkpt>
      <trkpt lat="44.65337" lon="2.52458">
        <ele>471.6</ele>
        <time>2024-08-13T08:29:01Z</time>
      </trkpt>
      <trkpt lat="44.65344" lon="2.52457">
        <ele>471.3</ele>
        <time>2024-08-13T08:29:03Z</time>
      </trkpt>
      <trkpt lat="44.65354" lon="2.5245">
        <ele>469.8</ele>
        <time>2024-08-13T08:29:07Z</time>
      </trkpt>
      <trkpt lat="44.65369" lon="2.52433">
        <ele>466.2</ele>
        <time>2024-08-13T08:29:12Z</time>
      </trkpt>
      <trkpt lat="44.65379" lon="2.52426">
        <ele>464</ele>
        <time>2024-08-13T08:29:14Z</time>
      </trkpt>
      <trkpt lat="44.65392" lon="2.5242">
        <ele>462.1</ele>
        <time>2024-08-13T08:29:16Z</time>
      </trkpt>
      <trkpt lat="44.65398" lon="2.52419">
        <ele>461.2</ele>
        <time>2024-08-13T08:29:17Z</time>
      </trkpt>
      <trkpt lat="44.65404" lon="2.52417">
        <ele>460.5</ele>
        <time>2024-08-13T08:29:18Z</time>
      </trkpt>
      <trkpt lat="44.65427" lon="2.52416">
        <ele>457.6</ele>
        <time>2024-08-13T08:29:22Z</time>
      </trkpt>
      <trkpt lat="44.65446" lon="2.52424">
        <ele>454.9</ele>
        <time>2024-08-13T08:29:26Z</time>
      </trkpt>
      <trkpt lat="44.6546" lon="2.52428">
        <ele>453</ele>
        <time>2024-08-13T08:29:29Z</time>
      </trkpt>
      <trkpt lat="44.65472" lon="2.52427">
        <ele>451.4</ele>
        <time>2024-08-13T08:29:31Z</time>
      </trkpt>
      <trkpt lat="44.65489" lon="2.52419">
        <ele>449.5</ele>
        <time>2024-08-13T08:29:33Z</time>
      </trkpt>
      <trkpt lat="44.65498" lon="2.52416">
        <ele>448.6</ele>
        <time>2024-08-13T08:29:34Z</time>
      </trkpt>
      <trkpt lat="44.65518" lon="2.5241">
        <ele>446.5</ele>
        <time>2024-08-13T08:29:36Z</time>
      </trkpt>
      <trkpt lat="44.65537" lon="2.52406">
        <ele>444.5</ele>
        <time>2024-08-13T08:29:38Z</time>
      </trkpt>
      <trkpt lat="44.65545" lon="2.52404">
        <ele>444</ele>
        <time>2024-08-13T08:29:39Z</time>
      </trkpt>
      <trkpt lat="44.65554" lon="2.52402">
        <ele>443.7</ele>
        <time>2024-08-13T08:29:40Z</time>
      </trkpt>
      <trkpt lat="44.65567" lon="2.524">
        <ele>443.4</ele>
        <time>2024-08-13T08:29:42Z</time>
      </trkpt>
      <trkpt lat="44.65583" lon="2.52398">
        <ele>443.4</ele>
        <time>2024-08-13T08:29:45Z</time>
      </trkpt>
      <trkpt lat="44.65598" lon="2.52399">
        <ele>443.3</ele>
        <time>2024-08-13T08:29:50Z</time>
      </trkpt>
      <trkpt lat="44.65619" lon="2.52399">
        <ele>442.4</ele>
        <time>2024-08-13T08:29:54Z</time>
      </trkpt>
      <trkpt lat="44.65624" lon="2.52399">
        <ele>442.2</ele>
        <time>2024-08-13T08:29:55Z</time>
      </trkpt>
      <trkpt lat="44.65634" lon="2.52398">
        <ele>441.4</ele>
        <time>2024-08-13T08:29:57Z</time>
      </trkpt>
      <trkpt lat="44.6565" lon="2.52395">
        <ele>439.7</ele>
        <time>2024-08-13T08:30:00Z</time>
      </trkpt>
      <trkpt lat="44.65661" lon="2.52397">
        <ele>438.3</ele>
        <time>2024-08-13T08:30:02Z</time>
      </trkpt>
      <trkpt lat="44.65673" lon="2.52402">
        <ele>436.7</ele>
        <time>2024-08-13T08:30:05Z</time>
      </trkpt>
      <trkpt lat="44.65694" lon="2.52407">
        <ele>435.4</ele>
        <time>2024-08-13T08:30:10Z</time>
      </trkpt>
      <trkpt lat="44.65694" lon="2.52407">
        <ele>435.4</ele>
        <time>2024-08-13T08:30:11Z</time>
      </trkpt>
      <trkpt lat="44.65709" lon="2.52409">
        <ele>434.9</ele>
        <time>2024-08-13T08:37:02Z</time>
      </trkpt>
      <trkpt lat="44.65711" lon="2.52406">
        <ele>434.8</ele>
        <time>2024-08-13T08:37:03Z</time>
      </trkpt>
      <trkpt lat="44.65714" lon="2.52402">
        <ele>434.5</ele>
        <time>2024-08-13T08:37:04Z</time>
      </trkpt>
      <trkpt lat="44.65722" lon="2.52391">
        <ele>433.2</ele>
        <time>2024-08-13T08:37:06Z</time>
      </trkpt>
      <trkpt lat="44.65729" lon="2.52378">
        <ele>431.5</ele>
        <time>2024-08-13T08:37:08Z</time>
      </trkpt>
      <trkpt lat="44.65732" lon="2.52373">
        <ele>430.6</ele>
        <time>2024-08-13T08:37:09Z</time>
      </trkpt>
      <trkpt lat="44.65736" lon="2.52368">
        <ele>429.6</ele>
        <time>2024-08-13T08:37:10Z</time>
      </trkpt>
      <trkpt lat="44.65749" lon="2.52357">
        <ele>427.5</ele>
        <time>2024-08-13T08:37:12Z</time>
      </trkpt>
      <trkpt lat="44.6577" lon="2.52339">
        <ele>425.5</ele>
        <time>2024-08-13T08:37:16Z</time>
      </trkpt>
      <trkpt lat="44.65778" lon="2.52331">
        <ele>424.1</ele>
        <time>2024-08-13T08:37:18Z</time>
      </trkpt>
      <trkpt lat="44.65783" lon="2.5233">
        <ele>423.3</ele>
        <time>2024-08-13T08:37:19Z</time>
      </trkpt>
      <trkpt lat="44.65788" lon="2.52329">
        <ele>422.3</ele>
        <time>2024-08-13T08:37:20Z</time>
      </trkpt>
      <trkpt lat="44.65801" lon="2.52322">
        <ele>419.4</ele>
        <time>2024-08-13T08:37:22Z</time>
      </trkpt>
      <trkpt lat="44.65821" lon="2.52311">
        <ele>415.5</ele>
        <time>2024-08-13T08:37:25Z</time>
      </trkpt>
      <trkpt lat="44.65826" lon="2.52306">
        <ele>414.7</ele>
        <time>2024-08-13T08:37:26Z</time>
      </trkpt>
      <trkpt lat="44.6583" lon="2.52301">
        <ele>414.2</ele>
        <time>2024-08-13T08:37:27Z</time>
      </trkpt>
      <trkpt lat="44.65834" lon="2.52291">
        <ele>413.6</ele>
        <time>2024-08-13T08:37:29Z</time>
      </trkpt>
      <trkpt lat="44.65837" lon="2.52283">
        <ele>413.3</ele>
        <time>2024-08-13T08:37:31Z</time>
      </trkpt>
      <trkpt lat="44.65841" lon="2.52282">
        <ele>413.2</ele>
        <time>2024-08-13T08:37:32Z</time>
      </trkpt>
      <trkpt lat="44.65851" lon="2.52279">
        <ele>413.7</ele>
        <time>2024-08-13T08:37:35Z</time>
      </trkpt>
      <trkpt lat="44.65856" lon="2.52277">
        <ele>414.1</ele>
        <time>2024-08-13T08:37:37Z</time>
      </trkpt>
      <trkpt lat="44.65862" lon="2.52278">
        <ele>414.7</ele>
        <time>2024-08-13T08:37:39Z</time>
      </trkpt>
      <trkpt lat="44.65867" lon="2.52276">
        <ele>415</ele>
        <time>2024-08-13T08:37:41Z</time>
      </trkpt>
      <trkpt lat="44.65871" lon="2.52265">
        <ele>415.7</ele>
        <time>2024-08-13T08:37:44Z</time>
      </trkpt>
      <trkpt lat="44.65876" lon="2.52264">
        <ele>416.1</ele>
        <time>2024-08-13T08:37:45Z</time>
      </trkpt>
      <trkpt lat="44.65879" lon="2.52262">
        <ele>416.3</ele>
        <time>2024-08-13T08:37:46Z</time>
      </trkpt>
      <trkpt lat="44.65889" lon="2.52258">
        <ele>417.1</ele>
        <time>2024-08-13T08:37:49Z</time>
      </trkpt>
      <trkpt lat="44.65896" lon="2.52257">
        <ele>417.7</ele>
        <time>2024-08-13T08:37:51Z</time>
      </trkpt>
      <trkpt lat="44.65898" lon="2.52258">
        <ele>418</ele>
        <time>2024-08-13T08:37:52Z</time>
      </trkpt>
      <trkpt lat="44.65905" lon="2.52259">
        <ele>418.7</ele>
        <time>2024-08-13T08:37:55Z</time>
      </trkpt>
      <trkpt lat="44.65908" lon="2.5226">
        <ele>419</ele>
        <time>2024-08-13T08:37:56Z</time>
      </trkpt>
      <trkpt lat="44.65914" lon="2.5226">
        <ele>419.8</ele>
        <time>2024-08-13T08:37:59Z</time>
      </trkpt>
      <trkpt lat="44.65916" lon="2.52259">
        <ele>420</ele>
        <time>2024-08-13T08:38:00Z</time>
      </trkpt>
      <trkpt lat="44.65923" lon="2.52258">
        <ele>420.8</ele>
        <time>2024-08-13T08:38:03Z</time>
      </trkpt>
      <trkpt lat="44.65927" lon="2.52258">
        <ele>421.3</ele>
        <time>2024-08-13T08:38:05Z</time>
      </trkpt>
      <trkpt lat="44.65931" lon="2.52257">
        <ele>421.8</ele>
        <time>2024-08-13T08:38:08Z</time>
      </trkpt>
      <trkpt lat="44.6594" lon="2.52259">
        <ele>422.9</ele>
        <time>2024-08-13T08:38:11Z</time>
      </trkpt>
      <trkpt lat="44.65942" lon="2.52258">
        <ele>423.2</ele>
        <time>2024-08-13T08:38:12Z</time>
      </trkpt>
      <trkpt lat="44.65947" lon="2.52257">
        <ele>423.7</ele>
        <time>2024-08-13T08:38:14Z</time>
      </trkpt>
      <trkpt lat="44.65953" lon="2.52255">
        <ele>424.3</ele>
        <time>2024-08-13T08:38:17Z</time>
      </trkpt>
      <trkpt lat="44.65962" lon="2.52251">
        <ele>425.3</ele>
        <time>2024-08-13T08:38:22Z</time>
      </trkpt>
      <trkpt lat="44.65965" lon="2.52251">
        <ele>425.6</ele>
        <time>2024-08-13T08:38:24Z</time>
      </trkpt>
      <trkpt lat="44.65972" lon="2.52253">
        <ele>426.1</ele>
        <time>2024-08-13T08:38:26Z</time>
      </trkpt>
      <trkpt lat="44.6598" lon="2.52256">
        <ele>426.8</ele>
        <time>2024-08-13T08:38:29Z</time>
      </trkpt>
      <trkpt lat="44.65983" lon="2.52256">
        <ele>427</ele>
        <time>2024-08-13T08:38:31Z</time>
      </trkpt>
      <trkpt lat="44.65986" lon="2.52256">
        <ele>427.1</ele>
        <time>2024-08-13T08:38:32Z</time>
      </trkpt>
      <trkpt lat="44.65989" lon="2.52254">
        <ele>427.2</ele>
        <time>2024-08-13T08:38:33Z</time>
      </trkpt>
      <trkpt lat="44.65995" lon="2.52254">
        <ele>427.3</ele>
        <time>2024-08-13T08:38:35Z</time>
      </trkpt>
      <trkpt lat="44.65998" lon="2.52252">
        <ele>427.2</ele>
        <time>2024-08-13T08:38:37Z</time>
      </trkpt>
      <trkpt lat="44.66003" lon="2.5225">
        <ele>427</ele>
        <time>2024-08-13T08:38:38Z</time>
      </trkpt>
      <trkpt lat="44.66008" lon="2.5225">
        <ele>426.9</ele>
        <time>2024-08-13T08:38:39Z</time>
      </trkpt>
      <trkpt lat="44.6602" lon="2.52241">
        <ele>426.3</ele>
        <time>2024-08-13T08:38:42Z</time>
      </trkpt>
      <trkpt lat="44.66025" lon="2.52238">
        <ele>426.1</ele>
        <time>2024-08-13T08:38:43Z</time>
      </trkpt>
      <trkpt lat="44.66029" lon="2.52235">
        <ele>425.9</ele>
        <time>2024-08-13T08:38:44Z</time>
      </trkpt>
      <trkpt lat="44.66037" lon="2.52233">
        <ele>425.5</ele>
        <time>2024-08-13T08:38:45Z</time>
      </trkpt>
      <trkpt lat="44.66044" lon="2.5223">
        <ele>425.2</ele>
        <time>2024-08-13T08:38:46Z</time>
      </trkpt>
      <trkpt lat="44.66067" lon="2.5222">
        <ele>424.6</ele>
        <time>2024-08-13T08:38:49Z</time>
      </trkpt>
      <trkpt lat="44.66074" lon="2.52218">
        <ele>424.3</ele>
        <time>2024-08-13T08:38:50Z</time>
      </trkpt>
      <trkpt lat="44.6608" lon="2.52216">
        <ele>424</ele>
        <time>2024-08-13T08:38:51Z</time>
      </trkpt>
      <trkpt lat="44.6609" lon="2.52213">
        <ele>423.1</ele>
        <time>2024-08-13T08:38:53Z</time>
      </trkpt>
      <trkpt lat="44.66105" lon="2.52219">
        <ele>421.6</ele>
        <time>2024-08-13T08:38:57Z</time>
      </trkpt>
      <trkpt lat="44.66112" lon="2.52225">
        <ele>420.9</ele>
        <time>2024-08-13T08:39:00Z</time>
      </trkpt>
      <trkpt lat="44.66114" lon="2.52227">
        <ele>420.7</ele>
        <time>2024-08-13T08:39:01Z</time>
      </trkpt>
      <trkpt lat="44.66124" lon="2.52231">
        <ele>419.5</ele>
        <time>2024-08-13T08:39:03Z</time>
      </trkpt>
      <trkpt lat="44.66133" lon="2.52231">
        <ele>418.4</ele>
        <time>2024-08-13T08:39:04Z</time>
      </trkpt>
      <trkpt lat="44.66156" lon="2.52226">
        <ele>415.4</ele>
        <time>2024-08-13T08:39:07Z</time>
      </trkpt>
      <trkpt lat="44.66163" lon="2.52223">
        <ele>414.5</ele>
        <time>2024-08-13T08:39:08Z</time>
      </trkpt>
      <trkpt lat="44.66177" lon="2.52218">
        <ele>412.4</ele>
        <time>2024-08-13T08:39:10Z</time>
      </trkpt>
      <trkpt lat="44.66184" lon="2.52215">
        <ele>411.4</ele>
        <time>2024-08-13T08:39:11Z</time>
      </trkpt>
      <trkpt lat="44.66189" lon="2.52211">
        <ele>410.4</ele>
        <time>2024-08-13T08:39:12Z</time>
      </trkpt>
      <trkpt lat="44.66205" lon="2.52203">
        <ele>408</ele>
        <time>2024-08-13T08:39:14Z</time>
      </trkpt>
      <trkpt lat="44.66228" lon="2.52198">
        <ele>406.5</ele>
        <time>2024-08-13T08:39:17Z</time>
      </trkpt>
      <trkpt lat="44.66235" lon="2.52191">
        <ele>406.1</ele>
        <time>2024-08-13T08:39:19Z</time>
      </trkpt>
      <trkpt lat="44.66233" lon="2.5219">
        <ele>405.9</ele>
        <time>2024-08-13T08:39:20Z</time>
      </trkpt>
      <trkpt lat="44.6623" lon="2.52186">
        <ele>405.4</ele>
        <time>2024-08-13T08:39:23Z</time>
      </trkpt>
      <trkpt lat="44.6623" lon="2.52186">
        <ele>405.3</ele>
        <time>2024-08-13T08:39:24Z</time>
      </trkpt>
      <trkpt lat="44.66223" lon="2.52182">
        <ele>404.6</ele>
        <time>2024-08-13T08:42:19Z</time>
      </trkpt>
      <trkpt lat="44.66222" lon="2.5218">
        <ele>404.4</ele>
        <time>2024-08-13T08:42:20Z</time>
      </trkpt>
      <trkpt lat="44.66222" lon="2.52178">
        <ele>404.3</ele>
        <time>2024-08-13T08:42:21Z</time>
      </trkpt>
      <trkpt lat="44.66219" lon="2.52175">
        <ele>404.1</ele>
        <time>2024-08-13T08:42:23Z</time>
      </trkpt>
      <trkpt lat="44.66218" lon="2.52174">
        <ele>404</ele>
        <time>2024-08-13T08:42:25Z</time>
      </trkpt>
      <trkpt lat="44.6621" lon="2.52165">
        <ele>403.3</ele>
        <time>2024-08-13T08:42:31Z</time>
      </trkpt>
      <trkpt lat="44.66205" lon="2.5216">
        <ele>402.8</ele>
        <time>2024-08-13T08:42:35Z</time>
      </trkpt>
      <trkpt lat="44.66194" lon="2.52152">
        <ele>401.7</ele>
        <time>2024-08-13T08:42:40Z</time>
      </trkpt>
      <trkpt lat="44.66181" lon="2.52144">
        <ele>400.4</ele>
        <time>2024-08-13T08:42:46Z</time>
      </trkpt>
      <trkpt lat="44.66169" lon="2.52135">
        <ele>399.1</ele>
        <time>2024-08-13T08:42:51Z</time>
      </trkpt>
      <trkpt lat="44.66166" lon="2.52136">
        <ele>398.9</ele>
        <time>2024-08-13T08:42:52Z</time>
      </trkpt>
      <trkpt lat="44.66164" lon="2.52138">
        <ele>398.8</ele>
        <time>2024-08-13T08:42:53Z</time>
      </trkpt>
      <trkpt lat="44.66161" lon="2.5214">
        <ele>398.6</ele>
        <time>2024-08-13T08:42:55Z</time>
      </trkpt>
      <trkpt lat="44.66159" lon="2.5214">
        <ele>398.5</ele>
        <time>2024-08-13T08:42:56Z</time>
      </trkpt>
      <trkpt lat="44.66155" lon="2.52137">
        <ele>398.4</ele>
        <time>2024-08-13T08:42:59Z</time>
      </trkpt>
      <trkpt lat="44.66153" lon="2.52136">
        <ele>398.3</ele>
        <time>2024-08-13T08:43:00Z</time>
      </trkpt>
      <trkpt lat="44.66152" lon="2.52135">
        <ele>398.3</ele>
        <time>2024-08-13T08:43:01Z</time>
      </trkpt>
      <trkpt lat="44.66151" lon="2.52134">
        <ele>398.3</ele>
        <time>2024-08-13T08:43:02Z</time>
      </trkpt>
      <trkpt lat="44.66148" lon="2.52131">
        <ele>398.3</ele>
        <time>2024-08-13T08:43:04Z</time>
      </trkpt>
      <trkpt lat="44.66145" lon="2.52131">
        <ele>398.4</ele>
        <time>2024-08-13T08:43:06Z</time>
      </trkpt>
      <trkpt lat="44.66139" lon="2.52125">
        <ele>398.6</ele>
        <time>2024-08-13T08:43:10Z</time>
      </trkpt>
      <trkpt lat="44.66134" lon="2.52121">
        <ele>398.8</ele>
        <time>2024-08-13T08:43:15Z</time>
      </trkpt>
      <trkpt lat="44.66128" lon="2.52116">
        <ele>399.6</ele>
        <time>2024-08-13T08:43:20Z</time>
      </trkpt>
      <trkpt lat="44.66127" lon="2.52114">
        <ele>399.9</ele>
        <time>2024-08-13T08:43:21Z</time>
      </trkpt>
      <trkpt lat="44.66125" lon="2.52112">
        <ele>400.3</ele>
        <time>2024-08-13T08:43:23Z</time>
      </trkpt>
      <trkpt lat="44.66123" lon="2.52109">
        <ele>400.8</ele>
        <time>2024-08-13T08:43:25Z</time>
      </trkpt>
      <trkpt lat="44.66064" lon="2.51906">
        <ele>430</ele>
        <time>2024-08-13T08:46:29Z</time>
      </trkpt>
      <trkpt lat="44.66065" lon="2.51903">
        <ele>430.1</ele>
        <time>2024-08-13T08:46:30Z</time>
      </trkpt>
      <trkpt lat="44.66064" lon="2.51897">
        <ele>430.3</ele>
        <time>2024-08-13T08:46:32Z</time>
      </trkpt>
      <trkpt lat="44.66065" lon="2.51895">
        <ele>430.4</ele>
        <time>2024-08-13T08:46:34Z</time>
      </trkpt>
      <trkpt lat="44.66066" lon="2.51893">
        <ele>430.4</ele>
        <time>2024-08-13T08:46:36Z</time>
      </trkpt>
      <trkpt lat="44.6607" lon="2.51884">
        <ele>430.5</ele>
        <time>2024-08-13T08:46:42Z</time>
      </trkpt>
      <trkpt lat="44.66068" lon="2.51881">
        <ele>430.6</ele>
        <time>2024-08-13T08:46:45Z</time>
      </trkpt>
      <trkpt lat="44.66067" lon="2.51881">
        <ele>430.6</ele>
        <time>2024-08-13T08:46:46Z</time>
      </trkpt>
      <trkpt lat="44.66063" lon="2.51875">
        <ele>430.7</ele>
        <time>2024-08-13T08:46:49Z</time>
      </trkpt>
      <trkpt lat="44.6606" lon="2.51872">
        <ele>430.8</ele>
        <time>2024-08-13T08:46:51Z</time>
      </trkpt>
      <trkpt lat="44.66059" lon="2.5187">
        <ele>430.9</ele>
        <time>2024-08-13T08:46:52Z</time>
      </trkpt>
      <trkpt lat="44.66053" lon="2.51865">
        <ele>431.3</ele>
        <time>2024-08-13T08:46:56Z</time>
      </trkpt>
      <trkpt lat="44.66046" lon="2.5186">
        <ele>431.8</ele>
        <time>2024-08-13T08:46:59Z</time>
      </trkpt>
      <trkpt lat="44.66042" lon="2.51859">
        <ele>432.1</ele>
        <time>2024-08-13T08:47:01Z</time>
      </trkpt>
      <trkpt lat="44.66039" lon="2.5186">
        <ele>432.4</ele>
        <time>2024-08-13T08:47:03Z</time>
      </trkpt>
      <trkpt lat="44.66029" lon="2.51862">
        <ele>433.5</ele>
        <time>2024-08-13T08:47:09Z</time>
      </trkpt>
      <trkpt lat="44.6602" lon="2.51863">
        <ele>434.2</ele>
        <time>2024-08-13T08:47:15Z</time>
      </trkpt>
      <trkpt lat="44.66018" lon="2.51862">
        <ele>434.4</ele>
        <time>2024-08-13T08:47:17Z</time>
      </trkpt>
      <trkpt lat="44.66014" lon="2.51862">
        <ele>434.7</ele>
        <time>2024-08-13T08:47:19Z</time>
      </trkpt>
      <trkpt lat="44.66008" lon="2.51861">
        <ele>435.2</ele>
        <time>2024-08-13T08:47:23Z</time>
      </trkpt>
      <trkpt lat="44.66007" lon="2.51861">
        <ele>435.4</ele>
        <time>2024-08-13T08:47:24Z</time>
      </trkpt>
      <trkpt lat="44.66004" lon="2.51863">
        <ele>435.7</ele>
        <time>2024-08-13T08:47:27Z</time>
      </trkpt>
      <trkpt lat="44.6593" lon="2.5184">
        <ele>442.7</ele>
        <time>2024-08-13T08:48:33Z</time>
      </trkpt>
      <trkpt lat="44.65928" lon="2.5184">
        <ele>442.7</ele>
        <time>2024-08-13T08:48:34Z</time>
      </trkpt>
      <trkpt lat="44.65927" lon="2.5184">
        <ele>442.7</ele>
        <time>2024-08-13T08:48:35Z</time>
      </trkpt>
      <trkpt lat="44.65925" lon="2.51841">
        <ele>442.8</ele>
        <time>2024-08-13T08:48:36Z</time>
      </trkpt>
      <trkpt lat="44.65917" lon="2.51842">
        <ele>442.8</ele>
        <time>2024-08-13T08:48:40Z</time>
      </trkpt>
      <trkpt lat="44.65909" lon="2.51843">
        <ele>443.1</ele>
        <time>2024-08-13T08:48:45Z</time>
      </trkpt>
      <trkpt lat="44.65898" lon="2.51846">
        <ele>443.8</ele>
        <time>2024-08-13T08:48:51Z</time>
      </trkpt>
      <trkpt lat="44.65896" lon="2.51846">
        <ele>444</ele>
        <time>2024-08-13T08:48:52Z</time>
      </trkpt>
      <trkpt lat="44.6589" lon="2.51845">
        <ele>444.5</ele>
        <time>2024-08-13T08:48:57Z</time>
      </trkpt>
      <trkpt lat="44.65889" lon="2.51845">
        <ele>444.6</ele>
        <time>2024-08-13T08:48:58Z</time>
      </trkpt>
      <trkpt lat="44.65883" lon="2.51842">
        <ele>445.1</ele>
        <time>2024-08-13T08:49:03Z</time>
      </trkpt>
      <trkpt lat="44.65882" lon="2.51841">
        <ele>445.2</ele>
        <time>2024-08-13T08:49:04Z</time>
      </trkpt>
      <trkpt lat="44.65878" lon="2.51838">
        <ele>445.4</ele>
        <time>2024-08-13T08:49:08Z</time>
      </trkpt>
      <trkpt lat="44.65869" lon="2.51819">
        <ele>446.3</ele>
        <time>2024-08-13T08:49:17Z</time>
      </trkpt>
      <trkpt lat="44.65866" lon="2.51815">
        <ele>446.5</ele>
        <time>2024-08-13T08:49:20Z</time>
      </trkpt>
      <trkpt lat="44.65866" lon="2.51811">
        <ele>446.7</ele>
        <time>2024-08-13T08:49:22Z</time>
      </trkpt>
      <trkpt lat="44.65864" lon="2.51807">
        <ele>446.9</ele>
        <time>2024-08-13T08:49:25Z</time>
      </trkpt>
      <trkpt lat="44.65861" lon="2.51796">
        <ele>447.8</ele>
        <time>2024-08-13T08:49:30Z</time>
      </trkpt>
      <trkpt lat="44.65857" lon="2.51793">
        <ele>448.4</ele>
        <time>2024-08-13T08:49:33Z</time>
      </trkpt>
      <trkpt lat="44.65853" lon="2.51792">
        <ele>449.1</ele>
        <time>2024-08-13T08:49:36Z</time>
      </trkpt>
      <trkpt lat="44.65851" lon="2.51792">
        <ele>449.5</ele>
        <time>2024-08-13T08:49:37Z</time>
      </trkpt>
      <trkpt lat="44.65848" lon="2.51793">
        <ele>451.8</ele>
        <time>2024-08-13T08:49:40Z</time>
      </trkpt>
      <trkpt lat="44.65846" lon="2.51792">
        <ele>453.1</ele>
        <time>2024-08-13T08:49:42Z</time>
      </trkpt>
      <trkpt lat="44.65855" lon="2.51761">
        <ele>457.4</ele>
        <time>2024-08-13T08:50:13Z</time>
      </trkpt>
      <trkpt lat="44.65856" lon="2.51759">
        <ele>457.6</ele>
        <time>2024-08-13T08:50:14Z</time>
      </trkpt>
      <trkpt lat="44.65857" lon="2.51756">
        <ele>457.8</ele>
        <time>2024-08-13T08:50:16Z</time>
      </trkpt>
      <trkpt lat="44.65858" lon="2.51754">
        <ele>458</ele>
        <time>2024-08-13T08:50:18Z</time>
      </trkpt>
      <trkpt lat="44.65862" lon="2.51746">
        <ele>458.8</ele>
        <time>2024-08-13T08:50:24Z</time>
      </trkpt>
      <trkpt lat="44.65863" lon="2.51743">
        <ele>459.1</ele>
        <time>2024-08-13T08:50:26Z</time>
      </trkpt>
      <trkpt lat="44.65863" lon="2.51739">
        <ele>459.3</ele>
        <time>2024-08-13T08:50:28Z</time>
      </trkpt>
      <trkpt lat="44.65861" lon="2.51738">
        <ele>459.5</ele>
        <time>2024-08-13T08:50:30Z</time>
      </trkpt>
      <trkpt lat="44.6586" lon="2.51741">
        <ele>459.7</ele>
        <time>2024-08-13T08:50:32Z</time>
      </trkpt>
      <trkpt lat="44.65858" lon="2.51742">
        <ele>459.9</ele>
        <time>2024-08-13T08:50:33Z</time>
      </trkpt>
      <trkpt lat="44.65853" lon="2.51746">
        <ele>460.5</ele>
        <time>2024-08-13T08:50:38Z</time>
      </trkpt>
      <trkpt lat="44.65852" lon="2.51747">
        <ele>460.6</ele>
        <time>2024-08-13T08:50:39Z</time>
      </trkpt>
      <trkpt lat="44.65847" lon="2.51752">
        <ele>461.2</ele>
        <time>2024-08-13T08:50:43Z</time>
      </trkpt>
      <trkpt lat="44.65844" lon="2.51755">
        <ele>461.5</ele>
        <time>2024-08-13T08:50:46Z</time>
      </trkpt>
      <trkpt lat="44.65841" lon="2.51754">
        <ele>461.8</ele>
        <time>2024-08-13T08:50:48Z</time>
      </trkpt>
      <trkpt lat="44.65832" lon="2.51752">
        <ele>462.6</ele>
        <time>2024-08-13T08:50:55Z</time>
      </trkpt>
      <trkpt lat="44.65827" lon="2.5175">
        <ele>463.1</ele>
        <time>2024-08-13T08:51:00Z</time>
      </trkpt>
      <trkpt lat="44.65823" lon="2.51744">
        <ele>463.6</ele>
        <time>2024-08-13T08:51:05Z</time>
      </trkpt>
      <trkpt lat="44.65822" lon="2.51741">
        <ele>463.8</ele>
        <time>2024-08-13T08:51:07Z</time>
      </trkpt>
      <trkpt lat="44.65818" lon="2.5173">
        <ele>464.5</ele>
        <time>2024-08-13T08:51:13Z</time>
      </trkpt>
      <trkpt lat="44.65817" lon="2.5172">
        <ele>465.1</ele>
        <time>2024-08-13T08:51:18Z</time>
      </trkpt>
      <trkpt lat="44.65812" lon="2.51701">
        <ele>466.5</ele>
        <time>2024-08-13T08:51:27Z</time>
      </trkpt>
      <trkpt lat="44.65809" lon="2.51688">
        <ele>467.4</ele>
        <time>2024-08-13T08:51:34Z</time>
      </trkpt>
      <trkpt lat="44.65806" lon="2.5168">
        <ele>468</ele>
        <time>2024-08-13T08:54:24Z</time>
      </trkpt>
      <trkpt lat="44.65804" lon="2.51675">
        <ele>468.2</ele>
        <time>2024-08-13T08:54:26Z</time>
      </trkpt>
      <trkpt lat="44.65799" lon="2.51661">
        <ele>469.1</ele>
        <time>2024-08-13T08:54:33Z</time>
      </trkpt>
      <trkpt lat="44.65796" lon="2.51651">
        <ele>469.7</ele>
        <time>2024-08-13T08:54:38Z</time>
      </trkpt>
      <trkpt lat="44.65795" lon="2.51644">
        <ele>470</ele>
        <time>2024-08-13T08:54:41Z</time>
      </trkpt>
      <trkpt lat="44.65794" lon="2.51642">
        <ele>470.1</ele>
        <time>2024-08-13T08:54:42Z</time>
      </trkpt>
      <trkpt lat="44.65792" lon="2.51636">
        <ele>470.4</ele>
        <time>2024-08-13T08:54:45Z</time>
      </trkpt>
      <trkpt lat="44.6579" lon="2.5163">
        <ele>470.6</ele>
        <time>2024-08-13T08:54:48Z</time>
      </trkpt>
      <trkpt lat="44.65789" lon="2.51627">
        <ele>470.7</ele>
        <time>2024-08-13T08:54:49Z</time>
      </trkpt>
      <trkpt lat="44.65783" lon="2.51619">
        <ele>470.9</ele>
        <time>2024-08-13T08:54:52Z</time>
      </trkpt>
      <trkpt lat="44.65781" lon="2.51617">
        <ele>470.9</ele>
        <time>2024-08-13T08:54:53Z</time>
      </trkpt>
      <trkpt lat="44.6577" lon="2.51611">
        <ele>471.2</ele>
        <time>2024-08-13T08:54:57Z</time>
      </trkpt>
      <trkpt lat="44.65767" lon="2.5161">
        <ele>471.2</ele>
        <time>2024-08-13T08:54:58Z</time>
      </trkpt>
      <trkpt lat="44.65749" lon="2.51609">
        <ele>472.1</ele>
        <time>2024-08-13T08:55:04Z</time>
      </trkpt>
      <trkpt lat="44.65729" lon="2.51612">
        <ele>473.8</ele>
        <time>2024-08-13T08:55:11Z</time>
      </trkpt>
      <trkpt lat="44.65723" lon="2.51612">
        <ele>474.6</ele>
        <time>2024-08-13T08:55:14Z</time>
      </trkpt>
      <trkpt lat="44.65719" lon="2.5161">
        <ele>475.1</ele>
        <time>2024-08-13T08:55:16Z</time>
      </trkpt>
      <trkpt lat="44.65715" lon="2.51606">
        <ele>475.9</ele>
        <time>2024-08-13T08:55:19Z</time>
      </trkpt>
      <trkpt lat="44.65712" lon="2.51601">
        <ele>476.7</ele>
        <time>2024-08-13T08:55:22Z</time>
      </trkpt>
      <trkpt lat="44.6571" lon="2.516">
        <ele>477</ele>
        <time>2024-08-13T08:55:23Z</time>
      </trkpt>
      <trkpt lat="44.65703" lon="2.51594">
        <ele>478.4</ele>
        <time>2024-08-13T08:55:28Z</time>
      </trkpt>
      <trkpt lat="44.65696" lon="2.51593">
        <ele>479.5</ele>
        <time>2024-08-13T08:55:33Z</time>
      </trkpt>
      <trkpt lat="44.65694" lon="2.51594">
        <ele>479.9</ele>
        <time>2024-08-13T08:55:35Z</time>
      </trkpt>
      <trkpt lat="44.65693" lon="2.51594">
        <ele>480.1</ele>
        <time>2024-08-13T08:55:38Z</time>
      </trkpt>
      <trkpt lat="44.65691" lon="2.51599">
        <ele>480.8</ele>
        <time>2024-08-13T08:56:28Z</time>
      </trkpt>
      <trkpt lat="44.65691" lon="2.51597">
        <ele>481.1</ele>
        <time>2024-08-13T08:56:29Z</time>
      </trkpt>
      <trkpt lat="44.65684" lon="2.51593">
        <ele>482.5</ele>
        <time>2024-08-13T08:56:34Z</time>
      </trkpt>
      <trkpt lat="44.65681" lon="2.51595">
        <ele>483.4</ele>
        <time>2024-08-13T08:56:37Z</time>
      </trkpt>
      <trkpt lat="44.65677" lon="2.51598">
        <ele>484.3</ele>
        <time>2024-08-13T08:56:40Z</time>
      </trkpt>
      <trkpt lat="44.65671" lon="2.516">
        <ele>485.5</ele>
        <time>2024-08-13T08:56:45Z</time>
      </trkpt>
      <trkpt lat="44.6567" lon="2.516">
        <ele>485.8</ele>
        <time>2024-08-13T08:56:46Z</time>
      </trkpt>
      <trkpt lat="44.65665" lon="2.516">
        <ele>486.9</ele>
        <time>2024-08-13T08:56:50Z</time>
      </trkpt>
      <trkpt lat="44.65659" lon="2.516">
        <ele>488.1</ele>
        <time>2024-08-13T08:56:54Z</time>
      </trkpt>
      <trkpt lat="44.65658" lon="2.516">
        <ele>488.2</ele>
        <time>2024-08-13T08:56:55Z</time>
      </trkpt>
      <trkpt lat="44.65648" lon="2.51601">
        <ele>489</ele>
        <time>2024-08-13T08:57:01Z</time>
      </trkpt>
      <trkpt lat="44.65641" lon="2.51597">
        <ele>489.5</ele>
        <time>2024-08-13T08:57:07Z</time>
      </trkpt>
      <trkpt lat="44.65635" lon="2.51594">
        <ele>490.2</ele>
        <time>2024-08-13T08:57:11Z</time>
      </trkpt>
      <trkpt lat="44.65633" lon="2.51593">
        <ele>490.3</ele>
        <time>2024-08-13T08:57:12Z</time>
      </trkpt>
      <trkpt lat="44.6563" lon="2.51593">
        <ele>490.6</ele>
        <time>2024-08-13T08:57:14Z</time>
      </trkpt>
      <trkpt lat="44.65629" lon="2.51593">
        <ele>490.7</ele>
        <time>2024-08-13T08:57:15Z</time>
      </trkpt>
      <trkpt lat="44.65628" lon="2.51594">
        <ele>490.9</ele>
        <time>2024-08-13T08:57:17Z</time>
      </trkpt>
      <trkpt lat="44.65627" lon="2.51594">
        <ele>491</ele>
        <time>2024-08-13T08:57:18Z</time>
      </trkpt>
      <trkpt lat="44.65626" lon="2.51594">
        <ele>491.1</ele>
        <time>2024-08-13T08:57:19Z</time>
      </trkpt>
      <trkpt lat="44.65625" lon="2.51593">
        <ele>491.2</ele>
        <time>2024-08-13T08:57:20Z</time>
      </trkpt>
      <trkpt lat="44.65623" lon="2.51593">
        <ele>491.4</ele>
        <time>2024-08-13T08:57:21Z</time>
      </trkpt>
      <trkpt lat="44.65617" lon="2.51591">
        <ele>492</ele>
        <time>2024-08-13T08:57:25Z</time>
      </trkpt>
      <trkpt lat="44.6561" lon="2.51591">
        <ele>492.7</ele>
        <time>2024-08-13T08:57:31Z</time>
      </trkpt>
      <trkpt lat="44.65605" lon="2.51591">
        <ele>493.2</ele>
        <time>2024-08-13T08:57:35Z</time>
      </trkpt>
      <trkpt lat="44.65601" lon="2.51594">
        <ele>493.7</ele>
        <time>2024-08-13T08:57:38Z</time>
      </trkpt>
      <trkpt lat="44.656" lon="2.51595">
        <ele>493.9</ele>
        <time>2024-08-13T08:57:39Z</time>
      </trkpt>
      <trkpt lat="44.65594" lon="2.51598">
        <ele>494.7</ele>
        <time>2024-08-13T08:57:45Z</time>
      </trkpt>
      <trkpt lat="44.65585" lon="2.51603">
        <ele>495.8</ele>
        <time>2024-08-13T08:57:52Z</time>
      </trkpt>
      <trkpt lat="44.65573" lon="2.51609">
        <ele>497.4</ele>
        <time>2024-08-13T08:57:58Z</time>
      </trkpt>
      <trkpt lat="44.65567" lon="2.51612">
        <ele>498.3</ele>
        <time>2024-08-13T08:58:04Z</time>
      </trkpt>
      <trkpt lat="44.65566" lon="2.51612">
        <ele>498.4</ele>
        <time>2024-08-13T08:58:06Z</time>
      </trkpt>
      <trkpt lat="44.65491" lon="2.51584">
        <ele>504.8</ele>
        <time>2024-08-13T08:59:10Z</time>
      </trkpt>
      <trkpt lat="44.65488" lon="2.51584">
        <ele>504.7</ele>
        <time>2024-08-13T08:59:11Z</time>
      </trkpt>
      <trkpt lat="44.65468" lon="2.51584">
        <ele>504</ele>
        <time>2024-08-13T08:59:17Z</time>
      </trkpt>
      <trkpt lat="44.65447" lon="2.51591">
        <ele>503</ele>
        <time>2024-08-13T08:59:22Z</time>
      </trkpt>
      <trkpt lat="44.65422" lon="2.51596">
        <ele>501.7</ele>
        <time>2024-08-13T08:59:27Z</time>
      </trkpt>
      <trkpt lat="44.65417" lon="2.51598">
        <ele>501.4</ele>
        <time>2024-08-13T08:59:28Z</time>
      </trkpt>
      <trkpt lat="44.65406" lon="2.51602">
        <ele>501</ele>
        <time>2024-08-13T08:59:30Z</time>
      </trkpt>
      <trkpt lat="44.65379" lon="2.51607">
        <ele>499.8</ele>
        <time>2024-08-13T08:59:35Z</time>
      </trkpt>
      <trkpt lat="44.65373" lon="2.51608">
        <ele>499.6</ele>
        <time>2024-08-13T08:59:36Z</time>
      </trkpt>
      <trkpt lat="44.65343" lon="2.51606">
        <ele>498.6</ele>
        <time>2024-08-13T08:59:41Z</time>
      </trkpt>
      <trkpt lat="44.65302" lon="2.51604">
        <ele>495.7</ele>
        <time>2024-08-13T08:59:48Z</time>
      </trkpt>
      <trkpt lat="44.65282" lon="2.51606">
        <ele>487.9</ele>
        <time>2024-08-13T08:59:52Z</time>
      </trkpt>
      <trkpt lat="44.65277" lon="2.51606">
        <ele>485.7</ele>
        <time>2024-08-13T08:59:53Z</time>
      </trkpt>
      <trkpt lat="44.65271" lon="2.51606">
        <ele>483.3</ele>
        <time>2024-08-13T08:59:54Z</time>
      </trkpt>
      <trkpt lat="44.65265" lon="2.51607">
        <ele>480.8</ele>
        <time>2024-08-13T08:59:55Z</time>
      </trkpt>
      <trkpt lat="44.65259" lon="2.51607">
        <ele>478.3</ele>
        <time>2024-08-13T08:59:56Z</time>
      </trkpt>
      <trkpt lat="44.65253" lon="2.51607">
        <ele>475.7</ele>
        <time>2024-08-13T08:59:57Z</time>
      </trkpt>
      <trkpt lat="44.65247" lon="2.51607">
        <ele>473.1</ele>
        <time>2024-08-13T08:59:58Z</time>
      </trkpt>
      <trkpt lat="44.65241" lon="2.51606">
        <ele>470.6</ele>
        <time>2024-08-13T08:59:59Z</time>
      </trkpt>
      <trkpt lat="44.65235" lon="2.51605">
        <ele>468.3</ele>
        <time>2024-08-13T09:00:00Z</time>
      </trkpt>
      <trkpt lat="44.6523" lon="2.51602">
        <ele>466.1</ele>
        <time>2024-08-13T09:00:01Z</time>
      </trkpt>
      <trkpt lat="44.65226" lon="2.51598">
        <ele>464</ele>
        <time>2024-08-13T09:00:02Z</time>
      </trkpt>
      <trkpt lat="44.65223" lon="2.51592">
        <ele>463.5</ele>
        <time>2024-08-13T09:00:03Z</time>
      </trkpt>
      <trkpt lat="44.6522" lon="2.51586">
        <ele>463.2</ele>
        <time>2024-08-13T09:00:04Z</time>
      </trkpt>
      <trkpt lat="44.65218" lon="2.51579">
        <ele>462.9</ele>
        <time>2024-08-13T09:00:05Z</time>
      </trkpt>
      <trkpt lat="44.65211" lon="2.51559">
        <ele>461.9</ele>
        <time>2024-08-13T09:00:08Z</time>
      </trkpt>
      <trkpt lat="44.65209" lon="2.51553">
        <ele>461.6</ele>
        <time>2024-08-13T09:00:09Z</time>
      </trkpt>
      <trkpt lat="44.65206" lon="2.5154">
        <ele>461</ele>
        <time>2024-08-13T09:00:11Z</time>
      </trkpt>
      <trkpt lat="44.65202" lon="2.51528">
        <ele>460.3</ele>
        <time>2024-08-13T09:00:14Z</time>
      </trkpt>
      <trkpt lat="44.65199" lon="2.51516">
        <ele>459.7</ele>
        <time>2024-08-13T09:00:17Z</time>
      </trkpt>
      <trkpt lat="44.65198" lon="2.51507">
        <ele>459.3</ele>
        <time>2024-08-13T09:00:19Z</time>
      </trkpt>
      <trkpt lat="44.65197" lon="2.51503">
        <ele>459.1</ele>
        <time>2024-08-13T09:00:20Z</time>
      </trkpt>
      <trkpt lat="44.65185" lon="2.51464">
        <ele>457.3</ele>
        <time>2024-08-13T09:00:28Z</time>
      </trkpt>
      <trkpt lat="44.65181" lon="2.51447">
        <ele>456.7</ele>
        <time>2024-08-13T09:00:31Z</time>
      </trkpt>
      <trkpt lat="44.65177" lon="2.51435">
        <ele>456.3</ele>
        <time>2024-08-13T09:00:33Z</time>
      </trkpt>
      <trkpt lat="44.65175" lon="2.5143">
        <ele>456</ele>
        <time>2024-08-13T09:00:34Z</time>
      </trkpt>
      <trkpt lat="44.6517" lon="2.51419">
        <ele>455.6</ele>
        <time>2024-08-13T09:00:36Z</time>
      </trkpt>
      <trkpt lat="44.65164" lon="2.51409">
        <ele>455.1</ele>
        <time>2024-08-13T09:00:38Z</time>
      </trkpt>
      <trkpt lat="44.6516" lon="2.51405">
        <ele>454.8</ele>
        <time>2024-08-13T09:00:39Z</time>
      </trkpt>
      <trkpt lat="44.65149" lon="2.51393">
        <ele>454</ele>
        <time>2024-08-13T09:00:42Z</time>
      </trkpt>
      <trkpt lat="44.65132" lon="2.51375">
        <ele>452.8</ele>
        <time>2024-08-13T09:00:46Z</time>
      </trkpt>
      <trkpt lat="44.65124" lon="2.51365">
        <ele>452.2</ele>
        <time>2024-08-13T09:00:48Z</time>
      </trkpt>
      <trkpt lat="44.6512" lon="2.51351">
        <ele>451.5</ele>
        <time>2024-08-13T09:00:50Z</time>
      </trkpt>
      <trkpt lat="44.65123" lon="2.51336">
        <ele>450.8</ele>
        <time>2024-08-13T09:00:52Z</time>
      </trkpt>
      <trkpt lat="44.65126" lon="2.51329">
        <ele>450.3</ele>
        <time>2024-08-13T09:00:53Z</time>
      </trkpt>
      <trkpt lat="44.65148" lon="2.51289">
        <ele>448.2</ele>
        <time>2024-08-13T09:00:59Z</time>
      </trkpt>
      <trkpt lat="44.65166" lon="2.51268">
        <ele>447</ele>
        <time>2024-08-13T09:01:04Z</time>
      </trkpt>
      <trkpt lat="44.65171" lon="2.51261">
        <ele>446.6</ele>
        <time>2024-08-13T09:01:08Z</time>
      </trkpt>
      <trkpt lat="44.65171" lon="2.51261">
        <ele>446.6</ele>
        <time>2024-08-13T09:01:09Z</time>
      </trkpt>
      <trkpt lat="44.65171" lon="2.51256">
        <ele>446.4</ele>
        <time>2024-08-13T09:01:31Z</time>
      </trkpt>
      <trkpt lat="44.6517" lon="2.51253">
        <ele>446.2</ele>
        <time>2024-08-13T09:01:32Z</time>
      </trkpt>
      <trkpt lat="44.65168" lon="2.5125">
        <ele>445.9</ele>
        <time>2024-08-13T09:01:33Z</time>
      </trkpt>
      <trkpt lat="44.65161" lon="2.51234">
        <ele>444.1</ele>
        <time>2024-08-13T09:01:38Z</time>
      </trkpt>
      <trkpt lat="44.6515" lon="2.51218">
        <ele>442.3</ele>
        <time>2024-08-13T09:01:42Z</time>
      </trkpt>
      <trkpt lat="44.65143" lon="2.51209">
        <ele>441.2</ele>
        <time>2024-08-13T09:01:44Z</time>
      </trkpt>
      <trkpt lat="44.6512" lon="2.51182">
        <ele>438</ele>
        <time>2024-08-13T09:01:49Z</time>
      </trkpt>
      <trkpt lat="44.65091" lon="2.5115">
        <ele>433.8</ele>
        <time>2024-08-13T09:01:54Z</time>
      </trkpt>
      <trkpt lat="44.65081" lon="2.51137">
        <ele>432.3</ele>
        <time>2024-08-13T09:01:56Z</time>
      </trkpt>
      <trkpt lat="44.65069" lon="2.51115">
        <ele>429.8</ele>
        <time>2024-08-13T09:01:59Z</time>
      </trkpt>
      <trkpt lat="44.65057" lon="2.5107">
        <ele>425.7</ele>
        <time>2024-08-13T09:02:04Z</time>
      </trkpt>
      <trkpt lat="44.65051" lon="2.5104">
        <ele>423.1</ele>
        <time>2024-08-13T09:02:07Z</time>
      </trkpt>
      <trkpt lat="44.6505" lon="2.51021">
        <ele>421.4</ele>
        <time>2024-08-13T09:02:09Z</time>
      </trkpt>
      <trkpt lat="44.65049" lon="2.50969">
        <ele>417.2</ele>
        <time>2024-08-13T09:02:15Z</time>
      </trkpt>
      <trkpt lat="44.6505" lon="2.50961">
        <ele>416.4</ele>
        <time>2024-08-13T09:02:16Z</time>
      </trkpt>
      <trkpt lat="44.6505" lon="2.50952">
        <ele>415.7</ele>
        <time>2024-08-13T09:02:17Z</time>
      </trkpt>
      <trkpt lat="44.65051" lon="2.50917">
        <ele>412.6</ele>
        <time>2024-08-13T09:02:21Z</time>
      </trkpt>
      <trkpt lat="44.65058" lon="2.50879">
        <ele>409.1</ele>
        <time>2024-08-13T09:02:26Z</time>
      </trkpt>
      <trkpt lat="44.65065" lon="2.50842">
        <ele>405.9</ele>
        <time>2024-08-13T09:02:32Z</time>
      </trkpt>
      <trkpt lat="44.65065" lon="2.50812">
        <ele>403.4</ele>
        <time>2024-08-13T09:02:38Z</time>
      </trkpt>
      <trkpt lat="44.65063" lon="2.50798">
        <ele>402.3</ele>
        <time>2024-08-13T09:02:41Z</time>
      </trkpt>
      <trkpt lat="44.65064" lon="2.50792">
        <ele>402.5</ele>
        <time>2024-08-13T09:02:43Z</time>
      </trkpt>
      <trkpt lat="44.65065" lon="2.50791">
        <ele>402.7</ele>
        <time>2024-08-13T09:02:45Z</time>
      </trkpt>
      <trkpt lat="44.65066" lon="2.50789">
        <ele>403</ele>
        <time>2024-08-13T09:02:53Z</time>
      </trkpt>
      <trkpt lat="44.65067" lon="2.50788">
        <ele>403.3</ele>
        <time>2024-08-13T09:02:54Z</time>
      </trkpt>
      <trkpt lat="44.65069" lon="2.50782">
        <ele>404.3</ele>
        <time>2024-08-13T09:02:57Z</time>
      </trkpt>
      <trkpt lat="44.65071" lon="2.50778">
        <ele>404.9</ele>
        <time>2024-08-13T09:02:59Z</time>
      </trkpt>
      <trkpt lat="44.65074" lon="2.50774">
        <ele>405.7</ele>
        <time>2024-08-13T09:03:01Z</time>
      </trkpt>
      <trkpt lat="44.6508" lon="2.50766">
        <ele>407.3</ele>
        <time>2024-08-13T09:03:06Z</time>
      </trkpt>
      <trkpt lat="44.65083" lon="2.50765">
        <ele>407.9</ele>
        <time>2024-08-13T09:03:08Z</time>
      </trkpt>
      <trkpt lat="44.65091" lon="2.50761">
        <ele>409.6</ele>
        <time>2024-08-13T09:03:13Z</time>
      </trkpt>
      <trkpt lat="44.65095" lon="2.50759">
        <ele>410.6</ele>
        <time>2024-08-13T09:03:16Z</time>
      </trkpt>
      <trkpt lat="44.651" lon="2.50757">
        <ele>411.6</ele>
        <time>2024-08-13T09:03:19Z</time>
      </trkpt>
      <trkpt lat="44.65103" lon="2.50755">
        <ele>412.2</ele>
        <time>2024-08-13T09:03:21Z</time>
      </trkpt>
      <trkpt lat="44.65106" lon="2.50753">
        <ele>412.9</ele>
        <time>2024-08-13T09:03:23Z</time>
      </trkpt>
      <trkpt lat="44.65107" lon="2.50752">
        <ele>413.2</ele>
        <time>2024-08-13T09:03:24Z</time>
      </trkpt>
      <trkpt lat="44.65115" lon="2.50748">
        <ele>414.9</ele>
        <time>2024-08-13T09:03:29Z</time>
      </trkpt>
      <trkpt lat="44.65121" lon="2.50745">
        <ele>416.2</ele>
        <time>2024-08-13T09:03:33Z</time>
      </trkpt>
      <trkpt lat="44.65124" lon="2.50743">
        <ele>416.8</ele>
        <time>2024-08-13T09:03:35Z</time>
      </trkpt>
      <trkpt lat="44.65129" lon="2.5074">
        <ele>418</ele>
        <time>2024-08-13T09:03:38Z</time>
      </trkpt>
      <trkpt lat="44.65134" lon="2.50738">
        <ele>418.9</ele>
        <time>2024-08-13T09:03:41Z</time>
      </trkpt>
      <trkpt lat="44.65137" lon="2.50736">
        <ele>419.5</ele>
        <time>2024-08-13T09:03:43Z</time>
      </trkpt>
      <trkpt lat="44.65142" lon="2.50731">
        <ele>420.8</ele>
        <time>2024-08-13T09:03:47Z</time>
      </trkpt>
      <trkpt lat="44.65147" lon="2.50725">
        <ele>422.1</ele>
        <time>2024-08-13T09:03:52Z</time>
      </trkpt>
      <trkpt lat="44.65151" lon="2.50718">
        <ele>423.3</ele>
        <time>2024-08-13T09:03:57Z</time>
      </trkpt>
      <trkpt lat="44.65156" lon="2.50703">
        <ele>425.8</ele>
        <time>2024-08-13T09:04:04Z</time>
      </trkpt>
      <trkpt lat="44.65158" lon="2.50691">
        <ele>427.4</ele>
        <time>2024-08-13T09:04:10Z</time>
      </trkpt>
      <trkpt lat="44.65158" lon="2.5069">
        <ele>427.7</ele>
        <time>2024-08-13T09:04:11Z</time>
      </trkpt>
      <trkpt lat="44.65159" lon="2.50686">
        <ele>428.3</ele>
        <time>2024-08-13T09:04:13Z</time>
      </trkpt>
      <trkpt lat="44.6516" lon="2.5068">
        <ele>429.1</ele>
        <time>2024-08-13T09:04:16Z</time>
      </trkpt>
      <trkpt lat="44.65161" lon="2.50671">
        <ele>430.5</ele>
        <time>2024-08-13T09:04:21Z</time>
      </trkpt>
      <trkpt lat="44.65161" lon="2.50669">
        <ele>430.8</ele>
        <time>2024-08-13T09:04:22Z</time>
      </trkpt>
      <trkpt lat="44.65161" lon="2.50657">
        <ele>432.4</ele>
        <time>2024-08-13T09:04:29Z</time>
      </trkpt>
      <trkpt lat="44.65162" lon="2.50648">
        <ele>433.7</ele>
        <time>2024-08-13T09:04:35Z</time>
      </trkpt>
      <trkpt lat="44.65162" lon="2.50646">
        <ele>434</ele>
        <time>2024-08-13T09:04:36Z</time>
      </trkpt>
      <trkpt lat="44.65162" lon="2.50632">
        <ele>436</ele>
        <time>2024-08-13T09:04:45Z</time>
      </trkpt>
      <trkpt lat="44.65164" lon="2.50619">
        <ele>437.9</ele>
        <time>2024-08-13T09:04:54Z</time>
      </trkpt>
      <trkpt lat="44.65164" lon="2.50612">
        <ele>438.8</ele>
        <time>2024-08-13T09:04:59Z</time>
      </trkpt>
      <trkpt lat="44.65163" lon="2.5061">
        <ele>439.3</ele>
        <time>2024-08-13T09:05:01Z</time>
      </trkpt>
      <trkpt lat="44.65164" lon="2.50602">
        <ele>440.3</ele>
        <time>2024-08-13T09:05:06Z</time>
      </trkpt>
      <trkpt lat="44.65163" lon="2.50601">
        <ele>440.5</ele>
        <time>2024-08-13T09:05:07Z</time>
      </trkpt>
      <trkpt lat="44.65163" lon="2.50598">
        <ele>440.9</ele>
        <time>2024-08-13T09:05:09Z</time>
      </trkpt>
      <trkpt lat="44.65164" lon="2.50595">
        <ele>441.4</ele>
        <time>2024-08-13T09:05:12Z</time>
      </trkpt>
      <trkpt lat="44.65163" lon="2.50594">
        <ele>441.6</ele>
        <time>2024-08-13T09:05:13Z</time>
      </trkpt>
      <trkpt lat="44.65163" lon="2.5059">
        <ele>442.1</ele>
        <time>2024-08-13T09:05:15Z</time>
      </trkpt>
      <trkpt lat="44.65163" lon="2.50585">
        <ele>442.9</ele>
        <time>2024-08-13T09:05:19Z</time>
      </trkpt>
      <trkpt lat="44.65167" lon="2.50584">
        <ele>442.3</ele>
        <time>2024-08-13T09:05:22Z</time>
      </trkpt>
      <trkpt lat="44.65169" lon="2.50586">
        <ele>441.9</ele>
        <time>2024-08-13T09:05:24Z</time>
      </trkpt>
      <trkpt lat="44.6517" lon="2.50593">
        <ele>441.1</ele>
        <time>2024-08-13T09:05:28Z</time>
      </trkpt>
      <trkpt lat="44.6517" lon="2.50596">
        <ele>440.8</ele>
        <time>2024-08-13T09:05:30Z</time>
      </trkpt>
      <trkpt lat="44.65171" lon="2.50609">
        <ele>439.3</ele>
        <time>2024-08-13T09:05:37Z</time>
      </trkpt>
      <trkpt lat="44.65173" lon="2.50621">
        <ele>437.8</ele>
        <time>2024-08-13T09:05:44Z</time>
      </trkpt>
      <trkpt lat="44.65177" lon="2.50636">
        <ele>438.7</ele>
        <time>2024-08-13T09:05:52Z</time>
      </trkpt>
      <trkpt lat="44.65181" lon="2.5065">
        <ele>441.5</ele>
        <time>2024-08-13T09:05:59Z</time>
      </trkpt>
      <trkpt lat="44.65185" lon="2.50661">
        <ele>442.8</ele>
        <time>2024-08-13T09:06:05Z</time>
      </trkpt>
      <trkpt lat="44.65186" lon="2.50666">
        <ele>442.9</ele>
        <time>2024-08-13T09:06:08Z</time>
      </trkpt>
      <trkpt lat="44.65187" lon="2.50668">
        <ele>444.6</ele>
        <time>2024-08-13T09:06:09Z</time>
      </trkpt>
      <trkpt lat="44.65189" lon="2.50675">
        <ele>444.8</ele>
        <time>2024-08-13T09:06:13Z</time>
      </trkpt>
      <trkpt lat="44.65189" lon="2.50687">
        <ele>445.3</ele>
        <time>2024-08-13T09:06:20Z</time>
      </trkpt>
      <trkpt lat="44.6519" lon="2.50698">
        <ele>447.6</ele>
        <time>2024-08-13T09:06:26Z</time>
      </trkpt>
      <trkpt lat="44.65192" lon="2.50706">
        <ele>448.2</ele>
        <time>2024-08-13T09:06:31Z</time>
      </trkpt>
      <trkpt lat="44.65193" lon="2.50706">
        <ele>450.1</ele>
        <time>2024-08-13T09:06:32Z</time>
      </trkpt>
      <trkpt lat="44.65196" lon="2.507">
        <ele>451.7</ele>
        <time>2024-08-13T09:06:36Z</time>
      </trkpt>
      <trkpt lat="44.65197" lon="2.50688">
        <ele>451</ele>
        <time>2024-08-13T09:06:42Z</time>
      </trkpt>
      <trkpt lat="44.65198" lon="2.50678">
        <ele>450.8</ele>
        <time>2024-08-13T09:06:47Z</time>
      </trkpt>
      <trkpt lat="44.65197" lon="2.50673">
        <ele>450.8</ele>
        <time>2024-08-13T09:06:50Z</time>
      </trkpt>
      <trkpt lat="44.65197" lon="2.50659">
        <ele>451.1</ele>
        <time>2024-08-13T09:06:57Z</time>
      </trkpt>
      <trkpt lat="44.65198" lon="2.50646">
        <ele>451.8</ele>
        <time>2024-08-13T09:07:04Z</time>
      </trkpt>
      <trkpt lat="44.65198" lon="2.50631">
        <ele>452.8</ele>
        <time>2024-08-13T09:07:12Z</time>
      </trkpt>
      <trkpt lat="44.65198" lon="2.50618">
        <ele>453.9</ele>
        <time>2024-08-13T09:07:19Z</time>
      </trkpt>
      <trkpt lat="44.65197" lon="2.50602">
        <ele>455.7</ele>
        <time>2024-08-13T09:07:28Z</time>
      </trkpt>
      <trkpt lat="44.65196" lon="2.50598">
        <ele>456.3</ele>
        <time>2024-08-13T09:07:31Z</time>
      </trkpt>
      <trkpt lat="44.652" lon="2.50597">
        <ele>458.2</ele>
        <time>2024-08-13T09:07:34Z</time>
      </trkpt>
      <trkpt lat="44.65201" lon="2.506">
        <ele>457.8</ele>
        <time>2024-08-13T09:07:36Z</time>
      </trkpt>
      <trkpt lat="44.65201" lon="2.50605">
        <ele>457.4</ele>
        <time>2024-08-13T09:07:39Z</time>
      </trkpt>
      <trkpt lat="44.65204" lon="2.50615">
        <ele>458.3</ele>
        <time>2024-08-13T09:07:45Z</time>
      </trkpt>
      <trkpt lat="44.65208" lon="2.50627">
        <ele>458.7</ele>
        <time>2024-08-13T09:07:53Z</time>
      </trkpt>
      <trkpt lat="44.65214" lon="2.50638">
        <ele>461</ele>
        <time>2024-08-13T09:08:01Z</time>
      </trkpt>
      <trkpt lat="44.65218" lon="2.50649">
        <ele>463.3</ele>
        <time>2024-08-13T09:08:09Z</time>
      </trkpt>
      <trkpt lat="44.65222" lon="2.50659">
        <ele>464.5</ele>
        <time>2024-08-13T09:08:16Z</time>
      </trkpt>
      <trkpt lat="44.65222" lon="2.5066">
        <ele>464.5</ele>
        <time>2024-08-13T09:08:17Z</time>
      </trkpt>
      <trkpt lat="44.65223" lon="2.50664">
        <ele>466.2</ele>
        <time>2024-08-13T09:08:22Z</time>
      </trkpt>
      <trkpt lat="44.65233" lon="2.50681">
        <ele>471</ele>
        <time>2024-08-13T09:09:18Z</time>
      </trkpt>
      <trkpt lat="44.65234" lon="2.50675">
        <ele>471.2</ele>
        <time>2024-08-13T09:09:21Z</time>
      </trkpt>
      <trkpt lat="44.65235" lon="2.50667">
        <ele>471.5</ele>
        <time>2024-08-13T09:09:25Z</time>
      </trkpt>
      <trkpt lat="44.65236" lon="2.50651">
        <ele>471.9</ele>
        <time>2024-08-13T09:09:32Z</time>
      </trkpt>
      <trkpt lat="44.65236" lon="2.50639">
        <ele>472.3</ele>
        <time>2024-08-13T09:09:37Z</time>
      </trkpt>
      <trkpt lat="44.65237" lon="2.50633">
        <ele>472.5</ele>
        <time>2024-08-13T09:09:39Z</time>
      </trkpt>
      <trkpt lat="44.65234" lon="2.50619">
        <ele>472.9</ele>
        <time>2024-08-13T09:09:45Z</time>
      </trkpt>
      <trkpt lat="44.65231" lon="2.50603">
        <ele>473.3</ele>
        <time>2024-08-13T09:09:52Z</time>
      </trkpt>
      <trkpt lat="44.65231" lon="2.50585">
        <ele>473.8</ele>
        <time>2024-08-13T09:09:59Z</time>
      </trkpt>
      <trkpt lat="44.6523" lon="2.50578">
        <ele>473.9</ele>
        <time>2024-08-13T09:10:02Z</time>
      </trkpt>
      <trkpt lat="44.65229" lon="2.50574">
        <ele>474</ele>
        <time>2024-08-13T09:10:04Z</time>
      </trkpt>
      <trkpt lat="44.65226" lon="2.50555">
        <ele>474.5</ele>
        <time>2024-08-13T09:10:11Z</time>
      </trkpt>
      <trkpt lat="44.65219" lon="2.50529">
        <ele>475.2</ele>
        <time>2024-08-13T09:10:20Z</time>
      </trkpt>
      <trkpt lat="44.65211" lon="2.50508">
        <ele>475.8</ele>
        <time>2024-08-13T09:10:28Z</time>
      </trkpt>
      <trkpt lat="44.65206" lon="2.50493">
        <ele>476.2</ele>
        <time>2024-08-13T09:10:34Z</time>
      </trkpt>
      <trkpt lat="44.65205" lon="2.50489">
        <ele>476.3</ele>
        <time>2024-08-13T09:10:36Z</time>
      </trkpt>
      <trkpt lat="44.65205" lon="2.50488">
        <ele>476.4</ele>
        <time>2024-08-13T09:10:38Z</time>
      </trkpt>
      <trkpt lat="44.65203" lon="2.50478">
        <ele>476.6</ele>
        <time>2024-08-13T09:11:07Z</time>
      </trkpt>
      <trkpt lat="44.65202" lon="2.50476">
        <ele>476.7</ele>
        <time>2024-08-13T09:11:08Z</time>
      </trkpt>
      <trkpt lat="44.65197" lon="2.50459">
        <ele>477.2</ele>
        <time>2024-08-13T09:11:15Z</time>
      </trkpt>
      <trkpt lat="44.65197" lon="2.50454">
        <ele>477.3</ele>
        <time>2024-08-13T09:11:17Z</time>
      </trkpt>
      <trkpt lat="44.65196" lon="2.50442">
        <ele>477.6</ele>
        <time>2024-08-13T09:11:22Z</time>
      </trkpt>
      <trkpt lat="44.65195" lon="2.50437">
        <ele>477.8</ele>
        <time>2024-08-13T09:11:24Z</time>
      </trkpt>
      <trkpt lat="44.65193" lon="2.50433">
        <ele>477.9</ele>
        <time>2024-08-13T09:11:26Z</time>
      </trkpt>
      <trkpt lat="44.65192" lon="2.50426">
        <ele>478.1</ele>
        <time>2024-08-13T09:11:29Z</time>
      </trkpt>
      <trkpt lat="44.65189" lon="2.50417">
        <ele>478.4</ele>
        <time>2024-08-13T09:11:33Z</time>
      </trkpt>
      <trkpt lat="44.65188" lon="2.50412">
        <ele>478.5</ele>
        <time>2024-08-13T09:11:35Z</time>
      </trkpt>
      <trkpt lat="44.65186" lon="2.50405">
        <ele>478.7</ele>
        <time>2024-08-13T09:11:38Z</time>
      </trkpt>
      <trkpt lat="44.65185" lon="2.50394">
        <ele>479</ele>
        <time>2024-08-13T09:11:43Z</time>
      </trkpt>
      <trkpt lat="44.65183" lon="2.50385">
        <ele>479.3</ele>
        <time>2024-08-13T09:11:47Z</time>
      </trkpt>
      <trkpt lat="44.65181" lon="2.50379">
        <ele>479.5</ele>
        <time>2024-08-13T09:11:50Z</time>
      </trkpt>
      <trkpt lat="44.65179" lon="2.50372">
        <ele>479.8</ele>
        <time>2024-08-13T09:11:54Z</time>
      </trkpt>
      <trkpt lat="44.65177" lon="2.50366">
        <ele>480</ele>
        <time>2024-08-13T09:11:57Z</time>
      </trkpt>
      <trkpt lat="44.65174" lon="2.50355">
        <ele>480.4</ele>
        <time>2024-08-13T09:12:02Z</time>
      </trkpt>
      <trkpt lat="44.65174" lon="2.50351">
        <ele>480.6</ele>
        <time>2024-08-13T09:12:04Z</time>
      </trkpt>
      <trkpt lat="44.65166" lon="2.50334">
        <ele>481.3</ele>
        <time>2024-08-13T09:12:10Z</time>
      </trkpt>
      <trkpt lat="44.65163" lon="2.50322">
        <ele>481.8</ele>
        <time>2024-08-13T09:12:14Z</time>
      </trkpt>
      <trkpt lat="44.65165" lon="2.50312">
        <ele>482.1</ele>
        <time>2024-08-13T09:12:19Z</time>
      </trkpt>
      <trkpt lat="44.65167" lon="2.50303">
        <ele>482.4</ele>
        <time>2024-08-13T09:12:25Z</time>
      </trkpt>
      <trkpt lat="44.65167" lon="2.50302">
        <ele>482.5</ele>
        <time>2024-08-13T09:12:26Z</time>
      </trkpt>
      <trkpt lat="44.65169" lon="2.50299">
        <ele>482.6</ele>
        <time>2024-08-13T09:12:30Z</time>
      </trkpt>
      <trkpt lat="44.6517" lon="2.50299">
        <ele>482.6</ele>
        <time>2024-08-13T09:12:31Z</time>
      </trkpt>
      <trkpt lat="44.6517" lon="2.503">
        <ele>482.7</ele>
        <time>2024-08-13T09:12:33Z</time>
      </trkpt>
      <trkpt lat="44.65175" lon="2.50329">
        <ele>483.6</ele>
        <time>2024-08-13T09:14:41Z</time>
      </trkpt>
      <trkpt lat="44.65177" lon="2.5033">
        <ele>483.7</ele>
        <time>2024-08-13T09:14:42Z</time>
      </trkpt>
      <trkpt lat="44.65178" lon="2.50331">
        <ele>483.8</ele>
        <time>2024-08-13T09:14:43Z</time>
      </trkpt>
      <trkpt lat="44.65179" lon="2.50332">
        <ele>483.8</ele>
        <time>2024-08-13T09:14:44Z</time>
      </trkpt>
      <trkpt lat="44.65181" lon="2.50328">
        <ele>484</ele>
        <time>2024-08-13T09:14:47Z</time>
      </trkpt>
      <trkpt lat="44.65181" lon="2.50319">
        <ele>484.3</ele>
        <time>2024-08-13T09:14:51Z</time>
      </trkpt>
      <trkpt lat="44.65181" lon="2.50314">
        <ele>484.5</ele>
        <time>2024-08-13T09:14:53Z</time>
      </trkpt>
      <trkpt lat="44.65181" lon="2.50311">
        <ele>484.6</ele>
        <time>2024-08-13T09:14:54Z</time>
      </trkpt>
      <trkpt lat="44.6518" lon="2.50301">
        <ele>485</ele>
        <time>2024-08-13T09:14:58Z</time>
      </trkpt>
      <trkpt lat="44.65181" lon="2.50286">
        <ele>485.5</ele>
        <time>2024-08-13T09:15:04Z</time>
      </trkpt>
      <trkpt lat="44.65182" lon="2.50273">
        <ele>486</ele>
        <time>2024-08-13T09:15:09Z</time>
      </trkpt>
      <trkpt lat="44.65182" lon="2.5026">
        <ele>486.6</ele>
        <time>2024-08-13T09:15:14Z</time>
      </trkpt>
      <trkpt lat="44.65184" lon="2.50239">
        <ele>487.5</ele>
        <time>2024-08-13T09:15:22Z</time>
      </trkpt>
      <trkpt lat="44.65185" lon="2.50222">
        <ele>488.3</ele>
        <time>2024-08-13T09:15:29Z</time>
      </trkpt>
      <trkpt lat="44.65186" lon="2.50201">
        <ele>489.3</ele>
        <time>2024-08-13T09:15:37Z</time>
      </trkpt>
      <trkpt lat="44.65187" lon="2.5018">
        <ele>490.4</ele>
        <time>2024-08-13T09:15:45Z</time>
      </trkpt>
      <trkpt lat="44.65189" lon="2.50166">
        <ele>491</ele>
        <time>2024-08-13T09:15:50Z</time>
      </trkpt>
      <trkpt lat="44.65189" lon="2.50153">
        <ele>491.8</ele>
        <time>2024-08-13T09:15:55Z</time>
      </trkpt>
      <trkpt lat="44.65191" lon="2.50133">
        <ele>492.7</ele>
        <time>2024-08-13T09:16:02Z</time>
      </trkpt>
      <trkpt lat="44.65192" lon="2.50112">
        <ele>493.6</ele>
        <time>2024-08-13T09:16:10Z</time>
      </trkpt>
      <trkpt lat="44.65192" lon="2.50099">
        <ele>494.2</ele>
        <time>2024-08-13T09:16:17Z</time>
      </trkpt>
      <trkpt lat="44.65192" lon="2.50095">
        <ele>494.3</ele>
        <time>2024-08-13T09:16:19Z</time>
      </trkpt>
      <trkpt lat="44.65192" lon="2.50091">
        <ele>494.5</ele>
        <time>2024-08-13T09:16:21Z</time>
      </trkpt>
      <trkpt lat="44.65191" lon="2.50089">
        <ele>494.6</ele>
        <time>2024-08-13T09:16:23Z</time>
      </trkpt>
      <trkpt lat="44.6519" lon="2.5009">
        <ele>494.6</ele>
        <time>2024-08-13T09:16:24Z</time>
      </trkpt>
      <trkpt lat="44.65189" lon="2.50101">
        <ele>494.8</ele>
        <time>2024-08-13T09:16:28Z</time>
      </trkpt>
      <trkpt lat="44.65195" lon="2.50116">
        <ele>495</ele>
        <time>2024-08-13T09:16:32Z</time>
      </trkpt>
      <trkpt lat="44.65201" lon="2.50139">
        <ele>495.4</ele>
        <time>2024-08-13T09:16:38Z</time>
      </trkpt>
      <trkpt lat="44.65205" lon="2.50163">
        <ele>495.3</ele>
        <time>2024-08-13T09:16:45Z</time>
      </trkpt>
      <trkpt lat="44.65207" lon="2.50189">
        <ele>494.8</ele>
        <time>2024-08-13T09:16:51Z</time>
      </trkpt>
      <trkpt lat="44.65207" lon="2.50201">
        <ele>494.5</ele>
        <time>2024-08-13T09:16:53Z</time>
      </trkpt>
      <trkpt lat="44.65207" lon="2.50213">
        <ele>494.1</ele>
        <time>2024-08-13T09:16:55Z</time>
      </trkpt>
      <trkpt lat="44.65208" lon="2.50251">
        <ele>493.4</ele>
        <time>2024-08-13T09:17:02Z</time>
      </trkpt>
      <trkpt lat="44.65212" lon="2.50291">
        <ele>493.3</ele>
        <time>2024-08-13T09:17:09Z</time>
      </trkpt>
      <trkpt lat="44.65214" lon="2.50308">
        <ele>493.5</ele>
        <time>2024-08-13T09:17:12Z</time>
      </trkpt>
      <trkpt lat="44.65216" lon="2.50322">
        <ele>493.8</ele>
        <time>2024-08-13T09:17:15Z</time>
      </trkpt>
      <trkpt lat="44.6522" lon="2.50337">
        <ele>494.4</ele>
        <time>2024-08-13T09:17:21Z</time>
      </trkpt>
      <trkpt lat="44.65221" lon="2.50342">
        <ele>494.7</ele>
        <time>2024-08-13T09:17:25Z</time>
      </trkpt>
      <trkpt lat="44.65224" lon="2.50349">
        <ele>495.3</ele>
        <time>2024-08-13T09:19:51Z</time>
      </trkpt>
      <trkpt lat="44.65225" lon="2.50351">
        <ele>495.4</ele>
        <time>2024-08-13T09:19:52Z</time>
      </trkpt>
      <trkpt lat="44.65233" lon="2.50354">
        <ele>496</ele>
        <time>2024-08-13T09:19:57Z</time>
      </trkpt>
      <trkpt lat="44.65234" lon="2.50353">
        <ele>496.1</ele>
        <time>2024-08-13T09:19:58Z</time>
      </trkpt>
      <trkpt lat="44.65236" lon="2.50351">
        <ele>496.3</ele>
        <time>2024-08-13T09:20:00Z</time>
      </trkpt>
      <trkpt lat="44.65237" lon="2.50348">
        <ele>496.4</ele>
        <time>2024-08-13T09:20:02Z</time>
      </trkpt>
      <trkpt lat="44.65238" lon="2.50348">
        <ele>496.5</ele>
        <time>2024-08-13T09:20:03Z</time>
      </trkpt>
      <trkpt lat="44.65239" lon="2.50348">
        <ele>496.6</ele>
        <time>2024-08-13T09:20:04Z</time>
      </trkpt>
      <trkpt lat="44.6524" lon="2.50351">
        <ele>496.6</ele>
        <time>2024-08-13T09:20:06Z</time>
      </trkpt>
      <trkpt lat="44.65241" lon="2.50353">
        <ele>496.6</ele>
        <time>2024-08-13T09:20:07Z</time>
      </trkpt>
      <trkpt lat="44.65242" lon="2.50359">
        <ele>496.6</ele>
        <time>2024-08-13T09:20:10Z</time>
      </trkpt>
      <trkpt lat="44.65242" lon="2.50361">
        <ele>496.6</ele>
        <time>2024-08-13T09:20:11Z</time>
      </trkpt>
      <trkpt lat="44.65243" lon="2.50362">
        <ele>496.6</ele>
        <time>2024-08-13T09:20:12Z</time>
      </trkpt>
      <trkpt lat="44.65245" lon="2.50366">
        <ele>496.6</ele>
        <time>2024-08-13T09:20:15Z</time>
      </trkpt>
      <trkpt lat="44.65247" lon="2.5037">
        <ele>496.6</ele>
        <time>2024-08-13T09:20:18Z</time>
      </trkpt>
      <trkpt lat="44.65249" lon="2.5037">
        <ele>496.6</ele>
        <time>2024-08-13T09:20:21Z</time>
      </trkpt>
      <trkpt lat="44.65252" lon="2.50379">
        <ele>496.6</ele>
        <time>2024-08-13T09:21:11Z</time>
      </trkpt>
      <trkpt lat="44.65254" lon="2.50381">
        <ele>496.5</ele>
        <time>2024-08-13T09:21:12Z</time>
      </trkpt>
      <trkpt lat="44.65263" lon="2.50394">
        <ele>496.4</ele>
        <time>2024-08-13T09:21:18Z</time>
      </trkpt>
      <trkpt lat="44.65265" lon="2.50396">
        <ele>496.4</ele>
        <time>2024-08-13T09:21:19Z</time>
      </trkpt>
      <trkpt lat="44.65266" lon="2.50398">
        <ele>496.4</ele>
        <time>2024-08-13T09:21:20Z</time>
      </trkpt>
      <trkpt lat="44.65268" lon="2.50398">
        <ele>496.4</ele>
        <time>2024-08-13T09:21:21Z</time>
      </trkpt>
      <trkpt lat="44.6527" lon="2.50399">
        <ele>496.5</ele>
        <time>2024-08-13T09:21:22Z</time>
      </trkpt>
      <trkpt lat="44.6527" lon="2.504">
        <ele>496.5</ele>
        <time>2024-08-13T09:21:23Z</time>
      </trkpt>
      <trkpt lat="44.65271" lon="2.504">
        <ele>496.5</ele>
        <time>2024-08-13T09:21:25Z</time>
      </trkpt>
      <trkpt lat="44.65272" lon="2.50417">
        <ele>496.7</ele>
        <time>2024-08-13T09:21:48Z</time>
      </trkpt>
      <trkpt lat="44.65272" lon="2.50419">
        <ele>496.7</ele>
        <time>2024-08-13T09:21:49Z</time>
      </trkpt>
      <trkpt lat="44.65272" lon="2.50424">
        <ele>496.8</ele>
        <time>2024-08-13T09:21:51Z</time>
      </trkpt>
      <trkpt lat="44.65272" lon="2.50427">
        <ele>496.9</ele>
        <time>2024-08-13T09:21:53Z</time>
      </trkpt>
      <trkpt lat="44.65272" lon="2.50428">
        <ele>496.9</ele>
        <time>2024-08-13T09:21:54Z</time>
      </trkpt>
      <trkpt lat="44.65272" lon="2.50433">
        <ele>497</ele>
        <time>2024-08-13T09:21:57Z</time>
      </trkpt>
      <trkpt lat="44.65273" lon="2.50434">
        <ele>497.1</ele>
        <time>2024-08-13T09:21:58Z</time>
      </trkpt>
      <trkpt lat="44.65277" lon="2.50435">
        <ele>497.3</ele>
        <time>2024-08-13T09:22:00Z</time>
      </trkpt>
      <trkpt lat="44.65279" lon="2.50439">
        <ele>497.4</ele>
        <time>2024-08-13T09:22:03Z</time>
      </trkpt>
      <trkpt lat="44.65283" lon="2.50446">
        <ele>497.8</ele>
        <time>2024-08-13T09:22:08Z</time>
      </trkpt>
      <trkpt lat="44.65284" lon="2.50451">
        <ele>498</ele>
        <time>2024-08-13T09:22:11Z</time>
      </trkpt>
      <trkpt lat="44.65284" lon="2.50455">
        <ele>498.2</ele>
        <time>2024-08-13T09:22:13Z</time>
      </trkpt>
      <trkpt lat="44.65286" lon="2.5046">
        <ele>498.5</ele>
        <time>2024-08-13T09:22:17Z</time>
      </trkpt>
      <trkpt lat="44.6529" lon="2.50467">
        <ele>498.9</ele>
        <time>2024-08-13T09:22:23Z</time>
      </trkpt>
      <trkpt lat="44.65292" lon="2.50471">
        <ele>499.4</ele>
        <time>2024-08-13T09:22:26Z</time>
      </trkpt>
      <trkpt lat="44.65295" lon="2.50477">
        <ele>500.1</ele>
        <time>2024-08-13T09:22:31Z</time>
      </trkpt>
      <trkpt lat="44.65296" lon="2.5048">
        <ele>500.4</ele>
        <time>2024-08-13T09:22:33Z</time>
      </trkpt>
      <trkpt lat="44.65296" lon="2.50481">
        <ele>500.5</ele>
        <time>2024-08-13T09:22:34Z</time>
      </trkpt>
      <trkpt lat="44.65297" lon="2.50487">
        <ele>501.1</ele>
        <time>2024-08-13T09:22:38Z</time>
      </trkpt>
      <trkpt lat="44.65298" lon="2.50489">
        <ele>501.4</ele>
        <time>2024-08-13T09:22:40Z</time>
      </trkpt>
      <trkpt lat="44.65302" lon="2.50496">
        <ele>502.2</ele>
        <time>2024-08-13T09:22:45Z</time>
      </trkpt>
      <trkpt lat="44.65303" lon="2.50501">
        <ele>502.8</ele>
        <time>2024-08-13T09:22:49Z</time>
      </trkpt>
      <trkpt lat="44.65306" lon="2.50507">
        <ele>503.6</ele>
        <time>2024-08-13T09:22:53Z</time>
      </trkpt>
      <trkpt lat="44.65309" lon="2.50521">
        <ele>504.9</ele>
        <time>2024-08-13T09:23:01Z</time>
      </trkpt>
      <trkpt lat="44.65312" lon="2.50531">
        <ele>506</ele>
        <time>2024-08-13T09:23:08Z</time>
      </trkpt>
      <trkpt lat="44.65316" lon="2.50542">
        <ele>507</ele>
        <time>2024-08-13T09:23:14Z</time>
      </trkpt>
      <trkpt lat="44.65317" lon="2.50543">
        <ele>507.1</ele>
        <time>2024-08-13T09:23:15Z</time>
      </trkpt>
      <trkpt lat="44.65321" lon="2.50562">
        <ele>508.4</ele>
        <time>2024-08-13T09:23:24Z</time>
      </trkpt>
      <trkpt lat="44.65325" lon="2.50581">
        <ele>509.3</ele>
        <time>2024-08-13T09:23:32Z</time>
      </trkpt>
      <trkpt lat="44.65326" lon="2.50585">
        <ele>509.5</ele>
        <time>2024-08-13T09:23:34Z</time>
      </trkpt>
      <trkpt lat="44.65329" lon="2.50595">
        <ele>509.8</ele>
        <time>2024-08-13T09:23:38Z</time>
      </trkpt>
      <trkpt lat="44.6533" lon="2.506">
        <ele>510</ele>
        <time>2024-08-13T09:23:40Z</time>
      </trkpt>
      <trkpt lat="44.65331" lon="2.50602">
        <ele>510.1</ele>
        <time>2024-08-13T09:23:41Z</time>
      </trkpt>
      <trkpt lat="44.65333" lon="2.50607">
        <ele>510.3</ele>
        <time>2024-08-13T09:23:43Z</time>
      </trkpt>
      <trkpt lat="44.65337" lon="2.5062">
        <ele>510.8</ele>
        <time>2024-08-13T09:23:49Z</time>
      </trkpt>
      <trkpt lat="44.65341" lon="2.50632">
        <ele>511.3</ele>
        <time>2024-08-13T09:23:54Z</time>
      </trkpt>
      <trkpt lat="44.65344" lon="2.50641">
        <ele>511.5</ele>
        <time>2024-08-13T09:23:58Z</time>
      </trkpt>
      <trkpt lat="44.65346" lon="2.50649">
        <ele>511.7</ele>
        <time>2024-08-13T09:24:02Z</time>
      </trkpt>
      <trkpt lat="44.65346" lon="2.50654">
        <ele>511.8</ele>
        <time>2024-08-13T09:24:05Z</time>
      </trkpt>
      <trkpt lat="44.65347" lon="2.50656">
        <ele>511.9</ele>
        <time>2024-08-13T09:24:07Z</time>
      </trkpt>
      <trkpt lat="44.65347" lon="2.50656">
        <ele>511.9</ele>
        <time>2024-08-13T09:24:08Z</time>
      </trkpt>
      <trkpt lat="44.65349" lon="2.50653">
        <ele>512</ele>
        <time>2024-08-13T09:24:10Z</time>
      </trkpt>
      <trkpt lat="44.65348" lon="2.50649">
        <ele>510.8</ele>
        <time>2024-08-13T09:24:12Z</time>
      </trkpt>
      <trkpt lat="44.65346" lon="2.50649">
        <ele>509.8</ele>
        <time>2024-08-13T09:24:14Z</time>
      </trkpt>
      <trkpt lat="44.65344" lon="2.5065">
        <ele>508.5</ele>
        <time>2024-08-13T09:24:16Z</time>
      </trkpt>
      <trkpt lat="44.65343" lon="2.50651">
        <ele>507.9</ele>
        <time>2024-08-13T09:24:17Z</time>
      </trkpt>
      <trkpt lat="44.65342" lon="2.50652">
        <ele>507.2</ele>
        <time>2024-08-13T09:24:18Z</time>
      </trkpt>
      <trkpt lat="44.65341" lon="2.50652">
        <ele>506.8</ele>
        <time>2024-08-13T09:24:20Z</time>
      </trkpt>
      <trkpt lat="44.65339" lon="2.50655">
        <ele>505.3</ele>
        <time>2024-08-13T09:24:24Z</time>
      </trkpt>
      <trkpt lat="44.65334" lon="2.50661">
        <ele>501.7</ele>
        <time>2024-08-13T09:24:29Z</time>
      </trkpt>
      <trkpt lat="44.65333" lon="2.5067">
        <ele>504.4</ele>
        <time>2024-08-13T09:24:33Z</time>
      </trkpt>
      <trkpt lat="44.65333" lon="2.5067">
        <ele>504.4</ele>
        <time>2024-08-13T09:24:34Z</time>
      </trkpt>
      <trkpt lat="44.65337" lon="2.50659">
        <ele>501.7</ele>
        <time>2024-08-13T09:31:26Z</time>
      </trkpt>
      <trkpt lat="44.65342" lon="2.50657">
        <ele>504.5</ele>
        <time>2024-08-13T09:31:28Z</time>
      </trkpt>
      <trkpt lat="44.65345" lon="2.50657">
        <ele>506.4</ele>
        <time>2024-08-13T09:31:30Z</time>
      </trkpt>
      <trkpt lat="44.65347" lon="2.50657">
        <ele>507.1</ele>
        <time>2024-08-13T09:31:32Z</time>
      </trkpt>
      <trkpt lat="44.65348" lon="2.50656">
        <ele>507.9</ele>
        <time>2024-08-13T09:31:33Z</time>
      </trkpt>
      <trkpt lat="44.65348" lon="2.50654">
        <ele>508.6</ele>
        <time>2024-08-13T09:31:34Z</time>
      </trkpt>
      <trkpt lat="44.65349" lon="2.50653">
        <ele>509.3</ele>
        <time>2024-08-13T09:31:35Z</time>
      </trkpt>
      <trkpt lat="44.65351" lon="2.50653">
        <ele>510.2</ele>
        <time>2024-08-13T09:31:36Z</time>
      </trkpt>
      <trkpt lat="44.65353" lon="2.50651">
        <ele>511.2</ele>
        <time>2024-08-13T09:31:37Z</time>
      </trkpt>
      <trkpt lat="44.65353" lon="2.5065">
        <ele>512</ele>
        <time>2024-08-13T09:31:38Z</time>
      </trkpt>
      <trkpt lat="44.65353" lon="2.5065">
        <ele>512</ele>
        <time>2024-08-13T09:31:40Z</time>
      </trkpt>
      <trkpt lat="44.65352" lon="2.50648">
        <ele>512.1</ele>
        <time>2024-08-13T09:32:42Z</time>
      </trkpt>
      <trkpt lat="44.65349" lon="2.50646">
        <ele>512.3</ele>
        <time>2024-08-13T09:32:44Z</time>
      </trkpt>
      <trkpt lat="44.65347" lon="2.5065">
        <ele>512.6</ele>
        <time>2024-08-13T09:32:46Z</time>
      </trkpt>
      <trkpt lat="44.65347" lon="2.50653">
        <ele>512.7</ele>
        <time>2024-08-13T09:32:47Z</time>
      </trkpt>
      <trkpt lat="44.65347" lon="2.50656">
        <ele>512.8</ele>
        <time>2024-08-13T09:32:48Z</time>
      </trkpt>
      <trkpt lat="44.65347" lon="2.50661">
        <ele>513.2</ele>
        <time>2024-08-13T09:32:50Z</time>
      </trkpt>
      <trkpt lat="44.65348" lon="2.50666">
        <ele>513.5</ele>
        <time>2024-08-13T09:32:52Z</time>
      </trkpt>
      <trkpt lat="44.65349" lon="2.50668">
        <ele>513.6</ele>
        <time>2024-08-13T09:32:53Z</time>
      </trkpt>
      <trkpt lat="44.65349" lon="2.5067">
        <ele>513.7</ele>
        <time>2024-08-13T09:32:54Z</time>
      </trkpt>
      <trkpt lat="44.65348" lon="2.50672">
        <ele>513.8</ele>
        <time>2024-08-13T09:32:55Z</time>
      </trkpt>
      <trkpt lat="44.65348" lon="2.50674">
        <ele>513.9</ele>
        <time>2024-08-13T09:32:56Z</time>
      </trkpt>
      <trkpt lat="44.65348" lon="2.50678">
        <ele>514.1</ele>
        <time>2024-08-13T09:32:58Z</time>
      </trkpt>
      <trkpt lat="44.65348" lon="2.50682">
        <ele>514.3</ele>
        <time>2024-08-13T09:33:00Z</time>
      </trkpt>
      <trkpt lat="44.65349" lon="2.50686">
        <ele>514.5</ele>
        <time>2024-08-13T09:33:02Z</time>
      </trkpt>
      <trkpt lat="44.65349" lon="2.50689">
        <ele>514.7</ele>
        <time>2024-08-13T09:33:04Z</time>
      </trkpt>
      <trkpt lat="44.6535" lon="2.50694">
        <ele>514.9</ele>
        <time>2024-08-13T09:33:06Z</time>
      </trkpt>
      <trkpt lat="44.65352" lon="2.50699">
        <ele>515.3</ele>
        <time>2024-08-13T09:33:08Z</time>
      </trkpt>
      <trkpt lat="44.65354" lon="2.50704">
        <ele>515.5</ele>
        <time>2024-08-13T09:33:10Z</time>
      </trkpt>
      <trkpt lat="44.65354" lon="2.50707">
        <ele>515.6</ele>
        <time>2024-08-13T09:33:11Z</time>
      </trkpt>
      <trkpt lat="44.65354" lon="2.50709">
        <ele>515.7</ele>
        <time>2024-08-13T09:33:12Z</time>
      </trkpt>
      <trkpt lat="44.65353" lon="2.50713">
        <ele>515.9</ele>
        <time>2024-08-13T09:33:14Z</time>
      </trkpt>
      <trkpt lat="44.65353" lon="2.50717">
        <ele>516.1</ele>
        <time>2024-08-13T09:33:16Z</time>
      </trkpt>
      <trkpt lat="44.65352" lon="2.50718">
        <ele>516.2</ele>
        <time>2024-08-13T09:33:17Z</time>
      </trkpt>
      <trkpt lat="44.65352" lon="2.5072">
        <ele>516.3</ele>
        <time>2024-08-13T09:33:18Z</time>
      </trkpt>
      <trkpt lat="44.65352" lon="2.50722">
        <ele>516.4</ele>
        <time>2024-08-13T09:33:19Z</time>
      </trkpt>
      <trkpt lat="44.65353" lon="2.50724">
        <ele>516.6</ele>
        <time>2024-08-13T09:33:20Z</time>
      </trkpt>
      <trkpt lat="44.65354" lon="2.50728">
        <ele>516.8</ele>
        <time>2024-08-13T09:33:22Z</time>
      </trkpt>
      <trkpt lat="44.65354" lon="2.50731">
        <ele>517</ele>
        <time>2024-08-13T09:33:24Z</time>
      </trkpt>
      <trkpt lat="44.65354" lon="2.50735">
        <ele>517.3</ele>
        <time>2024-08-13T09:33:26Z</time>
      </trkpt>
      <trkpt lat="44.65354" lon="2.50737">
        <ele>517.4</ele>
        <time>2024-08-13T09:33:27Z</time>
      </trkpt>
      <trkpt lat="44.65354" lon="2.50738">
        <ele>517.5</ele>
        <time>2024-08-13T09:33:28Z</time>
      </trkpt>
      <trkpt lat="44.65353" lon="2.50742">
        <ele>517.8</ele>
        <time>2024-08-13T09:33:30Z</time>
      </trkpt>
      <trkpt lat="44.65354" lon="2.50745">
        <ele>518</ele>
        <time>2024-08-13T09:33:32Z</time>
      </trkpt>
      <trkpt lat="44.65355" lon="2.50748">
        <ele>518.3</ele>
        <time>2024-08-13T09:33:34Z</time>
      </trkpt>
      <trkpt lat="44.65356" lon="2.50751">
        <ele>518.5</ele>
        <time>2024-08-13T09:33:36Z</time>
      </trkpt>
      <trkpt lat="44.65356" lon="2.50754">
        <ele>518.8</ele>
        <time>2024-08-13T09:33:38Z</time>
      </trkpt>
      <trkpt lat="44.65356" lon="2.50756">
        <ele>518.9</ele>
        <time>2024-08-13T09:33:39Z</time>
      </trkpt>
      <trkpt lat="44.65356" lon="2.50757">
        <ele>519.1</ele>
        <time>2024-08-13T09:33:40Z</time>
      </trkpt>
      <trkpt lat="44.65356" lon="2.50761">
        <ele>519.4</ele>
        <time>2024-08-13T09:33:42Z</time>
      </trkpt>
      <trkpt lat="44.65357" lon="2.50764">
        <ele>519.7</ele>
        <time>2024-08-13T09:33:44Z</time>
      </trkpt>
      <trkpt lat="44.65357" lon="2.50765">
        <ele>519.8</ele>
        <time>2024-08-13T09:33:45Z</time>
      </trkpt>
      <trkpt lat="44.65357" lon="2.50767">
        <ele>519.9</ele>
        <time>2024-08-13T09:33:46Z</time>
      </trkpt>
      <trkpt lat="44.65357" lon="2.5077">
        <ele>520.2</ele>
        <time>2024-08-13T09:33:48Z</time>
      </trkpt>
      <trkpt lat="44.65357" lon="2.50771">
        <ele>520.3</ele>
        <time>2024-08-13T09:33:49Z</time>
      </trkpt>
      <trkpt lat="44.65357" lon="2.50772">
        <ele>520.5</ele>
        <time>2024-08-13T09:33:50Z</time>
      </trkpt>
      <trkpt lat="44.65357" lon="2.50774">
        <ele>520.6</ele>
        <time>2024-08-13T09:33:51Z</time>
      </trkpt>
      <trkpt lat="44.65358" lon="2.50775">
        <ele>520.7</ele>
        <time>2024-08-13T09:33:52Z</time>
      </trkpt>
      <trkpt lat="44.65358" lon="2.50777">
        <ele>520.9</ele>
        <time>2024-08-13T09:33:53Z</time>
      </trkpt>
      <trkpt lat="44.65358" lon="2.50778">
        <ele>521</ele>
        <time>2024-08-13T09:33:54Z</time>
      </trkpt>
      <trkpt lat="44.65358" lon="2.5078">
        <ele>521.2</ele>
        <time>2024-08-13T09:33:55Z</time>
      </trkpt>
      <trkpt lat="44.65358" lon="2.50781">
        <ele>521.3</ele>
        <time>2024-08-13T09:33:56Z</time>
      </trkpt>
      <trkpt lat="44.65358" lon="2.50784">
        <ele>521.6</ele>
        <time>2024-08-13T09:33:58Z</time>
      </trkpt>
      <trkpt lat="44.65358" lon="2.50785">
        <ele>521.7</ele>
        <time>2024-08-13T09:33:59Z</time>
      </trkpt>
      <trkpt lat="44.65358" lon="2.50786">
        <ele>521.9</ele>
        <time>2024-08-13T09:34:00Z</time>
      </trkpt>
      <trkpt lat="44.65359" lon="2.50788">
        <ele>522.1</ele>
        <time>2024-08-13T09:34:02Z</time>
      </trkpt>
      <trkpt lat="44.6536" lon="2.50791">
        <ele>522.4</ele>
        <time>2024-08-13T09:34:04Z</time>
      </trkpt>
      <trkpt lat="44.6536" lon="2.50794">
        <ele>522.7</ele>
        <time>2024-08-13T09:34:06Z</time>
      </trkpt>
      <trkpt lat="44.6536" lon="2.50795">
        <ele>522.8</ele>
        <time>2024-08-13T09:34:07Z</time>
      </trkpt>
      <trkpt lat="44.6536" lon="2.50796">
        <ele>522.9</ele>
        <time>2024-08-13T09:34:08Z</time>
      </trkpt>
      <trkpt lat="44.6536" lon="2.50798">
        <ele>523.2</ele>
        <time>2024-08-13T09:34:10Z</time>
      </trkpt>
      <trkpt lat="44.6536" lon="2.50801">
        <ele>523.5</ele>
        <time>2024-08-13T09:34:12Z</time>
      </trkpt>
      <trkpt lat="44.6536" lon="2.50802">
        <ele>523.6</ele>
        <time>2024-08-13T09:34:13Z</time>
      </trkpt>
      <trkpt lat="44.65361" lon="2.50804">
        <ele>523.8</ele>
        <time>2024-08-13T09:34:14Z</time>
      </trkpt>
      <trkpt lat="44.65361" lon="2.50805">
        <ele>524</ele>
        <time>2024-08-13T09:34:15Z</time>
      </trkpt>
      <trkpt lat="44.65362" lon="2.50806">
        <ele>524.2</ele>
        <time>2024-08-13T09:34:16Z</time>
      </trkpt>
      <trkpt lat="44.65363" lon="2.50808">
        <ele>524.5</ele>
        <time>2024-08-13T09:34:18Z</time>
      </trkpt>
      <trkpt lat="44.65362" lon="2.5081">
        <ele>524.7</ele>
        <time>2024-08-13T09:34:19Z</time>
      </trkpt>
      <trkpt lat="44.65362" lon="2.50811">
        <ele>524.9</ele>
        <time>2024-08-13T09:34:20Z</time>
      </trkpt>
      <trkpt lat="44.65362" lon="2.50813">
        <ele>525.1</ele>
        <time>2024-08-13T09:34:22Z</time>
      </trkpt>
      <trkpt lat="44.65363" lon="2.50815">
        <ele>525.4</ele>
        <time>2024-08-13T09:34:24Z</time>
      </trkpt>
      <trkpt lat="44.65364" lon="2.50817">
        <ele>525.7</ele>
        <time>2024-08-13T09:34:26Z</time>
      </trkpt>
      <trkpt lat="44.65365" lon="2.50818">
        <ele>525.9</ele>
        <time>2024-08-13T09:34:27Z</time>
      </trkpt>
      <trkpt lat="44.65365" lon="2.50819">
        <ele>526.1</ele>
        <time>2024-08-13T09:34:28Z</time>
      </trkpt>
      <trkpt lat="44.65365" lon="2.5082">
        <ele>526.3</ele>
        <time>2024-08-13T09:34:29Z</time>
      </trkpt>
      <trkpt lat="44.65365" lon="2.50822">
        <ele>526.4</ele>
        <time>2024-08-13T09:34:30Z</time>
      </trkpt>
      <trkpt lat="44.65365" lon="2.50824">
        <ele>526.7</ele>
        <time>2024-08-13T09:34:32Z</time>
      </trkpt>
      <trkpt lat="44.65366" lon="2.50826">
        <ele>527</ele>
        <time>2024-08-13T09:34:34Z</time>
      </trkpt>
      <trkpt lat="44.65366" lon="2.50827">
        <ele>527.2</ele>
        <time>2024-08-13T09:34:35Z</time>
      </trkpt>
      <trkpt lat="44.65367" lon="2.50829">
        <ele>527.4</ele>
        <time>2024-08-13T09:34:36Z</time>
      </trkpt>
      <trkpt lat="44.65368" lon="2.50831">
        <ele>527.8</ele>
        <time>2024-08-13T09:34:38Z</time>
      </trkpt>
      <trkpt lat="44.65369" lon="2.50833">
        <ele>528.2</ele>
        <time>2024-08-13T09:34:40Z</time>
      </trkpt>
      <trkpt lat="44.6537" lon="2.50836">
        <ele>528.5</ele>
        <time>2024-08-13T09:34:42Z</time>
      </trkpt>
      <trkpt lat="44.65371" lon="2.50838">
        <ele>528.8</ele>
        <time>2024-08-13T09:34:44Z</time>
      </trkpt>
      <trkpt lat="44.65371" lon="2.50839">
        <ele>529</ele>
        <time>2024-08-13T09:34:45Z</time>
      </trkpt>
      <trkpt lat="44.65371" lon="2.5084">
        <ele>529.1</ele>
        <time>2024-08-13T09:34:46Z</time>
      </trkpt>
      <trkpt lat="44.65372" lon="2.50843">
        <ele>529.5</ele>
        <time>2024-08-13T09:34:48Z</time>
      </trkpt>
      <trkpt lat="44.65371" lon="2.50845">
        <ele>529.9</ele>
        <time>2024-08-13T09:34:50Z</time>
      </trkpt>
      <trkpt lat="44.65372" lon="2.50848">
        <ele>530.3</ele>
        <time>2024-08-13T09:34:52Z</time>
      </trkpt>
      <trkpt lat="44.65373" lon="2.50849">
        <ele>530.7</ele>
        <time>2024-08-13T09:34:54Z</time>
      </trkpt>
      <trkpt lat="44.65372" lon="2.50852">
        <ele>531.2</ele>
        <time>2024-08-13T09:34:56Z</time>
      </trkpt>
      <trkpt lat="44.65373" lon="2.50853">
        <ele>531.4</ele>
        <time>2024-08-13T09:34:57Z</time>
      </trkpt>
      <trkpt lat="44.65373" lon="2.50854">
        <ele>531.7</ele>
        <time>2024-08-13T09:34:58Z</time>
      </trkpt>
      <trkpt lat="44.65373" lon="2.50856">
        <ele>532</ele>
        <time>2024-08-13T09:35:00Z</time>
      </trkpt>
      <trkpt lat="44.65374" lon="2.50859">
        <ele>532.5</ele>
        <time>2024-08-13T09:35:02Z</time>
      </trkpt>
      <trkpt lat="44.65374" lon="2.5086">
        <ele>532.8</ele>
        <time>2024-08-13T09:35:03Z</time>
      </trkpt>
      <trkpt lat="44.65374" lon="2.50862">
        <ele>533</ele>
        <time>2024-08-13T09:35:04Z</time>
      </trkpt>
      <trkpt lat="44.65373" lon="2.50863">
        <ele>533.3</ele>
        <time>2024-08-13T09:35:05Z</time>
      </trkpt>
      <trkpt lat="44.65372" lon="2.50864">
        <ele>533.6</ele>
        <time>2024-08-13T09:35:06Z</time>
      </trkpt>
      <trkpt lat="44.65371" lon="2.50867">
        <ele>534.1</ele>
        <time>2024-08-13T09:35:08Z</time>
      </trkpt>
      <trkpt lat="44.6537" lon="2.50869">
        <ele>534.6</ele>
        <time>2024-08-13T09:35:10Z</time>
      </trkpt>
      <trkpt lat="44.6537" lon="2.50872">
        <ele>535</ele>
        <time>2024-08-13T09:35:12Z</time>
      </trkpt>
      <trkpt lat="44.6537" lon="2.50873">
        <ele>535.3</ele>
        <time>2024-08-13T09:35:13Z</time>
      </trkpt>
      <trkpt lat="44.6537" lon="2.50875">
        <ele>535.5</ele>
        <time>2024-08-13T09:35:14Z</time>
      </trkpt>
      <trkpt lat="44.65371" lon="2.50877">
        <ele>536</ele>
        <time>2024-08-13T09:35:16Z</time>
      </trkpt>
      <trkpt lat="44.65372" lon="2.50878">
        <ele>536.2</ele>
        <time>2024-08-13T09:35:17Z</time>
      </trkpt>
      <trkpt lat="44.65372" lon="2.50879">
        <ele>536.5</ele>
        <time>2024-08-13T09:35:18Z</time>
      </trkpt>
      <trkpt lat="44.65372" lon="2.50882">
        <ele>536.9</ele>
        <time>2024-08-13T09:35:20Z</time>
      </trkpt>
      <trkpt lat="44.65372" lon="2.50884">
        <ele>537.3</ele>
        <time>2024-08-13T09:35:22Z</time>
      </trkpt>
      <trkpt lat="44.65371" lon="2.50886">
        <ele>537.7</ele>
        <time>2024-08-13T09:35:24Z</time>
      </trkpt>
      <trkpt lat="44.6537" lon="2.50889">
        <ele>538.3</ele>
        <time>2024-08-13T09:35:26Z</time>
      </trkpt>
      <trkpt lat="44.65369" lon="2.5089">
        <ele>538.5</ele>
        <time>2024-08-13T09:35:27Z</time>
      </trkpt>
      <trkpt lat="44.65369" lon="2.50891">
        <ele>538.7</ele>
        <time>2024-08-13T09:35:28Z</time>
      </trkpt>
      <trkpt lat="44.6537" lon="2.50894">
        <ele>539.2</ele>
        <time>2024-08-13T09:35:30Z</time>
      </trkpt>
      <trkpt lat="44.65371" lon="2.50897">
        <ele>539.7</ele>
        <time>2024-08-13T09:35:32Z</time>
      </trkpt>
      <trkpt lat="44.65372" lon="2.50898">
        <ele>539.9</ele>
        <time>2024-08-13T09:35:33Z</time>
      </trkpt>
      <trkpt lat="44.65372" lon="2.50899">
        <ele>540.1</ele>
        <time>2024-08-13T09:35:34Z</time>
      </trkpt>
      <trkpt lat="44.65371" lon="2.50902">
        <ele>540.6</ele>
        <time>2024-08-13T09:35:36Z</time>
      </trkpt>
      <trkpt lat="44.6537" lon="2.50904">
        <ele>541</ele>
        <time>2024-08-13T09:35:38Z</time>
      </trkpt>
      <trkpt lat="44.65371" lon="2.50907">
        <ele>541.5</ele>
        <time>2024-08-13T09:35:40Z</time>
      </trkpt>
      <trkpt lat="44.65371" lon="2.50909">
        <ele>541.9</ele>
        <time>2024-08-13T09:35:42Z</time>
      </trkpt>
      <trkpt lat="44.65372" lon="2.50912">
        <ele>542.3</ele>
        <time>2024-08-13T09:35:44Z</time>
      </trkpt>
      <trkpt lat="44.65372" lon="2.50913">
        <ele>542.5</ele>
        <time>2024-08-13T09:35:45Z</time>
      </trkpt>
      <trkpt lat="44.65372" lon="2.50914">
        <ele>542.7</ele>
        <time>2024-08-13T09:35:46Z</time>
      </trkpt>
      <trkpt lat="44.65371" lon="2.50917">
        <ele>543.2</ele>
        <time>2024-08-13T09:35:48Z</time>
      </trkpt>
      <trkpt lat="44.6537" lon="2.5092">
        <ele>543.7</ele>
        <time>2024-08-13T09:35:50Z</time>
      </trkpt>
      <trkpt lat="44.6537" lon="2.50921">
        <ele>543.9</ele>
        <time>2024-08-13T09:35:51Z</time>
      </trkpt>
      <trkpt lat="44.65369" lon="2.50923">
        <ele>544.2</ele>
        <time>2024-08-13T09:35:52Z</time>
      </trkpt>
      <trkpt lat="44.6537" lon="2.50924">
        <ele>544.4</ele>
        <time>2024-08-13T09:35:53Z</time>
      </trkpt>
      <trkpt lat="44.6537" lon="2.50925">
        <ele>544.7</ele>
        <time>2024-08-13T09:35:54Z</time>
      </trkpt>
      <trkpt lat="44.6537" lon="2.50928">
        <ele>545.2</ele>
        <time>2024-08-13T09:35:56Z</time>
      </trkpt>
      <trkpt lat="44.6537" lon="2.5093">
        <ele>545.4</ele>
        <time>2024-08-13T09:35:57Z</time>
      </trkpt>
      <trkpt lat="44.6537" lon="2.50931">
        <ele>545.6</ele>
        <time>2024-08-13T09:35:58Z</time>
      </trkpt>
      <trkpt lat="44.65369" lon="2.50934">
        <ele>546.1</ele>
        <time>2024-08-13T09:36:00Z</time>
      </trkpt>
      <trkpt lat="44.65369" lon="2.50935">
        <ele>546.3</ele>
        <time>2024-08-13T09:36:01Z</time>
      </trkpt>
      <trkpt lat="44.65369" lon="2.50937">
        <ele>546.5</ele>
        <time>2024-08-13T09:36:02Z</time>
      </trkpt>
      <trkpt lat="44.65369" lon="2.5094">
        <ele>547</ele>
        <time>2024-08-13T09:36:04Z</time>
      </trkpt>
      <trkpt lat="44.65369" lon="2.50943">
        <ele>547.4</ele>
        <time>2024-08-13T09:36:06Z</time>
      </trkpt>
      <trkpt lat="44.65369" lon="2.50946">
        <ele>547.8</ele>
        <time>2024-08-13T09:36:08Z</time>
      </trkpt>
      <trkpt lat="44.65368" lon="2.50948">
        <ele>548</ele>
        <time>2024-08-13T09:36:09Z</time>
      </trkpt>
      <trkpt lat="44.65368" lon="2.5095">
        <ele>548.2</ele>
        <time>2024-08-13T09:36:10Z</time>
      </trkpt>
      <trkpt lat="44.65367" lon="2.50954">
        <ele>548.6</ele>
        <time>2024-08-13T09:36:12Z</time>
      </trkpt>
      <trkpt lat="44.65367" lon="2.50957">
        <ele>549</ele>
        <time>2024-08-13T09:36:14Z</time>
      </trkpt>
      <trkpt lat="44.65367" lon="2.5096">
        <ele>549.3</ele>
        <time>2024-08-13T09:36:16Z</time>
      </trkpt>
      <trkpt lat="44.65367" lon="2.50962">
        <ele>549.5</ele>
        <time>2024-08-13T09:36:17Z</time>
      </trkpt>
      <trkpt lat="44.65366" lon="2.50964">
        <ele>549.7</ele>
        <time>2024-08-13T09:36:18Z</time>
      </trkpt>
      <trkpt lat="44.65365" lon="2.50967">
        <ele>550.1</ele>
        <time>2024-08-13T09:36:20Z</time>
      </trkpt>
      <trkpt lat="44.65365" lon="2.50971">
        <ele>550.5</ele>
        <time>2024-08-13T09:36:22Z</time>
      </trkpt>
      <trkpt lat="44.65365" lon="2.50975">
        <ele>550.8</ele>
        <time>2024-08-13T09:36:24Z</time>
      </trkpt>
      <trkpt lat="44.65365" lon="2.50977">
        <ele>551.1</ele>
        <time>2024-08-13T09:36:25Z</time>
      </trkpt>
      <trkpt lat="44.65364" lon="2.50979">
        <ele>551.3</ele>
        <time>2024-08-13T09:36:26Z</time>
      </trkpt>
      <trkpt lat="44.65365" lon="2.50984">
        <ele>551.4</ele>
        <time>2024-08-13T09:36:28Z</time>
      </trkpt>
      <trkpt lat="44.65365" lon="2.50989">
        <ele>551.4</ele>
        <time>2024-08-13T09:36:30Z</time>
      </trkpt>
      <trkpt lat="44.65365" lon="2.50992">
        <ele>551.4</ele>
        <time>2024-08-13T09:36:31Z</time>
      </trkpt>
      <trkpt lat="44.65365" lon="2.50994">
        <ele>551.4</ele>
        <time>2024-08-13T09:36:32Z</time>
      </trkpt>
      <trkpt lat="44.65365" lon="2.50998">
        <ele>551.4</ele>
        <time>2024-08-13T09:36:34Z</time>
      </trkpt>
      <trkpt lat="44.65364" lon="2.51003">
        <ele>551.5</ele>
        <time>2024-08-13T09:36:36Z</time>
      </trkpt>
      <trkpt lat="44.65364" lon="2.51008">
        <ele>551.8</ele>
        <time>2024-08-13T09:36:38Z</time>
      </trkpt>
      <trkpt lat="44.65363" lon="2.5101">
        <ele>551.9</ele>
        <time>2024-08-13T09:36:39Z</time>
      </trkpt>
      <trkpt lat="44.65362" lon="2.51012">
        <ele>552</ele>
        <time>2024-08-13T09:36:40Z</time>
      </trkpt>
      <trkpt lat="44.65363" lon="2.51016">
        <ele>552.2</ele>
        <time>2024-08-13T09:36:42Z</time>
      </trkpt>
      <trkpt lat="44.65363" lon="2.51021">
        <ele>552.4</ele>
        <time>2024-08-13T09:36:44Z</time>
      </trkpt>
      <trkpt lat="44.65364" lon="2.51024">
        <ele>552.6</ele>
        <time>2024-08-13T09:36:45Z</time>
      </trkpt>
      <trkpt lat="44.65365" lon="2.51026">
        <ele>552.7</ele>
        <time>2024-08-13T09:36:46Z</time>
      </trkpt>
      <trkpt lat="44.65366" lon="2.51031">
        <ele>553</ele>
        <time>2024-08-13T09:36:48Z</time>
      </trkpt>
      <trkpt lat="44.65366" lon="2.51034">
        <ele>553.2</ele>
        <time>2024-08-13T09:36:49Z</time>
      </trkpt>
      <trkpt lat="44.65366" lon="2.51037">
        <ele>553.4</ele>
        <time>2024-08-13T09:36:50Z</time>
      </trkpt>
      <trkpt lat="44.65367" lon="2.51043">
        <ele>553.7</ele>
        <time>2024-08-13T09:36:52Z</time>
      </trkpt>
      <trkpt lat="44.65368" lon="2.51049">
        <ele>554</ele>
        <time>2024-08-13T09:36:54Z</time>
      </trkpt>
      <trkpt lat="44.65368" lon="2.51052">
        <ele>554.1</ele>
        <time>2024-08-13T09:36:55Z</time>
      </trkpt>
      <trkpt lat="44.65367" lon="2.51055">
        <ele>554.2</ele>
        <time>2024-08-13T09:36:56Z</time>
      </trkpt>
      <trkpt lat="44.65368" lon="2.51058">
        <ele>554.4</ele>
        <time>2024-08-13T09:36:57Z</time>
      </trkpt>
      <trkpt lat="44.65368" lon="2.51061">
        <ele>554.5</ele>
        <time>2024-08-13T09:36:58Z</time>
      </trkpt>
      <trkpt lat="44.65371" lon="2.5107">
        <ele>554.8</ele>
        <time>2024-08-13T09:37:00Z</time>
      </trkpt>
      <trkpt lat="44.65372" lon="2.51074">
        <ele>555</ele>
        <time>2024-08-13T09:37:01Z</time>
      </trkpt>
      <trkpt lat="44.65374" lon="2.51079">
        <ele>555.2</ele>
        <time>2024-08-13T09:37:02Z</time>
      </trkpt>
      <trkpt lat="44.65379" lon="2.51087">
        <ele>555.5</ele>
        <time>2024-08-13T09:37:04Z</time>
      </trkpt>
      <trkpt lat="44.65383" lon="2.51095">
        <ele>555.9</ele>
        <time>2024-08-13T09:37:06Z</time>
      </trkpt>
      <trkpt lat="44.65389" lon="2.51102">
        <ele>556.2</ele>
        <time>2024-08-13T09:37:08Z</time>
      </trkpt>
      <trkpt lat="44.65394" lon="2.5111">
        <ele>556.6</ele>
        <time>2024-08-13T09:37:10Z</time>
      </trkpt>
      <trkpt lat="44.65399" lon="2.51117">
        <ele>557</ele>
        <time>2024-08-13T09:37:12Z</time>
      </trkpt>
      <trkpt lat="44.65404" lon="2.51124">
        <ele>557.4</ele>
        <time>2024-08-13T09:37:14Z</time>
      </trkpt>
      <trkpt lat="44.6541" lon="2.51129">
        <ele>557.7</ele>
        <time>2024-08-13T09:37:16Z</time>
      </trkpt>
      <trkpt lat="44.65415" lon="2.51135">
        <ele>557.8</ele>
        <time>2024-08-13T09:37:18Z</time>
      </trkpt>
      <trkpt lat="44.6542" lon="2.5114">
        <ele>557.8</ele>
        <time>2024-08-13T09:37:20Z</time>
      </trkpt>
      <trkpt lat="44.65423" lon="2.51143">
        <ele>557.8</ele>
        <time>2024-08-13T09:37:21Z</time>
      </trkpt>
      <trkpt lat="44.65426" lon="2.51146">
        <ele>557.8</ele>
        <time>2024-08-13T09:37:22Z</time>
      </trkpt>
      <trkpt lat="44.65431" lon="2.51151">
        <ele>557.7</ele>
        <time>2024-08-13T09:37:24Z</time>
      </trkpt>
      <trkpt lat="44.65436" lon="2.51157">
        <ele>557.7</ele>
        <time>2024-08-13T09:37:26Z</time>
      </trkpt>
      <trkpt lat="44.65441" lon="2.51163">
        <ele>557.8</ele>
        <time>2024-08-13T09:37:28Z</time>
      </trkpt>
      <trkpt lat="44.65447" lon="2.51171">
        <ele>557.9</ele>
        <time>2024-08-13T09:37:30Z</time>
      </trkpt>
      <trkpt lat="44.65451" lon="2.51181">
        <ele>558</ele>
        <time>2024-08-13T09:37:32Z</time>
      </trkpt>
      <trkpt lat="44.65453" lon="2.51185">
        <ele>558.1</ele>
        <time>2024-08-13T09:37:33Z</time>
      </trkpt>
      <trkpt lat="44.65455" lon="2.5119">
        <ele>558.2</ele>
        <time>2024-08-13T09:37:34Z</time>
      </trkpt>
      <trkpt lat="44.65459" lon="2.51199">
        <ele>558.4</ele>
        <time>2024-08-13T09:37:36Z</time>
      </trkpt>
      <trkpt lat="44.65463" lon="2.51208">
        <ele>558.6</ele>
        <time>2024-08-13T09:37:38Z</time>
      </trkpt>
      <trkpt lat="44.65467" lon="2.51218">
        <ele>558.9</ele>
        <time>2024-08-13T09:37:40Z</time>
      </trkpt>
      <trkpt lat="44.65471" lon="2.51227">
        <ele>559.2</ele>
        <time>2024-08-13T09:37:42Z</time>
      </trkpt>
      <trkpt lat="44.65474" lon="2.51236">
        <ele>559.5</ele>
        <time>2024-08-13T09:37:44Z</time>
      </trkpt>
      <trkpt lat="44.65477" lon="2.51247">
        <ele>559.8</ele>
        <time>2024-08-13T09:37:46Z</time>
      </trkpt>
      <trkpt lat="44.65478" lon="2.51257">
        <ele>560.1</ele>
        <time>2024-08-13T09:37:48Z</time>
      </trkpt>
      <trkpt lat="44.6548" lon="2.51268">
        <ele>560.4</ele>
        <time>2024-08-13T09:37:50Z</time>
      </trkpt>
      <trkpt lat="44.65481" lon="2.51278">
        <ele>560.6</ele>
        <time>2024-08-13T09:37:52Z</time>
      </trkpt>
      <trkpt lat="44.65481" lon="2.51289">
        <ele>560.8</ele>
        <time>2024-08-13T09:37:54Z</time>
      </trkpt>
      <trkpt lat="44.6548" lon="2.513">
        <ele>560.8</ele>
        <time>2024-08-13T09:37:56Z</time>
      </trkpt>
      <trkpt lat="44.65478" lon="2.5131">
        <ele>560.7</ele>
        <time>2024-08-13T09:37:58Z</time>
      </trkpt>
      <trkpt lat="44.65477" lon="2.51315">
        <ele>560.6</ele>
        <time>2024-08-13T09:37:59Z</time>
      </trkpt>
      <trkpt lat="44.65476" lon="2.5132">
        <ele>560.5</ele>
        <time>2024-08-13T09:38:00Z</time>
      </trkpt>
      <trkpt lat="44.65473" lon="2.51329">
        <ele>560.4</ele>
        <time>2024-08-13T09:38:02Z</time>
      </trkpt>
      <trkpt lat="44.65469" lon="2.51338">
        <ele>560.3</ele>
        <time>2024-08-13T09:38:04Z</time>
      </trkpt>
      <trkpt lat="44.65465" lon="2.51346">
        <ele>560.2</ele>
        <time>2024-08-13T09:38:06Z</time>
      </trkpt>
      <trkpt lat="44.65462" lon="2.51355">
        <ele>560</ele>
        <time>2024-08-13T09:38:08Z</time>
      </trkpt>
      <trkpt lat="44.65462" lon="2.51359">
        <ele>559.8</ele>
        <time>2024-08-13T09:38:09Z</time>
      </trkpt>
      <trkpt lat="44.65464" lon="2.51365">
        <ele>559.6</ele>
        <time>2024-08-13T09:38:10Z</time>
      </trkpt>
      <trkpt lat="44.65464" lon="2.51372">
        <ele>559.3</ele>
        <time>2024-08-13T09:38:11Z</time>
      </trkpt>
      <trkpt lat="44.65464" lon="2.51379">
        <ele>559.1</ele>
        <time>2024-08-13T09:38:12Z</time>
      </trkpt>
      <trkpt lat="44.65464" lon="2.51385">
        <ele>559</ele>
        <time>2024-08-13T09:38:13Z</time>
      </trkpt>
      <trkpt lat="44.65462" lon="2.5139">
        <ele>558.9</ele>
        <time>2024-08-13T09:38:14Z</time>
      </trkpt>
      <trkpt lat="44.65459" lon="2.51392">
        <ele>558.8</ele>
        <time>2024-08-13T09:38:15Z</time>
      </trkpt>
      <trkpt lat="44.65455" lon="2.51393">
        <ele>558.7</ele>
        <time>2024-08-13T09:38:16Z</time>
      </trkpt>
      <trkpt lat="44.65451" lon="2.51394">
        <ele>558.6</ele>
        <time>2024-08-13T09:38:17Z</time>
      </trkpt>
      <trkpt lat="44.65447" lon="2.51396">
        <ele>558.3</ele>
        <time>2024-08-13T09:38:18Z</time>
      </trkpt>
      <trkpt lat="44.65438" lon="2.51401">
        <ele>557.8</ele>
        <time>2024-08-13T09:38:20Z</time>
      </trkpt>
      <trkpt lat="44.6543" lon="2.51405">
        <ele>557.2</ele>
        <time>2024-08-13T09:38:22Z</time>
      </trkpt>
      <trkpt lat="44.65423" lon="2.5141">
        <ele>556</ele>
        <time>2024-08-13T09:38:24Z</time>
      </trkpt>
      <trkpt lat="44.65416" lon="2.51415">
        <ele>554.4</ele>
        <time>2024-08-13T09:38:26Z</time>
      </trkpt>
      <trkpt lat="44.65413" lon="2.51417">
        <ele>553.7</ele>
        <time>2024-08-13T09:38:27Z</time>
      </trkpt>
      <trkpt lat="44.6541" lon="2.51419">
        <ele>553</ele>
        <time>2024-08-13T09:38:28Z</time>
      </trkpt>
      <trkpt lat="44.65404" lon="2.51423">
        <ele>551.8</ele>
        <time>2024-08-13T09:38:30Z</time>
      </trkpt>
      <trkpt lat="44.65398" lon="2.51426">
        <ele>550.8</ele>
        <time>2024-08-13T09:38:32Z</time>
      </trkpt>
      <trkpt lat="44.65395" lon="2.51429">
        <ele>550.2</ele>
        <time>2024-08-13T09:38:34Z</time>
      </trkpt>
      <trkpt lat="44.65395" lon="2.51431">
        <ele>550</ele>
        <time>2024-08-13T09:38:36Z</time>
      </trkpt>
      <trkpt lat="44.65395" lon="2.51431">
        <ele>550</ele>
        <time>2024-08-13T09:38:37Z</time>
      </trkpt>
      <trkpt lat="44.65397" lon="2.51426">
        <ele>550.6</ele>
        <time>2024-08-13T09:42:32Z</time>
      </trkpt>
      <trkpt lat="44.65399" lon="2.51425">
        <ele>551</ele>
        <time>2024-08-13T09:42:33Z</time>
      </trkpt>
      <trkpt lat="44.654" lon="2.51424">
        <ele>551.3</ele>
        <time>2024-08-13T09:42:34Z</time>
      </trkpt>
      <trkpt lat="44.65404" lon="2.51422">
        <ele>551.8</ele>
        <time>2024-08-13T09:42:36Z</time>
      </trkpt>
      <trkpt lat="44.65408" lon="2.5142">
        <ele>552.5</ele>
        <time>2024-08-13T09:42:38Z</time>
      </trkpt>
      <trkpt lat="44.65412" lon="2.51418">
        <ele>553.4</ele>
        <time>2024-08-13T09:42:40Z</time>
      </trkpt>
      <trkpt lat="44.65416" lon="2.51415">
        <ele>554.5</ele>
        <time>2024-08-13T09:42:42Z</time>
      </trkpt>
      <trkpt lat="44.65421" lon="2.51411">
        <ele>555.6</ele>
        <time>2024-08-13T09:42:44Z</time>
      </trkpt>
      <trkpt lat="44.65423" lon="2.5141">
        <ele>556.1</ele>
        <time>2024-08-13T09:42:45Z</time>
      </trkpt>
      <trkpt lat="44.65426" lon="2.51409">
        <ele>556.6</ele>
        <time>2024-08-13T09:42:46Z</time>
      </trkpt>
      <trkpt lat="44.65428" lon="2.51407">
        <ele>557</ele>
        <time>2024-08-13T09:42:47Z</time>
      </trkpt>
      <trkpt lat="44.6543" lon="2.51407">
        <ele>557.1</ele>
        <time>2024-08-13T09:42:48Z</time>
      </trkpt>
      <trkpt lat="44.65435" lon="2.51404">
        <ele>557.5</ele>
        <time>2024-08-13T09:42:50Z</time>
      </trkpt>
      <trkpt lat="44.65437" lon="2.51403">
        <ele>557.7</ele>
        <time>2024-08-13T09:42:51Z</time>
      </trkpt>
      <trkpt lat="44.65439" lon="2.51402">
        <ele>557.8</ele>
        <time>2024-08-13T09:42:52Z</time>
      </trkpt>
      <trkpt lat="44.65444" lon="2.514">
        <ele>558.1</ele>
        <time>2024-08-13T09:42:54Z</time>
      </trkpt>
      <trkpt lat="44.6545" lon="2.51397">
        <ele>558.4</ele>
        <time>2024-08-13T09:42:56Z</time>
      </trkpt>
      <trkpt lat="44.65452" lon="2.51396">
        <ele>558.6</ele>
        <time>2024-08-13T09:42:57Z</time>
      </trkpt>
      <trkpt lat="44.65455" lon="2.51395">
        <ele>558.7</ele>
        <time>2024-08-13T09:42:58Z</time>
      </trkpt>
      <trkpt lat="44.65459" lon="2.51393">
        <ele>558.8</ele>
        <time>2024-08-13T09:43:00Z</time>
      </trkpt>
      <trkpt lat="44.6546" lon="2.51392">
        <ele>558.9</ele>
        <time>2024-08-13T09:43:01Z</time>
      </trkpt>
      <trkpt lat="44.65462" lon="2.51389">
        <ele>558.9</ele>
        <time>2024-08-13T09:43:02Z</time>
      </trkpt>
      <trkpt lat="44.65465" lon="2.51383">
        <ele>559</ele>
        <time>2024-08-13T09:43:04Z</time>
      </trkpt>
      <trkpt lat="44.65466" lon="2.51376">
        <ele>559.2</ele>
        <time>2024-08-13T09:43:06Z</time>
      </trkpt>
      <trkpt lat="44.65466" lon="2.51369">
        <ele>559.4</ele>
        <time>2024-08-13T09:43:08Z</time>
      </trkpt>
      <trkpt lat="44.65465" lon="2.51362">
        <ele>559.7</ele>
        <time>2024-08-13T09:43:10Z</time>
      </trkpt>
      <trkpt lat="44.65464" lon="2.51355">
        <ele>559.9</ele>
        <time>2024-08-13T09:43:12Z</time>
      </trkpt>
      <trkpt lat="44.65463" lon="2.51352">
        <ele>560</ele>
        <time>2024-08-13T09:43:13Z</time>
      </trkpt>
      <trkpt lat="44.65463" lon="2.51349">
        <ele>560.1</ele>
        <time>2024-08-13T09:43:14Z</time>
      </trkpt>
      <trkpt lat="44.65464" lon="2.51347">
        <ele>560.2</ele>
        <time>2024-08-13T09:43:15Z</time>
      </trkpt>
      <trkpt lat="44.65464" lon="2.51345">
        <ele>560.2</ele>
        <time>2024-08-13T09:43:16Z</time>
      </trkpt>
      <trkpt lat="44.65463" lon="2.51342">
        <ele>560.3</ele>
        <time>2024-08-13T09:43:18Z</time>
      </trkpt>
      <trkpt lat="44.65464" lon="2.51341">
        <ele>560.3</ele>
        <time>2024-08-13T09:43:19Z</time>
      </trkpt>
      <trkpt lat="44.65464" lon="2.51339">
        <ele>560.3</ele>
        <time>2024-08-13T09:43:20Z</time>
      </trkpt>
      <trkpt lat="44.65465" lon="2.51334">
        <ele>560.3</ele>
        <time>2024-08-13T09:43:22Z</time>
      </trkpt>
      <trkpt lat="44.65467" lon="2.51331">
        <ele>560.4</ele>
        <time>2024-08-13T09:43:23Z</time>
      </trkpt>
      <trkpt lat="44.65469" lon="2.51328">
        <ele>560.4</ele>
        <time>2024-08-13T09:43:24Z</time>
      </trkpt>
      <trkpt lat="44.65471" lon="2.51326">
        <ele>560.4</ele>
        <time>2024-08-13T09:43:25Z</time>
      </trkpt>
      <trkpt lat="44.65473" lon="2.51324">
        <ele>560.4</ele>
        <time>2024-08-13T09:43:26Z</time>
      </trkpt>
      <trkpt lat="44.65476" lon="2.51319">
        <ele>560.5</ele>
        <time>2024-08-13T09:43:28Z</time>
      </trkpt>
      <trkpt lat="44.65478" lon="2.51314">
        <ele>560.6</ele>
        <time>2024-08-13T09:43:30Z</time>
      </trkpt>
      <trkpt lat="44.65479" lon="2.51311">
        <ele>560.7</ele>
        <time>2024-08-13T09:43:32Z</time>
      </trkpt>
      <trkpt lat="44.65481" lon="2.51307">
        <ele>560.8</ele>
        <time>2024-08-13T09:43:34Z</time>
      </trkpt>
      <trkpt lat="44.6548" lon="2.51303">
        <ele>560.8</ele>
        <time>2024-08-13T09:43:36Z</time>
      </trkpt>
      <trkpt lat="44.65479" lon="2.51299">
        <ele>560.8</ele>
        <time>2024-08-13T09:43:38Z</time>
      </trkpt>
      <trkpt lat="44.65479" lon="2.51296">
        <ele>560.8</ele>
        <time>2024-08-13T09:43:40Z</time>
      </trkpt>
      <trkpt lat="44.65479" lon="2.51294">
        <ele>560.8</ele>
        <time>2024-08-13T09:43:41Z</time>
      </trkpt>
      <trkpt lat="44.65479" lon="2.51293">
        <ele>560.8</ele>
        <time>2024-08-13T09:43:42Z</time>
      </trkpt>
      <trkpt lat="44.65478" lon="2.51289">
        <ele>560.8</ele>
        <time>2024-08-13T09:43:44Z</time>
      </trkpt>
      <trkpt lat="44.65477" lon="2.51282">
        <ele>560.7</ele>
        <time>2024-08-13T09:43:46Z</time>
      </trkpt>
      <trkpt lat="44.65477" lon="2.51279">
        <ele>560.6</ele>
        <time>2024-08-13T09:43:47Z</time>
      </trkpt>
      <trkpt lat="44.65477" lon="2.51274">
        <ele>560.5</ele>
        <time>2024-08-13T09:43:48Z</time>
      </trkpt>
      <trkpt lat="44.65477" lon="2.51265">
        <ele>560.3</ele>
        <time>2024-08-13T09:43:50Z</time>
      </trkpt>
      <trkpt lat="44.65477" lon="2.51254">
        <ele>560</ele>
        <time>2024-08-13T09:43:52Z</time>
      </trkpt>
      <trkpt lat="44.65476" lon="2.51249">
        <ele>559.8</ele>
        <time>2024-08-13T09:43:53Z</time>
      </trkpt>
      <trkpt lat="44.65475" lon="2.51244">
        <ele>559.7</ele>
        <time>2024-08-13T09:43:54Z</time>
      </trkpt>
      <trkpt lat="44.65472" lon="2.51233">
        <ele>559.4</ele>
        <time>2024-08-13T09:43:56Z</time>
      </trkpt>
      <trkpt lat="44.6547" lon="2.51226">
        <ele>559.2</ele>
        <time>2024-08-13T09:43:57Z</time>
      </trkpt>
      <trkpt lat="44.65467" lon="2.5122">
        <ele>559</ele>
        <time>2024-08-13T09:43:58Z</time>
      </trkpt>
      <trkpt lat="44.65462" lon="2.51205">
        <ele>558.5</ele>
        <time>2024-08-13T09:44:00Z</time>
      </trkpt>
      <trkpt lat="44.65456" lon="2.5119">
        <ele>558.2</ele>
        <time>2024-08-13T09:44:02Z</time>
      </trkpt>
      <trkpt lat="44.65452" lon="2.51182">
        <ele>558</ele>
        <time>2024-08-13T09:44:03Z</time>
      </trkpt>
      <trkpt lat="44.65448" lon="2.51175">
        <ele>557.9</ele>
        <time>2024-08-13T09:44:04Z</time>
      </trkpt>
      <trkpt lat="44.65439" lon="2.51161">
        <ele>557.8</ele>
        <time>2024-08-13T09:44:06Z</time>
      </trkpt>
      <trkpt lat="44.65429" lon="2.51149">
        <ele>557.7</ele>
        <time>2024-08-13T09:44:08Z</time>
      </trkpt>
      <trkpt lat="44.65424" lon="2.51143">
        <ele>557.8</ele>
        <time>2024-08-13T09:44:09Z</time>
      </trkpt>
      <trkpt lat="44.65419" lon="2.51138">
        <ele>557.8</ele>
        <time>2024-08-13T09:44:10Z</time>
      </trkpt>
      <trkpt lat="44.65409" lon="2.51127">
        <ele>557.6</ele>
        <time>2024-08-13T09:44:12Z</time>
      </trkpt>
      <trkpt lat="44.654" lon="2.51116">
        <ele>557</ele>
        <time>2024-08-13T09:44:14Z</time>
      </trkpt>
      <trkpt lat="44.65391" lon="2.51104">
        <ele>556.3</ele>
        <time>2024-08-13T09:44:16Z</time>
      </trkpt>
      <trkpt lat="44.65383" lon="2.51092">
        <ele>555.7</ele>
        <time>2024-08-13T09:44:18Z</time>
      </trkpt>
      <trkpt lat="44.65376" lon="2.51077">
        <ele>555.1</ele>
        <time>2024-08-13T09:44:20Z</time>
      </trkpt>
      <trkpt lat="44.65374" lon="2.5107">
        <ele>554.9</ele>
        <time>2024-08-13T09:44:21Z</time>
      </trkpt>
      <trkpt lat="44.65371" lon="2.51062">
        <ele>554.6</ele>
        <time>2024-08-13T09:44:22Z</time>
      </trkpt>
      <trkpt lat="44.65366" lon="2.51046">
        <ele>553.8</ele>
        <time>2024-08-13T09:44:24Z</time>
      </trkpt>
      <trkpt lat="44.65363" lon="2.51029">
        <ele>552.9</ele>
        <time>2024-08-13T09:44:26Z</time>
      </trkpt>
      <trkpt lat="44.65361" lon="2.5101">
        <ele>551.8</ele>
        <time>2024-08-13T09:44:28Z</time>
      </trkpt>
      <trkpt lat="44.65361" lon="2.51">
        <ele>551.4</ele>
        <time>2024-08-13T09:44:29Z</time>
      </trkpt>
      <trkpt lat="44.65362" lon="2.5099">
        <ele>551.4</ele>
        <time>2024-08-13T09:44:30Z</time>
      </trkpt>
      <trkpt lat="44.65363" lon="2.50979">
        <ele>551.3</ele>
        <time>2024-08-13T09:44:31Z</time>
      </trkpt>
      <trkpt lat="44.65365" lon="2.50968">
        <ele>550.1</ele>
        <time>2024-08-13T09:44:32Z</time>
      </trkpt>
      <trkpt lat="44.65367" lon="2.50948">
        <ele>547.7</ele>
        <time>2024-08-13T09:44:34Z</time>
      </trkpt>
      <trkpt lat="44.65369" lon="2.50927">
        <ele>544.6</ele>
        <time>2024-08-13T09:44:36Z</time>
      </trkpt>
      <trkpt lat="44.6537" lon="2.50917">
        <ele>542.8</ele>
        <time>2024-08-13T09:44:37Z</time>
      </trkpt>
      <trkpt lat="44.6537" lon="2.50907">
        <ele>541.1</ele>
        <time>2024-08-13T09:44:38Z</time>
      </trkpt>
      <trkpt lat="44.65371" lon="2.50887">
        <ele>537.7</ele>
        <time>2024-08-13T09:44:40Z</time>
      </trkpt>
      <trkpt lat="44.65371" lon="2.50868">
        <ele>534.1</ele>
        <time>2024-08-13T09:44:42Z</time>
      </trkpt>
      <trkpt lat="44.65371" lon="2.50848">
        <ele>530.5</ele>
        <time>2024-08-13T09:44:44Z</time>
      </trkpt>
      <trkpt lat="44.65368" lon="2.50827">
        <ele>527.3</ele>
        <time>2024-08-13T09:44:46Z</time>
      </trkpt>
      <trkpt lat="44.65363" lon="2.50806">
        <ele>524.2</ele>
        <time>2024-08-13T09:44:48Z</time>
      </trkpt>
      <trkpt lat="44.65359" lon="2.50783">
        <ele>521.6</ele>
        <time>2024-08-13T09:44:50Z</time>
      </trkpt>
      <trkpt lat="44.65357" lon="2.50771">
        <ele>520.3</ele>
        <time>2024-08-13T09:44:51Z</time>
      </trkpt>
      <trkpt lat="44.65356" lon="2.50758">
        <ele>519.2</ele>
        <time>2024-08-13T09:44:52Z</time>
      </trkpt>
      <trkpt lat="44.65354" lon="2.50735">
        <ele>517.3</ele>
        <time>2024-08-13T09:44:54Z</time>
      </trkpt>
      <trkpt lat="44.65353" lon="2.50715">
        <ele>516</ele>
        <time>2024-08-13T09:44:56Z</time>
      </trkpt>
      <trkpt lat="44.65352" lon="2.50696">
        <ele>515.1</ele>
        <time>2024-08-13T09:44:58Z</time>
      </trkpt>
      <trkpt lat="44.6535" lon="2.50677">
        <ele>514</ele>
        <time>2024-08-13T09:45:00Z</time>
      </trkpt>
      <trkpt lat="44.65348" lon="2.5066">
        <ele>512.5</ele>
        <time>2024-08-13T09:45:02Z</time>
      </trkpt>
      <trkpt lat="44.65344" lon="2.50643">
        <ele>511.5</ele>
        <time>2024-08-13T09:45:04Z</time>
      </trkpt>
      <trkpt lat="44.65342" lon="2.50634">
        <ele>511.3</ele>
        <time>2024-08-13T09:45:05Z</time>
      </trkpt>
      <trkpt lat="44.65339" lon="2.50625">
        <ele>511</ele>
        <time>2024-08-13T09:45:06Z</time>
      </trkpt>
      <trkpt lat="44.65336" lon="2.50616">
        <ele>510.7</ele>
        <time>2024-08-13T09:45:07Z</time>
      </trkpt>
      <trkpt lat="44.65334" lon="2.50607">
        <ele>510.3</ele>
        <time>2024-08-13T09:45:08Z</time>
      </trkpt>
      <trkpt lat="44.65329" lon="2.50588">
        <ele>509.6</ele>
        <time>2024-08-13T09:45:10Z</time>
      </trkpt>
      <trkpt lat="44.65325" lon="2.5057">
        <ele>508.8</ele>
        <time>2024-08-13T09:45:12Z</time>
      </trkpt>
      <trkpt lat="44.6532" lon="2.50553">
        <ele>507.8</ele>
        <time>2024-08-13T09:45:14Z</time>
      </trkpt>
      <trkpt lat="44.65317" lon="2.50544">
        <ele>507.2</ele>
        <time>2024-08-13T09:45:15Z</time>
      </trkpt>
      <trkpt lat="44.65314" lon="2.50535">
        <ele>506.4</ele>
        <time>2024-08-13T09:45:16Z</time>
      </trkpt>
      <trkpt lat="44.65309" lon="2.50518">
        <ele>504.7</ele>
        <time>2024-08-13T09:45:18Z</time>
      </trkpt>
      <trkpt lat="44.65305" lon="2.50501">
        <ele>502.9</ele>
        <time>2024-08-13T09:45:20Z</time>
      </trkpt>
      <trkpt lat="44.65299" lon="2.50484">
        <ele>501</ele>
        <time>2024-08-13T09:45:22Z</time>
      </trkpt>
      <trkpt lat="44.65293" lon="2.50468">
        <ele>499.2</ele>
        <time>2024-08-13T09:45:24Z</time>
      </trkpt>
      <trkpt lat="44.65287" lon="2.50452">
        <ele>498.2</ele>
        <time>2024-08-13T09:45:26Z</time>
      </trkpt>
      <trkpt lat="44.6528" lon="2.50436">
        <ele>497.4</ele>
        <time>2024-08-13T09:45:28Z</time>
      </trkpt>
      <trkpt lat="44.65274" lon="2.50422">
        <ele>496.8</ele>
        <time>2024-08-13T09:45:30Z</time>
      </trkpt>
      <trkpt lat="44.65273" lon="2.50414">
        <ele>496.7</ele>
        <time>2024-08-13T09:45:31Z</time>
      </trkpt>
      <trkpt lat="44.65271" lon="2.50406">
        <ele>496.5</ele>
        <time>2024-08-13T09:45:32Z</time>
      </trkpt>
      <trkpt lat="44.65266" lon="2.50392">
        <ele>496.4</ele>
        <time>2024-08-13T09:45:34Z</time>
      </trkpt>
      <trkpt lat="44.65263" lon="2.50387">
        <ele>496.5</ele>
        <time>2024-08-13T09:45:35Z</time>
      </trkpt>
      <trkpt lat="44.65261" lon="2.50383">
        <ele>496.5</ele>
        <time>2024-08-13T09:45:36Z</time>
      </trkpt>
      <trkpt lat="44.65257" lon="2.50376">
        <ele>496.5</ele>
        <time>2024-08-13T09:45:38Z</time>
      </trkpt>
      <trkpt lat="44.65254" lon="2.5037">
        <ele>496.6</ele>
        <time>2024-08-13T09:45:40Z</time>
      </trkpt>
      <trkpt lat="44.6525" lon="2.50364">
        <ele>496.6</ele>
        <time>2024-08-13T09:45:42Z</time>
      </trkpt>
      <trkpt lat="44.65246" lon="2.50356">
        <ele>496.6</ele>
        <time>2024-08-13T09:45:44Z</time>
      </trkpt>
      <trkpt lat="44.65243" lon="2.50352">
        <ele>496.6</ele>
        <time>2024-08-13T09:45:45Z</time>
      </trkpt>
      <trkpt lat="44.65242" lon="2.50347">
        <ele>496.6</ele>
        <time>2024-08-13T09:45:46Z</time>
      </trkpt>
      <trkpt lat="44.6524" lon="2.50336">
        <ele>497.5</ele>
        <time>2024-08-13T09:45:48Z</time>
      </trkpt>
      <trkpt lat="44.6524" lon="2.50331">
        <ele>497.8</ele>
        <time>2024-08-13T09:45:49Z</time>
      </trkpt>
      <trkpt lat="44.6524" lon="2.50326">
        <ele>498.1</ele>
        <time>2024-08-13T09:45:50Z</time>
      </trkpt>
      <trkpt lat="44.6524" lon="2.5032">
        <ele>498.6</ele>
        <time>2024-08-13T09:45:52Z</time>
      </trkpt>
      <trkpt lat="44.65241" lon="2.50317">
        <ele>498.8</ele>
        <time>2024-08-13T09:45:53Z</time>
      </trkpt>
      <trkpt lat="44.65241" lon="2.50313">
        <ele>499.1</ele>
        <time>2024-08-13T09:45:54Z</time>
      </trkpt>
      <trkpt lat="44.65241" lon="2.50304">
        <ele>499.7</ele>
        <time>2024-08-13T09:45:56Z</time>
      </trkpt>
      <trkpt lat="44.65241" lon="2.50296">
        <ele>500.2</ele>
        <time>2024-08-13T09:45:58Z</time>
      </trkpt>
      <trkpt lat="44.65241" lon="2.50286">
        <ele>500.8</ele>
        <time>2024-08-13T09:46:00Z</time>
      </trkpt>
      <trkpt lat="44.65241" lon="2.50277">
        <ele>501.3</ele>
        <time>2024-08-13T09:46:02Z</time>
      </trkpt>
      <trkpt lat="44.65241" lon="2.50276">
        <ele>501.4</ele>
        <time>2024-08-13T09:46:03Z</time>
      </trkpt>
      <trkpt lat="44.65241" lon="2.50276">
        <ele>501.4</ele>
        <time>2024-08-13T09:46:04Z</time>
      </trkpt>
      <trkpt lat="44.65241" lon="2.50281">
        <ele>501.6</ele>
        <time>2024-08-13T09:46:10Z</time>
      </trkpt>
      <trkpt lat="44.6524" lon="2.50283">
        <ele>501.7</ele>
        <time>2024-08-13T09:46:11Z</time>
      </trkpt>
      <trkpt lat="44.65239" lon="2.50285">
        <ele>501.9</ele>
        <time>2024-08-13T09:46:12Z</time>
      </trkpt>
      <trkpt lat="44.65239" lon="2.50291">
        <ele>501.5</ele>
        <time>2024-08-13T09:46:14Z</time>
      </trkpt>
      <trkpt lat="44.65239" lon="2.50298">
        <ele>500.9</ele>
        <time>2024-08-13T09:46:16Z</time>
      </trkpt>
      <trkpt lat="44.6524" lon="2.50309">
        <ele>499.9</ele>
        <time>2024-08-13T09:46:18Z</time>
      </trkpt>
      <trkpt lat="44.65239" lon="2.50319">
        <ele>498.9</ele>
        <time>2024-08-13T09:46:20Z</time>
      </trkpt>
      <trkpt lat="44.65237" lon="2.5033">
        <ele>497.7</ele>
        <time>2024-08-13T09:46:22Z</time>
      </trkpt>
      <trkpt lat="44.65236" lon="2.50341">
        <ele>496.6</ele>
        <time>2024-08-13T09:46:24Z</time>
      </trkpt>
      <trkpt lat="44.65235" lon="2.50345">
        <ele>496.3</ele>
        <time>2024-08-13T09:46:25Z</time>
      </trkpt>
      <trkpt lat="44.65232" lon="2.50347">
        <ele>496.1</ele>
        <time>2024-08-13T09:46:26Z</time>
      </trkpt>
      <trkpt lat="44.65229" lon="2.50347">
        <ele>495.9</ele>
        <time>2024-08-13T09:46:27Z</time>
      </trkpt>
      <trkpt lat="44.65226" lon="2.50344">
        <ele>495.6</ele>
        <time>2024-08-13T09:46:28Z</time>
      </trkpt>
      <trkpt lat="44.65223" lon="2.5034">
        <ele>495.2</ele>
        <time>2024-08-13T09:46:29Z</time>
      </trkpt>
      <trkpt lat="44.65221" lon="2.50336">
        <ele>494.8</ele>
        <time>2024-08-13T09:46:30Z</time>
      </trkpt>
      <trkpt lat="44.65217" lon="2.50331">
        <ele>494.3</ele>
        <time>2024-08-13T09:46:31Z</time>
      </trkpt>
      <trkpt lat="44.65215" lon="2.50325">
        <ele>494</ele>
        <time>2024-08-13T09:46:32Z</time>
      </trkpt>
      <trkpt lat="44.65213" lon="2.50317">
        <ele>493.7</ele>
        <time>2024-08-13T09:46:33Z</time>
      </trkpt>
      <trkpt lat="44.65212" lon="2.5031">
        <ele>493.6</ele>
        <time>2024-08-13T09:46:34Z</time>
      </trkpt>
      <trkpt lat="44.6521" lon="2.50296">
        <ele>493.4</ele>
        <time>2024-08-13T09:46:36Z</time>
      </trkpt>
      <trkpt lat="44.6521" lon="2.50288">
        <ele>493.3</ele>
        <time>2024-08-13T09:46:37Z</time>
      </trkpt>
      <trkpt lat="44.65209" lon="2.50281">
        <ele>493.2</ele>
        <time>2024-08-13T09:46:38Z</time>
      </trkpt>
      <trkpt lat="44.65208" lon="2.50267">
        <ele>493.2</ele>
        <time>2024-08-13T09:46:40Z</time>
      </trkpt>
      <trkpt lat="44.65207" lon="2.50254">
        <ele>493.3</ele>
        <time>2024-08-13T09:46:42Z</time>
      </trkpt>
      <trkpt lat="44.65207" lon="2.50242">
        <ele>493.5</ele>
        <time>2024-08-13T09:46:44Z</time>
      </trkpt>
      <trkpt lat="44.65207" lon="2.50229">
        <ele>493.7</ele>
        <time>2024-08-13T09:46:46Z</time>
      </trkpt>
      <trkpt lat="44.65207" lon="2.50216">
        <ele>494.1</ele>
        <time>2024-08-13T09:46:48Z</time>
      </trkpt>
      <trkpt lat="44.65207" lon="2.50203">
        <ele>494.5</ele>
        <time>2024-08-13T09:46:50Z</time>
      </trkpt>
      <trkpt lat="44.65207" lon="2.50191">
        <ele>494.8</ele>
        <time>2024-08-13T09:46:52Z</time>
      </trkpt>
      <trkpt lat="44.65206" lon="2.50185">
        <ele>494.9</ele>
        <time>2024-08-13T09:46:53Z</time>
      </trkpt>
      <trkpt lat="44.65206" lon="2.5018">
        <ele>495.1</ele>
        <time>2024-08-13T09:46:54Z</time>
      </trkpt>
      <trkpt lat="44.65205" lon="2.50169">
        <ele>495.3</ele>
        <time>2024-08-13T09:46:56Z</time>
      </trkpt>
      <trkpt lat="44.65203" lon="2.50159">
        <ele>495.4</ele>
        <time>2024-08-13T09:46:58Z</time>
      </trkpt>
      <trkpt lat="44.65201" lon="2.50148">
        <ele>495.4</ele>
        <time>2024-08-13T09:47:00Z</time>
      </trkpt>
      <trkpt lat="44.65197" lon="2.50135">
        <ele>495.3</ele>
        <time>2024-08-13T09:47:02Z</time>
      </trkpt>
      <trkpt lat="44.65195" lon="2.50122">
        <ele>495</ele>
        <time>2024-08-13T09:47:04Z</time>
      </trkpt>
      <trkpt lat="44.65193" lon="2.50109">
        <ele>494.8</ele>
        <time>2024-08-13T09:47:06Z</time>
      </trkpt>
      <trkpt lat="44.65191" lon="2.50102">
        <ele>494.7</ele>
        <time>2024-08-13T09:47:07Z</time>
      </trkpt>
      <trkpt lat="44.65189" lon="2.50096">
        <ele>494.6</ele>
        <time>2024-08-13T09:47:08Z</time>
      </trkpt>
      <trkpt lat="44.65188" lon="2.50089">
        <ele>495</ele>
        <time>2024-08-13T09:47:09Z</time>
      </trkpt>
      <trkpt lat="44.65187" lon="2.50083">
        <ele>495.3</ele>
        <time>2024-08-13T09:47:10Z</time>
      </trkpt>
      <trkpt lat="44.65187" lon="2.50077">
        <ele>495.6</ele>
        <time>2024-08-13T09:47:11Z</time>
      </trkpt>
      <trkpt lat="44.65187" lon="2.50071">
        <ele>495.8</ele>
        <time>2024-08-13T09:47:12Z</time>
      </trkpt>
      <trkpt lat="44.65186" lon="2.5006">
        <ele>496.3</ele>
        <time>2024-08-13T09:47:14Z</time>
      </trkpt>
      <trkpt lat="44.65185" lon="2.50048">
        <ele>496.8</ele>
        <time>2024-08-13T09:47:16Z</time>
      </trkpt>
      <trkpt lat="44.65184" lon="2.50042">
        <ele>497</ele>
        <time>2024-08-13T09:47:17Z</time>
      </trkpt>
      <trkpt lat="44.65183" lon="2.50036">
        <ele>497.2</ele>
        <time>2024-08-13T09:47:18Z</time>
      </trkpt>
      <trkpt lat="44.65181" lon="2.50025">
        <ele>497.6</ele>
        <time>2024-08-13T09:47:20Z</time>
      </trkpt>
      <trkpt lat="44.65179" lon="2.50017">
        <ele>492.5</ele>
        <time>2024-08-13T09:47:22Z</time>
      </trkpt>
      <trkpt lat="44.65172" lon="2.50015">
        <ele>488.2</ele>
        <time>2024-08-13T09:47:24Z</time>
      </trkpt>
      <trkpt lat="44.65168" lon="2.50014">
        <ele>487.7</ele>
        <time>2024-08-13T09:47:25Z</time>
      </trkpt>
      <trkpt lat="44.65162" lon="2.5001">
        <ele>487.2</ele>
        <time>2024-08-13T09:47:26Z</time>
      </trkpt>
      <trkpt lat="44.65158" lon="2.50004">
        <ele>486.7</ele>
        <time>2024-08-13T09:47:27Z</time>
      </trkpt>
      <trkpt lat="44.65153" lon="2.49996">
        <ele>486.2</ele>
        <time>2024-08-13T09:47:28Z</time>
      </trkpt>
      <trkpt lat="44.65143" lon="2.49983">
        <ele>485.4</ele>
        <time>2024-08-13T09:47:30Z</time>
      </trkpt>
      <trkpt lat="44.65132" lon="2.4997">
        <ele>484.5</ele>
        <time>2024-08-13T09:47:32Z</time>
      </trkpt>
      <trkpt lat="44.65125" lon="2.49963">
        <ele>484</ele>
        <time>2024-08-13T09:47:33Z</time>
      </trkpt>
      <trkpt lat="44.65119" lon="2.49956">
        <ele>483.7</ele>
        <time>2024-08-13T09:47:34Z</time>
      </trkpt>
      <trkpt lat="44.65106" lon="2.49943">
        <ele>483.1</ele>
        <time>2024-08-13T09:47:36Z</time>
      </trkpt>
      <trkpt lat="44.65099" lon="2.49938">
        <ele>482.8</ele>
        <time>2024-08-13T09:47:37Z</time>
      </trkpt>
      <trkpt lat="44.65092" lon="2.49934">
        <ele>482.5</ele>
        <time>2024-08-13T09:47:38Z</time>
      </trkpt>
      <trkpt lat="44.65084" lon="2.4993">
        <ele>482.3</ele>
        <time>2024-08-13T09:47:39Z</time>
      </trkpt>
      <trkpt lat="44.65077" lon="2.49927">
        <ele>482.2</ele>
        <time>2024-08-13T09:47:40Z</time>
      </trkpt>
      <trkpt lat="44.6506" lon="2.49924">
        <ele>481.8</ele>
        <time>2024-08-13T09:47:42Z</time>
      </trkpt>
      <trkpt lat="44.65051" lon="2.49923">
        <ele>481.5</ele>
        <time>2024-08-13T09:47:43Z</time>
      </trkpt>
      <trkpt lat="44.65042" lon="2.49922">
        <ele>481.3</ele>
        <time>2024-08-13T09:47:44Z</time>
      </trkpt>
      <trkpt lat="44.65024" lon="2.49922">
        <ele>480.6</ele>
        <time>2024-08-13T09:47:46Z</time>
      </trkpt>
      <trkpt lat="44.65016" lon="2.49922">
        <ele>480</ele>
        <time>2024-08-13T09:47:47Z</time>
      </trkpt>
      <trkpt lat="44.65007" lon="2.4992">
        <ele>479.4</ele>
        <time>2024-08-13T09:47:48Z</time>
      </trkpt>
      <trkpt lat="44.6499" lon="2.49918">
        <ele>477.8</ele>
        <time>2024-08-13T09:47:50Z</time>
      </trkpt>
      <trkpt lat="44.64972" lon="2.49915">
        <ele>476.1</ele>
        <time>2024-08-13T09:47:52Z</time>
      </trkpt>
      <trkpt lat="44.64963" lon="2.49913">
        <ele>475.2</ele>
        <time>2024-08-13T09:47:53Z</time>
      </trkpt>
      <trkpt lat="44.64955" lon="2.49912">
        <ele>474.4</ele>
        <time>2024-08-13T09:47:54Z</time>
      </trkpt>
      <trkpt lat="44.64941" lon="2.49909">
        <ele>472.7</ele>
        <time>2024-08-13T09:47:56Z</time>
      </trkpt>
      <trkpt lat="44.64934" lon="2.49909">
        <ele>471.8</ele>
        <time>2024-08-13T09:47:57Z</time>
      </trkpt>
      <trkpt lat="44.64927" lon="2.49909">
        <ele>470.8</ele>
        <time>2024-08-13T09:47:58Z</time>
      </trkpt>
      <trkpt lat="44.64911" lon="2.49912">
        <ele>468.9</ele>
        <time>2024-08-13T09:48:00Z</time>
      </trkpt>
      <trkpt lat="44.64904" lon="2.49913">
        <ele>468.1</ele>
        <time>2024-08-13T09:48:01Z</time>
      </trkpt>
      <trkpt lat="44.64896" lon="2.49914">
        <ele>467.3</ele>
        <time>2024-08-13T09:48:02Z</time>
      </trkpt>
      <trkpt lat="44.64889" lon="2.49915">
        <ele>466.5</ele>
        <time>2024-08-13T09:48:03Z</time>
      </trkpt>
      <trkpt lat="44.64881" lon="2.49917">
        <ele>465.6</ele>
        <time>2024-08-13T09:48:04Z</time>
      </trkpt>
      <trkpt lat="44.64874" lon="2.49919">
        <ele>464.8</ele>
        <time>2024-08-13T09:48:05Z</time>
      </trkpt>
      <trkpt lat="44.64867" lon="2.49922">
        <ele>464</ele>
        <time>2024-08-13T09:48:06Z</time>
      </trkpt>
      <trkpt lat="44.64855" lon="2.49925">
        <ele>462.6</ele>
        <time>2024-08-13T09:48:08Z</time>
      </trkpt>
      <trkpt lat="44.64849" lon="2.49926">
        <ele>461.8</ele>
        <time>2024-08-13T09:48:09Z</time>
      </trkpt>
      <trkpt lat="44.64844" lon="2.49926">
        <ele>461.3</ele>
        <time>2024-08-13T09:48:10Z</time>
      </trkpt>
      <trkpt lat="44.64839" lon="2.49927">
        <ele>460.6</ele>
        <time>2024-08-13T09:48:12Z</time>
      </trkpt>
      <trkpt lat="44.64837" lon="2.49927">
        <ele>460.4</ele>
        <time>2024-08-13T09:48:13Z</time>
      </trkpt>
      <trkpt lat="44.64836" lon="2.49928">
        <ele>460.2</ele>
        <time>2024-08-13T09:48:14Z</time>
      </trkpt>
      <trkpt lat="44.64836" lon="2.49929">
        <ele>460.1</ele>
        <time>2024-08-13T09:48:16Z</time>
      </trkpt>
      <trkpt lat="44.64837" lon="2.49928">
        <ele>459.9</ele>
        <time>2024-08-13T09:48:17Z</time>
      </trkpt>
      <trkpt lat="44.64841" lon="2.49929">
        <ele>459.3</ele>
        <time>2024-08-13T09:48:18Z</time>
      </trkpt>
      <trkpt lat="44.64849" lon="2.49933">
        <ele>458</ele>
        <time>2024-08-13T09:48:20Z</time>
      </trkpt>
      <trkpt lat="44.64857" lon="2.4994">
        <ele>456.8</ele>
        <time>2024-08-13T09:48:22Z</time>
      </trkpt>
      <trkpt lat="44.64862" lon="2.49942">
        <ele>456.1</ele>
        <time>2024-08-13T09:48:23Z</time>
      </trkpt>
      <trkpt lat="44.64868" lon="2.49945">
        <ele>455.3</ele>
        <time>2024-08-13T09:48:24Z</time>
      </trkpt>
      <trkpt lat="44.64878" lon="2.49949">
        <ele>454</ele>
        <time>2024-08-13T09:48:26Z</time>
      </trkpt>
      <trkpt lat="44.6488" lon="2.4995">
        <ele>453.7</ele>
        <time>2024-08-13T09:48:27Z</time>
      </trkpt>
      <trkpt lat="44.64883" lon="2.4995">
        <ele>453.3</ele>
        <time>2024-08-13T09:48:28Z</time>
      </trkpt>
      <trkpt lat="44.64885" lon="2.49952">
        <ele>452</ele>
        <time>2024-08-13T09:48:30Z</time>
      </trkpt>
      <trkpt lat="44.64885" lon="2.49954">
        <ele>451.6</ele>
        <time>2024-08-13T09:48:31Z</time>
      </trkpt>
      <trkpt lat="44.64883" lon="2.49955">
        <ele>450.8</ele>
        <time>2024-08-13T09:48:32Z</time>
      </trkpt>
      <trkpt lat="44.64879" lon="2.49958">
        <ele>449.3</ele>
        <time>2024-08-13T09:48:33Z</time>
      </trkpt>
      <trkpt lat="44.64875" lon="2.4996">
        <ele>447.6</ele>
        <time>2024-08-13T09:48:34Z</time>
      </trkpt>
      <trkpt lat="44.64866" lon="2.49965">
        <ele>444.4</ele>
        <time>2024-08-13T09:48:36Z</time>
      </trkpt>
      <trkpt lat="44.64855" lon="2.4997">
        <ele>440.5</ele>
        <time>2024-08-13T09:48:38Z</time>
      </trkpt>
      <trkpt lat="44.64843" lon="2.49976">
        <ele>436.9</ele>
        <time>2024-08-13T09:48:40Z</time>
      </trkpt>
      <trkpt lat="44.64829" lon="2.49982">
        <ele>432.5</ele>
        <time>2024-08-13T09:48:42Z</time>
      </trkpt>
      <trkpt lat="44.64816" lon="2.49989">
        <ele>428.4</ele>
        <time>2024-08-13T09:48:44Z</time>
      </trkpt>
      <trkpt lat="44.64805" lon="2.49991">
        <ele>424.8</ele>
        <time>2024-08-13T09:48:46Z</time>
      </trkpt>
      <trkpt lat="44.64794" lon="2.49991">
        <ele>421.2</ele>
        <time>2024-08-13T09:48:48Z</time>
      </trkpt>
      <trkpt lat="44.64787" lon="2.4999">
        <ele>418.9</ele>
        <time>2024-08-13T09:48:50Z</time>
      </trkpt>
      <trkpt lat="44.64785" lon="2.4999">
        <ele>418</ele>
        <time>2024-08-13T09:48:51Z</time>
      </trkpt>
      <trkpt lat="44.64783" lon="2.49991">
        <ele>417.3</ele>
        <time>2024-08-13T09:48:52Z</time>
      </trkpt>
      <trkpt lat="44.64781" lon="2.49993">
        <ele>416.3</ele>
        <time>2024-08-13T09:48:54Z</time>
      </trkpt>
      <trkpt lat="44.6478" lon="2.49995">
        <ele>415.9</ele>
        <time>2024-08-13T09:48:55Z</time>
      </trkpt>
      <trkpt lat="44.6478" lon="2.49997">
        <ele>415.7</ele>
        <time>2024-08-13T09:48:56Z</time>
      </trkpt>
      <trkpt lat="44.64782" lon="2.49999">
        <ele>415.6</ele>
        <time>2024-08-13T09:48:58Z</time>
      </trkpt>
      <trkpt lat="44.64783" lon="2.5">
        <ele>415.5</ele>
        <time>2024-08-13T09:48:59Z</time>
      </trkpt>
      <trkpt lat="44.64785" lon="2.50001">
        <ele>415.4</ele>
        <time>2024-08-13T09:49:00Z</time>
      </trkpt>
      <trkpt lat="44.64788" lon="2.50004">
        <ele>415.2</ele>
        <time>2024-08-13T09:49:02Z</time>
      </trkpt>
      <trkpt lat="44.64793" lon="2.50008">
        <ele>414.9</ele>
        <time>2024-08-13T09:49:04Z</time>
      </trkpt>
      <trkpt lat="44.64795" lon="2.5001">
        <ele>414.8</ele>
        <time>2024-08-13T09:49:05Z</time>
      </trkpt>
      <trkpt lat="44.64797" lon="2.50012">
        <ele>414.7</ele>
        <time>2024-08-13T09:49:06Z</time>
      </trkpt>
      <trkpt lat="44.64802" lon="2.50016">
        <ele>414.5</ele>
        <time>2024-08-13T09:49:08Z</time>
      </trkpt>
      <trkpt lat="44.64805" lon="2.50017">
        <ele>414.5</ele>
        <time>2024-08-13T09:49:09Z</time>
      </trkpt>
      <trkpt lat="44.64809" lon="2.50018">
        <ele>414.4</ele>
        <time>2024-08-13T09:49:10Z</time>
      </trkpt>
      <trkpt lat="44.64817" lon="2.50021">
        <ele>414.3</ele>
        <time>2024-08-13T09:49:12Z</time>
      </trkpt>
      <trkpt lat="44.64824" lon="2.50023">
        <ele>414.1</ele>
        <time>2024-08-13T09:49:14Z</time>
      </trkpt>
      <trkpt lat="44.64828" lon="2.50024">
        <ele>414.1</ele>
        <time>2024-08-13T09:49:15Z</time>
      </trkpt>
      <trkpt lat="44.64832" lon="2.50025">
        <ele>414</ele>
        <time>2024-08-13T09:49:16Z</time>
      </trkpt>
      <trkpt lat="44.64841" lon="2.50027">
        <ele>413.8</ele>
        <time>2024-08-13T09:49:18Z</time>
      </trkpt>
      <trkpt lat="44.64848" lon="2.50029">
        <ele>413.6</ele>
        <time>2024-08-13T09:49:20Z</time>
      </trkpt>
      <trkpt lat="44.64854" lon="2.50031">
        <ele>413</ele>
        <time>2024-08-13T09:49:22Z</time>
      </trkpt>
      <trkpt lat="44.64855" lon="2.50033">
        <ele>412.6</ele>
        <time>2024-08-13T09:49:23Z</time>
      </trkpt>
      <trkpt lat="44.64855" lon="2.50036">
        <ele>412.3</ele>
        <time>2024-08-13T09:49:24Z</time>
      </trkpt>
      <trkpt lat="44.64853" lon="2.5004">
        <ele>411.5</ele>
        <time>2024-08-13T09:49:26Z</time>
      </trkpt>
      <trkpt lat="44.64849" lon="2.50041">
        <ele>410.9</ele>
        <time>2024-08-13T09:49:27Z</time>
      </trkpt>
      <trkpt lat="44.64846" lon="2.50041">
        <ele>410.3</ele>
        <time>2024-08-13T09:49:28Z</time>
      </trkpt>
      <trkpt lat="44.64837" lon="2.50044">
        <ele>408.7</ele>
        <time>2024-08-13T09:49:30Z</time>
      </trkpt>
      <trkpt lat="44.64827" lon="2.50047">
        <ele>406.9</ele>
        <time>2024-08-13T09:49:32Z</time>
      </trkpt>
      <trkpt lat="44.64816" lon="2.50051">
        <ele>404.9</ele>
        <time>2024-08-13T09:49:34Z</time>
      </trkpt>
      <trkpt lat="44.64802" lon="2.50055">
        <ele>402.5</ele>
        <time>2024-08-13T09:49:36Z</time>
      </trkpt>
      <trkpt lat="44.64795" lon="2.50056">
        <ele>401.2</ele>
        <time>2024-08-13T09:49:37Z</time>
      </trkpt>
      <trkpt lat="44.64787" lon="2.50057">
        <ele>399.9</ele>
        <time>2024-08-13T09:49:38Z</time>
      </trkpt>
      <trkpt lat="44.64772" lon="2.50058">
        <ele>397.2</ele>
        <time>2024-08-13T09:49:40Z</time>
      </trkpt>
      <trkpt lat="44.64757" lon="2.50057">
        <ele>394.5</ele>
        <time>2024-08-13T09:49:42Z</time>
      </trkpt>
      <trkpt lat="44.64744" lon="2.50054">
        <ele>392</ele>
        <time>2024-08-13T09:49:44Z</time>
      </trkpt>
      <trkpt lat="44.64733" lon="2.50048">
        <ele>389.8</ele>
        <time>2024-08-13T09:49:46Z</time>
      </trkpt>
      <trkpt lat="44.64728" lon="2.50045">
        <ele>389</ele>
        <time>2024-08-13T09:49:47Z</time>
      </trkpt>
      <trkpt lat="44.64724" lon="2.50045">
        <ele>388.3</ele>
        <time>2024-08-13T09:49:48Z</time>
      </trkpt>
      <trkpt lat="44.64722" lon="2.50047">
        <ele>387.8</ele>
        <time>2024-08-13T09:49:49Z</time>
      </trkpt>
      <trkpt lat="44.64721" lon="2.50051">
        <ele>387.3</ele>
        <time>2024-08-13T09:49:50Z</time>
      </trkpt>
      <trkpt lat="44.64724" lon="2.50055">
        <ele>386.6</ele>
        <time>2024-08-13T09:49:51Z</time>
      </trkpt>
      <trkpt lat="44.64727" lon="2.50058">
        <ele>385.9</ele>
        <time>2024-08-13T09:49:52Z</time>
      </trkpt>
      <trkpt lat="44.64731" lon="2.50061">
        <ele>385.2</ele>
        <time>2024-08-13T09:49:53Z</time>
      </trkpt>
      <trkpt lat="44.64736" lon="2.50064">
        <ele>384.3</ele>
        <time>2024-08-13T09:49:54Z</time>
      </trkpt>
      <trkpt lat="44.6474" lon="2.50068">
        <ele>383.4</ele>
        <time>2024-08-13T09:49:55Z</time>
      </trkpt>
      <trkpt lat="44.64745" lon="2.50072">
        <ele>382.4</ele>
        <time>2024-08-13T09:49:56Z</time>
      </trkpt>
      <trkpt lat="44.64756" lon="2.50084">
        <ele>380.1</ele>
        <time>2024-08-13T09:49:58Z</time>
      </trkpt>
      <trkpt lat="44.64768" lon="2.50096">
        <ele>377.4</ele>
        <time>2024-08-13T09:50:00Z</time>
      </trkpt>
      <trkpt lat="44.6478" lon="2.50106">
        <ele>374.7</ele>
        <time>2024-08-13T09:50:02Z</time>
      </trkpt>
      <trkpt lat="44.64786" lon="2.5011">
        <ele>373.2</ele>
        <time>2024-08-13T09:50:03Z</time>
      </trkpt>
      <trkpt lat="44.64792" lon="2.50114">
        <ele>371.8</ele>
        <time>2024-08-13T09:50:04Z</time>
      </trkpt>
      <trkpt lat="44.64799" lon="2.50117">
        <ele>370.3</ele>
        <time>2024-08-13T09:50:05Z</time>
      </trkpt>
      <trkpt lat="44.64805" lon="2.5012">
        <ele>368.8</ele>
        <time>2024-08-13T09:50:06Z</time>
      </trkpt>
      <trkpt lat="44.64812" lon="2.50122">
        <ele>367.3</ele>
        <time>2024-08-13T09:50:07Z</time>
      </trkpt>
      <trkpt lat="44.64819" lon="2.50123">
        <ele>365.7</ele>
        <time>2024-08-13T09:50:08Z</time>
      </trkpt>
      <trkpt lat="44.64834" lon="2.50125">
        <ele>362.6</ele>
        <time>2024-08-13T09:50:10Z</time>
      </trkpt>
      <trkpt lat="44.6485" lon="2.50125">
        <ele>359.4</ele>
        <time>2024-08-13T09:50:12Z</time>
      </trkpt>
      <trkpt lat="44.64866" lon="2.50124">
        <ele>356.3</ele>
        <time>2024-08-13T09:50:14Z</time>
      </trkpt>
      <trkpt lat="44.64874" lon="2.50125">
        <ele>355</ele>
        <time>2024-08-13T09:50:15Z</time>
      </trkpt>
      <trkpt lat="44.64881" lon="2.50126">
        <ele>353.9</ele>
        <time>2024-08-13T09:50:16Z</time>
      </trkpt>
      <trkpt lat="44.64886" lon="2.50128">
        <ele>353.1</ele>
        <time>2024-08-13T09:50:17Z</time>
      </trkpt>
      <trkpt lat="44.6489" lon="2.50131">
        <ele>352.3</ele>
        <time>2024-08-13T09:50:18Z</time>
      </trkpt>
      <trkpt lat="44.64892" lon="2.50135">
        <ele>351.6</ele>
        <time>2024-08-13T09:50:19Z</time>
      </trkpt>
      <trkpt lat="44.64893" lon="2.50139">
        <ele>351.1</ele>
        <time>2024-08-13T09:50:20Z</time>
      </trkpt>
      <trkpt lat="44.64891" lon="2.50141">
        <ele>350.5</ele>
        <time>2024-08-13T09:50:21Z</time>
      </trkpt>
      <trkpt lat="44.64888" lon="2.50141">
        <ele>350.3</ele>
        <time>2024-08-13T09:50:22Z</time>
      </trkpt>
      <trkpt lat="44.64882" lon="2.50136">
        <ele>349.8</ele>
        <time>2024-08-13T09:50:24Z</time>
      </trkpt>
      <trkpt lat="44.64879" lon="2.50134">
        <ele>349.5</ele>
        <time>2024-08-13T09:50:25Z</time>
      </trkpt>
      <trkpt lat="44.64874" lon="2.50134">
        <ele>349.1</ele>
        <time>2024-08-13T09:50:26Z</time>
      </trkpt>
      <trkpt lat="44.64869" lon="2.50135">
        <ele>348.7</ele>
        <time>2024-08-13T09:50:27Z</time>
      </trkpt>
      <trkpt lat="44.64864" lon="2.50137">
        <ele>348.3</ele>
        <time>2024-08-13T09:50:28Z</time>
      </trkpt>
      <trkpt lat="44.64859" lon="2.50139">
        <ele>347.8</ele>
        <time>2024-08-13T09:50:29Z</time>
      </trkpt>
      <trkpt lat="44.64854" lon="2.50141">
        <ele>347.3</ele>
        <time>2024-08-13T09:50:30Z</time>
      </trkpt>
      <trkpt lat="44.64848" lon="2.50143">
        <ele>346.8</ele>
        <time>2024-08-13T09:50:31Z</time>
      </trkpt>
      <trkpt lat="44.64842" lon="2.50146">
        <ele>346.3</ele>
        <time>2024-08-13T09:50:32Z</time>
      </trkpt>
      <trkpt lat="44.64836" lon="2.50148">
        <ele>345.9</ele>
        <time>2024-08-13T09:50:33Z</time>
      </trkpt>
      <trkpt lat="44.64831" lon="2.5015">
        <ele>345.5</ele>
        <time>2024-08-13T09:50:34Z</time>
      </trkpt>
      <trkpt lat="44.6482" lon="2.50151">
        <ele>344.7</ele>
        <time>2024-08-13T09:50:36Z</time>
      </trkpt>
      <trkpt lat="44.64815" lon="2.50152">
        <ele>344.3</ele>
        <time>2024-08-13T09:50:37Z</time>
      </trkpt>
      <trkpt lat="44.6481" lon="2.50154">
        <ele>343.9</ele>
        <time>2024-08-13T09:50:38Z</time>
      </trkpt>
      <trkpt lat="44.64806" lon="2.50158">
        <ele>343.5</ele>
        <time>2024-08-13T09:50:39Z</time>
      </trkpt>
      <trkpt lat="44.64802" lon="2.50162">
        <ele>343.2</ele>
        <time>2024-08-13T09:50:40Z</time>
      </trkpt>
      <trkpt lat="44.64799" lon="2.50165">
        <ele>342.9</ele>
        <time>2024-08-13T09:50:41Z</time>
      </trkpt>
      <trkpt lat="44.64794" lon="2.50167">
        <ele>342.6</ele>
        <time>2024-08-13T09:50:42Z</time>
      </trkpt>
      <trkpt lat="44.64787" lon="2.50168">
        <ele>342.1</ele>
        <time>2024-08-13T09:50:43Z</time>
      </trkpt>
      <trkpt lat="44.64781" lon="2.50168">
        <ele>341.6</ele>
        <time>2024-08-13T09:50:44Z</time>
      </trkpt>
      <trkpt lat="44.64769" lon="2.50165">
        <ele>340.7</ele>
        <time>2024-08-13T09:50:46Z</time>
      </trkpt>
      <trkpt lat="44.64756" lon="2.50162">
        <ele>339.7</ele>
        <time>2024-08-13T09:50:48Z</time>
      </trkpt>
      <trkpt lat="44.64749" lon="2.5016">
        <ele>339.3</ele>
        <time>2024-08-13T09:50:49Z</time>
      </trkpt>
      <trkpt lat="44.64742" lon="2.50156">
        <ele>338.7</ele>
        <time>2024-08-13T09:50:50Z</time>
      </trkpt>
      <trkpt lat="44.64728" lon="2.50148">
        <ele>337.8</ele>
        <time>2024-08-13T09:50:52Z</time>
      </trkpt>
      <trkpt lat="44.64715" lon="2.50141">
        <ele>337.6</ele>
        <time>2024-08-13T09:50:54Z</time>
      </trkpt>
      <trkpt lat="44.64709" lon="2.50139">
        <ele>337.8</ele>
        <time>2024-08-13T09:50:55Z</time>
      </trkpt>
      <trkpt lat="44.64703" lon="2.50138">
        <ele>338</ele>
        <time>2024-08-13T09:50:56Z</time>
      </trkpt>
      <trkpt lat="44.64692" lon="2.50135">
        <ele>338.6</ele>
        <time>2024-08-13T09:50:58Z</time>
      </trkpt>
      <trkpt lat="44.64682" lon="2.50131">
        <ele>339.1</ele>
        <time>2024-08-13T09:51:00Z</time>
      </trkpt>
      <trkpt lat="44.64678" lon="2.50129">
        <ele>339.4</ele>
        <time>2024-08-13T09:51:01Z</time>
      </trkpt>
      <trkpt lat="44.64674" lon="2.50128">
        <ele>339.7</ele>
        <time>2024-08-13T09:51:02Z</time>
      </trkpt>
      <trkpt lat="44.6467" lon="2.50126">
        <ele>339.9</ele>
        <time>2024-08-13T09:51:03Z</time>
      </trkpt>
      <trkpt lat="44.64667" lon="2.50124">
        <ele>340.2</ele>
        <time>2024-08-13T09:51:04Z</time>
      </trkpt>
      <trkpt lat="44.6466" lon="2.50121">
        <ele>340.8</ele>
        <time>2024-08-13T09:51:06Z</time>
      </trkpt>
      <trkpt lat="44.64654" lon="2.5012">
        <ele>341.3</ele>
        <time>2024-08-13T09:51:08Z</time>
      </trkpt>
      <trkpt lat="44.64651" lon="2.50119">
        <ele>341.6</ele>
        <time>2024-08-13T09:51:09Z</time>
      </trkpt>
      <trkpt lat="44.64649" lon="2.50118">
        <ele>341.8</ele>
        <time>2024-08-13T09:51:10Z</time>
      </trkpt>
      <trkpt lat="44.64645" lon="2.50117">
        <ele>342.2</ele>
        <time>2024-08-13T09:51:12Z</time>
      </trkpt>
      <trkpt lat="44.6464" lon="2.50117">
        <ele>342.7</ele>
        <time>2024-08-13T09:51:14Z</time>
      </trkpt>
      <trkpt lat="44.64638" lon="2.50116">
        <ele>342.9</ele>
        <time>2024-08-13T09:51:15Z</time>
      </trkpt>
      <trkpt lat="44.64636" lon="2.50115">
        <ele>343.1</ele>
        <time>2024-08-13T09:51:16Z</time>
      </trkpt>
      <trkpt lat="44.64632" lon="2.50114">
        <ele>343.5</ele>
        <time>2024-08-13T09:51:18Z</time>
      </trkpt>
      <trkpt lat="44.64627" lon="2.50113">
        <ele>344</ele>
        <time>2024-08-13T09:51:20Z</time>
      </trkpt>
      <trkpt lat="44.64625" lon="2.50113">
        <ele>344.2</ele>
        <time>2024-08-13T09:51:21Z</time>
      </trkpt>
      <trkpt lat="44.64622" lon="2.50112">
        <ele>344.4</ele>
        <time>2024-08-13T09:51:22Z</time>
      </trkpt>
      <trkpt lat="44.64618" lon="2.50111">
        <ele>344.7</ele>
        <time>2024-08-13T09:51:24Z</time>
      </trkpt>
      <trkpt lat="44.64613" lon="2.50111">
        <ele>345.1</ele>
        <time>2024-08-13T09:51:26Z</time>
      </trkpt>
      <trkpt lat="44.64609" lon="2.5011">
        <ele>345.5</ele>
        <time>2024-08-13T09:51:28Z</time>
      </trkpt>
      <trkpt lat="44.64604" lon="2.50108">
        <ele>345.8</ele>
        <time>2024-08-13T09:51:30Z</time>
      </trkpt>
      <trkpt lat="44.646" lon="2.50108">
        <ele>346</ele>
        <time>2024-08-13T09:51:32Z</time>
      </trkpt>
      <trkpt lat="44.64595" lon="2.50108">
        <ele>346.3</ele>
        <time>2024-08-13T09:51:34Z</time>
      </trkpt>
      <trkpt lat="44.64592" lon="2.50106">
        <ele>346.5</ele>
        <time>2024-08-13T09:51:36Z</time>
      </trkpt>
      <trkpt lat="44.64588" lon="2.50105">
        <ele>346.8</ele>
        <time>2024-08-13T09:51:38Z</time>
      </trkpt>
      <trkpt lat="44.64585" lon="2.50104">
        <ele>347.1</ele>
        <time>2024-08-13T09:51:40Z</time>
      </trkpt>
      <trkpt lat="44.64581" lon="2.50102">
        <ele>347.3</ele>
        <time>2024-08-13T09:51:42Z</time>
      </trkpt>
      <trkpt lat="44.64576" lon="2.50099">
        <ele>347.6</ele>
        <time>2024-08-13T09:51:44Z</time>
      </trkpt>
      <trkpt lat="44.64574" lon="2.50098">
        <ele>347.7</ele>
        <time>2024-08-13T09:51:45Z</time>
      </trkpt>
      <trkpt lat="44.64572" lon="2.50096">
        <ele>347.8</ele>
        <time>2024-08-13T09:51:46Z</time>
      </trkpt>
      <trkpt lat="44.64568" lon="2.50092">
        <ele>348.1</ele>
        <time>2024-08-13T09:51:48Z</time>
      </trkpt>
      <trkpt lat="44.64565" lon="2.50088">
        <ele>348.3</ele>
        <time>2024-08-13T09:51:50Z</time>
      </trkpt>
      <trkpt lat="44.64563" lon="2.50086">
        <ele>348.5</ele>
        <time>2024-08-13T09:51:51Z</time>
      </trkpt>
      <trkpt lat="44.64562" lon="2.50083">
        <ele>348.6</ele>
        <time>2024-08-13T09:51:52Z</time>
      </trkpt>
      <trkpt lat="44.64559" lon="2.50077">
        <ele>348.9</ele>
        <time>2024-08-13T09:51:54Z</time>
      </trkpt>
      <trkpt lat="44.64559" lon="2.5007">
        <ele>349.1</ele>
        <time>2024-08-13T09:51:56Z</time>
      </trkpt>
      <trkpt lat="44.6456" lon="2.50064">
        <ele>349.3</ele>
        <time>2024-08-13T09:51:58Z</time>
      </trkpt>
      <trkpt lat="44.64562" lon="2.50062">
        <ele>349.4</ele>
        <time>2024-08-13T09:51:59Z</time>
      </trkpt>
      <trkpt lat="44.64563" lon="2.50059">
        <ele>349.5</ele>
        <time>2024-08-13T09:52:00Z</time>
      </trkpt>
      <trkpt lat="44.64566" lon="2.50057">
        <ele>349.6</ele>
        <time>2024-08-13T09:52:01Z</time>
      </trkpt>
      <trkpt lat="44.64567" lon="2.50053">
        <ele>349.7</ele>
        <time>2024-08-13T09:52:02Z</time>
      </trkpt>
      <trkpt lat="44.64569" lon="2.5005">
        <ele>349.7</ele>
        <time>2024-08-13T09:52:03Z</time>
      </trkpt>
      <trkpt lat="44.6457" lon="2.50047">
        <ele>349.8</ele>
        <time>2024-08-13T09:52:04Z</time>
      </trkpt>
      <trkpt lat="44.64573" lon="2.5004">
        <ele>350</ele>
        <time>2024-08-13T09:52:06Z</time>
      </trkpt>
      <trkpt lat="44.64576" lon="2.50037">
        <ele>350.1</ele>
        <time>2024-08-13T09:52:07Z</time>
      </trkpt>
      <trkpt lat="44.64578" lon="2.50033">
        <ele>350.2</ele>
        <time>2024-08-13T09:52:08Z</time>
      </trkpt>
      <trkpt lat="44.64581" lon="2.50026">
        <ele>350.3</ele>
        <time>2024-08-13T09:52:10Z</time>
      </trkpt>
      <trkpt lat="44.64583" lon="2.50019">
        <ele>350.4</ele>
        <time>2024-08-13T09:52:12Z</time>
      </trkpt>
      <trkpt lat="44.64587" lon="2.50012">
        <ele>350.4</ele>
        <time>2024-08-13T09:52:14Z</time>
      </trkpt>
      <trkpt lat="44.64587" lon="2.50004">
        <ele>350.4</ele>
        <time>2024-08-13T09:52:16Z</time>
      </trkpt>
      <trkpt lat="44.64594" lon="2.49993">
        <ele>350.1</ele>
        <time>2024-08-13T09:52:18Z</time>
      </trkpt>
      <trkpt lat="44.64598" lon="2.49982">
        <ele>349.8</ele>
        <time>2024-08-13T09:52:20Z</time>
      </trkpt>
      <trkpt lat="44.64603" lon="2.4997">
        <ele>349.3</ele>
        <time>2024-08-13T09:52:22Z</time>
      </trkpt>
      <trkpt lat="44.64609" lon="2.4996">
        <ele>348.9</ele>
        <time>2024-08-13T09:52:24Z</time>
      </trkpt>
      <trkpt lat="44.64615" lon="2.49951">
        <ele>348.5</ele>
        <time>2024-08-13T09:52:26Z</time>
      </trkpt>
      <trkpt lat="44.64618" lon="2.49946">
        <ele>348.3</ele>
        <time>2024-08-13T09:52:27Z</time>
      </trkpt>
      <trkpt lat="44.64621" lon="2.49941">
        <ele>348.1</ele>
        <time>2024-08-13T09:52:28Z</time>
      </trkpt>
      <trkpt lat="44.64625" lon="2.4993">
        <ele>347.8</ele>
        <time>2024-08-13T09:52:30Z</time>
      </trkpt>
      <trkpt lat="44.6463" lon="2.49918">
        <ele>347.7</ele>
        <time>2024-08-13T09:52:32Z</time>
      </trkpt>
      <trkpt lat="44.64634" lon="2.49907">
        <ele>347.6</ele>
        <time>2024-08-13T09:52:34Z</time>
      </trkpt>
      <trkpt lat="44.64638" lon="2.49897">
        <ele>347.6</ele>
        <time>2024-08-13T09:52:36Z</time>
      </trkpt>
      <trkpt lat="44.6464" lon="2.49892">
        <ele>347.6</ele>
        <time>2024-08-13T09:52:37Z</time>
      </trkpt>
      <trkpt lat="44.64642" lon="2.49887">
        <ele>347.7</ele>
        <time>2024-08-13T09:52:38Z</time>
      </trkpt>
      <trkpt lat="44.64646" lon="2.49877">
        <ele>347.9</ele>
        <time>2024-08-13T09:52:40Z</time>
      </trkpt>
      <trkpt lat="44.64651" lon="2.49868">
        <ele>348</ele>
        <time>2024-08-13T09:52:42Z</time>
      </trkpt>
      <trkpt lat="44.64658" lon="2.49864">
        <ele>348.2</ele>
        <time>2024-08-13T09:52:44Z</time>
      </trkpt>
      <trkpt lat="44.64665" lon="2.4986">
        <ele>348.5</ele>
        <time>2024-08-13T09:52:46Z</time>
      </trkpt>
      <trkpt lat="44.64672" lon="2.49854">
        <ele>348.9</ele>
        <time>2024-08-13T09:52:48Z</time>
      </trkpt>
      <trkpt lat="44.64679" lon="2.4985">
        <ele>349.3</ele>
        <time>2024-08-13T09:52:50Z</time>
      </trkpt>
      <trkpt lat="44.64686" lon="2.49844">
        <ele>349.9</ele>
        <time>2024-08-13T09:52:52Z</time>
      </trkpt>
      <trkpt lat="44.64691" lon="2.49838">
        <ele>350.5</ele>
        <time>2024-08-13T09:52:54Z</time>
      </trkpt>
      <trkpt lat="44.64693" lon="2.49831">
        <ele>351</ele>
        <time>2024-08-13T09:52:56Z</time>
      </trkpt>
      <trkpt lat="44.64695" lon="2.49823">
        <ele>351.5</ele>
        <time>2024-08-13T09:52:58Z</time>
      </trkpt>
      <trkpt lat="44.64696" lon="2.49815">
        <ele>352</ele>
        <time>2024-08-13T09:53:00Z</time>
      </trkpt>
      <trkpt lat="44.64697" lon="2.49809">
        <ele>352.5</ele>
        <time>2024-08-13T09:53:02Z</time>
      </trkpt>
      <trkpt lat="44.64697" lon="2.49801">
        <ele>352.9</ele>
        <time>2024-08-13T09:53:04Z</time>
      </trkpt>
      <trkpt lat="44.64698" lon="2.49794">
        <ele>353.4</ele>
        <time>2024-08-13T09:53:06Z</time>
      </trkpt>
      <trkpt lat="44.64698" lon="2.49787">
        <ele>353.8</ele>
        <time>2024-08-13T09:53:08Z</time>
      </trkpt>
      <trkpt lat="44.64697" lon="2.4978">
        <ele>354.2</ele>
        <time>2024-08-13T09:53:10Z</time>
      </trkpt>
      <trkpt lat="44.64696" lon="2.49777">
        <ele>354.4</ele>
        <time>2024-08-13T09:53:11Z</time>
      </trkpt>
      <trkpt lat="44.64696" lon="2.49774">
        <ele>354.6</ele>
        <time>2024-08-13T09:53:12Z</time>
      </trkpt>
      <trkpt lat="44.64698" lon="2.49767">
        <ele>354.9</ele>
        <time>2024-08-13T09:53:14Z</time>
      </trkpt>
      <trkpt lat="44.647" lon="2.4976">
        <ele>355.2</ele>
        <time>2024-08-13T09:53:16Z</time>
      </trkpt>
      <trkpt lat="44.64702" lon="2.49752">
        <ele>355.5</ele>
        <time>2024-08-13T09:53:18Z</time>
      </trkpt>
      <trkpt lat="44.64704" lon="2.49745">
        <ele>355.8</ele>
        <time>2024-08-13T09:53:20Z</time>
      </trkpt>
      <trkpt lat="44.64704" lon="2.49741">
        <ele>355.9</ele>
        <time>2024-08-13T09:53:21Z</time>
      </trkpt>
      <trkpt lat="44.64704" lon="2.49737">
        <ele>356</ele>
        <time>2024-08-13T09:53:22Z</time>
      </trkpt>
      <trkpt lat="44.64705" lon="2.4973">
        <ele>356.2</ele>
        <time>2024-08-13T09:53:24Z</time>
      </trkpt>
      <trkpt lat="44.64706" lon="2.49723">
        <ele>356.5</ele>
        <time>2024-08-13T09:53:26Z</time>
      </trkpt>
      <trkpt lat="44.64708" lon="2.49716">
        <ele>356.6</ele>
        <time>2024-08-13T09:53:28Z</time>
      </trkpt>
      <trkpt lat="44.64711" lon="2.4971">
        <ele>356.7</ele>
        <time>2024-08-13T09:53:30Z</time>
      </trkpt>
      <trkpt lat="44.64716" lon="2.49703">
        <ele>356.6</ele>
        <time>2024-08-13T09:53:32Z</time>
      </trkpt>
      <trkpt lat="44.64719" lon="2.49699">
        <ele>356.5</ele>
        <time>2024-08-13T09:53:33Z</time>
      </trkpt>
      <trkpt lat="44.64723" lon="2.49696">
        <ele>356.4</ele>
        <time>2024-08-13T09:53:34Z</time>
      </trkpt>
      <trkpt lat="44.64727" lon="2.49692">
        <ele>356.2</ele>
        <time>2024-08-13T09:53:35Z</time>
      </trkpt>
      <trkpt lat="44.64731" lon="2.49687">
        <ele>356</ele>
        <time>2024-08-13T09:53:36Z</time>
      </trkpt>
      <trkpt lat="44.6474" lon="2.49679">
        <ele>355.8</ele>
        <time>2024-08-13T09:53:38Z</time>
      </trkpt>
      <trkpt lat="44.64748" lon="2.49674">
        <ele>355.7</ele>
        <time>2024-08-13T09:53:40Z</time>
      </trkpt>
      <trkpt lat="44.64752" lon="2.49671">
        <ele>355.7</ele>
        <time>2024-08-13T09:53:41Z</time>
      </trkpt>
      <trkpt lat="44.64754" lon="2.49667">
        <ele>355.8</ele>
        <time>2024-08-13T09:53:42Z</time>
      </trkpt>
      <trkpt lat="44.64757" lon="2.4966">
        <ele>356</ele>
        <time>2024-08-13T09:53:44Z</time>
      </trkpt>
      <trkpt lat="44.64758" lon="2.49656">
        <ele>356.1</ele>
        <time>2024-08-13T09:53:45Z</time>
      </trkpt>
      <trkpt lat="44.6476" lon="2.49652">
        <ele>356.2</ele>
        <time>2024-08-13T09:53:46Z</time>
      </trkpt>
      <trkpt lat="44.64762" lon="2.49645">
        <ele>356.5</ele>
        <time>2024-08-13T09:53:48Z</time>
      </trkpt>
      <trkpt lat="44.64766" lon="2.49637">
        <ele>356.7</ele>
        <time>2024-08-13T09:53:50Z</time>
      </trkpt>
      <trkpt lat="44.64769" lon="2.49629">
        <ele>357</ele>
        <time>2024-08-13T09:53:52Z</time>
      </trkpt>
      <trkpt lat="44.6477" lon="2.49622">
        <ele>357.3</ele>
        <time>2024-08-13T09:53:54Z</time>
      </trkpt>
      <trkpt lat="44.64769" lon="2.49615">
        <ele>357.5</ele>
        <time>2024-08-13T09:53:56Z</time>
      </trkpt>
      <trkpt lat="44.64768" lon="2.49608">
        <ele>357.7</ele>
        <time>2024-08-13T09:53:58Z</time>
      </trkpt>
      <trkpt lat="44.64766" lon="2.49604">
        <ele>357.8</ele>
        <time>2024-08-13T09:53:59Z</time>
      </trkpt>
      <trkpt lat="44.64763" lon="2.49599">
        <ele>357.9</ele>
        <time>2024-08-13T09:54:00Z</time>
      </trkpt>
      <trkpt lat="44.64759" lon="2.4959">
        <ele>358</ele>
        <time>2024-08-13T09:54:02Z</time>
      </trkpt>
      <trkpt lat="44.64755" lon="2.49581">
        <ele>358</ele>
        <time>2024-08-13T09:54:04Z</time>
      </trkpt>
      <trkpt lat="44.64749" lon="2.49573">
        <ele>358.1</ele>
        <time>2024-08-13T09:54:06Z</time>
      </trkpt>
      <trkpt lat="44.64745" lon="2.49566">
        <ele>358.3</ele>
        <time>2024-08-13T09:54:08Z</time>
      </trkpt>
      <trkpt lat="44.64743" lon="2.4956">
        <ele>358.5</ele>
        <time>2024-08-13T09:54:10Z</time>
      </trkpt>
      <trkpt lat="44.64742" lon="2.49555">
        <ele>358.7</ele>
        <time>2024-08-13T09:54:12Z</time>
      </trkpt>
      <trkpt lat="44.64742" lon="2.4955">
        <ele>359</ele>
        <time>2024-08-13T09:54:14Z</time>
      </trkpt>
      <trkpt lat="44.64742" lon="2.49548">
        <ele>359.2</ele>
        <time>2024-08-13T09:54:15Z</time>
      </trkpt>
      <trkpt lat="44.64741" lon="2.49546">
        <ele>359.3</ele>
        <time>2024-08-13T09:54:16Z</time>
      </trkpt>
      <trkpt lat="44.6474" lon="2.49541">
        <ele>359.6</ele>
        <time>2024-08-13T09:54:18Z</time>
      </trkpt>
      <trkpt lat="44.64739" lon="2.49539">
        <ele>359.8</ele>
        <time>2024-08-13T09:54:19Z</time>
      </trkpt>
      <trkpt lat="44.64739" lon="2.49536">
        <ele>359.9</ele>
        <time>2024-08-13T09:54:20Z</time>
      </trkpt>
      <trkpt lat="44.64739" lon="2.49531">
        <ele>360.2</ele>
        <time>2024-08-13T09:54:22Z</time>
      </trkpt>
      <trkpt lat="44.64738" lon="2.49526">
        <ele>360.5</ele>
        <time>2024-08-13T09:54:24Z</time>
      </trkpt>
      <trkpt lat="44.64738" lon="2.49524">
        <ele>360.6</ele>
        <time>2024-08-13T09:54:25Z</time>
      </trkpt>
      <trkpt lat="44.64736" lon="2.49522">
        <ele>360.8</ele>
        <time>2024-08-13T09:54:26Z</time>
      </trkpt>
      <trkpt lat="44.64735" lon="2.49516">
        <ele>361.2</ele>
        <time>2024-08-13T09:54:28Z</time>
      </trkpt>
      <trkpt lat="44.64735" lon="2.49512">
        <ele>361.5</ele>
        <time>2024-08-13T09:54:30Z</time>
      </trkpt>
      <trkpt lat="44.64735" lon="2.49508">
        <ele>361.8</ele>
        <time>2024-08-13T09:54:32Z</time>
      </trkpt>
      <trkpt lat="44.64736" lon="2.49503">
        <ele>362.1</ele>
        <time>2024-08-13T09:54:34Z</time>
      </trkpt>
      <trkpt lat="44.64736" lon="2.49498">
        <ele>362.4</ele>
        <time>2024-08-13T09:54:36Z</time>
      </trkpt>
      <trkpt lat="44.64736" lon="2.49493">
        <ele>362.8</ele>
        <time>2024-08-13T09:54:38Z</time>
      </trkpt>
      <trkpt lat="44.64736" lon="2.4949">
        <ele>362.9</ele>
        <time>2024-08-13T09:54:39Z</time>
      </trkpt>
      <trkpt lat="44.64736" lon="2.49487">
        <ele>363.1</ele>
        <time>2024-08-13T09:54:40Z</time>
      </trkpt>
      <trkpt lat="44.64736" lon="2.49482">
        <ele>363.5</ele>
        <time>2024-08-13T09:54:42Z</time>
      </trkpt>
      <trkpt lat="44.64735" lon="2.49476">
        <ele>363.9</ele>
        <time>2024-08-13T09:54:44Z</time>
      </trkpt>
      <trkpt lat="44.64735" lon="2.49471">
        <ele>364.2</ele>
        <time>2024-08-13T09:54:46Z</time>
      </trkpt>
      <trkpt lat="44.64734" lon="2.49466">
        <ele>364.6</ele>
        <time>2024-08-13T09:54:48Z</time>
      </trkpt>
      <trkpt lat="44.64734" lon="2.4946">
        <ele>365</ele>
        <time>2024-08-13T09:54:50Z</time>
      </trkpt>
      <trkpt lat="44.64732" lon="2.49455">
        <ele>365.5</ele>
        <time>2024-08-13T09:54:52Z</time>
      </trkpt>
      <trkpt lat="44.64732" lon="2.4945">
        <ele>365.8</ele>
        <time>2024-08-13T09:54:54Z</time>
      </trkpt>
      <trkpt lat="44.64732" lon="2.49447">
        <ele>366.1</ele>
        <time>2024-08-13T09:54:56Z</time>
      </trkpt>
      <trkpt lat="44.64731" lon="2.49445">
        <ele>366.2</ele>
        <time>2024-08-13T09:54:57Z</time>
      </trkpt>
      <trkpt lat="44.64731" lon="2.49444">
        <ele>366.3</ele>
        <time>2024-08-13T09:54:58Z</time>
      </trkpt>
      <trkpt lat="44.6473" lon="2.49441">
        <ele>366.5</ele>
        <time>2024-08-13T09:55:00Z</time>
      </trkpt>
      <trkpt lat="44.64731" lon="2.4944">
        <ele>366.6</ele>
        <time>2024-08-13T09:55:02Z</time>
      </trkpt>
      <trkpt lat="44.64731" lon="2.49433">
        <ele>366.7</ele>
        <time>2024-08-13T09:55:48Z</time>
      </trkpt>
      <trkpt lat="44.64731" lon="2.49431">
        <ele>366.6</ele>
        <time>2024-08-13T09:55:49Z</time>
      </trkpt>
      <trkpt lat="44.64731" lon="2.49428">
        <ele>366.6</ele>
        <time>2024-08-13T09:55:50Z</time>
      </trkpt>
      <trkpt lat="44.64731" lon="2.49426">
        <ele>366.5</ele>
        <time>2024-08-13T09:55:51Z</time>
      </trkpt>
      <trkpt lat="44.64732" lon="2.49424">
        <ele>366.5</ele>
        <time>2024-08-13T09:55:52Z</time>
      </trkpt>
      <trkpt lat="44.64732" lon="2.49421">
        <ele>366.5</ele>
        <time>2024-08-13T09:55:53Z</time>
      </trkpt>
      <trkpt lat="44.64732" lon="2.49418">
        <ele>366.4</ele>
        <time>2024-08-13T09:55:54Z</time>
      </trkpt>
      <trkpt lat="44.64734" lon="2.49412">
        <ele>366.3</ele>
        <time>2024-08-13T09:55:56Z</time>
      </trkpt>
      <trkpt lat="44.64736" lon="2.49404">
        <ele>366.1</ele>
        <time>2024-08-13T09:55:58Z</time>
      </trkpt>
      <trkpt lat="44.64738" lon="2.49397">
        <ele>365.9</ele>
        <time>2024-08-13T09:56:00Z</time>
      </trkpt>
      <trkpt lat="44.64739" lon="2.4939">
        <ele>365.7</ele>
        <time>2024-08-13T09:56:02Z</time>
      </trkpt>
      <trkpt lat="44.64741" lon="2.49382">
        <ele>365.5</ele>
        <time>2024-08-13T09:56:04Z</time>
      </trkpt>
      <trkpt lat="44.64742" lon="2.49374">
        <ele>365.3</ele>
        <time>2024-08-13T09:56:06Z</time>
      </trkpt>
      <trkpt lat="44.64744" lon="2.49365">
        <ele>365.1</ele>
        <time>2024-08-13T09:56:08Z</time>
      </trkpt>
      <trkpt lat="44.64745" lon="2.49356">
        <ele>364.9</ele>
        <time>2024-08-13T09:56:10Z</time>
      </trkpt>
      <trkpt lat="44.64748" lon="2.49348">
        <ele>364.6</ele>
        <time>2024-08-13T09:56:12Z</time>
      </trkpt>
      <trkpt lat="44.64749" lon="2.49344">
        <ele>364.5</ele>
        <time>2024-08-13T09:56:13Z</time>
      </trkpt>
      <trkpt lat="44.64751" lon="2.4934">
        <ele>364.3</ele>
        <time>2024-08-13T09:56:14Z</time>
      </trkpt>
      <trkpt lat="44.64754" lon="2.49333">
        <ele>364.1</ele>
        <time>2024-08-13T09:56:16Z</time>
      </trkpt>
      <trkpt lat="44.64759" lon="2.49328">
        <ele>363.8</ele>
        <time>2024-08-13T09:56:18Z</time>
      </trkpt>
      <trkpt lat="44.64765" lon="2.49325">
        <ele>363.8</ele>
        <time>2024-08-13T09:56:20Z</time>
      </trkpt>
      <trkpt lat="44.6477" lon="2.49321">
        <ele>363.9</ele>
        <time>2024-08-13T09:56:22Z</time>
      </trkpt>
      <trkpt lat="44.64773" lon="2.49319">
        <ele>364</ele>
        <time>2024-08-13T09:56:23Z</time>
      </trkpt>
      <trkpt lat="44.64775" lon="2.49318">
        <ele>364.1</ele>
        <time>2024-08-13T09:56:24Z</time>
      </trkpt>
      <trkpt lat="44.6478" lon="2.49317">
        <ele>364.3</ele>
        <time>2024-08-13T09:56:26Z</time>
      </trkpt>
      <trkpt lat="44.64783" lon="2.49315">
        <ele>364.5</ele>
        <time>2024-08-13T09:56:28Z</time>
      </trkpt>
      <trkpt lat="44.64787" lon="2.49314">
        <ele>364.7</ele>
        <time>2024-08-13T09:56:30Z</time>
      </trkpt>
      <trkpt lat="44.6479" lon="2.49314">
        <ele>364.9</ele>
        <time>2024-08-13T09:56:32Z</time>
      </trkpt>
      <trkpt lat="44.64794" lon="2.49315">
        <ele>365.1</ele>
        <time>2024-08-13T09:56:34Z</time>
      </trkpt>
      <trkpt lat="44.64797" lon="2.49315">
        <ele>365.2</ele>
        <time>2024-08-13T09:56:35Z</time>
      </trkpt>
      <trkpt lat="44.64798" lon="2.49314">
        <ele>365.3</ele>
        <time>2024-08-13T09:56:36Z</time>
      </trkpt>
      <trkpt lat="44.64802" lon="2.49312">
        <ele>365.6</ele>
        <time>2024-08-13T09:56:38Z</time>
      </trkpt>
      <trkpt lat="44.64806" lon="2.4931">
        <ele>365.8</ele>
        <time>2024-08-13T09:56:40Z</time>
      </trkpt>
      <trkpt lat="44.64809" lon="2.49307">
        <ele>366</ele>
        <time>2024-08-13T09:56:42Z</time>
      </trkpt>
      <trkpt lat="44.64812" lon="2.49303">
        <ele>366.2</ele>
        <time>2024-08-13T09:56:44Z</time>
      </trkpt>
      <trkpt lat="44.64813" lon="2.49302">
        <ele>366.3</ele>
        <time>2024-08-13T09:56:45Z</time>
      </trkpt>
      <trkpt lat="44.64815" lon="2.493">
        <ele>366.4</ele>
        <time>2024-08-13T09:56:46Z</time>
      </trkpt>
      <trkpt lat="44.64817" lon="2.49299">
        <ele>366.6</ele>
        <time>2024-08-13T09:56:47Z</time>
      </trkpt>
      <trkpt lat="44.64819" lon="2.49299">
        <ele>366.7</ele>
        <time>2024-08-13T09:56:48Z</time>
      </trkpt>
      <trkpt lat="44.64822" lon="2.49296">
        <ele>366.9</ele>
        <time>2024-08-13T09:56:50Z</time>
      </trkpt>
      <trkpt lat="44.64825" lon="2.49293">
        <ele>367.1</ele>
        <time>2024-08-13T09:56:52Z</time>
      </trkpt>
      <trkpt lat="44.64827" lon="2.49291">
        <ele>367.2</ele>
        <time>2024-08-13T09:56:53Z</time>
      </trkpt>
      <trkpt lat="44.64828" lon="2.49289">
        <ele>367.3</ele>
        <time>2024-08-13T09:56:54Z</time>
      </trkpt>
      <trkpt lat="44.64831" lon="2.49285">
        <ele>367.5</ele>
        <time>2024-08-13T09:56:56Z</time>
      </trkpt>
      <trkpt lat="44.64833" lon="2.49281">
        <ele>367.7</ele>
        <time>2024-08-13T09:56:58Z</time>
      </trkpt>
      <trkpt lat="44.64836" lon="2.49278">
        <ele>367.8</ele>
        <time>2024-08-13T09:57:00Z</time>
      </trkpt>
      <trkpt lat="44.64839" lon="2.49275">
        <ele>368</ele>
        <time>2024-08-13T09:57:02Z</time>
      </trkpt>
      <trkpt lat="44.64842" lon="2.49271">
        <ele>368.1</ele>
        <time>2024-08-13T09:57:04Z</time>
      </trkpt>
      <trkpt lat="44.64845" lon="2.49267">
        <ele>368.2</ele>
        <time>2024-08-13T09:57:06Z</time>
      </trkpt>
      <trkpt lat="44.64846" lon="2.49263">
        <ele>368.4</ele>
        <time>2024-08-13T09:57:08Z</time>
      </trkpt>
      <trkpt lat="44.64849" lon="2.49259">
        <ele>368.5</ele>
        <time>2024-08-13T09:57:10Z</time>
      </trkpt>
      <trkpt lat="44.64851" lon="2.49256">
        <ele>368.7</ele>
        <time>2024-08-13T09:57:12Z</time>
      </trkpt>
      <trkpt lat="44.64854" lon="2.49252">
        <ele>368.8</ele>
        <time>2024-08-13T09:57:14Z</time>
      </trkpt>
      <trkpt lat="44.64856" lon="2.49251">
        <ele>368.9</ele>
        <time>2024-08-13T09:57:15Z</time>
      </trkpt>
      <trkpt lat="44.64857" lon="2.49249">
        <ele>369</ele>
        <time>2024-08-13T09:57:16Z</time>
      </trkpt>
      <trkpt lat="44.6486" lon="2.49246">
        <ele>369.1</ele>
        <time>2024-08-13T09:57:18Z</time>
      </trkpt>
      <trkpt lat="44.64863" lon="2.49242">
        <ele>369.3</ele>
        <time>2024-08-13T09:57:20Z</time>
      </trkpt>
      <trkpt lat="44.64867" lon="2.49238">
        <ele>369.5</ele>
        <time>2024-08-13T09:57:22Z</time>
      </trkpt>
      <trkpt lat="44.6487" lon="2.49236">
        <ele>369.6</ele>
        <time>2024-08-13T09:57:24Z</time>
      </trkpt>
      <trkpt lat="44.64873" lon="2.49232">
        <ele>369.8</ele>
        <time>2024-08-13T09:57:26Z</time>
      </trkpt>
      <trkpt lat="44.64875" lon="2.49228">
        <ele>369.9</ele>
        <time>2024-08-13T09:57:28Z</time>
      </trkpt>
      <trkpt lat="44.64877" lon="2.49227">
        <ele>370</ele>
        <time>2024-08-13T09:57:29Z</time>
      </trkpt>
      <trkpt lat="44.64879" lon="2.49226">
        <ele>370</ele>
        <time>2024-08-13T09:57:30Z</time>
      </trkpt>
      <trkpt lat="44.64883" lon="2.49223">
        <ele>370.2</ele>
        <time>2024-08-13T09:57:32Z</time>
      </trkpt>
      <trkpt lat="44.64888" lon="2.49221">
        <ele>370.1</ele>
        <time>2024-08-13T09:57:34Z</time>
      </trkpt>
      <trkpt lat="44.64892" lon="2.49218">
        <ele>370</ele>
        <time>2024-08-13T09:57:36Z</time>
      </trkpt>
      <trkpt lat="44.64895" lon="2.49215">
        <ele>369.7</ele>
        <time>2024-08-13T09:57:37Z</time>
      </trkpt>
      <trkpt lat="44.64898" lon="2.49212">
        <ele>369.3</ele>
        <time>2024-08-13T09:57:38Z</time>
      </trkpt>
      <trkpt lat="44.64903" lon="2.49208">
        <ele>368.7</ele>
        <time>2024-08-13T09:57:39Z</time>
      </trkpt>
      <trkpt lat="44.64908" lon="2.49205">
        <ele>367.8</ele>
        <time>2024-08-13T09:57:40Z</time>
      </trkpt>
      <trkpt lat="44.64922" lon="2.49199">
        <ele>365.5</ele>
        <time>2024-08-13T09:57:42Z</time>
      </trkpt>
      <trkpt lat="44.64927" lon="2.49197">
        <ele>364.4</ele>
        <time>2024-08-13T09:57:43Z</time>
      </trkpt>
      <trkpt lat="44.64932" lon="2.49196">
        <ele>363.6</ele>
        <time>2024-08-13T09:57:44Z</time>
      </trkpt>
      <trkpt lat="44.64936" lon="2.49196">
        <ele>362.7</ele>
        <time>2024-08-13T09:57:45Z</time>
      </trkpt>
      <trkpt lat="44.6494" lon="2.49197">
        <ele>361.8</ele>
        <time>2024-08-13T09:57:46Z</time>
      </trkpt>
      <trkpt lat="44.64944" lon="2.49199">
        <ele>361</ele>
        <time>2024-08-13T09:57:47Z</time>
      </trkpt>
      <trkpt lat="44.64947" lon="2.49201">
        <ele>360.4</ele>
        <time>2024-08-13T09:57:48Z</time>
      </trkpt>
      <trkpt lat="44.64953" lon="2.49208">
        <ele>360.5</ele>
        <time>2024-08-13T09:57:50Z</time>
      </trkpt>
      <trkpt lat="44.64958" lon="2.49214">
        <ele>360.9</ele>
        <time>2024-08-13T09:57:52Z</time>
      </trkpt>
      <trkpt lat="44.64963" lon="2.4922">
        <ele>361.3</ele>
        <time>2024-08-13T09:57:54Z</time>
      </trkpt>
      <trkpt lat="44.64965" lon="2.49222">
        <ele>361.5</ele>
        <time>2024-08-13T09:57:55Z</time>
      </trkpt>
      <trkpt lat="44.64967" lon="2.49224">
        <ele>361.7</ele>
        <time>2024-08-13T09:57:56Z</time>
      </trkpt>
      <trkpt lat="44.6497" lon="2.49229">
        <ele>362.2</ele>
        <time>2024-08-13T09:57:58Z</time>
      </trkpt>
      <trkpt lat="44.64971" lon="2.49231">
        <ele>362.4</ele>
        <time>2024-08-13T09:57:59Z</time>
      </trkpt>
      <trkpt lat="44.64973" lon="2.49233">
        <ele>362.6</ele>
        <time>2024-08-13T09:58:00Z</time>
      </trkpt>
      <trkpt lat="44.64977" lon="2.49238">
        <ele>363.1</ele>
        <time>2024-08-13T09:58:02Z</time>
      </trkpt>
      <trkpt lat="44.64981" lon="2.49243">
        <ele>363.6</ele>
        <time>2024-08-13T09:58:04Z</time>
      </trkpt>
      <trkpt lat="44.64983" lon="2.49248">
        <ele>364.1</ele>
        <time>2024-08-13T09:58:06Z</time>
      </trkpt>
      <trkpt lat="44.64986" lon="2.49252">
        <ele>364.5</ele>
        <time>2024-08-13T09:58:08Z</time>
      </trkpt>
      <trkpt lat="44.64989" lon="2.49253">
        <ele>364.7</ele>
        <time>2024-08-13T09:58:09Z</time>
      </trkpt>
      <trkpt lat="44.64991" lon="2.49255">
        <ele>365</ele>
        <time>2024-08-13T09:58:10Z</time>
      </trkpt>
      <trkpt lat="44.64995" lon="2.49258">
        <ele>365.5</ele>
        <time>2024-08-13T09:58:12Z</time>
      </trkpt>
      <trkpt lat="44.65" lon="2.49258">
        <ele>366.1</ele>
        <time>2024-08-13T09:58:14Z</time>
      </trkpt>
      <trkpt lat="44.65004" lon="2.49258">
        <ele>366.4</ele>
        <time>2024-08-13T09:58:15Z</time>
      </trkpt>
      <trkpt lat="44.65007" lon="2.49258">
        <ele>366.8</ele>
        <time>2024-08-13T09:58:16Z</time>
      </trkpt>
      <trkpt lat="44.65013" lon="2.4926">
        <ele>367.4</ele>
        <time>2024-08-13T09:58:18Z</time>
      </trkpt>
      <trkpt lat="44.65018" lon="2.49265">
        <ele>368</ele>
        <time>2024-08-13T09:58:20Z</time>
      </trkpt>
      <trkpt lat="44.65022" lon="2.49271">
        <ele>368.5</ele>
        <time>2024-08-13T09:58:22Z</time>
      </trkpt>
      <trkpt lat="44.65024" lon="2.49274">
        <ele>368.8</ele>
        <time>2024-08-13T09:58:23Z</time>
      </trkpt>
      <trkpt lat="44.65026" lon="2.49277">
        <ele>369.1</ele>
        <time>2024-08-13T09:58:24Z</time>
      </trkpt>
      <trkpt lat="44.6503" lon="2.49282">
        <ele>369.5</ele>
        <time>2024-08-13T09:58:26Z</time>
      </trkpt>
      <trkpt lat="44.65032" lon="2.49287">
        <ele>369.9</ele>
        <time>2024-08-13T09:58:28Z</time>
      </trkpt>
      <trkpt lat="44.65034" lon="2.49289">
        <ele>370.1</ele>
        <time>2024-08-13T09:58:29Z</time>
      </trkpt>
      <trkpt lat="44.65035" lon="2.49292">
        <ele>370.3</ele>
        <time>2024-08-13T09:58:30Z</time>
      </trkpt>
      <trkpt lat="44.65036" lon="2.49299">
        <ele>370.7</ele>
        <time>2024-08-13T09:58:32Z</time>
      </trkpt>
      <trkpt lat="44.65038" lon="2.49305">
        <ele>371</ele>
        <time>2024-08-13T09:58:34Z</time>
      </trkpt>
      <trkpt lat="44.65039" lon="2.49308">
        <ele>371.2</ele>
        <time>2024-08-13T09:58:35Z</time>
      </trkpt>
      <trkpt lat="44.65039" lon="2.49311">
        <ele>371.4</ele>
        <time>2024-08-13T09:58:36Z</time>
      </trkpt>
      <trkpt lat="44.65041" lon="2.49318">
        <ele>371.8</ele>
        <time>2024-08-13T09:58:38Z</time>
      </trkpt>
      <trkpt lat="44.65042" lon="2.49326">
        <ele>372.2</ele>
        <time>2024-08-13T09:58:40Z</time>
      </trkpt>
      <trkpt lat="44.65043" lon="2.49329">
        <ele>372.4</ele>
        <time>2024-08-13T09:58:41Z</time>
      </trkpt>
      <trkpt lat="44.65044" lon="2.49332">
        <ele>372.6</ele>
        <time>2024-08-13T09:58:42Z</time>
      </trkpt>
      <trkpt lat="44.65047" lon="2.49338">
        <ele>373.1</ele>
        <time>2024-08-13T09:58:44Z</time>
      </trkpt>
      <trkpt lat="44.65049" lon="2.49345">
        <ele>373.6</ele>
        <time>2024-08-13T09:58:46Z</time>
      </trkpt>
      <trkpt lat="44.6505" lon="2.49348">
        <ele>373.9</ele>
        <time>2024-08-13T09:58:47Z</time>
      </trkpt>
      <trkpt lat="44.65051" lon="2.49351">
        <ele>374.2</ele>
        <time>2024-08-13T09:58:48Z</time>
      </trkpt>
      <trkpt lat="44.65053" lon="2.49358">
        <ele>374.8</ele>
        <time>2024-08-13T09:58:50Z</time>
      </trkpt>
      <trkpt lat="44.65053" lon="2.49364">
        <ele>375.3</ele>
        <time>2024-08-13T09:58:52Z</time>
      </trkpt>
      <trkpt lat="44.65055" lon="2.4937">
        <ele>375.9</ele>
        <time>2024-08-13T09:58:54Z</time>
      </trkpt>
      <trkpt lat="44.65056" lon="2.49375">
        <ele>376.3</ele>
        <time>2024-08-13T09:58:56Z</time>
      </trkpt>
      <trkpt lat="44.65059" lon="2.49381">
        <ele>376.9</ele>
        <time>2024-08-13T09:58:58Z</time>
      </trkpt>
      <trkpt lat="44.65061" lon="2.49385">
        <ele>377.3</ele>
        <time>2024-08-13T09:59:00Z</time>
      </trkpt>
      <trkpt lat="44.65063" lon="2.49391">
        <ele>377.8</ele>
        <time>2024-08-13T09:59:02Z</time>
      </trkpt>
      <trkpt lat="44.65065" lon="2.49394">
        <ele>378.1</ele>
        <time>2024-08-13T09:59:03Z</time>
      </trkpt>
      <trkpt lat="44.65066" lon="2.49397">
        <ele>378.4</ele>
        <time>2024-08-13T09:59:04Z</time>
      </trkpt>
      <trkpt lat="44.65068" lon="2.49401">
        <ele>378.8</ele>
        <time>2024-08-13T09:59:06Z</time>
      </trkpt>
      <trkpt lat="44.65069" lon="2.49404">
        <ele>379</ele>
        <time>2024-08-13T09:59:07Z</time>
      </trkpt>
      <trkpt lat="44.65069" lon="2.49408">
        <ele>379.2</ele>
        <time>2024-08-13T09:59:08Z</time>
      </trkpt>
      <trkpt lat="44.65073" lon="2.49414">
        <ele>379.7</ele>
        <time>2024-08-13T09:59:10Z</time>
      </trkpt>
      <trkpt lat="44.65076" lon="2.49417">
        <ele>379.9</ele>
        <time>2024-08-13T09:59:11Z</time>
      </trkpt>
      <trkpt lat="44.65077" lon="2.49419">
        <ele>380</ele>
        <time>2024-08-13T09:59:12Z</time>
      </trkpt>
      <trkpt lat="44.65083" lon="2.49424">
        <ele>380.4</ele>
        <time>2024-08-13T09:59:14Z</time>
      </trkpt>
      <trkpt lat="44.65084" lon="2.49426">
        <ele>380.5</ele>
        <time>2024-08-13T09:59:15Z</time>
      </trkpt>
      <trkpt lat="44.65087" lon="2.49428">
        <ele>380.7</ele>
        <time>2024-08-13T09:59:16Z</time>
      </trkpt>
      <trkpt lat="44.65091" lon="2.49432">
        <ele>381</ele>
        <time>2024-08-13T09:59:18Z</time>
      </trkpt>
      <trkpt lat="44.65095" lon="2.49435">
        <ele>381.2</ele>
        <time>2024-08-13T09:59:20Z</time>
      </trkpt>
      <trkpt lat="44.65101" lon="2.49439">
        <ele>381.6</ele>
        <time>2024-08-13T09:59:22Z</time>
      </trkpt>
      <trkpt lat="44.65108" lon="2.49442">
        <ele>382</ele>
        <time>2024-08-13T09:59:24Z</time>
      </trkpt>
      <trkpt lat="44.6511" lon="2.49444">
        <ele>382.2</ele>
        <time>2024-08-13T09:59:25Z</time>
      </trkpt>
      <trkpt lat="44.65113" lon="2.49446">
        <ele>382.3</ele>
        <time>2024-08-13T09:59:26Z</time>
      </trkpt>
      <trkpt lat="44.65117" lon="2.49449">
        <ele>382.6</ele>
        <time>2024-08-13T09:59:28Z</time>
      </trkpt>
      <trkpt lat="44.6512" lon="2.4945">
        <ele>382.8</ele>
        <time>2024-08-13T09:59:29Z</time>
      </trkpt>
      <trkpt lat="44.65123" lon="2.49451">
        <ele>383</ele>
        <time>2024-08-13T09:59:30Z</time>
      </trkpt>
      <trkpt lat="44.6513" lon="2.49454">
        <ele>383.5</ele>
        <time>2024-08-13T09:59:32Z</time>
      </trkpt>
      <trkpt lat="44.65134" lon="2.49456">
        <ele>383.8</ele>
        <time>2024-08-13T09:59:33Z</time>
      </trkpt>
      <trkpt lat="44.65137" lon="2.49457">
        <ele>384</ele>
        <time>2024-08-13T09:59:34Z</time>
      </trkpt>
      <trkpt lat="44.65145" lon="2.49459">
        <ele>384.6</ele>
        <time>2024-08-13T09:59:36Z</time>
      </trkpt>
      <trkpt lat="44.65148" lon="2.4946">
        <ele>384.8</ele>
        <time>2024-08-13T09:59:37Z</time>
      </trkpt>
      <trkpt lat="44.65152" lon="2.49461">
        <ele>385.1</ele>
        <time>2024-08-13T09:59:38Z</time>
      </trkpt>
      <trkpt lat="44.65158" lon="2.49463">
        <ele>385.6</ele>
        <time>2024-08-13T09:59:40Z</time>
      </trkpt>
      <trkpt lat="44.65165" lon="2.49466">
        <ele>386.1</ele>
        <time>2024-08-13T09:59:42Z</time>
      </trkpt>
      <trkpt lat="44.65172" lon="2.49467">
        <ele>386.6</ele>
        <time>2024-08-13T09:59:44Z</time>
      </trkpt>
      <trkpt lat="44.65178" lon="2.49468">
        <ele>387</ele>
        <time>2024-08-13T09:59:46Z</time>
      </trkpt>
      <trkpt lat="44.65185" lon="2.49468">
        <ele>387.4</ele>
        <time>2024-08-13T09:59:48Z</time>
      </trkpt>
      <trkpt lat="44.65192" lon="2.4947">
        <ele>387.8</ele>
        <time>2024-08-13T09:59:50Z</time>
      </trkpt>
      <trkpt lat="44.65196" lon="2.4947">
        <ele>388.1</ele>
        <time>2024-08-13T09:59:51Z</time>
      </trkpt>
      <trkpt lat="44.652" lon="2.4947">
        <ele>388.3</ele>
        <time>2024-08-13T09:59:52Z</time>
      </trkpt>
      <trkpt lat="44.65206" lon="2.49471">
        <ele>388.7</ele>
        <time>2024-08-13T09:59:54Z</time>
      </trkpt>
      <trkpt lat="44.65214" lon="2.49472">
        <ele>389.1</ele>
        <time>2024-08-13T09:59:56Z</time>
      </trkpt>
      <trkpt lat="44.65217" lon="2.49473">
        <ele>389.3</ele>
        <time>2024-08-13T09:59:57Z</time>
      </trkpt>
      <trkpt lat="44.6522" lon="2.49474">
        <ele>389.5</ele>
        <time>2024-08-13T09:59:58Z</time>
      </trkpt>
      <trkpt lat="44.65226" lon="2.49477">
        <ele>389.8</ele>
        <time>2024-08-13T10:00:00Z</time>
      </trkpt>
      <trkpt lat="44.65232" lon="2.4948">
        <ele>390.1</ele>
        <time>2024-08-13T10:00:02Z</time>
      </trkpt>
      <trkpt lat="44.65237" lon="2.49485">
        <ele>390.5</ele>
        <time>2024-08-13T10:00:04Z</time>
      </trkpt>
      <trkpt lat="44.65239" lon="2.49488">
        <ele>390.6</ele>
        <time>2024-08-13T10:00:05Z</time>
      </trkpt>
      <trkpt lat="44.65243" lon="2.49492">
        <ele>390.9</ele>
        <time>2024-08-13T10:00:06Z</time>
      </trkpt>
      <trkpt lat="44.65248" lon="2.49499">
        <ele>391.4</ele>
        <time>2024-08-13T10:00:08Z</time>
      </trkpt>
      <trkpt lat="44.65252" lon="2.49506">
        <ele>391.8</ele>
        <time>2024-08-13T10:00:10Z</time>
      </trkpt>
      <trkpt lat="44.65256" lon="2.49513">
        <ele>392.2</ele>
        <time>2024-08-13T10:00:12Z</time>
      </trkpt>
      <trkpt lat="44.65261" lon="2.4952">
        <ele>392.7</ele>
        <time>2024-08-13T10:00:14Z</time>
      </trkpt>
      <trkpt lat="44.65265" lon="2.49527">
        <ele>393.1</ele>
        <time>2024-08-13T10:00:16Z</time>
      </trkpt>
      <trkpt lat="44.65269" lon="2.49533">
        <ele>393.5</ele>
        <time>2024-08-13T10:00:18Z</time>
      </trkpt>
      <trkpt lat="44.65271" lon="2.49536">
        <ele>393.8</ele>
        <time>2024-08-13T10:00:19Z</time>
      </trkpt>
      <trkpt lat="44.65273" lon="2.49539">
        <ele>394</ele>
        <time>2024-08-13T10:00:20Z</time>
      </trkpt>
      <trkpt lat="44.65278" lon="2.49544">
        <ele>394.4</ele>
        <time>2024-08-13T10:00:22Z</time>
      </trkpt>
      <trkpt lat="44.6528" lon="2.49547">
        <ele>394.6</ele>
        <time>2024-08-13T10:00:23Z</time>
      </trkpt>
      <trkpt lat="44.65281" lon="2.49549">
        <ele>394.8</ele>
        <time>2024-08-13T10:00:24Z</time>
      </trkpt>
      <trkpt lat="44.65286" lon="2.49555">
        <ele>395.3</ele>
        <time>2024-08-13T10:00:26Z</time>
      </trkpt>
      <trkpt lat="44.6529" lon="2.49561">
        <ele>395.8</ele>
        <time>2024-08-13T10:00:28Z</time>
      </trkpt>
      <trkpt lat="44.65293" lon="2.49566">
        <ele>396.1</ele>
        <time>2024-08-13T10:00:30Z</time>
      </trkpt>
      <trkpt lat="44.65297" lon="2.49571">
        <ele>396.5</ele>
        <time>2024-08-13T10:00:32Z</time>
      </trkpt>
      <trkpt lat="44.65299" lon="2.49574">
        <ele>396.7</ele>
        <time>2024-08-13T10:00:33Z</time>
      </trkpt>
      <trkpt lat="44.65302" lon="2.49577">
        <ele>396.9</ele>
        <time>2024-08-13T10:00:34Z</time>
      </trkpt>
      <trkpt lat="44.65305" lon="2.49584">
        <ele>397.3</ele>
        <time>2024-08-13T10:00:36Z</time>
      </trkpt>
      <trkpt lat="44.65307" lon="2.49588">
        <ele>397.5</ele>
        <time>2024-08-13T10:00:37Z</time>
      </trkpt>
      <trkpt lat="44.65309" lon="2.49591">
        <ele>397.7</ele>
        <time>2024-08-13T10:00:38Z</time>
      </trkpt>
      <trkpt lat="44.65311" lon="2.49598">
        <ele>398</ele>
        <time>2024-08-13T10:00:40Z</time>
      </trkpt>
      <trkpt lat="44.65313" lon="2.49604">
        <ele>398.3</ele>
        <time>2024-08-13T10:00:42Z</time>
      </trkpt>
      <trkpt lat="44.65315" lon="2.4961">
        <ele>398.6</ele>
        <time>2024-08-13T10:00:44Z</time>
      </trkpt>
      <trkpt lat="44.65317" lon="2.49614">
        <ele>398.8</ele>
        <time>2024-08-13T10:00:45Z</time>
      </trkpt>
      <trkpt lat="44.65319" lon="2.49617">
        <ele>399.1</ele>
        <time>2024-08-13T10:00:46Z</time>
      </trkpt>
      <trkpt lat="44.65321" lon="2.49621">
        <ele>399.3</ele>
        <time>2024-08-13T10:00:47Z</time>
      </trkpt>
      <trkpt lat="44.65324" lon="2.49625">
        <ele>399.6</ele>
        <time>2024-08-13T10:00:48Z</time>
      </trkpt>
      <trkpt lat="44.65327" lon="2.49634">
        <ele>400.1</ele>
        <time>2024-08-13T10:00:50Z</time>
      </trkpt>
      <trkpt lat="44.65328" lon="2.49642">
        <ele>400.6</ele>
        <time>2024-08-13T10:00:52Z</time>
      </trkpt>
      <trkpt lat="44.65329" lon="2.4965">
        <ele>401</ele>
        <time>2024-08-13T10:00:54Z</time>
      </trkpt>
      <trkpt lat="44.65331" lon="2.49658">
        <ele>401.5</ele>
        <time>2024-08-13T10:00:56Z</time>
      </trkpt>
      <trkpt lat="44.65335" lon="2.49665">
        <ele>401.9</ele>
        <time>2024-08-13T10:00:58Z</time>
      </trkpt>
      <trkpt lat="44.65339" lon="2.49672">
        <ele>402.2</ele>
        <time>2024-08-13T10:01:00Z</time>
      </trkpt>
      <trkpt lat="44.6534" lon="2.49676">
        <ele>402.3</ele>
        <time>2024-08-13T10:01:01Z</time>
      </trkpt>
      <trkpt lat="44.65342" lon="2.49681">
        <ele>402.5</ele>
        <time>2024-08-13T10:01:02Z</time>
      </trkpt>
      <trkpt lat="44.65346" lon="2.49687">
        <ele>402.5</ele>
        <time>2024-08-13T10:01:04Z</time>
      </trkpt>
      <trkpt lat="44.65348" lon="2.49687">
        <ele>402.5</ele>
        <time>2024-08-13T10:01:05Z</time>
      </trkpt>
      <trkpt lat="44.6535" lon="2.49686">
        <ele>402.5</ele>
        <time>2024-08-13T10:01:06Z</time>
      </trkpt>
      <trkpt lat="44.65348" lon="2.49677">
        <ele>402</ele>
        <time>2024-08-13T10:01:08Z</time>
      </trkpt>
      <trkpt lat="44.65346" lon="2.49672">
        <ele>401.5</ele>
        <time>2024-08-13T10:01:09Z</time>
      </trkpt>
      <trkpt lat="44.65343" lon="2.49666">
        <ele>400.9</ele>
        <time>2024-08-13T10:01:10Z</time>
      </trkpt>
      <trkpt lat="44.65339" lon="2.49654">
        <ele>400.1</ele>
        <time>2024-08-13T10:01:12Z</time>
      </trkpt>
      <trkpt lat="44.65339" lon="2.49643">
        <ele>399.4</ele>
        <time>2024-08-13T10:01:14Z</time>
      </trkpt>
      <trkpt lat="44.65339" lon="2.49637">
        <ele>399</ele>
        <time>2024-08-13T10:01:15Z</time>
      </trkpt>
      <trkpt lat="44.6534" lon="2.49632">
        <ele>398.8</ele>
        <time>2024-08-13T10:01:16Z</time>
      </trkpt>
      <trkpt lat="44.65342" lon="2.49622">
        <ele>398.4</ele>
        <time>2024-08-13T10:01:18Z</time>
      </trkpt>
      <trkpt lat="44.65343" lon="2.49613">
        <ele>398.1</ele>
        <time>2024-08-13T10:01:20Z</time>
      </trkpt>
      <trkpt lat="44.65343" lon="2.49603">
        <ele>397.8</ele>
        <time>2024-08-13T10:01:22Z</time>
      </trkpt>
      <trkpt lat="44.65341" lon="2.49592">
        <ele>397.7</ele>
        <time>2024-08-13T10:01:24Z</time>
      </trkpt>
      <trkpt lat="44.65342" lon="2.49583">
        <ele>397.6</ele>
        <time>2024-08-13T10:01:26Z</time>
      </trkpt>
      <trkpt lat="44.65343" lon="2.49576">
        <ele>397.6</ele>
        <time>2024-08-13T10:01:28Z</time>
      </trkpt>
      <trkpt lat="44.6534" lon="2.49569">
        <ele>397.6</ele>
        <time>2024-08-13T10:01:30Z</time>
      </trkpt>
      <trkpt lat="44.65338" lon="2.49562">
        <ele>397.6</ele>
        <time>2024-08-13T10:01:32Z</time>
      </trkpt>
      <trkpt lat="44.65335" lon="2.49554">
        <ele>397.5</ele>
        <time>2024-08-13T10:01:34Z</time>
      </trkpt>
      <trkpt lat="44.65334" lon="2.49546">
        <ele>397.5</ele>
        <time>2024-08-13T10:01:36Z</time>
      </trkpt>
      <trkpt lat="44.65332" lon="2.49542">
        <ele>397.5</ele>
        <time>2024-08-13T10:01:37Z</time>
      </trkpt>
      <trkpt lat="44.65331" lon="2.49538">
        <ele>397.4</ele>
        <time>2024-08-13T10:01:38Z</time>
      </trkpt>
      <trkpt lat="44.65329" lon="2.4953">
        <ele>397.4</ele>
        <time>2024-08-13T10:01:40Z</time>
      </trkpt>
      <trkpt lat="44.65327" lon="2.49523">
        <ele>397.4</ele>
        <time>2024-08-13T10:01:42Z</time>
      </trkpt>
      <trkpt lat="44.65324" lon="2.49516">
        <ele>397.3</ele>
        <time>2024-08-13T10:01:44Z</time>
      </trkpt>
      <trkpt lat="44.65324" lon="2.49512">
        <ele>397.2</ele>
        <time>2024-08-13T10:01:45Z</time>
      </trkpt>
      <trkpt lat="44.65323" lon="2.49508">
        <ele>397.1</ele>
        <time>2024-08-13T10:01:46Z</time>
      </trkpt>
      <trkpt lat="44.65322" lon="2.49499">
        <ele>396.8</ele>
        <time>2024-08-13T10:01:48Z</time>
      </trkpt>
      <trkpt lat="44.65321" lon="2.4949">
        <ele>396.6</ele>
        <time>2024-08-13T10:01:50Z</time>
      </trkpt>
      <trkpt lat="44.65319" lon="2.49481">
        <ele>396.3</ele>
        <time>2024-08-13T10:01:52Z</time>
      </trkpt>
      <trkpt lat="44.65315" lon="2.49472">
        <ele>395.9</ele>
        <time>2024-08-13T10:01:54Z</time>
      </trkpt>
      <trkpt lat="44.65309" lon="2.49462">
        <ele>395.3</ele>
        <time>2024-08-13T10:01:56Z</time>
      </trkpt>
      <trkpt lat="44.65304" lon="2.49453">
        <ele>394.8</ele>
        <time>2024-08-13T10:01:58Z</time>
      </trkpt>
      <trkpt lat="44.65302" lon="2.49449">
        <ele>394.6</ele>
        <time>2024-08-13T10:01:59Z</time>
      </trkpt>
      <trkpt lat="44.653" lon="2.49444">
        <ele>394.4</ele>
        <time>2024-08-13T10:02:00Z</time>
      </trkpt>
      <trkpt lat="44.65304" lon="2.49436">
        <ele>394.1</ele>
        <time>2024-08-13T10:02:02Z</time>
      </trkpt>
      <trkpt lat="44.65307" lon="2.49434">
        <ele>394</ele>
        <time>2024-08-13T10:02:03Z</time>
      </trkpt>
      <trkpt lat="44.65308" lon="2.4943">
        <ele>393.9</ele>
        <time>2024-08-13T10:02:04Z</time>
      </trkpt>
      <trkpt lat="44.65307" lon="2.49422">
        <ele>393.8</ele>
        <time>2024-08-13T10:02:06Z</time>
      </trkpt>
      <trkpt lat="44.65307" lon="2.49418">
        <ele>393.7</ele>
        <time>2024-08-13T10:02:07Z</time>
      </trkpt>
      <trkpt lat="44.65306" lon="2.49414">
        <ele>393.7</ele>
        <time>2024-08-13T10:02:08Z</time>
      </trkpt>
      <trkpt lat="44.65304" lon="2.49407">
        <ele>393.7</ele>
        <time>2024-08-13T10:02:10Z</time>
      </trkpt>
      <trkpt lat="44.65301" lon="2.494">
        <ele>393.8</ele>
        <time>2024-08-13T10:02:12Z</time>
      </trkpt>
      <trkpt lat="44.65297" lon="2.49393">
        <ele>393.9</ele>
        <time>2024-08-13T10:02:14Z</time>
      </trkpt>
      <trkpt lat="44.65294" lon="2.49386">
        <ele>393.9</ele>
        <time>2024-08-13T10:02:16Z</time>
      </trkpt>
      <trkpt lat="44.6529" lon="2.49381">
        <ele>394.1</ele>
        <time>2024-08-13T10:02:18Z</time>
      </trkpt>
      <trkpt lat="44.65286" lon="2.49374">
        <ele>394.3</ele>
        <time>2024-08-13T10:02:20Z</time>
      </trkpt>
      <trkpt lat="44.65281" lon="2.49368">
        <ele>394.5</ele>
        <time>2024-08-13T10:02:22Z</time>
      </trkpt>
      <trkpt lat="44.65279" lon="2.49366">
        <ele>394.6</ele>
        <time>2024-08-13T10:02:23Z</time>
      </trkpt>
      <trkpt lat="44.65277" lon="2.49365">
        <ele>394.7</ele>
        <time>2024-08-13T10:02:24Z</time>
      </trkpt>
      <trkpt lat="44.65272" lon="2.49361">
        <ele>395</ele>
        <time>2024-08-13T10:02:26Z</time>
      </trkpt>
      <trkpt lat="44.65266" lon="2.49358">
        <ele>395.2</ele>
        <time>2024-08-13T10:02:28Z</time>
      </trkpt>
      <trkpt lat="44.65263" lon="2.49355">
        <ele>395.4</ele>
        <time>2024-08-13T10:02:29Z</time>
      </trkpt>
      <trkpt lat="44.65261" lon="2.49354">
        <ele>395.5</ele>
        <time>2024-08-13T10:02:30Z</time>
      </trkpt>
      <trkpt lat="44.65256" lon="2.49351">
        <ele>395.7</ele>
        <time>2024-08-13T10:02:32Z</time>
      </trkpt>
      <trkpt lat="44.65253" lon="2.49349">
        <ele>395.9</ele>
        <time>2024-08-13T10:02:34Z</time>
      </trkpt>
      <trkpt lat="44.65249" lon="2.49347">
        <ele>396</ele>
        <time>2024-08-13T10:02:36Z</time>
      </trkpt>
      <trkpt lat="44.65246" lon="2.49345">
        <ele>396.1</ele>
        <time>2024-08-13T10:02:38Z</time>
      </trkpt>
      <trkpt lat="44.65243" lon="2.49343">
        <ele>396.3</ele>
        <time>2024-08-13T10:02:40Z</time>
      </trkpt>
      <trkpt lat="44.6524" lon="2.49341">
        <ele>396.4</ele>
        <time>2024-08-13T10:02:42Z</time>
      </trkpt>
      <trkpt lat="44.65237" lon="2.49338">
        <ele>396.5</ele>
        <time>2024-08-13T10:02:44Z</time>
      </trkpt>
      <trkpt lat="44.65235" lon="2.49335">
        <ele>396.6</ele>
        <time>2024-08-13T10:02:46Z</time>
      </trkpt>
      <trkpt lat="44.65232" lon="2.49333">
        <ele>396.8</ele>
        <time>2024-08-13T10:02:48Z</time>
      </trkpt>
      <trkpt lat="44.65231" lon="2.49332">
        <ele>396.8</ele>
        <time>2024-08-13T10:02:49Z</time>
      </trkpt>
      <trkpt lat="44.6523" lon="2.49331">
        <ele>396.8</ele>
        <time>2024-08-13T10:02:50Z</time>
      </trkpt>
      <trkpt lat="44.65228" lon="2.49329">
        <ele>396.9</ele>
        <time>2024-08-13T10:02:52Z</time>
      </trkpt>
      <trkpt lat="44.65225" lon="2.49327">
        <ele>397</ele>
        <time>2024-08-13T10:02:54Z</time>
      </trkpt>
      <trkpt lat="44.65225" lon="2.49325">
        <ele>397.1</ele>
        <time>2024-08-13T10:02:55Z</time>
      </trkpt>
      <trkpt lat="44.65224" lon="2.49324">
        <ele>397.1</ele>
        <time>2024-08-13T10:02:56Z</time>
      </trkpt>
      <trkpt lat="44.65223" lon="2.49321">
        <ele>397.2</ele>
        <time>2024-08-13T10:02:58Z</time>
      </trkpt>
      <trkpt lat="44.65222" lon="2.4932">
        <ele>397.2</ele>
        <time>2024-08-13T10:02:59Z</time>
      </trkpt>
      <trkpt lat="44.65221" lon="2.49318">
        <ele>397.3</ele>
        <time>2024-08-13T10:03:00Z</time>
      </trkpt>
      <trkpt lat="44.6522" lon="2.49314">
        <ele>397.3</ele>
        <time>2024-08-13T10:03:02Z</time>
      </trkpt>
      <trkpt lat="44.65218" lon="2.49311">
        <ele>397.4</ele>
        <time>2024-08-13T10:03:04Z</time>
      </trkpt>
      <trkpt lat="44.65217" lon="2.49308">
        <ele>397.4</ele>
        <time>2024-08-13T10:03:05Z</time>
      </trkpt>
      <trkpt lat="44.65216" lon="2.49306">
        <ele>397.4</ele>
        <time>2024-08-13T10:03:06Z</time>
      </trkpt>
      <trkpt lat="44.65214" lon="2.49302">
        <ele>397.4</ele>
        <time>2024-08-13T10:03:08Z</time>
      </trkpt>
      <trkpt lat="44.65213" lon="2.49297">
        <ele>397.3</ele>
        <time>2024-08-13T10:03:10Z</time>
      </trkpt>
      <trkpt lat="44.65212" lon="2.49292">
        <ele>397.2</ele>
        <time>2024-08-13T10:03:12Z</time>
      </trkpt>
      <trkpt lat="44.65211" lon="2.49286">
        <ele>397.1</ele>
        <time>2024-08-13T10:03:14Z</time>
      </trkpt>
      <trkpt lat="44.6521" lon="2.49279">
        <ele>397</ele>
        <time>2024-08-13T10:03:16Z</time>
      </trkpt>
      <trkpt lat="44.65211" lon="2.49273">
        <ele>396.8</ele>
        <time>2024-08-13T10:03:18Z</time>
      </trkpt>
      <trkpt lat="44.65212" lon="2.49265">
        <ele>396.7</ele>
        <time>2024-08-13T10:03:20Z</time>
      </trkpt>
      <trkpt lat="44.65213" lon="2.49258">
        <ele>396.6</ele>
        <time>2024-08-13T10:03:22Z</time>
      </trkpt>
      <trkpt lat="44.65214" lon="2.49252">
        <ele>396.4</ele>
        <time>2024-08-13T10:03:24Z</time>
      </trkpt>
      <trkpt lat="44.65216" lon="2.49246">
        <ele>396.3</ele>
        <time>2024-08-13T10:03:26Z</time>
      </trkpt>
      <trkpt lat="44.65218" lon="2.4924">
        <ele>396.1</ele>
        <time>2024-08-13T10:03:28Z</time>
      </trkpt>
      <trkpt lat="44.6522" lon="2.49235">
        <ele>395.8</ele>
        <time>2024-08-13T10:03:30Z</time>
      </trkpt>
      <trkpt lat="44.65222" lon="2.49229">
        <ele>395.5</ele>
        <time>2024-08-13T10:03:32Z</time>
      </trkpt>
      <trkpt lat="44.65224" lon="2.49225">
        <ele>395.3</ele>
        <time>2024-08-13T10:03:34Z</time>
      </trkpt>
      <trkpt lat="44.65225" lon="2.4922">
        <ele>395</ele>
        <time>2024-08-13T10:03:36Z</time>
      </trkpt>
      <trkpt lat="44.65227" lon="2.49215">
        <ele>394.7</ele>
        <time>2024-08-13T10:03:38Z</time>
      </trkpt>
      <trkpt lat="44.65227" lon="2.49211">
        <ele>394.5</ele>
        <time>2024-08-13T10:03:39Z</time>
      </trkpt>
      <trkpt lat="44.65229" lon="2.49208">
        <ele>394.3</ele>
        <time>2024-08-13T10:03:40Z</time>
      </trkpt>
      <trkpt lat="44.6523" lon="2.49201">
        <ele>394</ele>
        <time>2024-08-13T10:03:42Z</time>
      </trkpt>
      <trkpt lat="44.65231" lon="2.49192">
        <ele>393.6</ele>
        <time>2024-08-13T10:03:44Z</time>
      </trkpt>
      <trkpt lat="44.6523" lon="2.49181">
        <ele>393.1</ele>
        <time>2024-08-13T10:03:46Z</time>
      </trkpt>
      <trkpt lat="44.65232" lon="2.4917">
        <ele>392.7</ele>
        <time>2024-08-13T10:03:48Z</time>
      </trkpt>
      <trkpt lat="44.65233" lon="2.49158">
        <ele>392.3</ele>
        <time>2024-08-13T10:03:50Z</time>
      </trkpt>
      <trkpt lat="44.65233" lon="2.49148">
        <ele>392.1</ele>
        <time>2024-08-13T10:03:52Z</time>
      </trkpt>
      <trkpt lat="44.65233" lon="2.49141">
        <ele>391.9</ele>
        <time>2024-08-13T10:03:54Z</time>
      </trkpt>
      <trkpt lat="44.65234" lon="2.49135">
        <ele>391.9</ele>
        <time>2024-08-13T10:03:56Z</time>
      </trkpt>
      <trkpt lat="44.65233" lon="2.49129">
        <ele>391.8</ele>
        <time>2024-08-13T10:03:58Z</time>
      </trkpt>
      <trkpt lat="44.6523" lon="2.49121">
        <ele>391.7</ele>
        <time>2024-08-13T10:04:00Z</time>
      </trkpt>
      <trkpt lat="44.65228" lon="2.49118">
        <ele>391.6</ele>
        <time>2024-08-13T10:04:01Z</time>
      </trkpt>
      <trkpt lat="44.65228" lon="2.49115">
        <ele>391.6</ele>
        <time>2024-08-13T10:04:02Z</time>
      </trkpt>
      <trkpt lat="44.65226" lon="2.49109">
        <ele>391.6</ele>
        <time>2024-08-13T10:04:04Z</time>
      </trkpt>
      <trkpt lat="44.65226" lon="2.49106">
        <ele>391.5</ele>
        <time>2024-08-13T10:04:05Z</time>
      </trkpt>
      <trkpt lat="44.65225" lon="2.49103">
        <ele>391.5</ele>
        <time>2024-08-13T10:04:06Z</time>
      </trkpt>
      <trkpt lat="44.65223" lon="2.49097">
        <ele>391.4</ele>
        <time>2024-08-13T10:04:08Z</time>
      </trkpt>
      <trkpt lat="44.65222" lon="2.49094">
        <ele>391.3</ele>
        <time>2024-08-13T10:04:09Z</time>
      </trkpt>
      <trkpt lat="44.6522" lon="2.49091">
        <ele>391.3</ele>
        <time>2024-08-13T10:04:10Z</time>
      </trkpt>
      <trkpt lat="44.65218" lon="2.49085">
        <ele>391.1</ele>
        <time>2024-08-13T10:04:12Z</time>
      </trkpt>
      <trkpt lat="44.65216" lon="2.49081">
        <ele>391</ele>
        <time>2024-08-13T10:04:13Z</time>
      </trkpt>
      <trkpt lat="44.65216" lon="2.49079">
        <ele>390.9</ele>
        <time>2024-08-13T10:04:14Z</time>
      </trkpt>
      <trkpt lat="44.65214" lon="2.49073">
        <ele>390.8</ele>
        <time>2024-08-13T10:04:16Z</time>
      </trkpt>
      <trkpt lat="44.65212" lon="2.49067">
        <ele>390.6</ele>
        <time>2024-08-13T10:04:18Z</time>
      </trkpt>
      <trkpt lat="44.65209" lon="2.49061">
        <ele>390.5</ele>
        <time>2024-08-13T10:04:20Z</time>
      </trkpt>
      <trkpt lat="44.65206" lon="2.49054">
        <ele>390.4</ele>
        <time>2024-08-13T10:04:22Z</time>
      </trkpt>
      <trkpt lat="44.65203" lon="2.49048">
        <ele>390.3</ele>
        <time>2024-08-13T10:04:24Z</time>
      </trkpt>
      <trkpt lat="44.652" lon="2.49042">
        <ele>390.2</ele>
        <time>2024-08-13T10:04:26Z</time>
      </trkpt>
      <trkpt lat="44.65197" lon="2.49038">
        <ele>390.1</ele>
        <time>2024-08-13T10:04:27Z</time>
      </trkpt>
      <trkpt lat="44.65196" lon="2.49034">
        <ele>390</ele>
        <time>2024-08-13T10:04:28Z</time>
      </trkpt>
      <trkpt lat="44.65193" lon="2.49027">
        <ele>389.8</ele>
        <time>2024-08-13T10:04:30Z</time>
      </trkpt>
      <trkpt lat="44.65191" lon="2.49023">
        <ele>389.7</ele>
        <time>2024-08-13T10:04:31Z</time>
      </trkpt>
      <trkpt lat="44.65189" lon="2.49019">
        <ele>389.6</ele>
        <time>2024-08-13T10:04:32Z</time>
      </trkpt>
      <trkpt lat="44.65186" lon="2.49012">
        <ele>389.4</ele>
        <time>2024-08-13T10:04:34Z</time>
      </trkpt>
      <trkpt lat="44.65185" lon="2.49009">
        <ele>389.3</ele>
        <time>2024-08-13T10:04:35Z</time>
      </trkpt>
      <trkpt lat="44.65183" lon="2.49005">
        <ele>389.2</ele>
        <time>2024-08-13T10:04:36Z</time>
      </trkpt>
      <trkpt lat="44.65179" lon="2.48997">
        <ele>388.9</ele>
        <time>2024-08-13T10:04:38Z</time>
      </trkpt>
      <trkpt lat="44.65175" lon="2.48989">
        <ele>388.6</ele>
        <time>2024-08-13T10:04:40Z</time>
      </trkpt>
      <trkpt lat="44.65171" lon="2.48981">
        <ele>388.5</ele>
        <time>2024-08-13T10:04:42Z</time>
      </trkpt>
      <trkpt lat="44.65168" lon="2.48978">
        <ele>388.4</ele>
        <time>2024-08-13T10:04:43Z</time>
      </trkpt>
      <trkpt lat="44.65167" lon="2.48975">
        <ele>388.4</ele>
        <time>2024-08-13T10:04:44Z</time>
      </trkpt>
      <trkpt lat="44.65167" lon="2.48972">
        <ele>388.3</ele>
        <time>2024-08-13T10:04:45Z</time>
      </trkpt>
      <trkpt lat="44.65167" lon="2.48969">
        <ele>388.3</ele>
        <time>2024-08-13T10:04:46Z</time>
      </trkpt>
      <trkpt lat="44.65166" lon="2.48967">
        <ele>388.3</ele>
        <time>2024-08-13T10:04:47Z</time>
      </trkpt>
      <trkpt lat="44.65165" lon="2.48964">
        <ele>388.3</ele>
        <time>2024-08-13T10:04:48Z</time>
      </trkpt>
      <trkpt lat="44.65162" lon="2.48959">
        <ele>388.2</ele>
        <time>2024-08-13T10:04:50Z</time>
      </trkpt>
      <trkpt lat="44.6516" lon="2.48954">
        <ele>388.3</ele>
        <time>2024-08-13T10:04:52Z</time>
      </trkpt>
      <trkpt lat="44.65154" lon="2.48949">
        <ele>388.3</ele>
        <time>2024-08-13T10:04:54Z</time>
      </trkpt>
      <trkpt lat="44.65149" lon="2.48944">
        <ele>388.4</ele>
        <time>2024-08-13T10:04:56Z</time>
      </trkpt>
      <trkpt lat="44.65145" lon="2.48939">
        <ele>388.4</ele>
        <time>2024-08-13T10:04:58Z</time>
      </trkpt>
      <trkpt lat="44.65141" lon="2.48933">
        <ele>388.4</ele>
        <time>2024-08-13T10:05:00Z</time>
      </trkpt>
      <trkpt lat="44.65139" lon="2.48926">
        <ele>388.3</ele>
        <time>2024-08-13T10:05:02Z</time>
      </trkpt>
      <trkpt lat="44.65137" lon="2.4892">
        <ele>388.3</ele>
        <time>2024-08-13T10:05:04Z</time>
      </trkpt>
      <trkpt lat="44.65136" lon="2.48917">
        <ele>388.3</ele>
        <time>2024-08-13T10:05:05Z</time>
      </trkpt>
      <trkpt lat="44.65134" lon="2.48913">
        <ele>388.2</ele>
        <time>2024-08-13T10:05:06Z</time>
      </trkpt>
      <trkpt lat="44.65132" lon="2.4891">
        <ele>388.2</ele>
        <time>2024-08-13T10:05:07Z</time>
      </trkpt>
      <trkpt lat="44.65131" lon="2.48907">
        <ele>388.1</ele>
        <time>2024-08-13T10:05:08Z</time>
      </trkpt>
      <trkpt lat="44.65131" lon="2.48904">
        <ele>388.1</ele>
        <time>2024-08-13T10:05:09Z</time>
      </trkpt>
      <trkpt lat="44.6513" lon="2.48901">
        <ele>388</ele>
        <time>2024-08-13T10:05:10Z</time>
      </trkpt>
      <trkpt lat="44.65129" lon="2.48897">
        <ele>387.9</ele>
        <time>2024-08-13T10:05:11Z</time>
      </trkpt>
      <trkpt lat="44.65128" lon="2.48893">
        <ele>387.8</ele>
        <time>2024-08-13T10:05:12Z</time>
      </trkpt>
      <trkpt lat="44.65123" lon="2.48884">
        <ele>387.5</ele>
        <time>2024-08-13T10:05:14Z</time>
      </trkpt>
      <trkpt lat="44.6512" lon="2.48876">
        <ele>387.2</ele>
        <time>2024-08-13T10:05:16Z</time>
      </trkpt>
      <trkpt lat="44.65115" lon="2.48867">
        <ele>387</ele>
        <time>2024-08-13T10:05:18Z</time>
      </trkpt>
      <trkpt lat="44.6511" lon="2.4886">
        <ele>386.7</ele>
        <time>2024-08-13T10:05:20Z</time>
      </trkpt>
      <trkpt lat="44.65105" lon="2.48852">
        <ele>386.4</ele>
        <time>2024-08-13T10:05:22Z</time>
      </trkpt>
      <trkpt lat="44.65105" lon="2.4885">
        <ele>386.3</ele>
        <time>2024-08-13T10:05:23Z</time>
      </trkpt>
      <trkpt lat="44.65102" lon="2.48846">
        <ele>386.1</ele>
        <time>2024-08-13T10:05:24Z</time>
      </trkpt>
      <trkpt lat="44.65096" lon="2.48838">
        <ele>385.8</ele>
        <time>2024-08-13T10:05:26Z</time>
      </trkpt>
      <trkpt lat="44.65093" lon="2.48834">
        <ele>385.7</ele>
        <time>2024-08-13T10:05:27Z</time>
      </trkpt>
      <trkpt lat="44.6509" lon="2.4883">
        <ele>385.6</ele>
        <time>2024-08-13T10:05:28Z</time>
      </trkpt>
      <trkpt lat="44.65083" lon="2.48821">
        <ele>385.3</ele>
        <time>2024-08-13T10:05:30Z</time>
      </trkpt>
      <trkpt lat="44.65078" lon="2.48812">
        <ele>385</ele>
        <time>2024-08-13T10:05:32Z</time>
      </trkpt>
      <trkpt lat="44.65074" lon="2.48807">
        <ele>384.8</ele>
        <time>2024-08-13T10:05:33Z</time>
      </trkpt>
      <trkpt lat="44.6507" lon="2.48802">
        <ele>384.6</ele>
        <time>2024-08-13T10:05:34Z</time>
      </trkpt>
      <trkpt lat="44.65065" lon="2.48794">
        <ele>384.4</ele>
        <time>2024-08-13T10:05:36Z</time>
      </trkpt>
      <trkpt lat="44.65061" lon="2.48788">
        <ele>384.3</ele>
        <time>2024-08-13T10:05:38Z</time>
      </trkpt>
      <trkpt lat="44.65056" lon="2.48782">
        <ele>384.1</ele>
        <time>2024-08-13T10:05:40Z</time>
      </trkpt>
      <trkpt lat="44.6505" lon="2.48775">
        <ele>383.8</ele>
        <time>2024-08-13T10:05:42Z</time>
      </trkpt>
      <trkpt lat="44.65045" lon="2.48766">
        <ele>383.6</ele>
        <time>2024-08-13T10:05:44Z</time>
      </trkpt>
      <trkpt lat="44.65041" lon="2.48758">
        <ele>383.5</ele>
        <time>2024-08-13T10:05:46Z</time>
      </trkpt>
      <trkpt lat="44.65036" lon="2.4875">
        <ele>383.5</ele>
        <time>2024-08-13T10:05:48Z</time>
      </trkpt>
      <trkpt lat="44.65033" lon="2.48743">
        <ele>383.6</ele>
        <time>2024-08-13T10:05:50Z</time>
      </trkpt>
      <trkpt lat="44.6503" lon="2.48736">
        <ele>383.7</ele>
        <time>2024-08-13T10:05:52Z</time>
      </trkpt>
      <trkpt lat="44.65026" lon="2.48731">
        <ele>383.8</ele>
        <time>2024-08-13T10:05:54Z</time>
      </trkpt>
      <trkpt lat="44.65023" lon="2.48725">
        <ele>384</ele>
        <time>2024-08-13T10:05:56Z</time>
      </trkpt>
      <trkpt lat="44.65021" lon="2.48723">
        <ele>384.1</ele>
        <time>2024-08-13T10:05:57Z</time>
      </trkpt>
      <trkpt lat="44.6502" lon="2.4872">
        <ele>384.1</ele>
        <time>2024-08-13T10:05:58Z</time>
      </trkpt>
      <trkpt lat="44.65017" lon="2.48716">
        <ele>384.3</ele>
        <time>2024-08-13T10:06:00Z</time>
      </trkpt>
      <trkpt lat="44.65013" lon="2.48711">
        <ele>384.5</ele>
        <time>2024-08-13T10:06:02Z</time>
      </trkpt>
      <trkpt lat="44.65011" lon="2.48706">
        <ele>384.7</ele>
        <time>2024-08-13T10:06:04Z</time>
      </trkpt>
      <trkpt lat="44.65007" lon="2.48702">
        <ele>384.8</ele>
        <time>2024-08-13T10:06:06Z</time>
      </trkpt>
      <trkpt lat="44.65004" lon="2.48698">
        <ele>385</ele>
        <time>2024-08-13T10:06:08Z</time>
      </trkpt>
      <trkpt lat="44.65001" lon="2.48694">
        <ele>385.2</ele>
        <time>2024-08-13T10:06:10Z</time>
      </trkpt>
      <trkpt lat="44.64997" lon="2.4869">
        <ele>385.4</ele>
        <time>2024-08-13T10:06:12Z</time>
      </trkpt>
      <trkpt lat="44.64994" lon="2.48685">
        <ele>385.6</ele>
        <time>2024-08-13T10:06:14Z</time>
      </trkpt>
      <trkpt lat="44.64991" lon="2.48681">
        <ele>385.8</ele>
        <time>2024-08-13T10:06:16Z</time>
      </trkpt>
      <trkpt lat="44.64988" lon="2.48677">
        <ele>386.1</ele>
        <time>2024-08-13T10:06:18Z</time>
      </trkpt>
      <trkpt lat="44.64985" lon="2.48672">
        <ele>386.3</ele>
        <time>2024-08-13T10:06:20Z</time>
      </trkpt>
      <trkpt lat="44.64982" lon="2.48668">
        <ele>386.6</ele>
        <time>2024-08-13T10:06:22Z</time>
      </trkpt>
      <trkpt lat="44.64981" lon="2.48664">
        <ele>386.8</ele>
        <time>2024-08-13T10:06:24Z</time>
      </trkpt>
      <trkpt lat="44.64979" lon="2.4866">
        <ele>387.1</ele>
        <time>2024-08-13T10:06:26Z</time>
      </trkpt>
      <trkpt lat="44.64978" lon="2.48658">
        <ele>387.2</ele>
        <time>2024-08-13T10:06:27Z</time>
      </trkpt>
      <trkpt lat="44.64977" lon="2.48656">
        <ele>387.3</ele>
        <time>2024-08-13T10:06:28Z</time>
      </trkpt>
      <trkpt lat="44.64974" lon="2.48652">
        <ele>387.6</ele>
        <time>2024-08-13T10:06:30Z</time>
      </trkpt>
      <trkpt lat="44.64973" lon="2.48647">
        <ele>387.8</ele>
        <time>2024-08-13T10:06:32Z</time>
      </trkpt>
      <trkpt lat="44.6497" lon="2.48643">
        <ele>388</ele>
        <time>2024-08-13T10:06:34Z</time>
      </trkpt>
      <trkpt lat="44.64967" lon="2.4864">
        <ele>388.2</ele>
        <time>2024-08-13T10:06:36Z</time>
      </trkpt>
      <trkpt lat="44.64964" lon="2.48636">
        <ele>388.4</ele>
        <time>2024-08-13T10:06:38Z</time>
      </trkpt>
      <trkpt lat="44.6496" lon="2.48633">
        <ele>388.6</ele>
        <time>2024-08-13T10:06:40Z</time>
      </trkpt>
      <trkpt lat="44.64957" lon="2.48629">
        <ele>388.9</ele>
        <time>2024-08-13T10:06:42Z</time>
      </trkpt>
      <trkpt lat="44.64954" lon="2.48625">
        <ele>389.2</ele>
        <time>2024-08-13T10:06:44Z</time>
      </trkpt>
      <trkpt lat="44.64952" lon="2.48624">
        <ele>389.3</ele>
        <time>2024-08-13T10:06:45Z</time>
      </trkpt>
      <trkpt lat="44.6495" lon="2.48622">
        <ele>389.5</ele>
        <time>2024-08-13T10:06:46Z</time>
      </trkpt>
      <trkpt lat="44.64947" lon="2.4862">
        <ele>389.8</ele>
        <time>2024-08-13T10:06:48Z</time>
      </trkpt>
      <trkpt lat="44.64944" lon="2.48617">
        <ele>390.1</ele>
        <time>2024-08-13T10:06:50Z</time>
      </trkpt>
      <trkpt lat="44.6494" lon="2.48614">
        <ele>390.9</ele>
        <time>2024-08-13T10:06:52Z</time>
      </trkpt>
      <trkpt lat="44.64937" lon="2.48611">
        <ele>391.8</ele>
        <time>2024-08-13T10:06:54Z</time>
      </trkpt>
      <trkpt lat="44.64933" lon="2.48608">
        <ele>392.6</ele>
        <time>2024-08-13T10:06:56Z</time>
      </trkpt>
      <trkpt lat="44.6493" lon="2.48606">
        <ele>393.4</ele>
        <time>2024-08-13T10:06:58Z</time>
      </trkpt>
      <trkpt lat="44.64929" lon="2.48604">
        <ele>393.7</ele>
        <time>2024-08-13T10:06:59Z</time>
      </trkpt>
      <trkpt lat="44.64928" lon="2.48603">
        <ele>394.1</ele>
        <time>2024-08-13T10:07:00Z</time>
      </trkpt>
      <trkpt lat="44.64925" lon="2.486">
        <ele>394.8</ele>
        <time>2024-08-13T10:07:02Z</time>
      </trkpt>
      <trkpt lat="44.64924" lon="2.48598">
        <ele>395.3</ele>
        <time>2024-08-13T10:07:03Z</time>
      </trkpt>
      <trkpt lat="44.64923" lon="2.48596">
        <ele>395.7</ele>
        <time>2024-08-13T10:07:04Z</time>
      </trkpt>
      <trkpt lat="44.6492" lon="2.48593">
        <ele>396.4</ele>
        <time>2024-08-13T10:07:06Z</time>
      </trkpt>
      <trkpt lat="44.64917" lon="2.48589">
        <ele>397.3</ele>
        <time>2024-08-13T10:07:08Z</time>
      </trkpt>
      <trkpt lat="44.64916" lon="2.48587">
        <ele>397.8</ele>
        <time>2024-08-13T10:07:09Z</time>
      </trkpt>
      <trkpt lat="44.64914" lon="2.48585">
        <ele>398.3</ele>
        <time>2024-08-13T10:07:10Z</time>
      </trkpt>
      <trkpt lat="44.64911" lon="2.48582">
        <ele>399.1</ele>
        <time>2024-08-13T10:07:12Z</time>
      </trkpt>
      <trkpt lat="44.64909" lon="2.48578">
        <ele>399.8</ele>
        <time>2024-08-13T10:07:14Z</time>
      </trkpt>
      <trkpt lat="44.64907" lon="2.48574">
        <ele>400.6</ele>
        <time>2024-08-13T10:07:16Z</time>
      </trkpt>
      <trkpt lat="44.64905" lon="2.4857">
        <ele>401.3</ele>
        <time>2024-08-13T10:07:18Z</time>
      </trkpt>
      <trkpt lat="44.64904" lon="2.48566">
        <ele>401.9</ele>
        <time>2024-08-13T10:07:20Z</time>
      </trkpt>
      <trkpt lat="44.64903" lon="2.48563">
        <ele>402.4</ele>
        <time>2024-08-13T10:07:22Z</time>
      </trkpt>
      <trkpt lat="44.64902" lon="2.48562">
        <ele>402.7</ele>
        <time>2024-08-13T10:07:23Z</time>
      </trkpt>
      <trkpt lat="44.64902" lon="2.4856">
        <ele>403</ele>
        <time>2024-08-13T10:07:24Z</time>
      </trkpt>
      <trkpt lat="44.649" lon="2.48557">
        <ele>403.6</ele>
        <time>2024-08-13T10:07:26Z</time>
      </trkpt>
      <trkpt lat="44.649" lon="2.48554">
        <ele>404.1</ele>
        <time>2024-08-13T10:07:28Z</time>
      </trkpt>
      <trkpt lat="44.64899" lon="2.48552">
        <ele>404.4</ele>
        <time>2024-08-13T10:07:29Z</time>
      </trkpt>
      <trkpt lat="44.64898" lon="2.4855">
        <ele>404.7</ele>
        <time>2024-08-13T10:07:30Z</time>
      </trkpt>
      <trkpt lat="44.64897" lon="2.48547">
        <ele>405.3</ele>
        <time>2024-08-13T10:07:32Z</time>
      </trkpt>
      <trkpt lat="44.64895" lon="2.48544">
        <ele>406</ele>
        <time>2024-08-13T10:07:34Z</time>
      </trkpt>
      <trkpt lat="44.64894" lon="2.48542">
        <ele>406.3</ele>
        <time>2024-08-13T10:07:35Z</time>
      </trkpt>
      <trkpt lat="44.64893" lon="2.48541">
        <ele>406.6</ele>
        <time>2024-08-13T10:07:36Z</time>
      </trkpt>
      <trkpt lat="44.6489" lon="2.48539">
        <ele>407.2</ele>
        <time>2024-08-13T10:07:38Z</time>
      </trkpt>
      <trkpt lat="44.64887" lon="2.48536">
        <ele>408</ele>
        <time>2024-08-13T10:07:40Z</time>
      </trkpt>
      <trkpt lat="44.64885" lon="2.48534">
        <ele>408.6</ele>
        <time>2024-08-13T10:07:42Z</time>
      </trkpt>
      <trkpt lat="44.64882" lon="2.48533">
        <ele>409.1</ele>
        <time>2024-08-13T10:07:44Z</time>
      </trkpt>
      <trkpt lat="44.6488" lon="2.48531">
        <ele>409.7</ele>
        <time>2024-08-13T10:07:46Z</time>
      </trkpt>
      <trkpt lat="44.64877" lon="2.4853">
        <ele>410.2</ele>
        <time>2024-08-13T10:07:48Z</time>
      </trkpt>
      <trkpt lat="44.64875" lon="2.48529">
        <ele>410.8</ele>
        <time>2024-08-13T10:07:50Z</time>
      </trkpt>
      <trkpt lat="44.64873" lon="2.48528">
        <ele>411.1</ele>
        <time>2024-08-13T10:07:51Z</time>
      </trkpt>
      <trkpt lat="44.64872" lon="2.48528">
        <ele>411.4</ele>
        <time>2024-08-13T10:07:52Z</time>
      </trkpt>
      <trkpt lat="44.64869" lon="2.48525">
        <ele>412.2</ele>
        <time>2024-08-13T10:07:54Z</time>
      </trkpt>
      <trkpt lat="44.64869" lon="2.48524">
        <ele>412.4</ele>
        <time>2024-08-13T10:07:55Z</time>
      </trkpt>
      <trkpt lat="44.64868" lon="2.48524">
        <ele>412.7</ele>
        <time>2024-08-13T10:07:56Z</time>
      </trkpt>
      <trkpt lat="44.64866" lon="2.48522">
        <ele>413.3</ele>
        <time>2024-08-13T10:07:58Z</time>
      </trkpt>
      <trkpt lat="44.64864" lon="2.48519">
        <ele>413.9</ele>
        <time>2024-08-13T10:08:00Z</time>
      </trkpt>
      <trkpt lat="44.64863" lon="2.48517">
        <ele>414.5</ele>
        <time>2024-08-13T10:08:02Z</time>
      </trkpt>
      <trkpt lat="44.64861" lon="2.48514">
        <ele>415.2</ele>
        <time>2024-08-13T10:08:04Z</time>
      </trkpt>
      <trkpt lat="44.64859" lon="2.48511">
        <ele>416</ele>
        <time>2024-08-13T10:08:06Z</time>
      </trkpt>
      <trkpt lat="44.64857" lon="2.48509">
        <ele>416.8</ele>
        <time>2024-08-13T10:08:08Z</time>
      </trkpt>
      <trkpt lat="44.64855" lon="2.48506">
        <ele>417.4</ele>
        <time>2024-08-13T10:08:10Z</time>
      </trkpt>
      <trkpt lat="44.64854" lon="2.48506">
        <ele>417.8</ele>
        <time>2024-08-13T10:08:12Z</time>
      </trkpt>
      <trkpt lat="44.64853" lon="2.48506">
        <ele>417.9</ele>
        <time>2024-08-13T10:08:13Z</time>
      </trkpt>
      <trkpt lat="44.64851" lon="2.48506">
        <ele>418.5</ele>
        <time>2024-08-13T10:09:02Z</time>
      </trkpt>
      <trkpt lat="44.64848" lon="2.48507">
        <ele>419.1</ele>
        <time>2024-08-13T10:09:03Z</time>
      </trkpt>
      <trkpt lat="44.64845" lon="2.4851">
        <ele>419.8</ele>
        <time>2024-08-13T10:09:04Z</time>
      </trkpt>
      <trkpt lat="44.64838" lon="2.48514">
        <ele>421.1</ele>
        <time>2024-08-13T10:09:06Z</time>
      </trkpt>
      <trkpt lat="44.64834" lon="2.48515">
        <ele>421.7</ele>
        <time>2024-08-13T10:09:07Z</time>
      </trkpt>
      <trkpt lat="44.64829" lon="2.48517">
        <ele>422.5</ele>
        <time>2024-08-13T10:09:08Z</time>
      </trkpt>
      <trkpt lat="44.64824" lon="2.4852">
        <ele>423.2</ele>
        <time>2024-08-13T10:09:09Z</time>
      </trkpt>
      <trkpt lat="44.6482" lon="2.48522">
        <ele>424</ele>
        <time>2024-08-13T10:09:10Z</time>
      </trkpt>
      <trkpt lat="44.64814" lon="2.48527">
        <ele>423.6</ele>
        <time>2024-08-13T10:09:12Z</time>
      </trkpt>
      <trkpt lat="44.6481" lon="2.48529">
        <ele>423.4</ele>
        <time>2024-08-13T10:09:14Z</time>
      </trkpt>
      <trkpt lat="44.64806" lon="2.48531">
        <ele>423.6</ele>
        <time>2024-08-13T10:09:16Z</time>
      </trkpt>
      <trkpt lat="44.64803" lon="2.48534">
        <ele>422.9</ele>
        <time>2024-08-13T10:09:18Z</time>
      </trkpt>
      <trkpt lat="44.64802" lon="2.48535">
        <ele>423.1</ele>
        <time>2024-08-13T10:09:19Z</time>
      </trkpt>
      <trkpt lat="44.64799" lon="2.48536">
        <ele>422.1</ele>
        <time>2024-08-13T10:09:20Z</time>
      </trkpt>
      <trkpt lat="44.64796" lon="2.48538">
        <ele>422.2</ele>
        <time>2024-08-13T10:09:21Z</time>
      </trkpt>
      <trkpt lat="44.64792" lon="2.48539">
        <ele>422.4</ele>
        <time>2024-08-13T10:09:22Z</time>
      </trkpt>
      <trkpt lat="44.64784" lon="2.4854">
        <ele>422.6</ele>
        <time>2024-08-13T10:09:24Z</time>
      </trkpt>
      <trkpt lat="44.64774" lon="2.48544">
        <ele>422.3</ele>
        <time>2024-08-13T10:09:26Z</time>
      </trkpt>
      <trkpt lat="44.64769" lon="2.48546">
        <ele>421.4</ele>
        <time>2024-08-13T10:09:27Z</time>
      </trkpt>
      <trkpt lat="44.64764" lon="2.48548">
        <ele>421.6</ele>
        <time>2024-08-13T10:09:28Z</time>
      </trkpt>
      <trkpt lat="44.64758" lon="2.48549">
        <ele>420.7</ele>
        <time>2024-08-13T10:09:29Z</time>
      </trkpt>
      <trkpt lat="44.64752" lon="2.48551">
        <ele>420.9</ele>
        <time>2024-08-13T10:09:30Z</time>
      </trkpt>
      <trkpt lat="44.64746" lon="2.48553">
        <ele>420</ele>
        <time>2024-08-13T10:09:31Z</time>
      </trkpt>
      <trkpt lat="44.64742" lon="2.48555">
        <ele>420.1</ele>
        <time>2024-08-13T10:09:32Z</time>
      </trkpt>
      <trkpt lat="44.64734" lon="2.48558">
        <ele>419.2</ele>
        <time>2024-08-13T10:09:34Z</time>
      </trkpt>
      <trkpt lat="44.64726" lon="2.48559">
        <ele>419.2</ele>
        <time>2024-08-13T10:09:36Z</time>
      </trkpt>
      <trkpt lat="44.64718" lon="2.48563">
        <ele>418</ele>
        <time>2024-08-13T10:09:38Z</time>
      </trkpt>
      <trkpt lat="44.64706" lon="2.48569">
        <ele>416.8</ele>
        <time>2024-08-13T10:09:40Z</time>
      </trkpt>
      <trkpt lat="44.647" lon="2.48574">
        <ele>415.6</ele>
        <time>2024-08-13T10:09:41Z</time>
      </trkpt>
      <trkpt lat="44.64696" lon="2.48579">
        <ele>412.9</ele>
        <time>2024-08-13T10:09:42Z</time>
      </trkpt>
      <trkpt lat="44.64692" lon="2.48584">
        <ele>411.4</ele>
        <time>2024-08-13T10:09:43Z</time>
      </trkpt>
      <trkpt lat="44.64688" lon="2.48588">
        <ele>409.9</ele>
        <time>2024-08-13T10:09:44Z</time>
      </trkpt>
      <trkpt lat="44.64684" lon="2.48592">
        <ele>408.4</ele>
        <time>2024-08-13T10:09:45Z</time>
      </trkpt>
      <trkpt lat="44.64681" lon="2.48595">
        <ele>408.2</ele>
        <time>2024-08-13T10:09:46Z</time>
      </trkpt>
      <trkpt lat="44.64676" lon="2.48603">
        <ele>405.4</ele>
        <time>2024-08-13T10:09:48Z</time>
      </trkpt>
      <trkpt lat="44.64676" lon="2.48606">
        <ele>403.9</ele>
        <time>2024-08-13T10:09:50Z</time>
      </trkpt>
      <trkpt lat="44.6468" lon="2.48603">
        <ele>405.2</ele>
        <time>2024-08-13T10:09:52Z</time>
      </trkpt>
      <trkpt lat="44.64683" lon="2.48602">
        <ele>405.2</ele>
        <time>2024-08-13T10:09:53Z</time>
      </trkpt>
      <trkpt lat="44.64687" lon="2.486">
        <ele>405.1</ele>
        <time>2024-08-13T10:09:54Z</time>
      </trkpt>
      <trkpt lat="44.64692" lon="2.48598">
        <ele>406.3</ele>
        <time>2024-08-13T10:09:55Z</time>
      </trkpt>
      <trkpt lat="44.64695" lon="2.48596">
        <ele>406.2</ele>
        <time>2024-08-13T10:09:56Z</time>
      </trkpt>
      <trkpt lat="44.64699" lon="2.48594">
        <ele>407.4</ele>
        <time>2024-08-13T10:09:57Z</time>
      </trkpt>
      <trkpt lat="44.64703" lon="2.48592">
        <ele>407.3</ele>
        <time>2024-08-13T10:09:58Z</time>
      </trkpt>
      <trkpt lat="44.64707" lon="2.48591">
        <ele>408.4</ele>
        <time>2024-08-13T10:09:59Z</time>
      </trkpt>
      <trkpt lat="44.64712" lon="2.48591">
        <ele>408.2</ele>
        <time>2024-08-13T10:10:00Z</time>
      </trkpt>
      <trkpt lat="44.64718" lon="2.48589">
        <ele>408.1</ele>
        <time>2024-08-13T10:10:02Z</time>
      </trkpt>
      <trkpt lat="44.64722" lon="2.4859">
        <ele>407.9</ele>
        <time>2024-08-13T10:10:03Z</time>
      </trkpt>
      <trkpt lat="44.64726" lon="2.48591">
        <ele>407.8</ele>
        <time>2024-08-13T10:10:04Z</time>
      </trkpt>
      <trkpt lat="44.64729" lon="2.48591">
        <ele>407.6</ele>
        <time>2024-08-13T10:10:05Z</time>
      </trkpt>
      <trkpt lat="44.64732" lon="2.48593">
        <ele>406.1</ele>
        <time>2024-08-13T10:10:06Z</time>
      </trkpt>
      <trkpt lat="44.64734" lon="2.48597">
        <ele>404.8</ele>
        <time>2024-08-13T10:10:08Z</time>
      </trkpt>
      <trkpt lat="44.64729" lon="2.48595">
        <ele>406</ele>
        <time>2024-08-13T10:10:10Z</time>
      </trkpt>
      <trkpt lat="44.64726" lon="2.48593">
        <ele>405.9</ele>
        <time>2024-08-13T10:10:11Z</time>
      </trkpt>
      <trkpt lat="44.64721" lon="2.48594">
        <ele>405.9</ele>
        <time>2024-08-13T10:10:12Z</time>
      </trkpt>
      <trkpt lat="44.64717" lon="2.48599">
        <ele>404.5</ele>
        <time>2024-08-13T10:10:13Z</time>
      </trkpt>
      <trkpt lat="44.64713" lon="2.48603">
        <ele>403.2</ele>
        <time>2024-08-13T10:10:14Z</time>
      </trkpt>
      <trkpt lat="44.64708" lon="2.48607">
        <ele>401.9</ele>
        <time>2024-08-13T10:10:15Z</time>
      </trkpt>
      <trkpt lat="44.64704" lon="2.48611">
        <ele>400.5</ele>
        <time>2024-08-13T10:10:16Z</time>
      </trkpt>
      <trkpt lat="44.64702" lon="2.48617">
        <ele>397.6</ele>
        <time>2024-08-13T10:10:17Z</time>
      </trkpt>
      <trkpt lat="44.64701" lon="2.48624">
        <ele>396.1</ele>
        <time>2024-08-13T10:10:18Z</time>
      </trkpt>
      <trkpt lat="44.64697" lon="2.4864">
        <ele>390</ele>
        <time>2024-08-13T10:10:20Z</time>
      </trkpt>
      <trkpt lat="44.64693" lon="2.48653">
        <ele>385.8</ele>
        <time>2024-08-13T10:10:22Z</time>
      </trkpt>
      <trkpt lat="44.64691" lon="2.4866">
        <ele>382.8</ele>
        <time>2024-08-13T10:10:23Z</time>
      </trkpt>
      <trkpt lat="44.64689" lon="2.48667">
        <ele>381.2</ele>
        <time>2024-08-13T10:10:24Z</time>
      </trkpt>
      <trkpt lat="44.64687" lon="2.48681">
        <ele>376.4</ele>
        <time>2024-08-13T10:10:26Z</time>
      </trkpt>
      <trkpt lat="44.64686" lon="2.48697">
        <ele>371</ele>
        <time>2024-08-13T10:10:28Z</time>
      </trkpt>
      <trkpt lat="44.64679" lon="2.48709">
        <ele>366.8</ele>
        <time>2024-08-13T10:10:30Z</time>
      </trkpt>
      <trkpt lat="44.64673" lon="2.48722">
        <ele>362</ele>
        <time>2024-08-13T10:10:32Z</time>
      </trkpt>
      <trkpt lat="44.64668" lon="2.48731">
        <ele>358.8</ele>
        <time>2024-08-13T10:10:34Z</time>
      </trkpt>
      <trkpt lat="44.64666" lon="2.48734">
        <ele>357</ele>
        <time>2024-08-13T10:10:35Z</time>
      </trkpt>
      <trkpt lat="44.64667" lon="2.48736">
        <ele>356.9</ele>
        <time>2024-08-13T10:10:36Z</time>
      </trkpt>
      <trkpt lat="44.64664" lon="2.48736">
        <ele>356.4</ele>
        <time>2024-08-13T10:10:37Z</time>
      </trkpt>
      <trkpt lat="44.64664" lon="2.48736">
        <ele>356.3</ele>
        <time>2024-08-13T10:10:38Z</time>
      </trkpt>
      <trkpt lat="44.64667" lon="2.48736">
        <ele>356.6</ele>
        <time>2024-08-13T10:10:40Z</time>
      </trkpt>
      <trkpt lat="44.64669" lon="2.48733">
        <ele>356.8</ele>
        <time>2024-08-13T10:10:41Z</time>
      </trkpt>
      <trkpt lat="44.64671" lon="2.48731">
        <ele>358.3</ele>
        <time>2024-08-13T10:10:42Z</time>
      </trkpt>
      <trkpt lat="44.64672" lon="2.48727">
        <ele>359.5</ele>
        <time>2024-08-13T10:10:43Z</time>
      </trkpt>
      <trkpt lat="44.64672" lon="2.48726">
        <ele>359.4</ele>
        <time>2024-08-13T10:10:44Z</time>
      </trkpt>
      <trkpt lat="44.64672" lon="2.48726">
        <ele>359.3</ele>
        <time>2024-08-13T10:10:45Z</time>
      </trkpt>
      <trkpt lat="44.64672" lon="2.48727">
        <ele>359.2</ele>
        <time>2024-08-13T10:10:46Z</time>
      </trkpt>
      <trkpt lat="44.6467" lon="2.48729">
        <ele>358.8</ele>
        <time>2024-08-13T10:10:47Z</time>
      </trkpt>
      <trkpt lat="44.64668" lon="2.48731">
        <ele>357.3</ele>
        <time>2024-08-13T10:10:48Z</time>
      </trkpt>
      <trkpt lat="44.6466" lon="2.48738">
        <ele>353.6</ele>
        <time>2024-08-13T10:10:50Z</time>
      </trkpt>
      <trkpt lat="44.64657" lon="2.48744">
        <ele>351.9</ele>
        <time>2024-08-13T10:10:51Z</time>
      </trkpt>
      <trkpt lat="44.64654" lon="2.48751">
        <ele>348.9</ele>
        <time>2024-08-13T10:10:52Z</time>
      </trkpt>
      <trkpt lat="44.64653" lon="2.48757">
        <ele>347.5</ele>
        <time>2024-08-13T10:10:53Z</time>
      </trkpt>
      <trkpt lat="44.64653" lon="2.48764">
        <ele>344.7</ele>
        <time>2024-08-13T10:10:54Z</time>
      </trkpt>
      <trkpt lat="44.64652" lon="2.48779">
        <ele>340.9</ele>
        <time>2024-08-13T10:10:56Z</time>
      </trkpt>
      <trkpt lat="44.64652" lon="2.48786">
        <ele>338.4</ele>
        <time>2024-08-13T10:10:57Z</time>
      </trkpt>
      <trkpt lat="44.64655" lon="2.48794">
        <ele>335.9</ele>
        <time>2024-08-13T10:10:58Z</time>
      </trkpt>
      <trkpt lat="44.64654" lon="2.48799">
        <ele>334.4</ele>
        <time>2024-08-13T10:10:59Z</time>
      </trkpt>
      <trkpt lat="44.6466" lon="2.48806">
        <ele>331.8</ele>
        <time>2024-08-13T10:11:00Z</time>
      </trkpt>
      <trkpt lat="44.64656" lon="2.48809">
        <ele>331.5</ele>
        <time>2024-08-13T10:11:02Z</time>
      </trkpt>
      <trkpt lat="44.64653" lon="2.48808">
        <ele>331.2</ele>
        <time>2024-08-13T10:11:05Z</time>
      </trkpt>
      <trkpt lat="44.64654" lon="2.48807">
        <ele>331.1</ele>
        <time>2024-08-13T10:11:06Z</time>
      </trkpt>
      <trkpt lat="44.64654" lon="2.48805">
        <ele>332.4</ele>
        <time>2024-08-13T10:11:07Z</time>
      </trkpt>
      <trkpt lat="44.64656" lon="2.48804">
        <ele>332.5</ele>
        <time>2024-08-13T10:11:08Z</time>
      </trkpt>
      <trkpt lat="44.6466" lon="2.48799">
        <ele>334</ele>
        <time>2024-08-13T10:11:10Z</time>
      </trkpt>
      <trkpt lat="44.64662" lon="2.48798">
        <ele>334.1</ele>
        <time>2024-08-13T10:11:11Z</time>
      </trkpt>
      <trkpt lat="44.64663" lon="2.48797">
        <ele>335.3</ele>
        <time>2024-08-13T10:11:12Z</time>
      </trkpt>
      <trkpt lat="44.64666" lon="2.48795">
        <ele>335.4</ele>
        <time>2024-08-13T10:11:14Z</time>
      </trkpt>
      <trkpt lat="44.64665" lon="2.48794">
        <ele>335.2</ele>
        <time>2024-08-13T10:11:15Z</time>
      </trkpt>
      <trkpt lat="44.64677" lon="2.4879">
        <ele>336.3</ele>
        <time>2024-08-13T10:11:47Z</time>
      </trkpt>
      <trkpt lat="44.64678" lon="2.48792">
        <ele>336.2</ele>
        <time>2024-08-13T10:11:48Z</time>
      </trkpt>
      <trkpt lat="44.64677" lon="2.48795">
        <ele>334.7</ele>
        <time>2024-08-13T10:11:49Z</time>
      </trkpt>
      <trkpt lat="44.64674" lon="2.48798">
        <ele>333.3</ele>
        <time>2024-08-13T10:11:50Z</time>
      </trkpt>
      <trkpt lat="44.64666" lon="2.48808">
        <ele>330.3</ele>
        <time>2024-08-13T10:11:52Z</time>
      </trkpt>
      <trkpt lat="44.64657" lon="2.4882">
        <ele>325.6</ele>
        <time>2024-08-13T10:11:54Z</time>
      </trkpt>
      <trkpt lat="44.64649" lon="2.48834">
        <ele>321.2</ele>
        <time>2024-08-13T10:11:56Z</time>
      </trkpt>
      <trkpt lat="44.64641" lon="2.48849">
        <ele>316.8</ele>
        <time>2024-08-13T10:11:58Z</time>
      </trkpt>
      <trkpt lat="44.64639" lon="2.48856">
        <ele>313.7</ele>
        <time>2024-08-13T10:11:59Z</time>
      </trkpt>
      <trkpt lat="44.64635" lon="2.48859">
        <ele>311.9</ele>
        <time>2024-08-13T10:12:00Z</time>
      </trkpt>
      <trkpt lat="44.64627" lon="2.48862">
        <ele>309.2</ele>
        <time>2024-08-13T10:12:02Z</time>
      </trkpt>
      <trkpt lat="44.64622" lon="2.48863">
        <ele>308.6</ele>
        <time>2024-08-13T10:12:04Z</time>
      </trkpt>
      <trkpt lat="44.64621" lon="2.48865">
        <ele>307.8</ele>
        <time>2024-08-13T10:12:05Z</time>
      </trkpt>
      <trkpt lat="44.64622" lon="2.48867">
        <ele>307.1</ele>
        <time>2024-08-13T10:12:06Z</time>
      </trkpt>
      <trkpt lat="44.64627" lon="2.48873">
        <ele>306.2</ele>
        <time>2024-08-13T10:12:08Z</time>
      </trkpt>
      <trkpt lat="44.64636" lon="2.48878">
        <ele>305.8</ele>
        <time>2024-08-13T10:12:10Z</time>
      </trkpt>
      <trkpt lat="44.6464" lon="2.48878">
        <ele>305.9</ele>
        <time>2024-08-13T10:12:11Z</time>
      </trkpt>
      <trkpt lat="44.64644" lon="2.48875">
        <ele>306</ele>
        <time>2024-08-13T10:12:12Z</time>
      </trkpt>
      <trkpt lat="44.64651" lon="2.48869">
        <ele>308.5</ele>
        <time>2024-08-13T10:12:14Z</time>
      </trkpt>
      <trkpt lat="44.64655" lon="2.48868">
        <ele>308.2</ele>
        <time>2024-08-13T10:12:15Z</time>
      </trkpt>
      <trkpt lat="44.64658" lon="2.48868">
        <ele>307.9</ele>
        <time>2024-08-13T10:12:16Z</time>
      </trkpt>
      <trkpt lat="44.64663" lon="2.48875">
        <ele>305.8</ele>
        <time>2024-08-13T10:12:18Z</time>
      </trkpt>
      <trkpt lat="44.64668" lon="2.48886">
        <ele>300.3</ele>
        <time>2024-08-13T10:12:20Z</time>
      </trkpt>
      <trkpt lat="44.64669" lon="2.48893">
        <ele>296.8</ele>
        <time>2024-08-13T10:12:21Z</time>
      </trkpt>
      <trkpt lat="44.64672" lon="2.48902">
        <ele>292.7</ele>
        <time>2024-08-13T10:12:22Z</time>
      </trkpt>
      <trkpt lat="44.64676" lon="2.48918">
        <ele>286.1</ele>
        <time>2024-08-13T10:12:24Z</time>
      </trkpt>
      <trkpt lat="44.64675" lon="2.48924">
        <ele>284.6</ele>
        <time>2024-08-13T10:12:25Z</time>
      </trkpt>
      <trkpt lat="44.64672" lon="2.48928">
        <ele>283.7</ele>
        <time>2024-08-13T10:12:26Z</time>
      </trkpt>
      <trkpt lat="44.64668" lon="2.48931">
        <ele>282.7</ele>
        <time>2024-08-13T10:12:27Z</time>
      </trkpt>
      <trkpt lat="44.64665" lon="2.48933">
        <ele>283.1</ele>
        <time>2024-08-13T10:12:28Z</time>
      </trkpt>
      <trkpt lat="44.64656" lon="2.48934">
        <ele>284.4</ele>
        <time>2024-08-13T10:12:30Z</time>
      </trkpt>
      <trkpt lat="44.64651" lon="2.48933">
        <ele>284.8</ele>
        <time>2024-08-13T10:12:31Z</time>
      </trkpt>
      <trkpt lat="44.64645" lon="2.48932">
        <ele>285</ele>
        <time>2024-08-13T10:12:32Z</time>
      </trkpt>
      <trkpt lat="44.64639" lon="2.48931">
        <ele>285</ele>
        <time>2024-08-13T10:12:33Z</time>
      </trkpt>
      <trkpt lat="44.64633" lon="2.48928">
        <ele>286</ele>
        <time>2024-08-13T10:12:34Z</time>
      </trkpt>
      <trkpt lat="44.64628" lon="2.48927">
        <ele>285.4</ele>
        <time>2024-08-13T10:12:35Z</time>
      </trkpt>
      <trkpt lat="44.64622" lon="2.48926">
        <ele>286.3</ele>
        <time>2024-08-13T10:12:36Z</time>
      </trkpt>
      <trkpt lat="44.64608" lon="2.48922">
        <ele>285.1</ele>
        <time>2024-08-13T10:12:38Z</time>
      </trkpt>
      <trkpt lat="44.64602" lon="2.48919">
        <ele>283.6</ele>
        <time>2024-08-13T10:12:39Z</time>
      </trkpt>
      <trkpt lat="44.64595" lon="2.48915">
        <ele>283.2</ele>
        <time>2024-08-13T10:12:40Z</time>
      </trkpt>
      <trkpt lat="44.6459" lon="2.48912">
        <ele>282.5</ele>
        <time>2024-08-13T10:12:41Z</time>
      </trkpt>
      <trkpt lat="44.64584" lon="2.48908">
        <ele>281.4</ele>
        <time>2024-08-13T10:12:42Z</time>
      </trkpt>
      <trkpt lat="44.64574" lon="2.48903">
        <ele>278.7</ele>
        <time>2024-08-13T10:12:44Z</time>
      </trkpt>
      <trkpt lat="44.64571" lon="2.48901">
        <ele>277.4</ele>
        <time>2024-08-13T10:12:45Z</time>
      </trkpt>
      <trkpt lat="44.64568" lon="2.48899">
        <ele>277.3</ele>
        <time>2024-08-13T10:12:46Z</time>
      </trkpt>
      <trkpt lat="44.64558" lon="2.48894">
        <ele>274.4</ele>
        <time>2024-08-13T10:12:48Z</time>
      </trkpt>
      <trkpt lat="44.64548" lon="2.48887">
        <ele>272</ele>
        <time>2024-08-13T10:12:50Z</time>
      </trkpt>
      <trkpt lat="44.64544" lon="2.48883">
        <ele>268.9</ele>
        <time>2024-08-13T10:12:51Z</time>
      </trkpt>
      <trkpt lat="44.6454" lon="2.4888">
        <ele>268.5</ele>
        <time>2024-08-13T10:12:52Z</time>
      </trkpt>
      <trkpt lat="44.64537" lon="2.48876">
        <ele>267.8</ele>
        <time>2024-08-13T10:12:53Z</time>
      </trkpt>
      <trkpt lat="44.64535" lon="2.48871">
        <ele>267</ele>
        <time>2024-08-13T10:12:54Z</time>
      </trkpt>
      <trkpt lat="44.64535" lon="2.48868">
        <ele>268</ele>
        <time>2024-08-13T10:12:55Z</time>
      </trkpt>
      <trkpt lat="44.64535" lon="2.48865">
        <ele>269</ele>
        <time>2024-08-13T10:12:56Z</time>
      </trkpt>
      <trkpt lat="44.64535" lon="2.48862">
        <ele>268.9</ele>
        <time>2024-08-13T10:12:57Z</time>
      </trkpt>
      <trkpt lat="44.64533" lon="2.48862">
        <ele>268.8</ele>
        <time>2024-08-13T10:12:58Z</time>
      </trkpt>
      <trkpt lat="44.64532" lon="2.48863">
        <ele>266.8</ele>
        <time>2024-08-13T10:12:59Z</time>
      </trkpt>
      <trkpt lat="44.64531" lon="2.48865">
        <ele>266.7</ele>
        <time>2024-08-13T10:13:00Z</time>
      </trkpt>
      <trkpt lat="44.64529" lon="2.48867">
        <ele>263.6</ele>
        <time>2024-08-13T10:13:01Z</time>
      </trkpt>
      <trkpt lat="44.64528" lon="2.4887">
        <ele>263.5</ele>
        <time>2024-08-13T10:13:02Z</time>
      </trkpt>
      <trkpt lat="44.64528" lon="2.48874">
        <ele>262.3</ele>
        <time>2024-08-13T10:13:03Z</time>
      </trkpt>
      <trkpt lat="44.64528" lon="2.48878">
        <ele>261.2</ele>
        <time>2024-08-13T10:13:04Z</time>
      </trkpt>
      <trkpt lat="44.64527" lon="2.48885">
        <ele>257.2</ele>
        <time>2024-08-13T10:13:06Z</time>
      </trkpt>
      <trkpt lat="44.64528" lon="2.48894">
        <ele>256.8</ele>
        <time>2024-08-13T10:13:08Z</time>
      </trkpt>
      <trkpt lat="44.64531" lon="2.48904">
        <ele>256.4</ele>
        <time>2024-08-13T10:13:10Z</time>
      </trkpt>
      <trkpt lat="44.64536" lon="2.48913">
        <ele>256.1</ele>
        <time>2024-08-13T10:13:12Z</time>
      </trkpt>
      <trkpt lat="44.64541" lon="2.4892">
        <ele>257.3</ele>
        <time>2024-08-13T10:13:14Z</time>
      </trkpt>
      <trkpt lat="44.64545" lon="2.48925">
        <ele>257.7</ele>
        <time>2024-08-13T10:13:16Z</time>
      </trkpt>
      <trkpt lat="44.64544" lon="2.48928">
        <ele>256.7</ele>
        <time>2024-08-13T10:13:18Z</time>
      </trkpt>
      <trkpt lat="44.64541" lon="2.48927">
        <ele>255.3</ele>
        <time>2024-08-13T10:13:19Z</time>
      </trkpt>
      <trkpt lat="44.64538" lon="2.48926">
        <ele>254.6</ele>
        <time>2024-08-13T10:13:20Z</time>
      </trkpt>
      <trkpt lat="44.6453" lon="2.48922">
        <ele>251.2</ele>
        <time>2024-08-13T10:13:22Z</time>
      </trkpt>
      <trkpt lat="44.64526" lon="2.4892">
        <ele>248.5</ele>
        <time>2024-08-13T10:13:23Z</time>
      </trkpt>
      <trkpt lat="44.64522" lon="2.48916">
        <ele>247.4</ele>
        <time>2024-08-13T10:13:24Z</time>
      </trkpt>
      <trkpt lat="44.64518" lon="2.48913">
        <ele>245.3</ele>
        <time>2024-08-13T10:13:25Z</time>
      </trkpt>
      <trkpt lat="44.64514" lon="2.48908">
        <ele>242.6</ele>
        <time>2024-08-13T10:13:26Z</time>
      </trkpt>
      <trkpt lat="44.64506" lon="2.48898">
        <ele>240.6</ele>
        <time>2024-08-13T10:13:28Z</time>
      </trkpt>
      <trkpt lat="44.64501" lon="2.48885">
        <ele>239.4</ele>
        <time>2024-08-13T10:13:30Z</time>
      </trkpt>
      <trkpt lat="44.64499" lon="2.48872">
        <ele>240</ele>
        <time>2024-08-13T10:13:32Z</time>
      </trkpt>
      <trkpt lat="44.645" lon="2.48859">
        <ele>245</ele>
        <time>2024-08-13T10:13:34Z</time>
      </trkpt>
      <trkpt lat="44.645" lon="2.48853">
        <ele>247.3</ele>
        <time>2024-08-13T10:13:35Z</time>
      </trkpt>
      <trkpt lat="44.64498" lon="2.48848">
        <ele>246.5</ele>
        <time>2024-08-13T10:13:36Z</time>
      </trkpt>
      <trkpt lat="44.64492" lon="2.48839">
        <ele>245</ele>
        <time>2024-08-13T10:13:38Z</time>
      </trkpt>
      <trkpt lat="44.64485" lon="2.48829">
        <ele>244.1</ele>
        <time>2024-08-13T10:13:40Z</time>
      </trkpt>
      <trkpt lat="44.64481" lon="2.48827">
        <ele>243.7</ele>
        <time>2024-08-13T10:13:41Z</time>
      </trkpt>
      <trkpt lat="44.64479" lon="2.48826">
        <ele>241.9</ele>
        <time>2024-08-13T10:13:42Z</time>
      </trkpt>
      <trkpt lat="44.64477" lon="2.48827">
        <ele>240.1</ele>
        <time>2024-08-13T10:13:44Z</time>
      </trkpt>
      <trkpt lat="44.64481" lon="2.48833">
        <ele>239.2</ele>
        <time>2024-08-13T10:13:46Z</time>
      </trkpt>
      <trkpt lat="44.64485" lon="2.48841">
        <ele>239.7</ele>
        <time>2024-08-13T10:13:48Z</time>
      </trkpt>
      <trkpt lat="44.64486" lon="2.48845">
        <ele>238.4</ele>
        <time>2024-08-13T10:13:49Z</time>
      </trkpt>
      <trkpt lat="44.64487" lon="2.48849">
        <ele>238.3</ele>
        <time>2024-08-13T10:13:50Z</time>
      </trkpt>
      <trkpt lat="44.64487" lon="2.48854">
        <ele>235.7</ele>
        <time>2024-08-13T10:13:51Z</time>
      </trkpt>
      <trkpt lat="44.64487" lon="2.4886">
        <ele>234.4</ele>
        <time>2024-08-13T10:13:52Z</time>
      </trkpt>
      <trkpt lat="44.64487" lon="2.48873">
        <ele>231.1</ele>
        <time>2024-08-13T10:13:54Z</time>
      </trkpt>
      <trkpt lat="44.64486" lon="2.48879">
        <ele>230.1</ele>
        <time>2024-08-13T10:13:55Z</time>
      </trkpt>
      <trkpt lat="44.64485" lon="2.48884">
        <ele>228.3</ele>
        <time>2024-08-13T10:13:56Z</time>
      </trkpt>
      <trkpt lat="44.64484" lon="2.48888">
        <ele>227.3</ele>
        <time>2024-08-13T10:13:57Z</time>
      </trkpt>
      <trkpt lat="44.64483" lon="2.48889">
        <ele>225.6</ele>
        <time>2024-08-13T10:13:58Z</time>
      </trkpt>
      <trkpt lat="44.64481" lon="2.48882">
        <ele>225.6</ele>
        <time>2024-08-13T10:14:00Z</time>
      </trkpt>
      <trkpt lat="44.64481" lon="2.48878">
        <ele>225.6</ele>
        <time>2024-08-13T10:14:01Z</time>
      </trkpt>
      <trkpt lat="44.64481" lon="2.48874">
        <ele>225.6</ele>
        <time>2024-08-13T10:14:02Z</time>
      </trkpt>
      <trkpt lat="44.6448" lon="2.4887">
        <ele>225.6</ele>
        <time>2024-08-13T10:14:03Z</time>
      </trkpt>
      <trkpt lat="44.6448" lon="2.48866">
        <ele>225.6</ele>
        <time>2024-08-13T10:14:04Z</time>
      </trkpt>
      <trkpt lat="44.64479" lon="2.48864">
        <ele>225.6</ele>
        <time>2024-08-13T10:14:05Z</time>
      </trkpt>
      <trkpt lat="44.64478" lon="2.48861">
        <ele>225.6</ele>
        <time>2024-08-13T10:14:06Z</time>
      </trkpt>
      <trkpt lat="44.64474" lon="2.48855">
        <ele>225.6</ele>
        <time>2024-08-13T10:14:08Z</time>
      </trkpt>
      <trkpt lat="44.6447" lon="2.48853">
        <ele>225.6</ele>
        <time>2024-08-13T10:14:09Z</time>
      </trkpt>
      <trkpt lat="44.64467" lon="2.48849">
        <ele>225.6</ele>
        <time>2024-08-13T10:14:10Z</time>
      </trkpt>
      <trkpt lat="44.6446" lon="2.48843">
        <ele>225.6</ele>
        <time>2024-08-13T10:14:12Z</time>
      </trkpt>
      <trkpt lat="44.64454" lon="2.48837">
        <ele>225.6</ele>
        <time>2024-08-13T10:14:14Z</time>
      </trkpt>
      <trkpt lat="44.64446" lon="2.48829">
        <ele>225.6</ele>
        <time>2024-08-13T10:14:16Z</time>
      </trkpt>
      <trkpt lat="44.64439" lon="2.48821">
        <ele>225.6</ele>
        <time>2024-08-13T10:14:18Z</time>
      </trkpt>
      <trkpt lat="44.64434" lon="2.48819">
        <ele>225.6</ele>
        <time>2024-08-13T10:14:19Z</time>
      </trkpt>
      <trkpt lat="44.64431" lon="2.48817">
        <ele>225.6</ele>
        <time>2024-08-13T10:14:20Z</time>
      </trkpt>
      <trkpt lat="44.64426" lon="2.48813">
        <ele>225.7</ele>
        <time>2024-08-13T10:14:22Z</time>
      </trkpt>
      <trkpt lat="44.64424" lon="2.48812">
        <ele>225.7</ele>
        <time>2024-08-13T10:14:23Z</time>
      </trkpt>
      <trkpt lat="44.64422" lon="2.48811">
        <ele>225.7</ele>
        <time>2024-08-13T10:14:24Z</time>
      </trkpt>
      <trkpt lat="44.64419" lon="2.4881">
        <ele>225.7</ele>
        <time>2024-08-13T10:14:26Z</time>
      </trkpt>
      <trkpt lat="44.64417" lon="2.48808">
        <ele>225.7</ele>
        <time>2024-08-13T10:14:27Z</time>
      </trkpt>
      <trkpt lat="44.64415" lon="2.48807">
        <ele>225.7</ele>
        <time>2024-08-13T10:14:28Z</time>
      </trkpt>
      <trkpt lat="44.64411" lon="2.48804">
        <ele>225.7</ele>
        <time>2024-08-13T10:14:30Z</time>
      </trkpt>
      <trkpt lat="44.64408" lon="2.48803">
        <ele>225.7</ele>
        <time>2024-08-13T10:14:32Z</time>
      </trkpt>
      <trkpt lat="44.64407" lon="2.48804">
        <ele>225.7</ele>
        <time>2024-08-13T10:14:33Z</time>
      </trkpt>
      <trkpt lat="44.64407" lon="2.48805">
        <ele>225.7</ele>
        <time>2024-08-13T10:14:34Z</time>
      </trkpt>
      <trkpt lat="44.64407" lon="2.4881">
        <ele>225.7</ele>
        <time>2024-08-13T10:14:36Z</time>
      </trkpt>
      <trkpt lat="44.64407" lon="2.48815">
        <ele>225.7</ele>
        <time>2024-08-13T10:14:38Z</time>
      </trkpt>
      <trkpt lat="44.64409" lon="2.48822">
        <ele>225.7</ele>
        <time>2024-08-13T10:14:40Z</time>
      </trkpt>
      <trkpt lat="44.64413" lon="2.4883">
        <ele>225.6</ele>
        <time>2024-08-13T10:14:42Z</time>
      </trkpt>
      <trkpt lat="44.64416" lon="2.4884">
        <ele>225.6</ele>
        <time>2024-08-13T10:14:44Z</time>
      </trkpt>
      <trkpt lat="44.64417" lon="2.48844">
        <ele>225.6</ele>
        <time>2024-08-13T10:14:45Z</time>
      </trkpt>
      <trkpt lat="44.6442" lon="2.48848">
        <ele>225.6</ele>
        <time>2024-08-13T10:14:46Z</time>
      </trkpt>
      <trkpt lat="44.64423" lon="2.48853">
        <ele>225.6</ele>
        <time>2024-08-13T10:14:48Z</time>
      </trkpt>
      <trkpt lat="44.64425" lon="2.48856">
        <ele>225.6</ele>
        <time>2024-08-13T10:14:49Z</time>
      </trkpt>
      <trkpt lat="44.64427" lon="2.48859">
        <ele>225.6</ele>
        <time>2024-08-13T10:14:50Z</time>
      </trkpt>
      <trkpt lat="44.6443" lon="2.48864">
        <ele>225.6</ele>
        <time>2024-08-13T10:14:52Z</time>
      </trkpt>
      <trkpt lat="44.64432" lon="2.48867">
        <ele>225.6</ele>
        <time>2024-08-13T10:14:53Z</time>
      </trkpt>
      <trkpt lat="44.64433" lon="2.4887">
        <ele>225.6</ele>
        <time>2024-08-13T10:14:54Z</time>
      </trkpt>
      <trkpt lat="44.64435" lon="2.48874">
        <ele>225.6</ele>
        <time>2024-08-13T10:14:56Z</time>
      </trkpt>
      <trkpt lat="44.64437" lon="2.48878">
        <ele>225.6</ele>
        <time>2024-08-13T10:14:58Z</time>
      </trkpt>
      <trkpt lat="44.64439" lon="2.48881">
        <ele>225.6</ele>
        <time>2024-08-13T10:15:00Z</time>
      </trkpt>
      <trkpt lat="44.6444" lon="2.48883">
        <ele>225.6</ele>
        <time>2024-08-13T10:15:01Z</time>
      </trkpt>
      <trkpt lat="44.64442" lon="2.48886">
        <ele>225.6</ele>
        <time>2024-08-13T10:15:02Z</time>
      </trkpt>
      <trkpt lat="44.64444" lon="2.48892">
        <ele>225.6</ele>
        <time>2024-08-13T10:15:04Z</time>
      </trkpt>
      <trkpt lat="44.64446" lon="2.48896">
        <ele>225.6</ele>
        <time>2024-08-13T10:15:05Z</time>
      </trkpt>
      <trkpt lat="44.64449" lon="2.48901">
        <ele>225.6</ele>
        <time>2024-08-13T10:15:06Z</time>
      </trkpt>
      <trkpt lat="44.64453" lon="2.48911">
        <ele>225.6</ele>
        <time>2024-08-13T10:15:08Z</time>
      </trkpt>
      <trkpt lat="44.64457" lon="2.48921">
        <ele>225.7</ele>
        <time>2024-08-13T10:15:10Z</time>
      </trkpt>
      <trkpt lat="44.64461" lon="2.48931">
        <ele>225.7</ele>
        <time>2024-08-13T10:15:12Z</time>
      </trkpt>
      <trkpt lat="44.64463" lon="2.48937">
        <ele>225.7</ele>
        <time>2024-08-13T10:15:13Z</time>
      </trkpt>
      <trkpt lat="44.64465" lon="2.48942">
        <ele>225.7</ele>
        <time>2024-08-13T10:15:14Z</time>
      </trkpt>
      <trkpt lat="44.64468" lon="2.48948">
        <ele>225.8</ele>
        <time>2024-08-13T10:15:15Z</time>
      </trkpt>
      <trkpt lat="44.64471" lon="2.48954">
        <ele>225.8</ele>
        <time>2024-08-13T10:15:16Z</time>
      </trkpt>
      <trkpt lat="44.64474" lon="2.48959">
        <ele>225.8</ele>
        <time>2024-08-13T10:15:17Z</time>
      </trkpt>
      <trkpt lat="44.64475" lon="2.48965">
        <ele>225.8</ele>
        <time>2024-08-13T10:15:18Z</time>
      </trkpt>
      <trkpt lat="44.64474" lon="2.4897">
        <ele>225.8</ele>
        <time>2024-08-13T10:15:19Z</time>
      </trkpt>
      <trkpt lat="44.64475" lon="2.48975">
        <ele>225.8</ele>
        <time>2024-08-13T10:15:20Z</time>
      </trkpt>
      <trkpt lat="44.64477" lon="2.48985">
        <ele>225.8</ele>
        <time>2024-08-13T10:15:22Z</time>
      </trkpt>
      <trkpt lat="44.64478" lon="2.48996">
        <ele>225.8</ele>
        <time>2024-08-13T10:15:24Z</time>
      </trkpt>
      <trkpt lat="44.64478" lon="2.49001">
        <ele>225.8</ele>
        <time>2024-08-13T10:15:25Z</time>
      </trkpt>
      <trkpt lat="44.64479" lon="2.49006">
        <ele>225.8</ele>
        <time>2024-08-13T10:15:26Z</time>
      </trkpt>
      <trkpt lat="44.6448" lon="2.49011">
        <ele>225.8</ele>
        <time>2024-08-13T10:15:27Z</time>
      </trkpt>
      <trkpt lat="44.64481" lon="2.49017">
        <ele>225.8</ele>
        <time>2024-08-13T10:15:28Z</time>
      </trkpt>
      <trkpt lat="44.64482" lon="2.49022">
        <ele>225.8</ele>
        <time>2024-08-13T10:15:29Z</time>
      </trkpt>
      <trkpt lat="44.64484" lon="2.49029">
        <ele>225.8</ele>
        <time>2024-08-13T10:15:30Z</time>
      </trkpt>
      <trkpt lat="44.64486" lon="2.49035">
        <ele>225.8</ele>
        <time>2024-08-13T10:15:31Z</time>
      </trkpt>
      <trkpt lat="44.64487" lon="2.49041">
        <ele>225.8</ele>
        <time>2024-08-13T10:15:32Z</time>
      </trkpt>
      <trkpt lat="44.64486" lon="2.49052">
        <ele>225.8</ele>
        <time>2024-08-13T10:15:34Z</time>
      </trkpt>
      <trkpt lat="44.64485" lon="2.49063">
        <ele>225.8</ele>
        <time>2024-08-13T10:15:36Z</time>
      </trkpt>
      <trkpt lat="44.64485" lon="2.49073">
        <ele>225.9</ele>
        <time>2024-08-13T10:15:38Z</time>
      </trkpt>
      <trkpt lat="44.64486" lon="2.49084">
        <ele>225.9</ele>
        <time>2024-08-13T10:15:40Z</time>
      </trkpt>
      <trkpt lat="44.64488" lon="2.49089">
        <ele>225.9</ele>
        <time>2024-08-13T10:15:41Z</time>
      </trkpt>
      <trkpt lat="44.6449" lon="2.49094">
        <ele>225.9</ele>
        <time>2024-08-13T10:15:42Z</time>
      </trkpt>
      <trkpt lat="44.64493" lon="2.49103">
        <ele>225.9</ele>
        <time>2024-08-13T10:15:44Z</time>
      </trkpt>
      <trkpt lat="44.64495" lon="2.49109">
        <ele>225.9</ele>
        <time>2024-08-13T10:15:45Z</time>
      </trkpt>
      <trkpt lat="44.64498" lon="2.49114">
        <ele>225.9</ele>
        <time>2024-08-13T10:15:46Z</time>
      </trkpt>
      <trkpt lat="44.64502" lon="2.49124">
        <ele>225.9</ele>
        <time>2024-08-13T10:15:48Z</time>
      </trkpt>
      <trkpt lat="44.64504" lon="2.49129">
        <ele>225.9</ele>
        <time>2024-08-13T10:15:49Z</time>
      </trkpt>
      <trkpt lat="44.64506" lon="2.49135">
        <ele>226</ele>
        <time>2024-08-13T10:15:50Z</time>
      </trkpt>
      <trkpt lat="44.64509" lon="2.49147">
        <ele>226</ele>
        <time>2024-08-13T10:15:52Z</time>
      </trkpt>
      <trkpt lat="44.6451" lon="2.49153">
        <ele>226</ele>
        <time>2024-08-13T10:15:53Z</time>
      </trkpt>
      <trkpt lat="44.64512" lon="2.49159">
        <ele>226</ele>
        <time>2024-08-13T10:15:54Z</time>
      </trkpt>
      <trkpt lat="44.64513" lon="2.49165">
        <ele>226</ele>
        <time>2024-08-13T10:15:55Z</time>
      </trkpt>
      <trkpt lat="44.64515" lon="2.4917">
        <ele>226</ele>
        <time>2024-08-13T10:15:56Z</time>
      </trkpt>
      <trkpt lat="44.64518" lon="2.49182">
        <ele>226</ele>
        <time>2024-08-13T10:15:58Z</time>
      </trkpt>
      <trkpt lat="44.6452" lon="2.49194">
        <ele>226</ele>
        <time>2024-08-13T10:16:00Z</time>
      </trkpt>
      <trkpt lat="44.64521" lon="2.492">
        <ele>226</ele>
        <time>2024-08-13T10:16:01Z</time>
      </trkpt>
      <trkpt lat="44.64523" lon="2.49206">
        <ele>226</ele>
        <time>2024-08-13T10:16:02Z</time>
      </trkpt>
      <trkpt lat="44.64525" lon="2.49212">
        <ele>226</ele>
        <time>2024-08-13T10:16:03Z</time>
      </trkpt>
      <trkpt lat="44.64527" lon="2.49219">
        <ele>226</ele>
        <time>2024-08-13T10:16:04Z</time>
      </trkpt>
      <trkpt lat="44.64529" lon="2.49225">
        <ele>226.1</ele>
        <time>2024-08-13T10:16:05Z</time>
      </trkpt>
      <trkpt lat="44.6453" lon="2.49231">
        <ele>226.1</ele>
        <time>2024-08-13T10:16:06Z</time>
      </trkpt>
      <trkpt lat="44.64532" lon="2.49243">
        <ele>226.1</ele>
        <time>2024-08-13T10:16:08Z</time>
      </trkpt>
      <trkpt lat="44.64536" lon="2.49255">
        <ele>226.2</ele>
        <time>2024-08-13T10:16:10Z</time>
      </trkpt>
      <trkpt lat="44.64538" lon="2.49262">
        <ele>226.2</ele>
        <time>2024-08-13T10:16:11Z</time>
      </trkpt>
      <trkpt lat="44.64539" lon="2.49268">
        <ele>226.2</ele>
        <time>2024-08-13T10:16:12Z</time>
      </trkpt>
      <trkpt lat="44.6454" lon="2.49274">
        <ele>226.2</ele>
        <time>2024-08-13T10:16:13Z</time>
      </trkpt>
      <trkpt lat="44.64542" lon="2.49281">
        <ele>226.2</ele>
        <time>2024-08-13T10:16:14Z</time>
      </trkpt>
      <trkpt lat="44.64543" lon="2.49287">
        <ele>226.2</ele>
        <time>2024-08-13T10:16:15Z</time>
      </trkpt>
      <trkpt lat="44.64543" lon="2.49292">
        <ele>226.2</ele>
        <time>2024-08-13T10:16:16Z</time>
      </trkpt>
      <trkpt lat="44.64544" lon="2.49304">
        <ele>226.2</ele>
        <time>2024-08-13T10:16:18Z</time>
      </trkpt>
      <trkpt lat="44.64546" lon="2.49317">
        <ele>226.2</ele>
        <time>2024-08-13T10:16:20Z</time>
      </trkpt>
      <trkpt lat="44.64548" lon="2.49331">
        <ele>226.1</ele>
        <time>2024-08-13T10:16:22Z</time>
      </trkpt>
      <trkpt lat="44.64551" lon="2.49345">
        <ele>226.1</ele>
        <time>2024-08-13T10:16:24Z</time>
      </trkpt>
      <trkpt lat="44.64552" lon="2.49358">
        <ele>226</ele>
        <time>2024-08-13T10:16:26Z</time>
      </trkpt>
      <trkpt lat="44.64553" lon="2.49372">
        <ele>225.9</ele>
        <time>2024-08-13T10:16:28Z</time>
      </trkpt>
      <trkpt lat="44.64554" lon="2.49379">
        <ele>225.9</ele>
        <time>2024-08-13T10:16:29Z</time>
      </trkpt>
      <trkpt lat="44.64555" lon="2.49386">
        <ele>225.8</ele>
        <time>2024-08-13T10:16:30Z</time>
      </trkpt>
      <trkpt lat="44.64555" lon="2.49393">
        <ele>225.8</ele>
        <time>2024-08-13T10:16:31Z</time>
      </trkpt>
      <trkpt lat="44.64555" lon="2.494">
        <ele>225.7</ele>
        <time>2024-08-13T10:16:32Z</time>
      </trkpt>
      <trkpt lat="44.64556" lon="2.49407">
        <ele>225.7</ele>
        <time>2024-08-13T10:16:33Z</time>
      </trkpt>
      <trkpt lat="44.64556" lon="2.49414">
        <ele>225.6</ele>
        <time>2024-08-13T10:16:34Z</time>
      </trkpt>
      <trkpt lat="44.64558" lon="2.49422">
        <ele>225.5</ele>
        <time>2024-08-13T10:16:35Z</time>
      </trkpt>
      <trkpt lat="44.64559" lon="2.49429">
        <ele>225.5</ele>
        <time>2024-08-13T10:16:36Z</time>
      </trkpt>
      <trkpt lat="44.6456" lon="2.49445">
        <ele>225.4</ele>
        <time>2024-08-13T10:16:38Z</time>
      </trkpt>
      <trkpt lat="44.64559" lon="2.49459">
        <ele>225.3</ele>
        <time>2024-08-13T10:16:40Z</time>
      </trkpt>
      <trkpt lat="44.64558" lon="2.49474">
        <ele>225.3</ele>
        <time>2024-08-13T10:16:42Z</time>
      </trkpt>
      <trkpt lat="44.64557" lon="2.49482">
        <ele>225.2</ele>
        <time>2024-08-13T10:16:43Z</time>
      </trkpt>
      <trkpt lat="44.64556" lon="2.49489">
        <ele>225.2</ele>
        <time>2024-08-13T10:16:44Z</time>
      </trkpt>
      <trkpt lat="44.64555" lon="2.49496">
        <ele>225.2</ele>
        <time>2024-08-13T10:16:45Z</time>
      </trkpt>
      <trkpt lat="44.64556" lon="2.49504">
        <ele>225.1</ele>
        <time>2024-08-13T10:16:46Z</time>
      </trkpt>
      <trkpt lat="44.64557" lon="2.49512">
        <ele>225.1</ele>
        <time>2024-08-13T10:16:47Z</time>
      </trkpt>
      <trkpt lat="44.64559" lon="2.4952">
        <ele>225</ele>
        <time>2024-08-13T10:16:48Z</time>
      </trkpt>
      <trkpt lat="44.6456" lon="2.49527">
        <ele>225</ele>
        <time>2024-08-13T10:16:49Z</time>
      </trkpt>
      <trkpt lat="44.64561" lon="2.49535">
        <ele>224.9</ele>
        <time>2024-08-13T10:16:50Z</time>
      </trkpt>
      <trkpt lat="44.64563" lon="2.49551">
        <ele>224.8</ele>
        <time>2024-08-13T10:16:52Z</time>
      </trkpt>
      <trkpt lat="44.64563" lon="2.49566">
        <ele>224.8</ele>
        <time>2024-08-13T10:16:54Z</time>
      </trkpt>
      <trkpt lat="44.64562" lon="2.49581">
        <ele>224.7</ele>
        <time>2024-08-13T10:16:56Z</time>
      </trkpt>
      <trkpt lat="44.6456" lon="2.49596">
        <ele>224.7</ele>
        <time>2024-08-13T10:16:58Z</time>
      </trkpt>
      <trkpt lat="44.64558" lon="2.4961">
        <ele>224.7</ele>
        <time>2024-08-13T10:17:00Z</time>
      </trkpt>
      <trkpt lat="44.64557" lon="2.49626">
        <ele>224.7</ele>
        <time>2024-08-13T10:17:02Z</time>
      </trkpt>
      <trkpt lat="44.64557" lon="2.49634">
        <ele>224.8</ele>
        <time>2024-08-13T10:17:03Z</time>
      </trkpt>
      <trkpt lat="44.64557" lon="2.49642">
        <ele>224.8</ele>
        <time>2024-08-13T10:17:04Z</time>
      </trkpt>
      <trkpt lat="44.64556" lon="2.49658">
        <ele>224.8</ele>
        <time>2024-08-13T10:17:06Z</time>
      </trkpt>
      <trkpt lat="44.64555" lon="2.49674">
        <ele>224.9</ele>
        <time>2024-08-13T10:17:08Z</time>
      </trkpt>
      <trkpt lat="44.64552" lon="2.49691">
        <ele>224.9</ele>
        <time>2024-08-13T10:17:10Z</time>
      </trkpt>
      <trkpt lat="44.6455" lon="2.497">
        <ele>224.9</ele>
        <time>2024-08-13T10:17:11Z</time>
      </trkpt>
      <trkpt lat="44.64547" lon="2.49708">
        <ele>224.9</ele>
        <time>2024-08-13T10:17:12Z</time>
      </trkpt>
      <trkpt lat="44.6454" lon="2.49725">
        <ele>224.9</ele>
        <time>2024-08-13T10:17:14Z</time>
      </trkpt>
      <trkpt lat="44.64534" lon="2.49743">
        <ele>225</ele>
        <time>2024-08-13T10:17:16Z</time>
      </trkpt>
      <trkpt lat="44.64528" lon="2.49761">
        <ele>225</ele>
        <time>2024-08-13T10:17:18Z</time>
      </trkpt>
      <trkpt lat="44.6452" lon="2.49779">
        <ele>225.1</ele>
        <time>2024-08-13T10:17:20Z</time>
      </trkpt>
      <trkpt lat="44.64512" lon="2.49796">
        <ele>225.1</ele>
        <time>2024-08-13T10:17:22Z</time>
      </trkpt>
      <trkpt lat="44.64503" lon="2.49813">
        <ele>225.2</ele>
        <time>2024-08-13T10:17:24Z</time>
      </trkpt>
      <trkpt lat="44.64494" lon="2.49831">
        <ele>225.3</ele>
        <time>2024-08-13T10:17:26Z</time>
      </trkpt>
      <trkpt lat="44.64486" lon="2.49849">
        <ele>225.4</ele>
        <time>2024-08-13T10:17:28Z</time>
      </trkpt>
      <trkpt lat="44.64478" lon="2.49867">
        <ele>225.5</ele>
        <time>2024-08-13T10:17:30Z</time>
      </trkpt>
      <trkpt lat="44.6447" lon="2.49885">
        <ele>225.6</ele>
        <time>2024-08-13T10:17:32Z</time>
      </trkpt>
      <trkpt lat="44.64462" lon="2.49903">
        <ele>225.6</ele>
        <time>2024-08-13T10:17:34Z</time>
      </trkpt>
      <trkpt lat="44.64453" lon="2.4992">
        <ele>225.5</ele>
        <time>2024-08-13T10:17:36Z</time>
      </trkpt>
      <trkpt lat="44.64448" lon="2.49929">
        <ele>225.4</ele>
        <time>2024-08-13T10:17:37Z</time>
      </trkpt>
      <trkpt lat="44.64443" lon="2.49938">
        <ele>225.3</ele>
        <time>2024-08-13T10:17:38Z</time>
      </trkpt>
      <trkpt lat="44.64434" lon="2.49956">
        <ele>225.2</ele>
        <time>2024-08-13T10:17:40Z</time>
      </trkpt>
      <trkpt lat="44.64423" lon="2.49974">
        <ele>225.1</ele>
        <time>2024-08-13T10:17:42Z</time>
      </trkpt>
      <trkpt lat="44.64413" lon="2.49991">
        <ele>225.1</ele>
        <time>2024-08-13T10:17:44Z</time>
      </trkpt>
      <trkpt lat="44.64402" lon="2.50008">
        <ele>225.1</ele>
        <time>2024-08-13T10:17:46Z</time>
      </trkpt>
      <trkpt lat="44.64393" lon="2.50025">
        <ele>225.2</ele>
        <time>2024-08-13T10:17:48Z</time>
      </trkpt>
      <trkpt lat="44.64385" lon="2.50044">
        <ele>225.3</ele>
        <time>2024-08-13T10:17:50Z</time>
      </trkpt>
      <trkpt lat="44.64382" lon="2.50054">
        <ele>225.4</ele>
        <time>2024-08-13T10:17:51Z</time>
      </trkpt>
      <trkpt lat="44.64379" lon="2.50063">
        <ele>225.4</ele>
        <time>2024-08-13T10:17:52Z</time>
      </trkpt>
      <trkpt lat="44.64374" lon="2.50084">
        <ele>225.5</ele>
        <time>2024-08-13T10:17:54Z</time>
      </trkpt>
      <trkpt lat="44.6437" lon="2.50104">
        <ele>225.6</ele>
        <time>2024-08-13T10:17:56Z</time>
      </trkpt>
      <trkpt lat="44.64368" lon="2.50125">
        <ele>225.8</ele>
        <time>2024-08-13T10:17:58Z</time>
      </trkpt>
      <trkpt lat="44.64367" lon="2.50146">
        <ele>225.9</ele>
        <time>2024-08-13T10:18:00Z</time>
      </trkpt>
      <trkpt lat="44.64368" lon="2.50157">
        <ele>226</ele>
        <time>2024-08-13T10:18:01Z</time>
      </trkpt>
      <trkpt lat="44.6437" lon="2.50167">
        <ele>226.1</ele>
        <time>2024-08-13T10:18:02Z</time>
      </trkpt>
      <trkpt lat="44.64372" lon="2.50176">
        <ele>226.2</ele>
        <time>2024-08-13T10:18:03Z</time>
      </trkpt>
      <trkpt lat="44.64375" lon="2.50186">
        <ele>226.3</ele>
        <time>2024-08-13T10:18:04Z</time>
      </trkpt>
      <trkpt lat="44.64379" lon="2.50194">
        <ele>226.4</ele>
        <time>2024-08-13T10:18:05Z</time>
      </trkpt>
      <trkpt lat="44.64383" lon="2.50202">
        <ele>226.6</ele>
        <time>2024-08-13T10:18:06Z</time>
      </trkpt>
      <trkpt lat="44.64392" lon="2.50217">
        <ele>226.9</ele>
        <time>2024-08-13T10:18:08Z</time>
      </trkpt>
      <trkpt lat="44.64398" lon="2.50223">
        <ele>227</ele>
        <time>2024-08-13T10:18:09Z</time>
      </trkpt>
      <trkpt lat="44.64404" lon="2.50229">
        <ele>227</ele>
        <time>2024-08-13T10:18:10Z</time>
      </trkpt>
      <trkpt lat="44.64417" lon="2.5024">
        <ele>227.1</ele>
        <time>2024-08-13T10:18:12Z</time>
      </trkpt>
      <trkpt lat="44.64425" lon="2.50244">
        <ele>227.2</ele>
        <time>2024-08-13T10:18:13Z</time>
      </trkpt>
      <trkpt lat="44.64432" lon="2.50249">
        <ele>227.2</ele>
        <time>2024-08-13T10:18:14Z</time>
      </trkpt>
      <trkpt lat="44.64446" lon="2.50258">
        <ele>227.3</ele>
        <time>2024-08-13T10:18:16Z</time>
      </trkpt>
      <trkpt lat="44.6446" lon="2.50268">
        <ele>227.3</ele>
        <time>2024-08-13T10:18:18Z</time>
      </trkpt>
      <trkpt lat="44.64467" lon="2.50273">
        <ele>227.3</ele>
        <time>2024-08-13T10:18:19Z</time>
      </trkpt>
      <trkpt lat="44.64474" lon="2.50277">
        <ele>227.3</ele>
        <time>2024-08-13T10:18:20Z</time>
      </trkpt>
      <trkpt lat="44.64488" lon="2.50286">
        <ele>227.3</ele>
        <time>2024-08-13T10:18:22Z</time>
      </trkpt>
      <trkpt lat="44.64502" lon="2.50297">
        <ele>227.3</ele>
        <time>2024-08-13T10:18:24Z</time>
      </trkpt>
      <trkpt lat="44.64509" lon="2.50302">
        <ele>227.3</ele>
        <time>2024-08-13T10:18:25Z</time>
      </trkpt>
      <trkpt lat="44.64516" lon="2.50308">
        <ele>227.3</ele>
        <time>2024-08-13T10:18:26Z</time>
      </trkpt>
      <trkpt lat="44.6453" lon="2.50318">
        <ele>227.3</ele>
        <time>2024-08-13T10:18:28Z</time>
      </trkpt>
      <trkpt lat="44.64545" lon="2.50324">
        <ele>227.4</ele>
        <time>2024-08-13T10:18:30Z</time>
      </trkpt>
      <trkpt lat="44.64562" lon="2.50325">
        <ele>227.5</ele>
        <time>2024-08-13T10:18:32Z</time>
      </trkpt>
      <trkpt lat="44.6457" lon="2.50324">
        <ele>227.5</ele>
        <time>2024-08-13T10:18:33Z</time>
      </trkpt>
      <trkpt lat="44.64578" lon="2.50323">
        <ele>227.5</ele>
        <time>2024-08-13T10:18:34Z</time>
      </trkpt>
      <trkpt lat="44.64585" lon="2.50322">
        <ele>227.6</ele>
        <time>2024-08-13T10:18:35Z</time>
      </trkpt>
      <trkpt lat="44.64593" lon="2.50322">
        <ele>227.5</ele>
        <time>2024-08-13T10:18:36Z</time>
      </trkpt>
      <trkpt lat="44.64601" lon="2.50323">
        <ele>227.5</ele>
        <time>2024-08-13T10:18:37Z</time>
      </trkpt>
      <trkpt lat="44.64609" lon="2.50323">
        <ele>227.3</ele>
        <time>2024-08-13T10:18:38Z</time>
      </trkpt>
      <trkpt lat="44.64624" lon="2.50325">
        <ele>227</ele>
        <time>2024-08-13T10:18:40Z</time>
      </trkpt>
      <trkpt lat="44.6464" lon="2.50329">
        <ele>226.7</ele>
        <time>2024-08-13T10:18:42Z</time>
      </trkpt>
      <trkpt lat="44.64655" lon="2.50339">
        <ele>226.5</ele>
        <time>2024-08-13T10:18:44Z</time>
      </trkpt>
      <trkpt lat="44.64662" lon="2.50347">
        <ele>226.5</ele>
        <time>2024-08-13T10:18:45Z</time>
      </trkpt>
      <trkpt lat="44.64668" lon="2.50355">
        <ele>226.4</ele>
        <time>2024-08-13T10:18:46Z</time>
      </trkpt>
      <trkpt lat="44.6468" lon="2.5037">
        <ele>226.4</ele>
        <time>2024-08-13T10:18:48Z</time>
      </trkpt>
      <trkpt lat="44.6469" lon="2.50386">
        <ele>226.4</ele>
        <time>2024-08-13T10:18:50Z</time>
      </trkpt>
      <trkpt lat="44.64699" lon="2.50403">
        <ele>226.5</ele>
        <time>2024-08-13T10:18:52Z</time>
      </trkpt>
      <trkpt lat="44.64707" lon="2.50423">
        <ele>226.6</ele>
        <time>2024-08-13T10:18:54Z</time>
      </trkpt>
      <trkpt lat="44.64712" lon="2.50443">
        <ele>226.7</ele>
        <time>2024-08-13T10:18:56Z</time>
      </trkpt>
      <trkpt lat="44.64716" lon="2.50464">
        <ele>226.7</ele>
        <time>2024-08-13T10:18:58Z</time>
      </trkpt>
      <trkpt lat="44.64722" lon="2.50484">
        <ele>226.7</ele>
        <time>2024-08-13T10:19:00Z</time>
      </trkpt>
      <trkpt lat="44.64728" lon="2.50503">
        <ele>226.7</ele>
        <time>2024-08-13T10:19:02Z</time>
      </trkpt>
      <trkpt lat="44.64729" lon="2.50514">
        <ele>226.7</ele>
        <time>2024-08-13T10:19:03Z</time>
      </trkpt>
      <trkpt lat="44.6473" lon="2.50525">
        <ele>226.7</ele>
        <time>2024-08-13T10:19:04Z</time>
      </trkpt>
      <trkpt lat="44.64729" lon="2.50547">
        <ele>226.7</ele>
        <time>2024-08-13T10:19:06Z</time>
      </trkpt>
      <trkpt lat="44.64728" lon="2.50557">
        <ele>226.8</ele>
        <time>2024-08-13T10:19:07Z</time>
      </trkpt>
      <trkpt lat="44.64727" lon="2.50568">
        <ele>226.8</ele>
        <time>2024-08-13T10:19:08Z</time>
      </trkpt>
      <trkpt lat="44.64725" lon="2.50588">
        <ele>226.9</ele>
        <time>2024-08-13T10:19:10Z</time>
      </trkpt>
      <trkpt lat="44.64724" lon="2.50598">
        <ele>226.9</ele>
        <time>2024-08-13T10:19:11Z</time>
      </trkpt>
      <trkpt lat="44.64724" lon="2.50608">
        <ele>226.8</ele>
        <time>2024-08-13T10:19:12Z</time>
      </trkpt>
      <trkpt lat="44.64725" lon="2.50617">
        <ele>226.7</ele>
        <time>2024-08-13T10:19:13Z</time>
      </trkpt>
      <trkpt lat="44.64726" lon="2.50627">
        <ele>226.6</ele>
        <time>2024-08-13T10:19:14Z</time>
      </trkpt>
      <trkpt lat="44.6473" lon="2.50646">
        <ele>226.5</ele>
        <time>2024-08-13T10:19:16Z</time>
      </trkpt>
      <trkpt lat="44.64732" lon="2.50665">
        <ele>226.4</ele>
        <time>2024-08-13T10:19:18Z</time>
      </trkpt>
      <trkpt lat="44.64733" lon="2.50683">
        <ele>226.4</ele>
        <time>2024-08-13T10:19:20Z</time>
      </trkpt>
      <trkpt lat="44.64731" lon="2.507">
        <ele>226.4</ele>
        <time>2024-08-13T10:19:22Z</time>
      </trkpt>
      <trkpt lat="44.6473" lon="2.50719">
        <ele>226.4</ele>
        <time>2024-08-13T10:19:24Z</time>
      </trkpt>
      <trkpt lat="44.64728" lon="2.50727">
        <ele>226.4</ele>
        <time>2024-08-13T10:19:25Z</time>
      </trkpt>
      <trkpt lat="44.64726" lon="2.50734">
        <ele>226.5</ele>
        <time>2024-08-13T10:19:26Z</time>
      </trkpt>
      <trkpt lat="44.64721" lon="2.50749">
        <ele>226.5</ele>
        <time>2024-08-13T10:19:28Z</time>
      </trkpt>
      <trkpt lat="44.64718" lon="2.50755">
        <ele>226.6</ele>
        <time>2024-08-13T10:19:29Z</time>
      </trkpt>
      <trkpt lat="44.64714" lon="2.5076">
        <ele>226.6</ele>
        <time>2024-08-13T10:19:30Z</time>
      </trkpt>
      <trkpt lat="44.6471" lon="2.50766">
        <ele>226.6</ele>
        <time>2024-08-13T10:19:31Z</time>
      </trkpt>
      <trkpt lat="44.64705" lon="2.50772">
        <ele>226.6</ele>
        <time>2024-08-13T10:19:32Z</time>
      </trkpt>
      <trkpt lat="44.64697" lon="2.50784">
        <ele>226.6</ele>
        <time>2024-08-13T10:19:34Z</time>
      </trkpt>
      <trkpt lat="44.64689" lon="2.50796">
        <ele>226.6</ele>
        <time>2024-08-13T10:19:36Z</time>
      </trkpt>
      <trkpt lat="44.64681" lon="2.50808">
        <ele>226.6</ele>
        <time>2024-08-13T10:19:38Z</time>
      </trkpt>
      <trkpt lat="44.64673" lon="2.50819">
        <ele>226.6</ele>
        <time>2024-08-13T10:19:40Z</time>
      </trkpt>
      <trkpt lat="44.64665" lon="2.50831">
        <ele>226.6</ele>
        <time>2024-08-13T10:19:42Z</time>
      </trkpt>
      <trkpt lat="44.64657" lon="2.50843">
        <ele>226.6</ele>
        <time>2024-08-13T10:19:44Z</time>
      </trkpt>
      <trkpt lat="44.6465" lon="2.50856">
        <ele>226.6</ele>
        <time>2024-08-13T10:19:46Z</time>
      </trkpt>
      <trkpt lat="44.64642" lon="2.50869">
        <ele>226.5</ele>
        <time>2024-08-13T10:19:48Z</time>
      </trkpt>
      <trkpt lat="44.64634" lon="2.50883">
        <ele>226.5</ele>
        <time>2024-08-13T10:19:50Z</time>
      </trkpt>
      <trkpt lat="44.64626" lon="2.50896">
        <ele>226.5</ele>
        <time>2024-08-13T10:19:52Z</time>
      </trkpt>
      <trkpt lat="44.64618" lon="2.50909">
        <ele>226.5</ele>
        <time>2024-08-13T10:19:54Z</time>
      </trkpt>
      <trkpt lat="44.64611" lon="2.50924">
        <ele>226.4</ele>
        <time>2024-08-13T10:19:56Z</time>
      </trkpt>
      <trkpt lat="44.64605" lon="2.50939">
        <ele>226.4</ele>
        <time>2024-08-13T10:19:58Z</time>
      </trkpt>
      <trkpt lat="44.64598" lon="2.50954">
        <ele>226.4</ele>
        <time>2024-08-13T10:20:00Z</time>
      </trkpt>
      <trkpt lat="44.64595" lon="2.50962">
        <ele>226.4</ele>
        <time>2024-08-13T10:20:01Z</time>
      </trkpt>
      <trkpt lat="44.64593" lon="2.5097">
        <ele>226.4</ele>
        <time>2024-08-13T10:20:02Z</time>
      </trkpt>
      <trkpt lat="44.6459" lon="2.50979">
        <ele>226.4</ele>
        <time>2024-08-13T10:20:03Z</time>
      </trkpt>
      <trkpt lat="44.64588" lon="2.50987">
        <ele>226.4</ele>
        <time>2024-08-13T10:20:04Z</time>
      </trkpt>
      <trkpt lat="44.64585" lon="2.51004">
        <ele>226.3</ele>
        <time>2024-08-13T10:20:06Z</time>
      </trkpt>
      <trkpt lat="44.64584" lon="2.51013">
        <ele>226.3</ele>
        <time>2024-08-13T10:20:07Z</time>
      </trkpt>
      <trkpt lat="44.64583" lon="2.51022">
        <ele>226.3</ele>
        <time>2024-08-13T10:20:08Z</time>
      </trkpt>
      <trkpt lat="44.64583" lon="2.51039">
        <ele>226.3</ele>
        <time>2024-08-13T10:20:10Z</time>
      </trkpt>
      <trkpt lat="44.64584" lon="2.51057">
        <ele>226.4</ele>
        <time>2024-08-13T10:20:12Z</time>
      </trkpt>
      <trkpt lat="44.64584" lon="2.51073">
        <ele>226.4</ele>
        <time>2024-08-13T10:20:14Z</time>
      </trkpt>
      <trkpt lat="44.64585" lon="2.51087">
        <ele>226.5</ele>
        <time>2024-08-13T10:20:16Z</time>
      </trkpt>
      <trkpt lat="44.64589" lon="2.51105">
        <ele>226.5</ele>
        <time>2024-08-13T10:20:18Z</time>
      </trkpt>
      <trkpt lat="44.64594" lon="2.51122">
        <ele>226.6</ele>
        <time>2024-08-13T10:20:20Z</time>
      </trkpt>
      <trkpt lat="44.64599" lon="2.51138">
        <ele>226.6</ele>
        <time>2024-08-13T10:20:22Z</time>
      </trkpt>
      <trkpt lat="44.64605" lon="2.51153">
        <ele>226.7</ele>
        <time>2024-08-13T10:20:24Z</time>
      </trkpt>
      <trkpt lat="44.64607" lon="2.51161">
        <ele>226.8</ele>
        <time>2024-08-13T10:20:25Z</time>
      </trkpt>
      <trkpt lat="44.6461" lon="2.51168">
        <ele>226.8</ele>
        <time>2024-08-13T10:20:26Z</time>
      </trkpt>
      <trkpt lat="44.64612" lon="2.51175">
        <ele>226.9</ele>
        <time>2024-08-13T10:20:27Z</time>
      </trkpt>
      <trkpt lat="44.64615" lon="2.51182">
        <ele>226.9</ele>
        <time>2024-08-13T10:20:28Z</time>
      </trkpt>
      <trkpt lat="44.64618" lon="2.51189">
        <ele>227</ele>
        <time>2024-08-13T10:20:29Z</time>
      </trkpt>
      <trkpt lat="44.64621" lon="2.51196">
        <ele>227.1</ele>
        <time>2024-08-13T10:20:30Z</time>
      </trkpt>
      <trkpt lat="44.6463" lon="2.51212">
        <ele>227.3</ele>
        <time>2024-08-13T10:20:32Z</time>
      </trkpt>
      <trkpt lat="44.64634" lon="2.5122">
        <ele>227.4</ele>
        <time>2024-08-13T10:20:33Z</time>
      </trkpt>
      <trkpt lat="44.64637" lon="2.51227">
        <ele>227.5</ele>
        <time>2024-08-13T10:20:34Z</time>
      </trkpt>
      <trkpt lat="44.6464" lon="2.51234">
        <ele>227.5</ele>
        <time>2024-08-13T10:20:35Z</time>
      </trkpt>
      <trkpt lat="44.64643" lon="2.51241">
        <ele>227.6</ele>
        <time>2024-08-13T10:20:36Z</time>
      </trkpt>
      <trkpt lat="44.64649" lon="2.51254">
        <ele>227.8</ele>
        <time>2024-08-13T10:20:38Z</time>
      </trkpt>
      <trkpt lat="44.64657" lon="2.51268">
        <ele>227.9</ele>
        <time>2024-08-13T10:20:40Z</time>
      </trkpt>
      <trkpt lat="44.64663" lon="2.51281">
        <ele>228</ele>
        <time>2024-08-13T10:20:42Z</time>
      </trkpt>
      <trkpt lat="44.64665" lon="2.51287">
        <ele>228.1</ele>
        <time>2024-08-13T10:20:43Z</time>
      </trkpt>
      <trkpt lat="44.64668" lon="2.51294">
        <ele>228.1</ele>
        <time>2024-08-13T10:20:44Z</time>
      </trkpt>
      <trkpt lat="44.64672" lon="2.51306">
        <ele>228.2</ele>
        <time>2024-08-13T10:20:46Z</time>
      </trkpt>
      <trkpt lat="44.64676" lon="2.51319">
        <ele>228.3</ele>
        <time>2024-08-13T10:20:48Z</time>
      </trkpt>
      <trkpt lat="44.64681" lon="2.51333">
        <ele>228.4</ele>
        <time>2024-08-13T10:20:50Z</time>
      </trkpt>
      <trkpt lat="44.64683" lon="2.51339">
        <ele>228.4</ele>
        <time>2024-08-13T10:20:51Z</time>
      </trkpt>
      <trkpt lat="44.64687" lon="2.51346">
        <ele>228.5</ele>
        <time>2024-08-13T10:20:52Z</time>
      </trkpt>
      <trkpt lat="44.64691" lon="2.51353">
        <ele>228.5</ele>
        <time>2024-08-13T10:20:53Z</time>
      </trkpt>
      <trkpt lat="44.64694" lon="2.5136">
        <ele>228.5</ele>
        <time>2024-08-13T10:20:54Z</time>
      </trkpt>
      <trkpt lat="44.64696" lon="2.51367">
        <ele>228.6</ele>
        <time>2024-08-13T10:20:55Z</time>
      </trkpt>
      <trkpt lat="44.64698" lon="2.51373">
        <ele>228.6</ele>
        <time>2024-08-13T10:20:56Z</time>
      </trkpt>
      <trkpt lat="44.647" lon="2.5138">
        <ele>228.6</ele>
        <time>2024-08-13T10:20:57Z</time>
      </trkpt>
      <trkpt lat="44.64702" lon="2.51386">
        <ele>228.6</ele>
        <time>2024-08-13T10:20:58Z</time>
      </trkpt>
      <trkpt lat="44.64704" lon="2.51393">
        <ele>228.7</ele>
        <time>2024-08-13T10:20:59Z</time>
      </trkpt>
      <trkpt lat="44.64707" lon="2.51401">
        <ele>228.7</ele>
        <time>2024-08-13T10:21:00Z</time>
      </trkpt>
      <trkpt lat="44.64714" lon="2.51417">
        <ele>228.6</ele>
        <time>2024-08-13T10:21:02Z</time>
      </trkpt>
      <trkpt lat="44.64722" lon="2.51434">
        <ele>228.6</ele>
        <time>2024-08-13T10:21:04Z</time>
      </trkpt>
      <trkpt lat="44.64727" lon="2.51442">
        <ele>228.7</ele>
        <time>2024-08-13T10:21:05Z</time>
      </trkpt>
      <trkpt lat="44.64732" lon="2.5145">
        <ele>228.7</ele>
        <time>2024-08-13T10:21:06Z</time>
      </trkpt>
      <trkpt lat="44.64741" lon="2.51466">
        <ele>228.7</ele>
        <time>2024-08-13T10:21:08Z</time>
      </trkpt>
      <trkpt lat="44.6475" lon="2.5148">
        <ele>228.6</ele>
        <time>2024-08-13T10:21:10Z</time>
      </trkpt>
      <trkpt lat="44.64753" lon="2.51487">
        <ele>228.6</ele>
        <time>2024-08-13T10:21:11Z</time>
      </trkpt>
      <trkpt lat="44.64756" lon="2.51493">
        <ele>228.6</ele>
        <time>2024-08-13T10:21:12Z</time>
      </trkpt>
      <trkpt lat="44.6476" lon="2.51503">
        <ele>228.6</ele>
        <time>2024-08-13T10:21:14Z</time>
      </trkpt>
      <trkpt lat="44.64765" lon="2.51514">
        <ele>228.6</ele>
        <time>2024-08-13T10:21:16Z</time>
      </trkpt>
      <trkpt lat="44.64773" lon="2.51526">
        <ele>228.6</ele>
        <time>2024-08-13T10:21:18Z</time>
      </trkpt>
      <trkpt lat="44.6478" lon="2.51537">
        <ele>228.6</ele>
        <time>2024-08-13T10:21:20Z</time>
      </trkpt>
      <trkpt lat="44.64786" lon="2.51544">
        <ele>228.7</ele>
        <time>2024-08-13T10:21:21Z</time>
      </trkpt>
      <trkpt lat="44.64792" lon="2.51551">
        <ele>228.7</ele>
        <time>2024-08-13T10:21:22Z</time>
      </trkpt>
      <trkpt lat="44.64803" lon="2.51566">
        <ele>228.7</ele>
        <time>2024-08-13T10:21:24Z</time>
      </trkpt>
      <trkpt lat="44.64816" lon="2.51581">
        <ele>228.7</ele>
        <time>2024-08-13T10:21:26Z</time>
      </trkpt>
      <trkpt lat="44.64822" lon="2.5159">
        <ele>228.7</ele>
        <time>2024-08-13T10:21:27Z</time>
      </trkpt>
      <trkpt lat="44.64826" lon="2.51598">
        <ele>228.7</ele>
        <time>2024-08-13T10:21:28Z</time>
      </trkpt>
      <trkpt lat="44.64832" lon="2.51616">
        <ele>228.7</ele>
        <time>2024-08-13T10:21:30Z</time>
      </trkpt>
      <trkpt lat="44.64835" lon="2.51625">
        <ele>228.7</ele>
        <time>2024-08-13T10:21:31Z</time>
      </trkpt>
      <trkpt lat="44.64837" lon="2.51634">
        <ele>228.7</ele>
        <time>2024-08-13T10:21:32Z</time>
      </trkpt>
      <trkpt lat="44.6484" lon="2.51652">
        <ele>228.7</ele>
        <time>2024-08-13T10:21:34Z</time>
      </trkpt>
      <trkpt lat="44.64845" lon="2.51671">
        <ele>228.7</ele>
        <time>2024-08-13T10:21:36Z</time>
      </trkpt>
      <trkpt lat="44.64848" lon="2.51688">
        <ele>228.8</ele>
        <time>2024-08-13T10:21:38Z</time>
      </trkpt>
      <trkpt lat="44.64851" lon="2.51698">
        <ele>228.8</ele>
        <time>2024-08-13T10:21:39Z</time>
      </trkpt>
      <trkpt lat="44.64853" lon="2.51707">
        <ele>228.8</ele>
        <time>2024-08-13T10:21:40Z</time>
      </trkpt>
      <trkpt lat="44.64856" lon="2.51718">
        <ele>228.9</ele>
        <time>2024-08-13T10:21:41Z</time>
      </trkpt>
      <trkpt lat="44.64858" lon="2.51728">
        <ele>228.9</ele>
        <time>2024-08-13T10:21:42Z</time>
      </trkpt>
      <trkpt lat="44.6486" lon="2.51747">
        <ele>228.9</ele>
        <time>2024-08-13T10:21:44Z</time>
      </trkpt>
      <trkpt lat="44.64859" lon="2.51767">
        <ele>229</ele>
        <time>2024-08-13T10:21:46Z</time>
      </trkpt>
      <trkpt lat="44.64859" lon="2.51776">
        <ele>229</ele>
        <time>2024-08-13T10:21:47Z</time>
      </trkpt>
      <trkpt lat="44.64858" lon="2.51785">
        <ele>229</ele>
        <time>2024-08-13T10:21:48Z</time>
      </trkpt>
      <trkpt lat="44.64856" lon="2.51804">
        <ele>229</ele>
        <time>2024-08-13T10:21:50Z</time>
      </trkpt>
      <trkpt lat="44.64854" lon="2.51822">
        <ele>229</ele>
        <time>2024-08-13T10:21:52Z</time>
      </trkpt>
      <trkpt lat="44.64853" lon="2.51831">
        <ele>229</ele>
        <time>2024-08-13T10:21:53Z</time>
      </trkpt>
      <trkpt lat="44.64852" lon="2.51841">
        <ele>229</ele>
        <time>2024-08-13T10:21:54Z</time>
      </trkpt>
      <trkpt lat="44.64849" lon="2.51859">
        <ele>228.9</ele>
        <time>2024-08-13T10:21:56Z</time>
      </trkpt>
      <trkpt lat="44.64845" lon="2.51878">
        <ele>228.9</ele>
        <time>2024-08-13T10:21:58Z</time>
      </trkpt>
      <trkpt lat="44.6484" lon="2.51897">
        <ele>228.9</ele>
        <time>2024-08-13T10:22:00Z</time>
      </trkpt>
      <trkpt lat="44.64834" lon="2.51914">
        <ele>228.9</ele>
        <time>2024-08-13T10:22:02Z</time>
      </trkpt>
      <trkpt lat="44.64826" lon="2.51931">
        <ele>229</ele>
        <time>2024-08-13T10:22:04Z</time>
      </trkpt>
      <trkpt lat="44.64818" lon="2.51947">
        <ele>229</ele>
        <time>2024-08-13T10:22:06Z</time>
      </trkpt>
      <trkpt lat="44.6481" lon="2.51963">
        <ele>229.1</ele>
        <time>2024-08-13T10:22:08Z</time>
      </trkpt>
      <trkpt lat="44.64801" lon="2.5198">
        <ele>229.2</ele>
        <time>2024-08-13T10:22:10Z</time>
      </trkpt>
      <trkpt lat="44.64793" lon="2.51996">
        <ele>229.2</ele>
        <time>2024-08-13T10:22:12Z</time>
      </trkpt>
      <trkpt lat="44.64789" lon="2.52004">
        <ele>229.3</ele>
        <time>2024-08-13T10:22:13Z</time>
      </trkpt>
      <trkpt lat="44.64785" lon="2.52012">
        <ele>229.3</ele>
        <time>2024-08-13T10:22:14Z</time>
      </trkpt>
      <trkpt lat="44.64778" lon="2.52028">
        <ele>229.3</ele>
        <time>2024-08-13T10:22:16Z</time>
      </trkpt>
      <trkpt lat="44.64769" lon="2.52044">
        <ele>229.3</ele>
        <time>2024-08-13T10:22:18Z</time>
      </trkpt>
      <trkpt lat="44.6476" lon="2.52061">
        <ele>229.2</ele>
        <time>2024-08-13T10:22:20Z</time>
      </trkpt>
      <trkpt lat="44.64752" lon="2.52078">
        <ele>229</ele>
        <time>2024-08-13T10:22:22Z</time>
      </trkpt>
      <trkpt lat="44.64743" lon="2.52095">
        <ele>228.9</ele>
        <time>2024-08-13T10:22:24Z</time>
      </trkpt>
      <trkpt lat="44.64733" lon="2.52109">
        <ele>228.9</ele>
        <time>2024-08-13T10:22:26Z</time>
      </trkpt>
      <trkpt lat="44.6472" lon="2.5212">
        <ele>228.8</ele>
        <time>2024-08-13T10:22:28Z</time>
      </trkpt>
      <trkpt lat="44.64706" lon="2.52129">
        <ele>228.7</ele>
        <time>2024-08-13T10:22:30Z</time>
      </trkpt>
      <trkpt lat="44.64693" lon="2.52135">
        <ele>228.6</ele>
        <time>2024-08-13T10:22:32Z</time>
      </trkpt>
      <trkpt lat="44.64678" lon="2.52141">
        <ele>228.5</ele>
        <time>2024-08-13T10:22:34Z</time>
      </trkpt>
      <trkpt lat="44.64664" lon="2.52147">
        <ele>228.5</ele>
        <time>2024-08-13T10:22:36Z</time>
      </trkpt>
      <trkpt lat="44.6465" lon="2.52154">
        <ele>228.5</ele>
        <time>2024-08-13T10:22:38Z</time>
      </trkpt>
      <trkpt lat="44.64636" lon="2.52161">
        <ele>228.6</ele>
        <time>2024-08-13T10:22:40Z</time>
      </trkpt>
      <trkpt lat="44.64622" lon="2.52169">
        <ele>228.6</ele>
        <time>2024-08-13T10:22:42Z</time>
      </trkpt>
      <trkpt lat="44.64616" lon="2.52175">
        <ele>228.7</ele>
        <time>2024-08-13T10:22:43Z</time>
      </trkpt>
      <trkpt lat="44.6461" lon="2.5218">
        <ele>228.7</ele>
        <time>2024-08-13T10:22:44Z</time>
      </trkpt>
      <trkpt lat="44.64599" lon="2.52194">
        <ele>228.8</ele>
        <time>2024-08-13T10:22:46Z</time>
      </trkpt>
      <trkpt lat="44.64594" lon="2.52202">
        <ele>228.8</ele>
        <time>2024-08-13T10:22:47Z</time>
      </trkpt>
      <trkpt lat="44.6459" lon="2.5221">
        <ele>228.8</ele>
        <time>2024-08-13T10:22:48Z</time>
      </trkpt>
      <trkpt lat="44.64584" lon="2.52229">
        <ele>228.7</ele>
        <time>2024-08-13T10:22:50Z</time>
      </trkpt>
      <trkpt lat="44.64581" lon="2.52239">
        <ele>228.7</ele>
        <time>2024-08-13T10:22:51Z</time>
      </trkpt>
      <trkpt lat="44.64579" lon="2.52248">
        <ele>228.8</ele>
        <time>2024-08-13T10:22:52Z</time>
      </trkpt>
      <trkpt lat="44.64575" lon="2.52267">
        <ele>228.8</ele>
        <time>2024-08-13T10:22:54Z</time>
      </trkpt>
      <trkpt lat="44.64575" lon="2.52276">
        <ele>228.8</ele>
        <time>2024-08-13T10:22:55Z</time>
      </trkpt>
      <trkpt lat="44.64575" lon="2.52285">
        <ele>228.8</ele>
        <time>2024-08-13T10:22:56Z</time>
      </trkpt>
      <trkpt lat="44.64577" lon="2.52302">
        <ele>228.8</ele>
        <time>2024-08-13T10:22:58Z</time>
      </trkpt>
      <trkpt lat="44.64579" lon="2.5231">
        <ele>228.8</ele>
        <time>2024-08-13T10:22:59Z</time>
      </trkpt>
      <trkpt lat="44.64581" lon="2.52318">
        <ele>228.7</ele>
        <time>2024-08-13T10:23:00Z</time>
      </trkpt>
      <trkpt lat="44.64589" lon="2.52335">
        <ele>228.7</ele>
        <time>2024-08-13T10:23:02Z</time>
      </trkpt>
      <trkpt lat="44.64593" lon="2.52343">
        <ele>228.7</ele>
        <time>2024-08-13T10:23:03Z</time>
      </trkpt>
      <trkpt lat="44.64597" lon="2.52349">
        <ele>228.7</ele>
        <time>2024-08-13T10:23:04Z</time>
      </trkpt>
      <trkpt lat="44.64604" lon="2.52362">
        <ele>228.7</ele>
        <time>2024-08-13T10:23:06Z</time>
      </trkpt>
      <trkpt lat="44.64614" lon="2.52375">
        <ele>228.8</ele>
        <time>2024-08-13T10:23:08Z</time>
      </trkpt>
      <trkpt lat="44.64625" lon="2.52388">
        <ele>228.9</ele>
        <time>2024-08-13T10:23:10Z</time>
      </trkpt>
      <trkpt lat="44.64636" lon="2.52401">
        <ele>229</ele>
        <time>2024-08-13T10:23:12Z</time>
      </trkpt>
      <trkpt lat="44.64642" lon="2.52407">
        <ele>229.1</ele>
        <time>2024-08-13T10:23:13Z</time>
      </trkpt>
      <trkpt lat="44.64648" lon="2.52412">
        <ele>229.1</ele>
        <time>2024-08-13T10:23:14Z</time>
      </trkpt>
      <trkpt lat="44.64662" lon="2.52425">
        <ele>229.2</ele>
        <time>2024-08-13T10:23:16Z</time>
      </trkpt>
      <trkpt lat="44.6467" lon="2.52433">
        <ele>229.2</ele>
        <time>2024-08-13T10:23:17Z</time>
      </trkpt>
      <trkpt lat="44.64676" lon="2.5244">
        <ele>229.2</ele>
        <time>2024-08-13T10:23:18Z</time>
      </trkpt>
      <trkpt lat="44.64687" lon="2.52455">
        <ele>229.3</ele>
        <time>2024-08-13T10:23:20Z</time>
      </trkpt>
      <trkpt lat="44.64693" lon="2.52461">
        <ele>229.3</ele>
        <time>2024-08-13T10:23:21Z</time>
      </trkpt>
      <trkpt lat="44.647" lon="2.52467">
        <ele>229.3</ele>
        <time>2024-08-13T10:23:22Z</time>
      </trkpt>
      <trkpt lat="44.64714" lon="2.52478">
        <ele>229.4</ele>
        <time>2024-08-13T10:23:24Z</time>
      </trkpt>
      <trkpt lat="44.64726" lon="2.52487">
        <ele>229.5</ele>
        <time>2024-08-13T10:23:26Z</time>
      </trkpt>
      <trkpt lat="44.64737" lon="2.52497">
        <ele>229.6</ele>
        <time>2024-08-13T10:23:28Z</time>
      </trkpt>
      <trkpt lat="44.64745" lon="2.52507">
        <ele>229.7</ele>
        <time>2024-08-13T10:23:30Z</time>
      </trkpt>
      <trkpt lat="44.64754" lon="2.52518">
        <ele>229.7</ele>
        <time>2024-08-13T10:23:32Z</time>
      </trkpt>
      <trkpt lat="44.64761" lon="2.5253">
        <ele>229.8</ele>
        <time>2024-08-13T10:23:34Z</time>
      </trkpt>
      <trkpt lat="44.64767" lon="2.52544">
        <ele>229.8</ele>
        <time>2024-08-13T10:23:36Z</time>
      </trkpt>
      <trkpt lat="44.6477" lon="2.52558">
        <ele>229.9</ele>
        <time>2024-08-13T10:23:38Z</time>
      </trkpt>
      <trkpt lat="44.64773" lon="2.52572">
        <ele>229.9</ele>
        <time>2024-08-13T10:23:40Z</time>
      </trkpt>
      <trkpt lat="44.64778" lon="2.52586">
        <ele>229.9</ele>
        <time>2024-08-13T10:23:42Z</time>
      </trkpt>
      <trkpt lat="44.64783" lon="2.52595">
        <ele>230</ele>
        <time>2024-08-13T10:23:43Z</time>
      </trkpt>
      <trkpt lat="44.64786" lon="2.52604">
        <ele>230</ele>
        <time>2024-08-13T10:23:44Z</time>
      </trkpt>
      <trkpt lat="44.64789" lon="2.52612">
        <ele>230</ele>
        <time>2024-08-13T10:23:45Z</time>
      </trkpt>
      <trkpt lat="44.64791" lon="2.52621">
        <ele>229.9</ele>
        <time>2024-08-13T10:23:46Z</time>
      </trkpt>
      <trkpt lat="44.64792" lon="2.52637">
        <ele>229.9</ele>
        <time>2024-08-13T10:23:48Z</time>
      </trkpt>
      <trkpt lat="44.64793" lon="2.52654">
        <ele>230</ele>
        <time>2024-08-13T10:23:50Z</time>
      </trkpt>
      <trkpt lat="44.64795" lon="2.5267">
        <ele>230</ele>
        <time>2024-08-13T10:23:52Z</time>
      </trkpt>
      <trkpt lat="44.64797" lon="2.52685">
        <ele>230.1</ele>
        <time>2024-08-13T10:23:54Z</time>
      </trkpt>
      <trkpt lat="44.64796" lon="2.527">
        <ele>230.1</ele>
        <time>2024-08-13T10:23:56Z</time>
      </trkpt>
      <trkpt lat="44.64794" lon="2.52716">
        <ele>230.1</ele>
        <time>2024-08-13T10:23:58Z</time>
      </trkpt>
      <trkpt lat="44.6479" lon="2.52731">
        <ele>230.2</ele>
        <time>2024-08-13T10:24:00Z</time>
      </trkpt>
      <trkpt lat="44.64785" lon="2.52745">
        <ele>230.2</ele>
        <time>2024-08-13T10:24:02Z</time>
      </trkpt>
      <trkpt lat="44.64781" lon="2.52758">
        <ele>230.3</ele>
        <time>2024-08-13T10:24:04Z</time>
      </trkpt>
      <trkpt lat="44.64779" lon="2.52764">
        <ele>230.4</ele>
        <time>2024-08-13T10:24:05Z</time>
      </trkpt>
      <trkpt lat="44.64777" lon="2.5277">
        <ele>230.4</ele>
        <time>2024-08-13T10:24:06Z</time>
      </trkpt>
      <trkpt lat="44.64773" lon="2.52782">
        <ele>230.5</ele>
        <time>2024-08-13T10:24:08Z</time>
      </trkpt>
      <trkpt lat="44.64769" lon="2.52793">
        <ele>230.6</ele>
        <time>2024-08-13T10:24:10Z</time>
      </trkpt>
      <trkpt lat="44.64767" lon="2.52798">
        <ele>230.6</ele>
        <time>2024-08-13T10:24:11Z</time>
      </trkpt>
      <trkpt lat="44.64765" lon="2.52804">
        <ele>230.7</ele>
        <time>2024-08-13T10:24:12Z</time>
      </trkpt>
      <trkpt lat="44.64763" lon="2.52817">
        <ele>230.7</ele>
        <time>2024-08-13T10:24:14Z</time>
      </trkpt>
      <trkpt lat="44.64762" lon="2.52823">
        <ele>230.7</ele>
        <time>2024-08-13T10:24:15Z</time>
      </trkpt>
      <trkpt lat="44.64761" lon="2.5283">
        <ele>230.7</ele>
        <time>2024-08-13T10:24:16Z</time>
      </trkpt>
      <trkpt lat="44.64761" lon="2.52836">
        <ele>230.7</ele>
        <time>2024-08-13T10:24:17Z</time>
      </trkpt>
      <trkpt lat="44.64762" lon="2.52843">
        <ele>230.7</ele>
        <time>2024-08-13T10:24:18Z</time>
      </trkpt>
      <trkpt lat="44.64762" lon="2.52849">
        <ele>230.7</ele>
        <time>2024-08-13T10:24:19Z</time>
      </trkpt>
      <trkpt lat="44.64762" lon="2.52855">
        <ele>230.7</ele>
        <time>2024-08-13T10:24:20Z</time>
      </trkpt>
      <trkpt lat="44.64763" lon="2.52867">
        <ele>230.7</ele>
        <time>2024-08-13T10:24:22Z</time>
      </trkpt>
      <trkpt lat="44.64764" lon="2.52879">
        <ele>230.7</ele>
        <time>2024-08-13T10:24:24Z</time>
      </trkpt>
      <trkpt lat="44.64765" lon="2.52886">
        <ele>230.7</ele>
        <time>2024-08-13T10:24:25Z</time>
      </trkpt>
      <trkpt lat="44.64766" lon="2.52892">
        <ele>230.7</ele>
        <time>2024-08-13T10:24:26Z</time>
      </trkpt>
      <trkpt lat="44.64769" lon="2.52906">
        <ele>230.8</ele>
        <time>2024-08-13T10:24:28Z</time>
      </trkpt>
      <trkpt lat="44.64771" lon="2.52919">
        <ele>230.8</ele>
        <time>2024-08-13T10:24:30Z</time>
      </trkpt>
      <trkpt lat="44.64772" lon="2.52931">
        <ele>230.8</ele>
        <time>2024-08-13T10:24:32Z</time>
      </trkpt>
      <trkpt lat="44.64773" lon="2.52938">
        <ele>230.8</ele>
        <time>2024-08-13T10:24:33Z</time>
      </trkpt>
      <trkpt lat="44.64774" lon="2.52945">
        <ele>230.8</ele>
        <time>2024-08-13T10:24:34Z</time>
      </trkpt>
      <trkpt lat="44.64774" lon="2.5296">
        <ele>230.8</ele>
        <time>2024-08-13T10:24:36Z</time>
      </trkpt>
      <trkpt lat="44.64774" lon="2.52976">
        <ele>230.9</ele>
        <time>2024-08-13T10:24:38Z</time>
      </trkpt>
      <trkpt lat="44.64774" lon="2.52992">
        <ele>230.9</ele>
        <time>2024-08-13T10:24:40Z</time>
      </trkpt>
      <trkpt lat="44.64773" lon="2.53007">
        <ele>230.8</ele>
        <time>2024-08-13T10:24:42Z</time>
      </trkpt>
      <trkpt lat="44.64772" lon="2.53022">
        <ele>230.7</ele>
        <time>2024-08-13T10:24:44Z</time>
      </trkpt>
      <trkpt lat="44.64769" lon="2.53037">
        <ele>230.7</ele>
        <time>2024-08-13T10:24:46Z</time>
      </trkpt>
      <trkpt lat="44.64766" lon="2.53051">
        <ele>230.6</ele>
        <time>2024-08-13T10:24:48Z</time>
      </trkpt>
      <trkpt lat="44.64764" lon="2.53059">
        <ele>230.6</ele>
        <time>2024-08-13T10:24:49Z</time>
      </trkpt>
      <trkpt lat="44.64762" lon="2.53066">
        <ele>230.6</ele>
        <time>2024-08-13T10:24:50Z</time>
      </trkpt>
      <trkpt lat="44.64758" lon="2.5308">
        <ele>230.7</ele>
        <time>2024-08-13T10:24:52Z</time>
      </trkpt>
      <trkpt lat="44.64755" lon="2.53093">
        <ele>230.7</ele>
        <time>2024-08-13T10:24:54Z</time>
      </trkpt>
      <trkpt lat="44.64754" lon="2.531">
        <ele>230.7</ele>
        <time>2024-08-13T10:24:55Z</time>
      </trkpt>
      <trkpt lat="44.64753" lon="2.53108">
        <ele>230.7</ele>
        <time>2024-08-13T10:24:56Z</time>
      </trkpt>
      <trkpt lat="44.6475" lon="2.53121">
        <ele>230.7</ele>
        <time>2024-08-13T10:24:58Z</time>
      </trkpt>
      <trkpt lat="44.64749" lon="2.53128">
        <ele>230.7</ele>
        <time>2024-08-13T10:24:59Z</time>
      </trkpt>
      <trkpt lat="44.64747" lon="2.53135">
        <ele>230.7</ele>
        <time>2024-08-13T10:25:00Z</time>
      </trkpt>
      <trkpt lat="44.64747" lon="2.53142">
        <ele>230.7</ele>
        <time>2024-08-13T10:25:01Z</time>
      </trkpt>
      <trkpt lat="44.64745" lon="2.5315">
        <ele>230.7</ele>
        <time>2024-08-13T10:25:02Z</time>
      </trkpt>
      <trkpt lat="44.64744" lon="2.53157">
        <ele>230.7</ele>
        <time>2024-08-13T10:25:03Z</time>
      </trkpt>
      <trkpt lat="44.64743" lon="2.53164">
        <ele>230.7</ele>
        <time>2024-08-13T10:25:04Z</time>
      </trkpt>
      <trkpt lat="44.64741" lon="2.53171">
        <ele>230.6</ele>
        <time>2024-08-13T10:25:05Z</time>
      </trkpt>
      <trkpt lat="44.6474" lon="2.53178">
        <ele>230.6</ele>
        <time>2024-08-13T10:25:06Z</time>
      </trkpt>
      <trkpt lat="44.64738" lon="2.53194">
        <ele>230.4</ele>
        <time>2024-08-13T10:25:08Z</time>
      </trkpt>
      <trkpt lat="44.64735" lon="2.53209">
        <ele>230.3</ele>
        <time>2024-08-13T10:25:10Z</time>
      </trkpt>
      <trkpt lat="44.64734" lon="2.53217">
        <ele>230.2</ele>
        <time>2024-08-13T10:25:11Z</time>
      </trkpt>
      <trkpt lat="44.64733" lon="2.53225">
        <ele>230.1</ele>
        <time>2024-08-13T10:25:12Z</time>
      </trkpt>
      <trkpt lat="44.64731" lon="2.5324">
        <ele>230</ele>
        <time>2024-08-13T10:25:14Z</time>
      </trkpt>
      <trkpt lat="44.64728" lon="2.53255">
        <ele>229.9</ele>
        <time>2024-08-13T10:25:16Z</time>
      </trkpt>
      <trkpt lat="44.64726" lon="2.5327">
        <ele>229.7</ele>
        <time>2024-08-13T10:25:18Z</time>
      </trkpt>
      <trkpt lat="44.64725" lon="2.53277">
        <ele>229.7</ele>
        <time>2024-08-13T10:25:19Z</time>
      </trkpt>
      <trkpt lat="44.64724" lon="2.53285">
        <ele>229.7</ele>
        <time>2024-08-13T10:25:20Z</time>
      </trkpt>
      <trkpt lat="44.64724" lon="2.53293">
        <ele>229.6</ele>
        <time>2024-08-13T10:25:21Z</time>
      </trkpt>
      <trkpt lat="44.64724" lon="2.53302">
        <ele>229.6</ele>
        <time>2024-08-13T10:25:22Z</time>
      </trkpt>
      <trkpt lat="44.64725" lon="2.53318">
        <ele>229.7</ele>
        <time>2024-08-13T10:25:24Z</time>
      </trkpt>
      <trkpt lat="44.64725" lon="2.53327">
        <ele>229.8</ele>
        <time>2024-08-13T10:25:25Z</time>
      </trkpt>
      <trkpt lat="44.64725" lon="2.53334">
        <ele>229.8</ele>
        <time>2024-08-13T10:25:26Z</time>
      </trkpt>
      <trkpt lat="44.64724" lon="2.53342">
        <ele>229.9</ele>
        <time>2024-08-13T10:25:27Z</time>
      </trkpt>
      <trkpt lat="44.64724" lon="2.5335">
        <ele>230.1</ele>
        <time>2024-08-13T10:25:28Z</time>
      </trkpt>
      <trkpt lat="44.64723" lon="2.53364">
        <ele>230.4</ele>
        <time>2024-08-13T10:25:30Z</time>
      </trkpt>
      <trkpt lat="44.64722" lon="2.53378">
        <ele>230.6</ele>
        <time>2024-08-13T10:25:32Z</time>
      </trkpt>
      <trkpt lat="44.6472" lon="2.53391">
        <ele>230.8</ele>
        <time>2024-08-13T10:25:34Z</time>
      </trkpt>
      <trkpt lat="44.64718" lon="2.53405">
        <ele>230.9</ele>
        <time>2024-08-13T10:25:36Z</time>
      </trkpt>
      <trkpt lat="44.64717" lon="2.53412">
        <ele>230.9</ele>
        <time>2024-08-13T10:25:37Z</time>
      </trkpt>
      <trkpt lat="44.64715" lon="2.53418">
        <ele>230.8</ele>
        <time>2024-08-13T10:25:38Z</time>
      </trkpt>
      <trkpt lat="44.64714" lon="2.53426">
        <ele>230.8</ele>
        <time>2024-08-13T10:25:39Z</time>
      </trkpt>
      <trkpt lat="44.64713" lon="2.53433">
        <ele>230.8</ele>
        <time>2024-08-13T10:25:40Z</time>
      </trkpt>
      <trkpt lat="44.64712" lon="2.53449">
        <ele>230.8</ele>
        <time>2024-08-13T10:25:42Z</time>
      </trkpt>
      <trkpt lat="44.64711" lon="2.53456">
        <ele>230.8</ele>
        <time>2024-08-13T10:25:43Z</time>
      </trkpt>
      <trkpt lat="44.6471" lon="2.53464">
        <ele>230.8</ele>
        <time>2024-08-13T10:25:44Z</time>
      </trkpt>
      <trkpt lat="44.64708" lon="2.53478">
        <ele>230.8</ele>
        <time>2024-08-13T10:25:46Z</time>
      </trkpt>
      <trkpt lat="44.64707" lon="2.53486">
        <ele>230.8</ele>
        <time>2024-08-13T10:25:47Z</time>
      </trkpt>
      <trkpt lat="44.64706" lon="2.53493">
        <ele>230.9</ele>
        <time>2024-08-13T10:25:48Z</time>
      </trkpt>
      <trkpt lat="44.64704" lon="2.53507">
        <ele>231</ele>
        <time>2024-08-13T10:25:50Z</time>
      </trkpt>
      <trkpt lat="44.64702" lon="2.53522">
        <ele>231</ele>
        <time>2024-08-13T10:25:52Z</time>
      </trkpt>
      <trkpt lat="44.647" lon="2.53536">
        <ele>231.1</ele>
        <time>2024-08-13T10:25:54Z</time>
      </trkpt>
      <trkpt lat="44.64698" lon="2.53543">
        <ele>231.2</ele>
        <time>2024-08-13T10:25:55Z</time>
      </trkpt>
      <trkpt lat="44.64697" lon="2.53549">
        <ele>231.2</ele>
        <time>2024-08-13T10:25:56Z</time>
      </trkpt>
      <trkpt lat="44.64694" lon="2.53563">
        <ele>231.3</ele>
        <time>2024-08-13T10:25:58Z</time>
      </trkpt>
      <trkpt lat="44.64692" lon="2.53577">
        <ele>231.4</ele>
        <time>2024-08-13T10:26:00Z</time>
      </trkpt>
      <trkpt lat="44.6469" lon="2.53584">
        <ele>231.4</ele>
        <time>2024-08-13T10:26:01Z</time>
      </trkpt>
      <trkpt lat="44.64689" lon="2.53591">
        <ele>231.5</ele>
        <time>2024-08-13T10:26:02Z</time>
      </trkpt>
      <trkpt lat="44.64688" lon="2.53606">
        <ele>231.6</ele>
        <time>2024-08-13T10:26:04Z</time>
      </trkpt>
      <trkpt lat="44.64687" lon="2.53613">
        <ele>231.6</ele>
        <time>2024-08-13T10:26:05Z</time>
      </trkpt>
      <trkpt lat="44.64686" lon="2.5362">
        <ele>231.6</ele>
        <time>2024-08-13T10:26:06Z</time>
      </trkpt>
      <trkpt lat="44.64685" lon="2.53627">
        <ele>231.7</ele>
        <time>2024-08-13T10:26:07Z</time>
      </trkpt>
      <trkpt lat="44.64685" lon="2.53635">
        <ele>231.7</ele>
        <time>2024-08-13T10:26:08Z</time>
      </trkpt>
      <trkpt lat="44.64686" lon="2.53649">
        <ele>231.7</ele>
        <time>2024-08-13T10:26:10Z</time>
      </trkpt>
      <trkpt lat="44.64686" lon="2.53656">
        <ele>231.7</ele>
        <time>2024-08-13T10:26:11Z</time>
      </trkpt>
      <trkpt lat="44.64686" lon="2.53663">
        <ele>231.7</ele>
        <time>2024-08-13T10:26:12Z</time>
      </trkpt>
      <trkpt lat="44.64687" lon="2.53679">
        <ele>231.7</ele>
        <time>2024-08-13T10:26:14Z</time>
      </trkpt>
      <trkpt lat="44.64688" lon="2.53686">
        <ele>231.7</ele>
        <time>2024-08-13T10:26:15Z</time>
      </trkpt>
      <trkpt lat="44.64689" lon="2.53693">
        <ele>231.7</ele>
        <time>2024-08-13T10:26:16Z</time>
      </trkpt>
      <trkpt lat="44.6469" lon="2.53708">
        <ele>231.8</ele>
        <time>2024-08-13T10:26:18Z</time>
      </trkpt>
      <trkpt lat="44.6469" lon="2.53723">
        <ele>231.9</ele>
        <time>2024-08-13T10:26:20Z</time>
      </trkpt>
      <trkpt lat="44.6469" lon="2.53738">
        <ele>232.1</ele>
        <time>2024-08-13T10:26:22Z</time>
      </trkpt>
      <trkpt lat="44.64689" lon="2.53746">
        <ele>232.2</ele>
        <time>2024-08-13T10:26:23Z</time>
      </trkpt>
      <trkpt lat="44.64689" lon="2.53753">
        <ele>232.2</ele>
        <time>2024-08-13T10:26:24Z</time>
      </trkpt>
      <trkpt lat="44.64689" lon="2.53766">
        <ele>232.3</ele>
        <time>2024-08-13T10:26:26Z</time>
      </trkpt>
      <trkpt lat="44.64691" lon="2.5378">
        <ele>232.4</ele>
        <time>2024-08-13T10:26:28Z</time>
      </trkpt>
      <trkpt lat="44.64695" lon="2.53791">
        <ele>232.3</ele>
        <time>2024-08-13T10:26:30Z</time>
      </trkpt>
      <trkpt lat="44.647" lon="2.53805">
        <ele>232.2</ele>
        <time>2024-08-13T10:26:32Z</time>
      </trkpt>
      <trkpt lat="44.64703" lon="2.53812">
        <ele>232.2</ele>
        <time>2024-08-13T10:26:33Z</time>
      </trkpt>
      <trkpt lat="44.64704" lon="2.5382">
        <ele>232.1</ele>
        <time>2024-08-13T10:26:34Z</time>
      </trkpt>
      <trkpt lat="44.64704" lon="2.53828">
        <ele>232.1</ele>
        <time>2024-08-13T10:26:35Z</time>
      </trkpt>
      <trkpt lat="44.64705" lon="2.53836">
        <ele>232</ele>
        <time>2024-08-13T10:26:36Z</time>
      </trkpt>
      <trkpt lat="44.64706" lon="2.53844">
        <ele>232</ele>
        <time>2024-08-13T10:26:37Z</time>
      </trkpt>
      <trkpt lat="44.64707" lon="2.53852">
        <ele>231.9</ele>
        <time>2024-08-13T10:26:38Z</time>
      </trkpt>
      <trkpt lat="44.64709" lon="2.53869">
        <ele>231.9</ele>
        <time>2024-08-13T10:26:40Z</time>
      </trkpt>
      <trkpt lat="44.6471" lon="2.53886">
        <ele>232</ele>
        <time>2024-08-13T10:26:42Z</time>
      </trkpt>
      <trkpt lat="44.64712" lon="2.53903">
        <ele>232</ele>
        <time>2024-08-13T10:26:44Z</time>
      </trkpt>
      <trkpt lat="44.64713" lon="2.53911">
        <ele>232</ele>
        <time>2024-08-13T10:26:45Z</time>
      </trkpt>
      <trkpt lat="44.64713" lon="2.53919">
        <ele>232</ele>
        <time>2024-08-13T10:26:46Z</time>
      </trkpt>
      <trkpt lat="44.64713" lon="2.53926">
        <ele>232</ele>
        <time>2024-08-13T10:26:47Z</time>
      </trkpt>
      <trkpt lat="44.64713" lon="2.53934">
        <ele>232</ele>
        <time>2024-08-13T10:26:48Z</time>
      </trkpt>
      <trkpt lat="44.64714" lon="2.53951">
        <ele>232.1</ele>
        <time>2024-08-13T10:26:50Z</time>
      </trkpt>
      <trkpt lat="44.64713" lon="2.53967">
        <ele>232.1</ele>
        <time>2024-08-13T10:26:52Z</time>
      </trkpt>
      <trkpt lat="44.64712" lon="2.53983">
        <ele>232.2</ele>
        <time>2024-08-13T10:26:54Z</time>
      </trkpt>
      <trkpt lat="44.6471" lon="2.53998">
        <ele>232.4</ele>
        <time>2024-08-13T10:26:56Z</time>
      </trkpt>
      <trkpt lat="44.64707" lon="2.54012">
        <ele>232.5</ele>
        <time>2024-08-13T10:26:58Z</time>
      </trkpt>
      <trkpt lat="44.64705" lon="2.54019">
        <ele>232.6</ele>
        <time>2024-08-13T10:26:59Z</time>
      </trkpt>
      <trkpt lat="44.64704" lon="2.54026">
        <ele>232.6</ele>
        <time>2024-08-13T10:27:00Z</time>
      </trkpt>
      <trkpt lat="44.64703" lon="2.54033">
        <ele>232.6</ele>
        <time>2024-08-13T10:27:01Z</time>
      </trkpt>
      <trkpt lat="44.64702" lon="2.5404">
        <ele>232.7</ele>
        <time>2024-08-13T10:27:02Z</time>
      </trkpt>
      <trkpt lat="44.647" lon="2.54052">
        <ele>232.8</ele>
        <time>2024-08-13T10:27:04Z</time>
      </trkpt>
      <trkpt lat="44.647" lon="2.54059">
        <ele>232.8</ele>
        <time>2024-08-13T10:27:05Z</time>
      </trkpt>
      <trkpt lat="44.64699" lon="2.54067">
        <ele>232.8</ele>
        <time>2024-08-13T10:27:06Z</time>
      </trkpt>
      <trkpt lat="44.64698" lon="2.54081">
        <ele>232.8</ele>
        <time>2024-08-13T10:27:08Z</time>
      </trkpt>
      <trkpt lat="44.64696" lon="2.54088">
        <ele>232.8</ele>
        <time>2024-08-13T10:27:09Z</time>
      </trkpt>
      <trkpt lat="44.64694" lon="2.54095">
        <ele>232.8</ele>
        <time>2024-08-13T10:27:10Z</time>
      </trkpt>
      <trkpt lat="44.64693" lon="2.54102">
        <ele>232.8</ele>
        <time>2024-08-13T10:27:11Z</time>
      </trkpt>
      <trkpt lat="44.64692" lon="2.5411">
        <ele>232.9</ele>
        <time>2024-08-13T10:27:12Z</time>
      </trkpt>
      <trkpt lat="44.6469" lon="2.54126">
        <ele>232.9</ele>
        <time>2024-08-13T10:27:14Z</time>
      </trkpt>
      <trkpt lat="44.64687" lon="2.5414">
        <ele>233</ele>
        <time>2024-08-13T10:27:16Z</time>
      </trkpt>
      <trkpt lat="44.64685" lon="2.54154">
        <ele>233</ele>
        <time>2024-08-13T10:27:18Z</time>
      </trkpt>
      <trkpt lat="44.64683" lon="2.54169">
        <ele>233.1</ele>
        <time>2024-08-13T10:27:20Z</time>
      </trkpt>
      <trkpt lat="44.6468" lon="2.54183">
        <ele>233.2</ele>
        <time>2024-08-13T10:27:22Z</time>
      </trkpt>
      <trkpt lat="44.64677" lon="2.54198">
        <ele>233.2</ele>
        <time>2024-08-13T10:27:24Z</time>
      </trkpt>
      <trkpt lat="44.64674" lon="2.54212">
        <ele>233.2</ele>
        <time>2024-08-13T10:27:26Z</time>
      </trkpt>
      <trkpt lat="44.64672" lon="2.5422">
        <ele>233.2</ele>
        <time>2024-08-13T10:27:27Z</time>
      </trkpt>
      <trkpt lat="44.64671" lon="2.54227">
        <ele>233.2</ele>
        <time>2024-08-13T10:27:28Z</time>
      </trkpt>
      <trkpt lat="44.64669" lon="2.54242">
        <ele>233.2</ele>
        <time>2024-08-13T10:27:30Z</time>
      </trkpt>
      <trkpt lat="44.64668" lon="2.54257">
        <ele>233.1</ele>
        <time>2024-08-13T10:27:32Z</time>
      </trkpt>
      <trkpt lat="44.64667" lon="2.54273">
        <ele>233</ele>
        <time>2024-08-13T10:27:34Z</time>
      </trkpt>
      <trkpt lat="44.64666" lon="2.54281">
        <ele>233</ele>
        <time>2024-08-13T10:27:35Z</time>
      </trkpt>
      <trkpt lat="44.64664" lon="2.54289">
        <ele>233</ele>
        <time>2024-08-13T10:27:36Z</time>
      </trkpt>
      <trkpt lat="44.64662" lon="2.54296">
        <ele>233</ele>
        <time>2024-08-13T10:27:37Z</time>
      </trkpt>
      <trkpt lat="44.64659" lon="2.54304">
        <ele>233</ele>
        <time>2024-08-13T10:27:38Z</time>
      </trkpt>
      <trkpt lat="44.64656" lon="2.5432">
        <ele>233.1</ele>
        <time>2024-08-13T10:27:40Z</time>
      </trkpt>
      <trkpt lat="44.64654" lon="2.54336">
        <ele>233.1</ele>
        <time>2024-08-13T10:27:42Z</time>
      </trkpt>
      <trkpt lat="44.64652" lon="2.54351">
        <ele>233.1</ele>
        <time>2024-08-13T10:27:44Z</time>
      </trkpt>
      <trkpt lat="44.64652" lon="2.54359">
        <ele>233.1</ele>
        <time>2024-08-13T10:27:45Z</time>
      </trkpt>
      <trkpt lat="44.64651" lon="2.54367">
        <ele>233.2</ele>
        <time>2024-08-13T10:27:46Z</time>
      </trkpt>
      <trkpt lat="44.64651" lon="2.54375">
        <ele>233.2</ele>
        <time>2024-08-13T10:27:47Z</time>
      </trkpt>
      <trkpt lat="44.64652" lon="2.54383">
        <ele>233.2</ele>
        <time>2024-08-13T10:27:48Z</time>
      </trkpt>
      <trkpt lat="44.64651" lon="2.54398">
        <ele>233.2</ele>
        <time>2024-08-13T10:27:50Z</time>
      </trkpt>
      <trkpt lat="44.64651" lon="2.54413">
        <ele>233.2</ele>
        <time>2024-08-13T10:27:52Z</time>
      </trkpt>
      <trkpt lat="44.64651" lon="2.54421">
        <ele>233.2</ele>
        <time>2024-08-13T10:27:53Z</time>
      </trkpt>
      <trkpt lat="44.64651" lon="2.54429">
        <ele>233.1</ele>
        <time>2024-08-13T10:27:54Z</time>
      </trkpt>
      <trkpt lat="44.64651" lon="2.54446">
        <ele>233.1</ele>
        <time>2024-08-13T10:27:56Z</time>
      </trkpt>
      <trkpt lat="44.64649" lon="2.54464">
        <ele>233</ele>
        <time>2024-08-13T10:27:58Z</time>
      </trkpt>
      <trkpt lat="44.64649" lon="2.54472">
        <ele>233</ele>
        <time>2024-08-13T10:27:59Z</time>
      </trkpt>
      <trkpt lat="44.64647" lon="2.54481">
        <ele>233</ele>
        <time>2024-08-13T10:28:00Z</time>
      </trkpt>
      <trkpt lat="44.64645" lon="2.54498">
        <ele>232.9</ele>
        <time>2024-08-13T10:28:02Z</time>
      </trkpt>
      <trkpt lat="44.64642" lon="2.54514">
        <ele>232.8</ele>
        <time>2024-08-13T10:28:04Z</time>
      </trkpt>
      <trkpt lat="44.64642" lon="2.54523">
        <ele>232.8</ele>
        <time>2024-08-13T10:28:05Z</time>
      </trkpt>
      <trkpt lat="44.64641" lon="2.54532">
        <ele>232.8</ele>
        <time>2024-08-13T10:28:06Z</time>
      </trkpt>
      <trkpt lat="44.6464" lon="2.54548">
        <ele>232.7</ele>
        <time>2024-08-13T10:28:08Z</time>
      </trkpt>
      <trkpt lat="44.64639" lon="2.54566">
        <ele>232.7</ele>
        <time>2024-08-13T10:28:10Z</time>
      </trkpt>
      <trkpt lat="44.64637" lon="2.54583">
        <ele>232.7</ele>
        <time>2024-08-13T10:28:12Z</time>
      </trkpt>
      <trkpt lat="44.64635" lon="2.54599">
        <ele>232.7</ele>
        <time>2024-08-13T10:28:14Z</time>
      </trkpt>
      <trkpt lat="44.64632" lon="2.54615">
        <ele>232.6</ele>
        <time>2024-08-13T10:28:16Z</time>
      </trkpt>
      <trkpt lat="44.6463" lon="2.54632">
        <ele>232.5</ele>
        <time>2024-08-13T10:28:18Z</time>
      </trkpt>
      <trkpt lat="44.64627" lon="2.54648">
        <ele>232.4</ele>
        <time>2024-08-13T10:28:20Z</time>
      </trkpt>
      <trkpt lat="44.64625" lon="2.54664">
        <ele>232.4</ele>
        <time>2024-08-13T10:28:22Z</time>
      </trkpt>
      <trkpt lat="44.64624" lon="2.54672">
        <ele>232.3</ele>
        <time>2024-08-13T10:28:23Z</time>
      </trkpt>
      <trkpt lat="44.64625" lon="2.54681">
        <ele>232.3</ele>
        <time>2024-08-13T10:28:24Z</time>
      </trkpt>
      <trkpt lat="44.64625" lon="2.54696">
        <ele>232.3</ele>
        <time>2024-08-13T10:28:26Z</time>
      </trkpt>
      <trkpt lat="44.64625" lon="2.54712">
        <ele>232.3</ele>
        <time>2024-08-13T10:28:28Z</time>
      </trkpt>
      <trkpt lat="44.64625" lon="2.54721">
        <ele>232.4</ele>
        <time>2024-08-13T10:28:29Z</time>
      </trkpt>
      <trkpt lat="44.64625" lon="2.5473">
        <ele>232.4</ele>
        <time>2024-08-13T10:28:30Z</time>
      </trkpt>
      <trkpt lat="44.64625" lon="2.54738">
        <ele>232.5</ele>
        <time>2024-08-13T10:28:31Z</time>
      </trkpt>
      <trkpt lat="44.64625" lon="2.54747">
        <ele>232.5</ele>
        <time>2024-08-13T10:28:32Z</time>
      </trkpt>
      <trkpt lat="44.64624" lon="2.54764">
        <ele>232.6</ele>
        <time>2024-08-13T10:28:34Z</time>
      </trkpt>
      <trkpt lat="44.64623" lon="2.54781">
        <ele>232.7</ele>
        <time>2024-08-13T10:28:36Z</time>
      </trkpt>
      <trkpt lat="44.6462" lon="2.54797">
        <ele>232.8</ele>
        <time>2024-08-13T10:28:38Z</time>
      </trkpt>
      <trkpt lat="44.64616" lon="2.54812">
        <ele>232.8</ele>
        <time>2024-08-13T10:28:40Z</time>
      </trkpt>
      <trkpt lat="44.64611" lon="2.54828">
        <ele>232.8</ele>
        <time>2024-08-13T10:28:42Z</time>
      </trkpt>
      <trkpt lat="44.64605" lon="2.54842">
        <ele>232.7</ele>
        <time>2024-08-13T10:28:44Z</time>
      </trkpt>
      <trkpt lat="44.64599" lon="2.54857">
        <ele>232.7</ele>
        <time>2024-08-13T10:28:46Z</time>
      </trkpt>
      <trkpt lat="44.64593" lon="2.54872">
        <ele>232.6</ele>
        <time>2024-08-13T10:28:48Z</time>
      </trkpt>
      <trkpt lat="44.64586" lon="2.54887">
        <ele>232.5</ele>
        <time>2024-08-13T10:28:50Z</time>
      </trkpt>
      <trkpt lat="44.6458" lon="2.54902">
        <ele>232.5</ele>
        <time>2024-08-13T10:28:52Z</time>
      </trkpt>
      <trkpt lat="44.64573" lon="2.54917">
        <ele>232.4</ele>
        <time>2024-08-13T10:28:54Z</time>
      </trkpt>
      <trkpt lat="44.64569" lon="2.54924">
        <ele>232.4</ele>
        <time>2024-08-13T10:28:55Z</time>
      </trkpt>
      <trkpt lat="44.64566" lon="2.54931">
        <ele>232.4</ele>
        <time>2024-08-13T10:28:56Z</time>
      </trkpt>
      <trkpt lat="44.64558" lon="2.54945">
        <ele>232.4</ele>
        <time>2024-08-13T10:28:58Z</time>
      </trkpt>
      <trkpt lat="44.6455" lon="2.54958">
        <ele>232.4</ele>
        <time>2024-08-13T10:29:00Z</time>
      </trkpt>
      <trkpt lat="44.64545" lon="2.54965">
        <ele>232.3</ele>
        <time>2024-08-13T10:29:01Z</time>
      </trkpt>
      <trkpt lat="44.64541" lon="2.54971">
        <ele>232.3</ele>
        <time>2024-08-13T10:29:02Z</time>
      </trkpt>
      <trkpt lat="44.64532" lon="2.54984">
        <ele>232.3</ele>
        <time>2024-08-13T10:29:04Z</time>
      </trkpt>
      <trkpt lat="44.64524" lon="2.54997">
        <ele>232.3</ele>
        <time>2024-08-13T10:29:06Z</time>
      </trkpt>
      <trkpt lat="44.64515" lon="2.55009">
        <ele>232.3</ele>
        <time>2024-08-13T10:29:08Z</time>
      </trkpt>
      <trkpt lat="44.64505" lon="2.55021">
        <ele>232.2</ele>
        <time>2024-08-13T10:29:10Z</time>
      </trkpt>
      <trkpt lat="44.64496" lon="2.55034">
        <ele>232.1</ele>
        <time>2024-08-13T10:29:12Z</time>
      </trkpt>
      <trkpt lat="44.64486" lon="2.55045">
        <ele>232.1</ele>
        <time>2024-08-13T10:29:14Z</time>
      </trkpt>
      <trkpt lat="44.64475" lon="2.55055">
        <ele>232</ele>
        <time>2024-08-13T10:29:16Z</time>
      </trkpt>
      <trkpt lat="44.64469" lon="2.5506">
        <ele>232</ele>
        <time>2024-08-13T10:29:17Z</time>
      </trkpt>
      <trkpt lat="44.64464" lon="2.55065">
        <ele>232</ele>
        <time>2024-08-13T10:29:18Z</time>
      </trkpt>
      <trkpt lat="44.64453" lon="2.55074">
        <ele>232</ele>
        <time>2024-08-13T10:29:20Z</time>
      </trkpt>
      <trkpt lat="44.64442" lon="2.55083">
        <ele>232.1</ele>
        <time>2024-08-13T10:29:22Z</time>
      </trkpt>
      <trkpt lat="44.64431" lon="2.55092">
        <ele>232.1</ele>
        <time>2024-08-13T10:29:24Z</time>
      </trkpt>
      <trkpt lat="44.64426" lon="2.55097">
        <ele>232.1</ele>
        <time>2024-08-13T10:29:25Z</time>
      </trkpt>
      <trkpt lat="44.64421" lon="2.55102">
        <ele>232.2</ele>
        <time>2024-08-13T10:29:26Z</time>
      </trkpt>
      <trkpt lat="44.64413" lon="2.55114">
        <ele>232.2</ele>
        <time>2024-08-13T10:29:28Z</time>
      </trkpt>
      <trkpt lat="44.64404" lon="2.55124">
        <ele>232.3</ele>
        <time>2024-08-13T10:29:30Z</time>
      </trkpt>
      <trkpt lat="44.64395" lon="2.55136">
        <ele>232.3</ele>
        <time>2024-08-13T10:29:32Z</time>
      </trkpt>
      <trkpt lat="44.6439" lon="2.55141">
        <ele>232.4</ele>
        <time>2024-08-13T10:29:33Z</time>
      </trkpt>
      <trkpt lat="44.64386" lon="2.55147">
        <ele>232.5</ele>
        <time>2024-08-13T10:29:34Z</time>
      </trkpt>
      <trkpt lat="44.64377" lon="2.55158">
        <ele>232.6</ele>
        <time>2024-08-13T10:29:36Z</time>
      </trkpt>
      <trkpt lat="44.64368" lon="2.55169">
        <ele>232.6</ele>
        <time>2024-08-13T10:29:38Z</time>
      </trkpt>
      <trkpt lat="44.64358" lon="2.5518">
        <ele>232.7</ele>
        <time>2024-08-13T10:29:40Z</time>
      </trkpt>
      <trkpt lat="44.64349" lon="2.55191">
        <ele>232.8</ele>
        <time>2024-08-13T10:29:42Z</time>
      </trkpt>
      <trkpt lat="44.6434" lon="2.55202">
        <ele>232.9</ele>
        <time>2024-08-13T10:29:44Z</time>
      </trkpt>
      <trkpt lat="44.64331" lon="2.55213">
        <ele>233</ele>
        <time>2024-08-13T10:29:46Z</time>
      </trkpt>
      <trkpt lat="44.64326" lon="2.55219">
        <ele>233</ele>
        <time>2024-08-13T10:29:47Z</time>
      </trkpt>
      <trkpt lat="44.64321" lon="2.55224">
        <ele>233</ele>
        <time>2024-08-13T10:29:48Z</time>
      </trkpt>
      <trkpt lat="44.64312" lon="2.55236">
        <ele>233</ele>
        <time>2024-08-13T10:29:50Z</time>
      </trkpt>
      <trkpt lat="44.64303" lon="2.55249">
        <ele>233</ele>
        <time>2024-08-13T10:29:52Z</time>
      </trkpt>
      <trkpt lat="44.643" lon="2.55255">
        <ele>233.1</ele>
        <time>2024-08-13T10:29:53Z</time>
      </trkpt>
      <trkpt lat="44.64296" lon="2.55262">
        <ele>233.1</ele>
        <time>2024-08-13T10:29:54Z</time>
      </trkpt>
      <trkpt lat="44.64288" lon="2.55276">
        <ele>233.2</ele>
        <time>2024-08-13T10:29:56Z</time>
      </trkpt>
      <trkpt lat="44.64281" lon="2.55289">
        <ele>233.3</ele>
        <time>2024-08-13T10:29:58Z</time>
      </trkpt>
      <trkpt lat="44.64277" lon="2.55296">
        <ele>233.3</ele>
        <time>2024-08-13T10:29:59Z</time>
      </trkpt>
      <trkpt lat="44.64273" lon="2.55302">
        <ele>233.3</ele>
        <time>2024-08-13T10:30:00Z</time>
      </trkpt>
      <trkpt lat="44.64266" lon="2.55316">
        <ele>233.3</ele>
        <time>2024-08-13T10:30:02Z</time>
      </trkpt>
      <trkpt lat="44.64259" lon="2.5533">
        <ele>233.4</ele>
        <time>2024-08-13T10:30:04Z</time>
      </trkpt>
      <trkpt lat="44.64255" lon="2.55337">
        <ele>233.4</ele>
        <time>2024-08-13T10:30:05Z</time>
      </trkpt>
      <trkpt lat="44.64252" lon="2.55344">
        <ele>233.4</ele>
        <time>2024-08-13T10:30:06Z</time>
      </trkpt>
      <trkpt lat="44.64247" lon="2.55361">
        <ele>233.5</ele>
        <time>2024-08-13T10:30:08Z</time>
      </trkpt>
      <trkpt lat="44.64242" lon="2.55377">
        <ele>233.6</ele>
        <time>2024-08-13T10:30:10Z</time>
      </trkpt>
      <trkpt lat="44.64238" lon="2.55394">
        <ele>233.6</ele>
        <time>2024-08-13T10:30:12Z</time>
      </trkpt>
      <trkpt lat="44.64232" lon="2.5541">
        <ele>233.7</ele>
        <time>2024-08-13T10:30:14Z</time>
      </trkpt>
      <trkpt lat="44.64229" lon="2.55418">
        <ele>233.7</ele>
        <time>2024-08-13T10:30:15Z</time>
      </trkpt>
      <trkpt lat="44.64226" lon="2.55426">
        <ele>233.8</ele>
        <time>2024-08-13T10:30:16Z</time>
      </trkpt>
      <trkpt lat="44.64224" lon="2.55434">
        <ele>233.8</ele>
        <time>2024-08-13T10:30:17Z</time>
      </trkpt>
      <trkpt lat="44.64221" lon="2.55442">
        <ele>233.8</ele>
        <time>2024-08-13T10:30:18Z</time>
      </trkpt>
      <trkpt lat="44.64218" lon="2.5545">
        <ele>233.9</ele>
        <time>2024-08-13T10:30:19Z</time>
      </trkpt>
      <trkpt lat="44.64215" lon="2.55457">
        <ele>233.9</ele>
        <time>2024-08-13T10:30:20Z</time>
      </trkpt>
      <trkpt lat="44.64209" lon="2.55472">
        <ele>234</ele>
        <time>2024-08-13T10:30:22Z</time>
      </trkpt>
      <trkpt lat="44.64205" lon="2.55479">
        <ele>234</ele>
        <time>2024-08-13T10:30:23Z</time>
      </trkpt>
      <trkpt lat="44.64202" lon="2.55486">
        <ele>234</ele>
        <time>2024-08-13T10:30:24Z</time>
      </trkpt>
      <trkpt lat="44.64196" lon="2.555">
        <ele>234.1</ele>
        <time>2024-08-13T10:30:26Z</time>
      </trkpt>
      <trkpt lat="44.6419" lon="2.55514">
        <ele>234.1</ele>
        <time>2024-08-13T10:30:28Z</time>
      </trkpt>
      <trkpt lat="44.64185" lon="2.55528">
        <ele>234.1</ele>
        <time>2024-08-13T10:30:30Z</time>
      </trkpt>
      <trkpt lat="44.64182" lon="2.55535">
        <ele>234.2</ele>
        <time>2024-08-13T10:30:31Z</time>
      </trkpt>
      <trkpt lat="44.64179" lon="2.55542">
        <ele>234.2</ele>
        <time>2024-08-13T10:30:32Z</time>
      </trkpt>
      <trkpt lat="44.64174" lon="2.55556">
        <ele>234.2</ele>
        <time>2024-08-13T10:30:34Z</time>
      </trkpt>
      <trkpt lat="44.64168" lon="2.55569">
        <ele>234.3</ele>
        <time>2024-08-13T10:30:36Z</time>
      </trkpt>
      <trkpt lat="44.64162" lon="2.55582">
        <ele>234.3</ele>
        <time>2024-08-13T10:30:38Z</time>
      </trkpt>
      <trkpt lat="44.64157" lon="2.55595">
        <ele>234.3</ele>
        <time>2024-08-13T10:30:40Z</time>
      </trkpt>
      <trkpt lat="44.64151" lon="2.55609">
        <ele>234.3</ele>
        <time>2024-08-13T10:30:42Z</time>
      </trkpt>
      <trkpt lat="44.64145" lon="2.55622">
        <ele>234.3</ele>
        <time>2024-08-13T10:30:44Z</time>
      </trkpt>
      <trkpt lat="44.6414" lon="2.55637">
        <ele>234.3</ele>
        <time>2024-08-13T10:30:46Z</time>
      </trkpt>
      <trkpt lat="44.64134" lon="2.55651">
        <ele>234.3</ele>
        <time>2024-08-13T10:30:48Z</time>
      </trkpt>
      <trkpt lat="44.64128" lon="2.55666">
        <ele>234.2</ele>
        <time>2024-08-13T10:30:50Z</time>
      </trkpt>
      <trkpt lat="44.64122" lon="2.5568">
        <ele>234.2</ele>
        <time>2024-08-13T10:30:52Z</time>
      </trkpt>
      <trkpt lat="44.64116" lon="2.55695">
        <ele>234.2</ele>
        <time>2024-08-13T10:30:54Z</time>
      </trkpt>
      <trkpt lat="44.64113" lon="2.55702">
        <ele>234.2</ele>
        <time>2024-08-13T10:30:55Z</time>
      </trkpt>
      <trkpt lat="44.64109" lon="2.55709">
        <ele>234.2</ele>
        <time>2024-08-13T10:30:56Z</time>
      </trkpt>
      <trkpt lat="44.64102" lon="2.55723">
        <ele>234.2</ele>
        <time>2024-08-13T10:30:58Z</time>
      </trkpt>
      <trkpt lat="44.64094" lon="2.55736">
        <ele>234.1</ele>
        <time>2024-08-13T10:31:00Z</time>
      </trkpt>
      <trkpt lat="44.64087" lon="2.55751">
        <ele>234.2</ele>
        <time>2024-08-13T10:31:02Z</time>
      </trkpt>
      <trkpt lat="44.64081" lon="2.55765">
        <ele>234.2</ele>
        <time>2024-08-13T10:31:04Z</time>
      </trkpt>
      <trkpt lat="44.64075" lon="2.55778">
        <ele>234.3</ele>
        <time>2024-08-13T10:31:06Z</time>
      </trkpt>
      <trkpt lat="44.64069" lon="2.55792">
        <ele>234.3</ele>
        <time>2024-08-13T10:31:08Z</time>
      </trkpt>
      <trkpt lat="44.64065" lon="2.55798">
        <ele>234.3</ele>
        <time>2024-08-13T10:31:09Z</time>
      </trkpt>
      <trkpt lat="44.64062" lon="2.55805">
        <ele>234.3</ele>
        <time>2024-08-13T10:31:10Z</time>
      </trkpt>
      <trkpt lat="44.64055" lon="2.55817">
        <ele>234.3</ele>
        <time>2024-08-13T10:31:12Z</time>
      </trkpt>
      <trkpt lat="44.64048" lon="2.55829">
        <ele>234.2</ele>
        <time>2024-08-13T10:31:14Z</time>
      </trkpt>
      <trkpt lat="44.64041" lon="2.55841">
        <ele>234.2</ele>
        <time>2024-08-13T10:31:16Z</time>
      </trkpt>
      <trkpt lat="44.64033" lon="2.55853">
        <ele>234.3</ele>
        <time>2024-08-13T10:31:18Z</time>
      </trkpt>
      <trkpt lat="44.64026" lon="2.55864">
        <ele>234.3</ele>
        <time>2024-08-13T10:31:20Z</time>
      </trkpt>
      <trkpt lat="44.64019" lon="2.55875">
        <ele>234.3</ele>
        <time>2024-08-13T10:31:22Z</time>
      </trkpt>
      <trkpt lat="44.64011" lon="2.55886">
        <ele>234.3</ele>
        <time>2024-08-13T10:31:24Z</time>
      </trkpt>
      <trkpt lat="44.64008" lon="2.55891">
        <ele>234.3</ele>
        <time>2024-08-13T10:31:25Z</time>
      </trkpt>
      <trkpt lat="44.64004" lon="2.55897">
        <ele>234.3</ele>
        <time>2024-08-13T10:31:26Z</time>
      </trkpt>
      <trkpt lat="44.63997" lon="2.55908">
        <ele>234.4</ele>
        <time>2024-08-13T10:31:28Z</time>
      </trkpt>
      <trkpt lat="44.63989" lon="2.55919">
        <ele>234.4</ele>
        <time>2024-08-13T10:31:30Z</time>
      </trkpt>
      <trkpt lat="44.63982" lon="2.5593">
        <ele>234.5</ele>
        <time>2024-08-13T10:31:32Z</time>
      </trkpt>
      <trkpt lat="44.63975" lon="2.55941">
        <ele>234.5</ele>
        <time>2024-08-13T10:31:34Z</time>
      </trkpt>
      <trkpt lat="44.63968" lon="2.55953">
        <ele>234.5</ele>
        <time>2024-08-13T10:31:36Z</time>
      </trkpt>
      <trkpt lat="44.63965" lon="2.5596">
        <ele>234.5</ele>
        <time>2024-08-13T10:31:37Z</time>
      </trkpt>
      <trkpt lat="44.63962" lon="2.55967">
        <ele>234.5</ele>
        <time>2024-08-13T10:31:38Z</time>
      </trkpt>
      <trkpt lat="44.6396" lon="2.55974">
        <ele>234.5</ele>
        <time>2024-08-13T10:31:39Z</time>
      </trkpt>
      <trkpt lat="44.63959" lon="2.55982">
        <ele>234.5</ele>
        <time>2024-08-13T10:31:40Z</time>
      </trkpt>
      <trkpt lat="44.63958" lon="2.5599">
        <ele>234.5</ele>
        <time>2024-08-13T10:31:41Z</time>
      </trkpt>
      <trkpt lat="44.63957" lon="2.55997">
        <ele>234.6</ele>
        <time>2024-08-13T10:31:42Z</time>
      </trkpt>
      <trkpt lat="44.63957" lon="2.56005">
        <ele>234.6</ele>
        <time>2024-08-13T10:31:43Z</time>
      </trkpt>
      <trkpt lat="44.63957" lon="2.56013">
        <ele>234.6</ele>
        <time>2024-08-13T10:31:44Z</time>
      </trkpt>
      <trkpt lat="44.63958" lon="2.56029">
        <ele>234.6</ele>
        <time>2024-08-13T10:31:46Z</time>
      </trkpt>
      <trkpt lat="44.63957" lon="2.56037">
        <ele>234.6</ele>
        <time>2024-08-13T10:31:47Z</time>
      </trkpt>
      <trkpt lat="44.63956" lon="2.56044">
        <ele>234.6</ele>
        <time>2024-08-13T10:31:48Z</time>
      </trkpt>
      <trkpt lat="44.63956" lon="2.56052">
        <ele>234.7</ele>
        <time>2024-08-13T10:31:49Z</time>
      </trkpt>
      <trkpt lat="44.63956" lon="2.5606">
        <ele>234.7</ele>
        <time>2024-08-13T10:31:50Z</time>
      </trkpt>
      <trkpt lat="44.63957" lon="2.56077">
        <ele>234.8</ele>
        <time>2024-08-13T10:31:52Z</time>
      </trkpt>
      <trkpt lat="44.6396" lon="2.56086">
        <ele>234.9</ele>
        <time>2024-08-13T10:31:53Z</time>
      </trkpt>
      <trkpt lat="44.63963" lon="2.56094">
        <ele>234.9</ele>
        <time>2024-08-13T10:31:54Z</time>
      </trkpt>
      <trkpt lat="44.63973" lon="2.56104">
        <ele>235.1</ele>
        <time>2024-08-13T10:31:56Z</time>
      </trkpt>
      <trkpt lat="44.63984" lon="2.56107">
        <ele>235.1</ele>
        <time>2024-08-13T10:31:58Z</time>
      </trkpt>
      <trkpt lat="44.6399" lon="2.56107">
        <ele>235.1</ele>
        <time>2024-08-13T10:31:59Z</time>
      </trkpt>
      <trkpt lat="44.63996" lon="2.56106">
        <ele>235.1</ele>
        <time>2024-08-13T10:32:00Z</time>
      </trkpt>
      <trkpt lat="44.6401" lon="2.56104">
        <ele>235.1</ele>
        <time>2024-08-13T10:32:02Z</time>
      </trkpt>
      <trkpt lat="44.64023" lon="2.56106">
        <ele>235.1</ele>
        <time>2024-08-13T10:32:04Z</time>
      </trkpt>
      <trkpt lat="44.64035" lon="2.56111">
        <ele>235.2</ele>
        <time>2024-08-13T10:32:06Z</time>
      </trkpt>
      <trkpt lat="44.64048" lon="2.56118">
        <ele>235.3</ele>
        <time>2024-08-13T10:32:08Z</time>
      </trkpt>
      <trkpt lat="44.64054" lon="2.56122">
        <ele>235.4</ele>
        <time>2024-08-13T10:32:09Z</time>
      </trkpt>
      <trkpt lat="44.6406" lon="2.56125">
        <ele>235.5</ele>
        <time>2024-08-13T10:32:10Z</time>
      </trkpt>
      <trkpt lat="44.64072" lon="2.5613">
        <ele>235.6</ele>
        <time>2024-08-13T10:32:12Z</time>
      </trkpt>
      <trkpt lat="44.64077" lon="2.56132">
        <ele>235.6</ele>
        <time>2024-08-13T10:32:13Z</time>
      </trkpt>
      <trkpt lat="44.64083" lon="2.56134">
        <ele>235.6</ele>
        <time>2024-08-13T10:32:14Z</time>
      </trkpt>
      <trkpt lat="44.64094" lon="2.56137">
        <ele>235.6</ele>
        <time>2024-08-13T10:32:16Z</time>
      </trkpt>
      <trkpt lat="44.64099" lon="2.5614">
        <ele>235.6</ele>
        <time>2024-08-13T10:32:17Z</time>
      </trkpt>
      <trkpt lat="44.64105" lon="2.56144">
        <ele>235.5</ele>
        <time>2024-08-13T10:32:18Z</time>
      </trkpt>
      <trkpt lat="44.64116" lon="2.56151">
        <ele>235.5</ele>
        <time>2024-08-13T10:32:20Z</time>
      </trkpt>
      <trkpt lat="44.64122" lon="2.56154">
        <ele>235.6</ele>
        <time>2024-08-13T10:32:21Z</time>
      </trkpt>
      <trkpt lat="44.64128" lon="2.56156">
        <ele>235.6</ele>
        <time>2024-08-13T10:32:22Z</time>
      </trkpt>
      <trkpt lat="44.64134" lon="2.56159">
        <ele>235.6</ele>
        <time>2024-08-13T10:32:23Z</time>
      </trkpt>
      <trkpt lat="44.64139" lon="2.56161">
        <ele>235.6</ele>
        <time>2024-08-13T10:32:24Z</time>
      </trkpt>
      <trkpt lat="44.6415" lon="2.56165">
        <ele>235.6</ele>
        <time>2024-08-13T10:32:26Z</time>
      </trkpt>
      <trkpt lat="44.64156" lon="2.56167">
        <ele>235.6</ele>
        <time>2024-08-13T10:32:27Z</time>
      </trkpt>
      <trkpt lat="44.64161" lon="2.56168">
        <ele>235.7</ele>
        <time>2024-08-13T10:32:28Z</time>
      </trkpt>
      <trkpt lat="44.64173" lon="2.56172">
        <ele>235.7</ele>
        <time>2024-08-13T10:32:30Z</time>
      </trkpt>
      <trkpt lat="44.64179" lon="2.56173">
        <ele>235.7</ele>
        <time>2024-08-13T10:32:31Z</time>
      </trkpt>
      <trkpt lat="44.64185" lon="2.56176">
        <ele>235.7</ele>
        <time>2024-08-13T10:32:32Z</time>
      </trkpt>
      <trkpt lat="44.64196" lon="2.56181">
        <ele>235.6</ele>
        <time>2024-08-13T10:32:34Z</time>
      </trkpt>
      <trkpt lat="44.64208" lon="2.56187">
        <ele>235.6</ele>
        <time>2024-08-13T10:32:36Z</time>
      </trkpt>
      <trkpt lat="44.64213" lon="2.5619">
        <ele>235.5</ele>
        <time>2024-08-13T10:32:37Z</time>
      </trkpt>
      <trkpt lat="44.64219" lon="2.56193">
        <ele>235.5</ele>
        <time>2024-08-13T10:32:38Z</time>
      </trkpt>
      <trkpt lat="44.64229" lon="2.56197">
        <ele>235.5</ele>
        <time>2024-08-13T10:32:40Z</time>
      </trkpt>
      <trkpt lat="44.64238" lon="2.56199">
        <ele>235.5</ele>
        <time>2024-08-13T10:32:42Z</time>
      </trkpt>
      <trkpt lat="44.64249" lon="2.562">
        <ele>235.6</ele>
        <time>2024-08-13T10:32:44Z</time>
      </trkpt>
      <trkpt lat="44.6426" lon="2.562">
        <ele>235.6</ele>
        <time>2024-08-13T10:32:46Z</time>
      </trkpt>
      <trkpt lat="44.64269" lon="2.56199">
        <ele>235.7</ele>
        <time>2024-08-13T10:32:48Z</time>
      </trkpt>
      <trkpt lat="44.64279" lon="2.56198">
        <ele>235.7</ele>
        <time>2024-08-13T10:32:50Z</time>
      </trkpt>
      <trkpt lat="44.64289" lon="2.56198">
        <ele>235.7</ele>
        <time>2024-08-13T10:32:52Z</time>
      </trkpt>
      <trkpt lat="44.64294" lon="2.56198">
        <ele>235.7</ele>
        <time>2024-08-13T10:32:53Z</time>
      </trkpt>
      <trkpt lat="44.64299" lon="2.56198">
        <ele>235.7</ele>
        <time>2024-08-13T10:32:54Z</time>
      </trkpt>
      <trkpt lat="44.64309" lon="2.56199">
        <ele>235.7</ele>
        <time>2024-08-13T10:32:56Z</time>
      </trkpt>
      <trkpt lat="44.6432" lon="2.56198">
        <ele>235.7</ele>
        <time>2024-08-13T10:32:58Z</time>
      </trkpt>
      <trkpt lat="44.6433" lon="2.56195">
        <ele>235.7</ele>
        <time>2024-08-13T10:33:00Z</time>
      </trkpt>
      <trkpt lat="44.64341" lon="2.56193">
        <ele>235.8</ele>
        <time>2024-08-13T10:33:02Z</time>
      </trkpt>
      <trkpt lat="44.64346" lon="2.56193">
        <ele>235.8</ele>
        <time>2024-08-13T10:33:03Z</time>
      </trkpt>
      <trkpt lat="44.64352" lon="2.56191">
        <ele>235.8</ele>
        <time>2024-08-13T10:33:04Z</time>
      </trkpt>
      <trkpt lat="44.64362" lon="2.56189">
        <ele>235.8</ele>
        <time>2024-08-13T10:33:06Z</time>
      </trkpt>
      <trkpt lat="44.64373" lon="2.56188">
        <ele>235.8</ele>
        <time>2024-08-13T10:33:08Z</time>
      </trkpt>
      <trkpt lat="44.64384" lon="2.56188">
        <ele>235.7</ele>
        <time>2024-08-13T10:33:10Z</time>
      </trkpt>
      <trkpt lat="44.64389" lon="2.56189">
        <ele>235.7</ele>
        <time>2024-08-13T10:33:11Z</time>
      </trkpt>
      <trkpt lat="44.64394" lon="2.56189">
        <ele>235.7</ele>
        <time>2024-08-13T10:33:12Z</time>
      </trkpt>
      <trkpt lat="44.64403" lon="2.5619">
        <ele>235.6</ele>
        <time>2024-08-13T10:33:14Z</time>
      </trkpt>
      <trkpt lat="44.64413" lon="2.56191">
        <ele>235.5</ele>
        <time>2024-08-13T10:33:16Z</time>
      </trkpt>
      <trkpt lat="44.64418" lon="2.56192">
        <ele>235.5</ele>
        <time>2024-08-13T10:33:17Z</time>
      </trkpt>
      <trkpt lat="44.64423" lon="2.56194">
        <ele>235.5</ele>
        <time>2024-08-13T10:33:18Z</time>
      </trkpt>
      <trkpt lat="44.64433" lon="2.56197">
        <ele>235.5</ele>
        <time>2024-08-13T10:33:20Z</time>
      </trkpt>
      <trkpt lat="44.64443" lon="2.56199">
        <ele>235.5</ele>
        <time>2024-08-13T10:33:22Z</time>
      </trkpt>
      <trkpt lat="44.64453" lon="2.56199">
        <ele>235.6</ele>
        <time>2024-08-13T10:33:24Z</time>
      </trkpt>
      <trkpt lat="44.64463" lon="2.56199">
        <ele>235.7</ele>
        <time>2024-08-13T10:33:26Z</time>
      </trkpt>
      <trkpt lat="44.64473" lon="2.562">
        <ele>235.8</ele>
        <time>2024-08-13T10:33:28Z</time>
      </trkpt>
      <trkpt lat="44.64483" lon="2.562">
        <ele>235.9</ele>
        <time>2024-08-13T10:33:30Z</time>
      </trkpt>
      <trkpt lat="44.64493" lon="2.562">
        <ele>236</ele>
        <time>2024-08-13T10:33:32Z</time>
      </trkpt>
      <trkpt lat="44.64498" lon="2.56201">
        <ele>236</ele>
        <time>2024-08-13T10:33:33Z</time>
      </trkpt>
      <trkpt lat="44.64503" lon="2.56202">
        <ele>236</ele>
        <time>2024-08-13T10:33:34Z</time>
      </trkpt>
      <trkpt lat="44.64508" lon="2.56204">
        <ele>236</ele>
        <time>2024-08-13T10:33:35Z</time>
      </trkpt>
      <trkpt lat="44.64513" lon="2.56205">
        <ele>236.1</ele>
        <time>2024-08-13T10:33:36Z</time>
      </trkpt>
      <trkpt lat="44.64524" lon="2.56208">
        <ele>236.1</ele>
        <time>2024-08-13T10:33:38Z</time>
      </trkpt>
      <trkpt lat="44.64534" lon="2.5621">
        <ele>236.2</ele>
        <time>2024-08-13T10:33:40Z</time>
      </trkpt>
      <trkpt lat="44.64544" lon="2.56213">
        <ele>236.4</ele>
        <time>2024-08-13T10:33:42Z</time>
      </trkpt>
      <trkpt lat="44.64548" lon="2.56215">
        <ele>236.4</ele>
        <time>2024-08-13T10:33:43Z</time>
      </trkpt>
      <trkpt lat="44.64552" lon="2.56218">
        <ele>236.5</ele>
        <time>2024-08-13T10:33:44Z</time>
      </trkpt>
      <trkpt lat="44.64562" lon="2.56223">
        <ele>236.6</ele>
        <time>2024-08-13T10:33:46Z</time>
      </trkpt>
      <trkpt lat="44.6457" lon="2.56226">
        <ele>236.7</ele>
        <time>2024-08-13T10:33:48Z</time>
      </trkpt>
      <trkpt lat="44.64579" lon="2.5623">
        <ele>236.7</ele>
        <time>2024-08-13T10:33:50Z</time>
      </trkpt>
      <trkpt lat="44.64584" lon="2.56233">
        <ele>236.8</ele>
        <time>2024-08-13T10:33:51Z</time>
      </trkpt>
      <trkpt lat="44.64587" lon="2.56236">
        <ele>236.8</ele>
        <time>2024-08-13T10:33:52Z</time>
      </trkpt>
      <trkpt lat="44.64591" lon="2.56239">
        <ele>236.8</ele>
        <time>2024-08-13T10:33:53Z</time>
      </trkpt>
      <trkpt lat="44.64596" lon="2.56242">
        <ele>236.8</ele>
        <time>2024-08-13T10:33:54Z</time>
      </trkpt>
      <trkpt lat="44.64605" lon="2.56249">
        <ele>236.9</ele>
        <time>2024-08-13T10:33:56Z</time>
      </trkpt>
      <trkpt lat="44.6461" lon="2.56252">
        <ele>236.9</ele>
        <time>2024-08-13T10:33:57Z</time>
      </trkpt>
      <trkpt lat="44.64615" lon="2.56256">
        <ele>236.9</ele>
        <time>2024-08-13T10:33:58Z</time>
      </trkpt>
      <trkpt lat="44.6462" lon="2.5626">
        <ele>236.9</ele>
        <time>2024-08-13T10:33:59Z</time>
      </trkpt>
      <trkpt lat="44.64625" lon="2.56264">
        <ele>236.9</ele>
        <time>2024-08-13T10:34:00Z</time>
      </trkpt>
      <trkpt lat="44.6463" lon="2.56268">
        <ele>236.9</ele>
        <time>2024-08-13T10:34:01Z</time>
      </trkpt>
      <trkpt lat="44.64634" lon="2.56272">
        <ele>236.9</ele>
        <time>2024-08-13T10:34:02Z</time>
      </trkpt>
      <trkpt lat="44.64644" lon="2.56283">
        <ele>237</ele>
        <time>2024-08-13T10:34:04Z</time>
      </trkpt>
      <trkpt lat="44.64653" lon="2.56292">
        <ele>237</ele>
        <time>2024-08-13T10:34:06Z</time>
      </trkpt>
      <trkpt lat="44.64661" lon="2.56301">
        <ele>237</ele>
        <time>2024-08-13T10:34:08Z</time>
      </trkpt>
      <trkpt lat="44.64668" lon="2.56309">
        <ele>237</ele>
        <time>2024-08-13T10:34:10Z</time>
      </trkpt>
      <trkpt lat="44.64675" lon="2.56317">
        <ele>237.1</ele>
        <time>2024-08-13T10:34:12Z</time>
      </trkpt>
      <trkpt lat="44.64681" lon="2.56323">
        <ele>237.1</ele>
        <time>2024-08-13T10:34:14Z</time>
      </trkpt>
      <trkpt lat="44.64689" lon="2.5633">
        <ele>237.1</ele>
        <time>2024-08-13T10:34:16Z</time>
      </trkpt>
      <trkpt lat="44.64694" lon="2.56336">
        <ele>237.1</ele>
        <time>2024-08-13T10:34:17Z</time>
      </trkpt>
      <trkpt lat="44.64699" lon="2.56341">
        <ele>237.1</ele>
        <time>2024-08-13T10:34:18Z</time>
      </trkpt>
      <trkpt lat="44.64709" lon="2.56351">
        <ele>237.1</ele>
        <time>2024-08-13T10:34:20Z</time>
      </trkpt>
      <trkpt lat="44.64719" lon="2.56361">
        <ele>237.1</ele>
        <time>2024-08-13T10:34:22Z</time>
      </trkpt>
      <trkpt lat="44.64724" lon="2.56366">
        <ele>237.1</ele>
        <time>2024-08-13T10:34:23Z</time>
      </trkpt>
      <trkpt lat="44.6473" lon="2.56372">
        <ele>237.1</ele>
        <time>2024-08-13T10:34:24Z</time>
      </trkpt>
      <trkpt lat="44.6474" lon="2.56382">
        <ele>237.1</ele>
        <time>2024-08-13T10:34:26Z</time>
      </trkpt>
      <trkpt lat="44.64749" lon="2.5639">
        <ele>237.1</ele>
        <time>2024-08-13T10:34:28Z</time>
      </trkpt>
      <trkpt lat="44.64753" lon="2.56393">
        <ele>237.1</ele>
        <time>2024-08-13T10:34:29Z</time>
      </trkpt>
      <trkpt lat="44.64757" lon="2.56396">
        <ele>237.1</ele>
        <time>2024-08-13T10:34:30Z</time>
      </trkpt>
      <trkpt lat="44.64766" lon="2.56401">
        <ele>237.1</ele>
        <time>2024-08-13T10:34:32Z</time>
      </trkpt>
      <trkpt lat="44.6477" lon="2.56404">
        <ele>237.1</ele>
        <time>2024-08-13T10:34:33Z</time>
      </trkpt>
      <trkpt lat="44.64774" lon="2.56408">
        <ele>237.1</ele>
        <time>2024-08-13T10:34:34Z</time>
      </trkpt>
      <trkpt lat="44.64783" lon="2.56416">
        <ele>237.2</ele>
        <time>2024-08-13T10:34:36Z</time>
      </trkpt>
      <trkpt lat="44.64793" lon="2.56425">
        <ele>237.2</ele>
        <time>2024-08-13T10:34:38Z</time>
      </trkpt>
      <trkpt lat="44.648" lon="2.56432">
        <ele>237.2</ele>
        <time>2024-08-13T10:34:40Z</time>
      </trkpt>
      <trkpt lat="44.64808" lon="2.56442">
        <ele>237.3</ele>
        <time>2024-08-13T10:34:42Z</time>
      </trkpt>
      <trkpt lat="44.64812" lon="2.56448">
        <ele>237.3</ele>
        <time>2024-08-13T10:34:43Z</time>
      </trkpt>
      <trkpt lat="44.64815" lon="2.56453">
        <ele>237.4</ele>
        <time>2024-08-13T10:34:44Z</time>
      </trkpt>
      <trkpt lat="44.64823" lon="2.56465">
        <ele>237.4</ele>
        <time>2024-08-13T10:34:46Z</time>
      </trkpt>
      <trkpt lat="44.64831" lon="2.56475">
        <ele>237.4</ele>
        <time>2024-08-13T10:34:48Z</time>
      </trkpt>
      <trkpt lat="44.64835" lon="2.5648">
        <ele>237.5</ele>
        <time>2024-08-13T10:34:49Z</time>
      </trkpt>
      <trkpt lat="44.64839" lon="2.56484">
        <ele>237.5</ele>
        <time>2024-08-13T10:34:50Z</time>
      </trkpt>
      <trkpt lat="44.64848" lon="2.56491">
        <ele>237.6</ele>
        <time>2024-08-13T10:34:52Z</time>
      </trkpt>
      <trkpt lat="44.64853" lon="2.56495">
        <ele>237.6</ele>
        <time>2024-08-13T10:34:53Z</time>
      </trkpt>
      <trkpt lat="44.64857" lon="2.56498">
        <ele>237.6</ele>
        <time>2024-08-13T10:34:54Z</time>
      </trkpt>
      <trkpt lat="44.64861" lon="2.56501">
        <ele>237.7</ele>
        <time>2024-08-13T10:34:55Z</time>
      </trkpt>
      <trkpt lat="44.64865" lon="2.56503">
        <ele>237.7</ele>
        <time>2024-08-13T10:34:56Z</time>
      </trkpt>
      <trkpt lat="44.64869" lon="2.56506">
        <ele>237.8</ele>
        <time>2024-08-13T10:34:57Z</time>
      </trkpt>
      <trkpt lat="44.64874" lon="2.56509">
        <ele>237.8</ele>
        <time>2024-08-13T10:34:58Z</time>
      </trkpt>
      <trkpt lat="44.64883" lon="2.56517">
        <ele>237.8</ele>
        <time>2024-08-13T10:35:00Z</time>
      </trkpt>
      <trkpt lat="44.64893" lon="2.56525">
        <ele>237.9</ele>
        <time>2024-08-13T10:35:02Z</time>
      </trkpt>
      <trkpt lat="44.64901" lon="2.56533">
        <ele>237.9</ele>
        <time>2024-08-13T10:35:04Z</time>
      </trkpt>
      <trkpt lat="44.64909" lon="2.5654">
        <ele>238</ele>
        <time>2024-08-13T10:35:06Z</time>
      </trkpt>
      <trkpt lat="44.64916" lon="2.56547">
        <ele>238</ele>
        <time>2024-08-13T10:35:08Z</time>
      </trkpt>
      <trkpt lat="44.64924" lon="2.56554">
        <ele>238.1</ele>
        <time>2024-08-13T10:35:10Z</time>
      </trkpt>
      <trkpt lat="44.64932" lon="2.56562">
        <ele>238.3</ele>
        <time>2024-08-13T10:35:12Z</time>
      </trkpt>
      <trkpt lat="44.6494" lon="2.56569">
        <ele>238.4</ele>
        <time>2024-08-13T10:35:14Z</time>
      </trkpt>
      <trkpt lat="44.64944" lon="2.56573">
        <ele>238.4</ele>
        <time>2024-08-13T10:35:15Z</time>
      </trkpt>
      <trkpt lat="44.64948" lon="2.56577">
        <ele>238.5</ele>
        <time>2024-08-13T10:35:16Z</time>
      </trkpt>
      <trkpt lat="44.64955" lon="2.56585">
        <ele>238.6</ele>
        <time>2024-08-13T10:35:18Z</time>
      </trkpt>
      <trkpt lat="44.64962" lon="2.56593">
        <ele>238.7</ele>
        <time>2024-08-13T10:35:20Z</time>
      </trkpt>
      <trkpt lat="44.64966" lon="2.56597">
        <ele>238.8</ele>
        <time>2024-08-13T10:35:21Z</time>
      </trkpt>
      <trkpt lat="44.64969" lon="2.56602">
        <ele>238.9</ele>
        <time>2024-08-13T10:35:22Z</time>
      </trkpt>
      <trkpt lat="44.64976" lon="2.56611">
        <ele>239.1</ele>
        <time>2024-08-13T10:35:24Z</time>
      </trkpt>
      <trkpt lat="44.64983" lon="2.5662">
        <ele>239.4</ele>
        <time>2024-08-13T10:35:26Z</time>
      </trkpt>
      <trkpt lat="44.64986" lon="2.56624">
        <ele>239.4</ele>
        <time>2024-08-13T10:35:27Z</time>
      </trkpt>
    </trkseg>
  </trk>
</gpx>